# Wetter Temperatur Luftdruck Luftfeuchtigkeit Sichtweite Windgeschwindigkeit Windrichtung Zeit
1 Clouds 24 1007 100 10000 3.6 300 15:24 01.02.2023
2 Clouds 25 1007 90 10000 2.22 14 13:20 01.02.2023
3 Clouds 25 1007 94 10000 2.06 300 12:59 01.02.2023
4 Clouds 26 1007 85 10000 2.35 353 11:57 01.02.2023
5 Clouds 25 1006 94 10000 7.72 330 09:38 01.02.2023
6 Clouds 31 1007 70 10000 5.14 310 03:18 01.02.2023
7 Clouds 24 1007 94 10000 2.57 350 21:44 31.01.2023
8 Clouds 24 1006 100 10000 2.57 330 19:57 31.01.2023
9 Clouds 24 1006 100 10000 2.57 330 18:50 31.01.2023
10 Clouds 25 1007 100 10000 3.6 10 16:20 31.01.2023
11 Clouds 25 1008 94 10000 3.09 340 15:36 31.01.2023
12 Clouds 26 1007 89 10000 3.47 354 15:18 31.01.2023
13 Clouds 26 1007 89 10000 5.14 310 12:24 31.01.2023
14 Rain 27 1007 83 10000 1.8 330 11:20 31.01.2023
15 Rain 27 1006 83 10000 1.54 0 09:53 31.01.2023
16 Rain 30 1005 74 10000 5.14 300 08:59 31.01.2023
17 Rain 30 1005 74 10000 5.14 300 08:35 31.01.2023
18 Clouds 33 1004 70 10000 5.14 260 05:39 31.01.2023
19 Clouds 27 1008 76 10000 1.99 1 23:56 30.01.2023
20 Clouds 24 1008 94 10000 2.57 320 22:51 30.01.2023
21 Clouds 24 1008 94 10000 2.57 320 22:30 30.01.2023
22 Clouds 24 1006 94 10000 2.57 320 20:48 30.01.2023
23 Clouds 24 1006 94 10000 2.57 320 19:53 30.01.2023
24 Clouds 24 1006 94 10000 2.57 330 17:30 30.01.2023
25 Clouds 24 1007 100 10000 2.57 320 16:26 30.01.2023
26 Clouds 25 1008 94 10000 1.54 0 14:27 30.01.2023
27 Rain 26 1007 84 10000 1.38 15 12:26 30.01.2023
28 Rain 26 1007 83 10000 0.83 344 10:43 30.01.2023
29 Haze 30 1006 79 10000 5.14 300 09:54 30.01.2023
30 Clouds 30 1006 79 10000 5.14 250 08:41 30.01.2023
31 Haze 32 1004 70 10000 7.72 260 06:40 30.01.2023
32 Clouds 31 1009 70 10000 5.14 340 01:38 30.01.2023
33 Clouds 27 1008 89 10000 2.57 320 23:34 29.01.2023
34 Clouds 26 1008 94 10000 2.57 320 22:37 29.01.2023
35 Clouds 24 1007 100 10000 2.06 0 21:30 29.01.2023
36 Clouds 25 1006 94 10000 2.57 0 20:36 29.01.2023
37 Rain 24 1006 100 10000 1.54 0 19:33 29.01.2023
38 Rain 25 1006 94 10000 2.57 300 18:41 29.01.2023
39 Rain 25 1006 94 10000 2.06 320 17:28 29.01.2023
40 Clouds 25 1007 89 10000 1.61 15 16:20 29.01.2023
41 Clouds 25 1007 89 10000 1.61 15 16:20 29.01.2023
42 Clouds 25 1008 94 10000 2.57 330 14:21 29.01.2023
43 Clouds 25 1008 100 10000 3.6 330 13:25 29.01.2023
44 Clouds 25 1008 100 10000 5.14 300 12:39 29.01.2023
45 Clouds 25 1008 100 10000 5.14 300 12:20 29.01.2023
46 Clouds 26 1007 94 10000 5.14 310 11:38 29.01.2023
47 Clouds 27 1007 89 10000 3.6 330 10:54 29.01.2023
48 Haze 29 1005 79 10000 5.14 180 08:55 29.01.2023
49 Clouds 29 1005 74 10000 3.11 230 05:45 29.01.2023
50 Clouds 27 1008 89 10000 2.57 310 23:55 28.01.2023
51 Clouds 24 1007 100 10000 1.54 320 21:30 28.01.2023
52 Clouds 25 1006 100 10000 2.57 320 19:59 28.01.2023
53 Clouds 25 1006 100 10000 2.57 320 19:25 28.01.2023
54 Clouds 25 1006 100 10000 2.57 320 17:49 28.01.2023
55 Clouds 25 1006 100 10000 2.57 320 16:57 28.01.2023
56 Rain 26 1005 86 10000 1.5 50 16:19 28.01.2023
57 Rain 25 1007 94 10000 2.57 10 15:37 28.01.2023
58 Rain 26 1006 83 10000 1.74 103 13:51 28.01.2023
59 Rain 27 1007 94 10000 1.54 0 12:45 28.01.2023
60 Haze 29 1005 79 10000 5.14 200 10:35 28.01.2023
61 Haze 30 1004 70 10000 5.14 200 09:54 28.01.2023
62 Clouds 32 1003 66 10000 5.14 200 05:57 28.01.2023
63 Clouds 31 1007 79 10000 5.14 330 01:32 28.01.2023
64 Clouds 27 1007 79 10000 2.4 331 00:21 28.01.2023
65 Clouds 25 1005 88 10000 2.21 354 20:35 27.01.2023
66 Clouds 25 1004 94 10000 1.54 0 17:58 27.01.2023
67 Clouds 25 1004 94 10000 1.54 0 17:21 27.01.2023
68 Clouds 25 1005 94 10000 1.54 0 16:58 27.01.2023
69 Clouds 25 1005 94 10000 1.54 0 16:21 27.01.2023
70 Clouds 26 1006 83 10000 1.04 79 14:28 27.01.2023
71 Clouds 26 1005 94 10000 1.54 0 13:44 27.01.2023
72 Clouds 27 1004 89 10000 1.54 150 11:51 27.01.2023
73 Haze 30 1003 70 10000 5.14 190 08:35 27.01.2023
74 Clouds 28 1007 69 10000 0.82 190 00:45 27.01.2023
75 Clouds 24 1006 94 10000 2.57 320 22:45 26.01.2023
76 Fog 23 1005 100 10000 2.57 320 20:57 26.01.2023
77 Fog 23 1005 100 10000 2.57 320 20:30 26.01.2023
78 Fog 23 1004 100 10000 2.57 0 18:20 26.01.2023
79 Fog 24 1005 94 10000 2.57 0 16:57 26.01.2023
80 Fog 24 1005 94 10000 2.57 0 16:24 26.01.2023
81 Clouds 24 1006 100 10000 1.54 0 15:43 26.01.2023
82 Clouds 24 1006 100 10000 1.54 0 15:25 26.01.2023
83 Rain 25 1007 94 10000 1.54 0 13:54 26.01.2023
84 Rain 25 1007 100 10000 1.54 0 12:35 26.01.2023
85 Rain 25 1006 100 10000 2.06 0 10:59 26.01.2023
86 Rain 25 1006 100 10000 2.06 0 10:26 26.01.2023
87 Rain 25 1006 94 10000 1.54 0 09:42 26.01.2023
88 Rain 25 1005 94 10000 1.54 0 08:25 26.01.2023
89 Clouds 27 1008 80 10000 1.57 334 23:58 25.01.2023
90 Clouds 27 1008 80 10000 1.57 334 23:37 25.01.2023
91 Fog 24 1007 94 10000 2.57 300 21:54 25.01.2023
92 Fog 24 1007 94 10000 2.57 300 21:20 25.01.2023
93 Clouds 24 1006 100 10000 1.54 0 18:31 25.01.2023
94 Clouds 24 1006 94 10000 1.54 0 17:29 25.01.2023
95 Clouds 24 1007 100 10000 2.06 0 15:40 25.01.2023
96 Clouds 24 1009 100 10000 2.06 0 12:51 25.01.2023
97 Thunderstorm 24 1008 100 7000 3.09 350 10:46 25.01.2023
98 Rain 24 1007 94 5000 3.09 30 09:41 25.01.2023
99 Rain 28 1004 89 10000 7.72 240 06:57 25.01.2023
100 Clouds 30 1008 79 10000 2.57 320 01:26 25.01.2023
101 Haze 27 1007 89 10000 3.6 320 23:56 24.01.2023
102 Haze 24 1006 100 10000 2.57 330 21:31 24.01.2023
103 Clouds 24 1005 94 10000 2.57 350 19:58 24.01.2023
104 Clouds 24 1005 94 10000 2.57 350 18:32 24.01.2023
105 Clouds 25 1005 89 10000 1.63 35 17:20 24.01.2023
106 Clouds 25 1006 94 10000 1.54 0 16:52 24.01.2023
107 Clouds 24 1006 100 10000 1.54 0 15:21 24.01.2023
108 Clouds 26 1006 94 10000 1.54 0 12:56 24.01.2023
109 Clouds 26 1006 94 10000 1.54 0 11:20 24.01.2023
110 Haze 28 1004 89 10000 4.12 150 08:22 24.01.2023
111 Haze 29 1004 79 10000 5.14 180 07:51 24.01.2023
112 Haze 32 1004 70 10000 5.14 210 05:31 24.01.2023
113 Haze 30 1007 79 10000 5.14 340 01:29 24.01.2023
114 Haze 27 1008 83 10000 5.14 340 23:51 23.01.2023
115 Haze 25 1007 94 10000 1.54 0 22:20 23.01.2023
116 Clouds 25 1005 89 10000 1.76 23 19:46 23.01.2023
117 Clouds 24 1005 100 10000 2.57 300 18:26 23.01.2023
118 Clouds 25 1005 88 10000 1.34 27 16:19 23.01.2023
119 Clouds 26 1007 94 10000 2.06 310 14:45 23.01.2023
120 Clouds 25 1007 100 10000 2.06 340 13:44 23.01.2023
121 Clouds 26 1007 94 10000 3.09 340 12:54 23.01.2023
122 Rain 25 1007 90 10000 2.02 129 11:44 23.01.2023
123 Haze 29 1004 79 10000 5.14 180 08:49 23.01.2023
124 Haze 29 1003 79 10000 5.14 170 07:38 23.01.2023
125 Haze 28 1006 78 10000 1.54 0 23:31 22.01.2023
126 Clouds 24 1005 100 10000 1.54 310 21:48 22.01.2023
127 Clouds 24 1004 100 10000 1.54 310 20:53 22.01.2023
128 Clouds 24 1004 100 10000 2.57 320 19:53 22.01.2023
129 Clouds 24 1004 100 10000 2.57 320 19:20 22.01.2023
130 Clouds 25 1004 83 10000 1.94 102 18:18 22.01.2023
131 Clouds 25 1005 94 10000 1.54 320 17:44 22.01.2023
132 Clouds 25 1005 94 10000 2.57 310 16:55 22.01.2023
133 Clouds 26 1007 89 10000 2.57 340 14:55 22.01.2023
134 Clouds 26 1007 94 10000 1.54 0 13:50 22.01.2023
135 Rain 27 1006 89 10000 2.57 120 12:54 22.01.2023
136 Haze 28 1006 83 10000 5.14 140 11:56 22.01.2023
137 Haze 29 1005 79 10000 5.14 150 09:55 22.01.2023
138 Haze 29 1004 79 10000 5.14 150 08:44 22.01.2023
139 Haze 31 1006 62 10000 3.09 140 02:54 22.01.2023
140 Clouds 28 1007 70 10000 1.34 137 23:42 21.01.2023
141 Clouds 24 1007 94 10000 1.54 0 22:47 21.01.2023
142 Clouds 23 1005 100 10000 1.54 0 20:43 21.01.2023
143 Clouds 24 1005 94 10000 1.54 0 18:48 21.01.2023
144 Clouds 25 1007 94 10000 1.54 0 14:57 21.01.2023
145 Clouds 25 1007 94 10000 1.54 0 12:59 21.01.2023
146 Clouds 25 1007 94 10000 1.54 0 12:40 21.01.2023
147 Clouds 26 1007 89 10000 1.54 0 11:27 21.01.2023
148 Clouds 27 1006 78 10000 1.54 0 10:46 21.01.2023
149 Clouds 31 1005 62 10000 7.72 310 05:40 21.01.2023
150 Clouds 24 1009 94 3000 7.72 330 22:50 20.01.2023
151 Clouds 24 1009 94 3000 7.72 330 22:26 20.01.2023
152 Clouds 24 1007 100 10000 2.57 320 21:35 20.01.2023
153 Clouds 24 1006 100 10000 4.12 310 20:39 20.01.2023
154 Clouds 25 1007 94 10000 2.57 340 17:59 20.01.2023
155 Clouds 25 1008 94 10000 5.14 320 15:26 20.01.2023
156 Clouds 25 1008 94 10000 2.57 310 14:32 20.01.2023
157 Rain 26 1007 82 10000 3.39 337 11:59 20.01.2023
158 Haze 30 1004 66 10000 7.72 320 08:59 20.01.2023
159 Haze 30 1004 62 10000 7.72 310 07:40 20.01.2023
160 Clouds 30 1006 70 10000 5.14 340 02:33 20.01.2023
161 Rain 24 1006 88 10000 3.09 330 22:37 19.01.2023
162 Clouds 25 1007 89 10000 5.68 319 21:47 19.01.2023
163 Rain 25 1006 85 10000 5.5 325 19:38 19.01.2023
164 Clouds 26 1005 83 10000 5.72 321 18:56 19.01.2023
165 Rain 23 1009 100 10000 5.66 340 14:55 19.01.2023
166 Rain 25 1006 94 10000 4.12 320 10:44 19.01.2023
167 Clouds 27 1004 83 10000 5.14 340 08:58 19.01.2023
168 Clouds 25 1005 94 10000 2.57 300 22:41 18.01.2023
169 Rain 24 1003 94 10000 2.57 340 20:36 18.01.2023
170 Clouds 24 1003 94 10000 2.57 340 20:18 18.01.2023
171 Clouds 24 1004 100 10000 2.57 320 19:35 18.01.2023
172 Clouds 25 1005 94 10000 2.57 310 16:47 18.01.2023
173 Clouds 26 1007 84 10000 2.8 1 14:21 18.01.2023
174 Clouds 27 1007 83 10000 5.14 350 12:43 18.01.2023
175 Clouds 29 1005 74 10000 5.14 310 10:28 18.01.2023
176 Clouds 32 1004 70 10000 5.14 290 06:46 18.01.2023
177 Haze 31 1008 66 10000 4.12 330 01:24 18.01.2023
178 Haze 22 1007 94 10000 5.14 320 21:53 17.01.2023
179 Clouds 23 1006 94 10000 5.14 320 19:44 17.01.2023
180 Clouds 23 1007 94 10000 5.14 320 18:53 17.01.2023
181 Clouds 24 1008 94 10000 2.57 320 17:41 17.01.2023
182 Clouds 24 1010 94 10000 3.6 340 15:28 17.01.2023
183 Clouds 25 1010 88 10000 3.6 340 14:50 17.01.2023
184 Clouds 26 1010 81 10000 1.85 0 13:33 17.01.2023
185 Clouds 26 1010 89 10000 3.6 320 11:47 17.01.2023
186 Rain 27 1009 83 10000 3.09 340 10:33 17.01.2023
187 Rain 30 1008 66 10000 5.14 260 08:55 17.01.2023
188 Haze 31 1007 62 10000 5.14 240 07:34 17.01.2023
189 Clouds 33 1009 58 10000 5.14 350 03:49 17.01.2023
190 Clear 29 1011 74 10000 5.14 350 00:48 17.01.2023
191 Clouds 23 1010 94 10000 5.14 320 22:38 16.01.2023
192 Clouds 22 1009 94 10000 5.14 310 21:44 16.01.2023
193 Clouds 22 1008 100 10000 5.14 310 19:55 16.01.2023
194 Clouds 22 1008 100 10000 5.14 310 19:18 16.01.2023
195 Clouds 22 1009 100 10000 5.14 310 18:48 16.01.2023
196 Clouds 24 1009 91 10000 3.53 348 18:18 16.01.2023
197 Clouds 23 1010 100 10000 5.14 330 17:20 16.01.2023
198 Rain 23 1012 100 10000 5.14 320 14:19 16.01.2023
199 Rain 23 1012 100 10000 1.54 0 13:36 16.01.2023
200 Rain 23 1011 100 10000 1.54 0 10:25 16.01.2023
201 Rain 23 1010 100 5000 5.14 20 08:23 16.01.2023
202 Clouds 25 1010 94 10000 5.14 330 22:44 15.01.2023
203 Clouds 25 1008 94 10000 2.57 340 21:23 15.01.2023
204 Clouds 25 1007 94 10000 2.57 340 20:28 15.01.2023
205 Clouds 26 1007 84 10000 1.57 34 19:31 15.01.2023
206 Clouds 25 1007 94 10000 1.54 0 17:24 15.01.2023
207 Clouds 26 1009 94 10000 1.54 0 13:46 15.01.2023
208 Clouds 27 1008 89 10000 1.54 0 12:21 15.01.2023
209 Rain 27 1008 89 10000 2.57 130 11:28 15.01.2023
210 Clouds 28 1006 83 10000 2.57 170 10:21 15.01.2023
211 Haze 29 1005 70 10000 5.14 150 07:45 15.01.2023
212 Clouds 27 1007 89 10000 1.03 0 23:34 14.01.2023
213 Clouds 26 1007 89 10000 1.03 0 22:43 14.01.2023
214 Clouds 25 1006 94 10000 1.54 0 21:36 14.01.2023
215 Clouds 25 1006 94 10000 1.54 0 21:36 14.01.2023
216 Clouds 25 1006 94 10000 1.54 0 21:18 14.01.2023
217 Clouds 25 1006 94 10000 1.54 310 20:42 14.01.2023
218 Clouds 25 1006 94 10000 1.54 310 20:21 14.01.2023
219 Clouds 25 1006 88 10000 2 25 17:50 14.01.2023
220 Clouds 26 1007 89 10000 1.54 0 15:36 14.01.2023
221 Clouds 26 1007 89 10000 1.54 0 15:18 14.01.2023
222 Clouds 26 1008 89 10000 1.54 0 13:59 14.01.2023
223 Clouds 27 1007 83 10000 1.54 0 12:49 14.01.2023
224 Clouds 27 1006 83 10000 2.57 320 10:48 14.01.2023
225 Rain 29 1005 79 10000 5.14 270 08:20 14.01.2023
226 Clouds 28 1009 74 10000 4.82 318 00:56 14.01.2023
227 Clouds 26 1009 83 10000 3.44 345 22:59 13.01.2023
228 Clouds 26 1009 83 10000 3.44 345 22:41 13.01.2023
229 Clouds 24 1008 94 10000 5.14 320 21:56 13.01.2023
230 Clouds 24 1007 94 10000 5.14 340 20:25 13.01.2023
231 Clouds 24 1007 94 10000 5.14 340 19:25 13.01.2023
232 Clouds 24 1008 94 10000 5.14 350 16:58 13.01.2023
233 Clouds 25 1010 100 10000 5.14 340 14:45 13.01.2023
234 Clouds 25 1010 94 10000 2.57 350 12:21 13.01.2023
235 Rain 25 1008 94 10000 2.57 330 10:35 13.01.2023
236 Rain 25 1008 94 10000 1.54 350 09:55 13.01.2023
237 Rain 25 1008 94 10000 1.54 350 09:35 13.01.2023
238 Rain 25 1007 94 10000 2.57 30 08:47 13.01.2023
239 Rain 28 1006 83 10000 2.92 249 06:55 13.01.2023
240 Rain 30 1007 74 10000 2.57 200 05:44 13.01.2023
241 Clouds 28 1010 78 10000 5.14 330 00:45 13.01.2023
242 Fog 24 1010 100 10000 2.57 320 22:45 12.01.2023
243 Fog 24 1010 100 10000 2.57 320 22:45 12.01.2023
244 Fog 24 1008 94 10000 2.57 330 20:56 12.01.2023
245 Fog 23 1007 100 10000 2.57 330 19:57 12.01.2023
246 Clouds 24 1008 94 10000 2.57 350 17:56 12.01.2023
247 Clouds 25 1008 94 10000 1.54 0 16:48 12.01.2023
248 Clouds 24 1009 100 10000 2.57 300 14:49 12.01.2023
249 Clouds 24 1009 100 10000 2.57 300 14:24 12.01.2023
250 Clouds 24 1010 93 9661 2.56 26 13:29 12.01.2023
251 Rain 26 1008 89 10000 1.54 0 10:54 12.01.2023
252 Clouds 26 1007 89 10000 4.12 70 09:31 12.01.2023
253 Rain 31 1008 74 10000 2.57 0 05:48 12.01.2023
254 Clouds 29 1011 74 10000 2.57 310 00:21 12.01.2023
255 Clouds 26 1010 94 10000 2.57 340 23:41 11.01.2023
256 Clouds 26 1010 94 10000 2.57 340 23:22 11.01.2023
257 Clouds 25 1009 100 10000 2.57 340 22:42 11.01.2023
258 Clouds 24 1009 100 10000 2.57 310 20:37 11.01.2023
259 Clouds 25 1008 87 10000 1.82 23 18:40 11.01.2023
260 Drizzle 24 1009 100 10000 2.57 330 17:27 11.01.2023
261 Clouds 26 1010 89 10000 5.14 240 15:30 11.01.2023
262 Clouds 26 1010 94 10000 2.57 0 13:53 11.01.2023
263 Clouds 26 1009 94 10000 2.57 0 12:21 11.01.2023
264 Rain 27 1007 89 10000 1.54 0 10:45 11.01.2023
265 Haze 28 1007 83 10000 2.57 140 08:21 11.01.2023
266 Haze 29 1007 74 10000 5.14 200 07:26 11.01.2023
267 Clouds 28 1010 73 10000 1.84 255 01:45 11.01.2023
268 Clouds 26 1010 89 10000 2.57 320 22:46 10.01.2023
269 Haze 24 1009 94 10000 1.54 0 21:36 10.01.2023
270 Rain 25 1009 83 10000 1.29 21 20:43 10.01.2023
271 Rain 24 1008 94 10000 1.54 0 19:40 10.01.2023
272 Clouds 24 1008 100 10000 1.54 0 18:48 10.01.2023
273 Clouds 24 1009 100 10000 2.06 0 17:59 10.01.2023
274 Clouds 24 1009 94 10000 1.54 0 16:39 10.01.2023
275 Clouds 24 1010 100 10000 2.57 320 15:31 10.01.2023
276 Clouds 24 1010 94 10000 2.57 300 14:32 10.01.2023
277 Rain 25 1010 94 10000 2.06 0 12:23 10.01.2023
278 Clouds 25 1008 94 10000 3.6 20 09:25 10.01.2023
279 Rain 27 1008 83 10000 5.14 10 08:29 10.01.2023
280 Rain 28 1007 72 10000 3 253 07:27 10.01.2023
281 Clouds 29 1009 74 10000 4.12 230 04:54 10.01.2023
282 Clouds 26 1012 89 10000 1.54 0 23:28 09.01.2023
283 Clouds 24 1011 100 10000 2.57 130 21:51 09.01.2023
284 Clouds 24 1010 100 10000 2.57 140 20:45 09.01.2023
285 Clouds 25 1008 82 10000 2 352 19:22 09.01.2023
286 Clouds 24 1010 94 10000 4.12 320 17:54 09.01.2023
287 Clouds 24 1010 94 10000 4.12 320 17:24 09.01.2023
288 Clouds 24 1011 100 10000 3.09 300 16:32 09.01.2023
289 Clouds 26 1010 78 10000 0.75 35 15:26 09.01.2023
290 Clouds 26 1012 89 10000 2.57 330 14:44 09.01.2023
291 Clouds 26 1011 89 10000 2.57 330 13:25 09.01.2023
292 Clouds 26 1011 89 10000 3.09 320 12:48 09.01.2023
293 Clouds 27 1010 83 10000 3.6 320 11:21 09.01.2023
294 Haze 31 1008 58 10000 3.09 130 08:42 09.01.2023
295 Haze 31 1008 58 10000 5.14 200 06:37 09.01.2023
296 Haze 32 1010 58 10000 3.09 340 02:53 09.01.2023
297 Clouds 27 1011 72 10000 0.89 49 22:54 08.01.2023
298 Clouds 24 1010 94 10000 2.57 300 21:23 08.01.2023
299 Clouds 24 1009 94 10000 2.57 350 20:57 08.01.2023
300 Clouds 24 1009 94 10000 2.57 330 19:43 08.01.2023
301 Clouds 26 1008 77 10000 1.28 45 17:40 08.01.2023
302 Clouds 26 1009 77 10000 0.84 53 17:19 08.01.2023
303 Clouds 26 1010 94 10000 1.54 0 15:38 08.01.2023
304 Clouds 26 1010 94 10000 1.54 0 14:18 08.01.2023
305 Clouds 26 1010 94 10000 1.54 0 13:32 08.01.2023
306 Clouds 27 1009 89 10000 1.54 0 12:59 08.01.2023
307 Rain 28 1009 83 10000 2.57 100 11:23 08.01.2023
308 Haze 30 1008 74 10000 5.14 230 09:37 08.01.2023
309 Haze 32 1007 62 10000 7.72 230 08:27 08.01.2023
310 Clouds 33 1010 58 10000 1.54 340 02:25 08.01.2023
311 Clouds 25 1010 94 10000 2.57 320 22:49 07.01.2023
312 Clouds 25 1010 94 10000 2.57 320 22:26 07.01.2023
313 Clouds 25 1009 94 10000 2.57 320 21:49 07.01.2023
314 Clouds 25 1009 94 10000 1.54 0 20:57 07.01.2023
315 Clouds 25 1009 94 10000 1.54 0 20:25 07.01.2023
316 Clouds 25 1008 80 10000 3.01 3 19:18 07.01.2023
317 Clouds 25 1008 94 10000 2.57 320 17:59 07.01.2023
318 Clouds 25 1008 94 10000 2.57 320 17:39 07.01.2023
319 Clouds 26 1009 89 10000 2.57 350 16:38 07.01.2023
320 Clouds 26 1009 89 10000 5.14 350 15:52 07.01.2023
321 Clouds 26 1009 89 10000 5.14 350 15:31 07.01.2023
322 Clouds 26 1009 89 10000 2.57 350 14:47 07.01.2023
323 Clouds 26 1009 89 10000 5.14 320 13:54 07.01.2023
324 Clouds 26 1009 89 10000 5.14 320 13:35 07.01.2023
325 Clouds 27 1009 78 10000 2.57 340 12:23 07.01.2023
326 Clouds 27 1009 74 10000 2.57 0 11:58 07.01.2023
327 Rain 29 1008 65 10000 7.72 290 10:26 07.01.2023
328 Clouds 31 1007 55 10000 7.72 300 08:46 07.01.2023
329 Clouds 32 1006 51 10000 7.72 310 07:47 07.01.2023
330 Clouds 32 1006 51 10000 7.72 310 07:20 07.01.2023
331 Clouds 33 1008 52 10000 7.72 320 04:51 07.01.2023
332 Clouds 24 1009 94 10000 6.69 320 22:44 06.01.2023
333 Clouds 24 1009 94 10000 6.69 320 22:19 06.01.2023
334 Clouds 23 1009 100 10000 4.12 320 21:28 06.01.2023
335 Fog 24 1008 94 10000 5.14 340 19:58 06.01.2023
336 Fog 24 1008 94 10000 5.14 340 19:40 06.01.2023
337 Fog 24 1008 94 10000 5.14 340 19:22 06.01.2023
338 Fog 24 1008 94 10000 5.14 350 18:43 06.01.2023
339 Clouds 24 1008 94 10000 10.29 290 17:23 06.01.2023
340 Clouds 24 1008 94 10000 3.6 310 16:36 06.01.2023
341 Clouds 25 1008 88 10000 1.03 300 15:57 06.01.2023
342 Clouds 25 1008 88 10000 1.03 300 15:39 06.01.2023
343 Clouds 24 1009 100 10000 3.6 330 14:54 06.01.2023
344 Clouds 27 1008 83 10000 2.57 360 12:42 06.01.2023
345 Clouds 28 1007 78 10000 4.12 320 10:58 06.01.2023
346 Clouds 31 1005 62 10000 5.14 330 08:56 06.01.2023
347 Clouds 32 1005 55 10000 10.29 320 07:44 06.01.2023
348 Haze 30 1008 70 10000 6.17 330 01:43 06.01.2023
349 Clouds 25 1008 88 10000 5.14 330 22:55 05.01.2023
350 Clouds 24 1007 94 10000 5.14 330 21:47 05.01.2023
351 Clouds 24 1007 100 10000 5.14 330 19:29 05.01.2023
352 Clouds 26 1007 82 9686 2.72 310 17:28 05.01.2023
353 Clouds 25 1007 88 10000 3.09 320 16:20 05.01.2023
354 Clouds 26 1008 89 10000 1.54 0 15:46 05.01.2023
355 Clouds 25 1008 94 10000 1.54 0 14:36 05.01.2023
356 Clouds 27 1008 83 10000 2.57 330 12:43 05.01.2023
357 Clouds 27 1008 83 10000 2.57 320 11:50 05.01.2023
358 Haze 30 1006 66 10000 5.14 280 09:52 05.01.2023
359 Haze 31 1005 58 10000 5.14 280 08:28 05.01.2023
360 Clouds 30 1004 69 10000 5.54 291 07:18 05.01.2023
361 Haze 34 1006 43 10000 5.14 280 03:39 05.01.2023
362 Haze 25 1007 94 10000 2.57 310 22:55 04.01.2023
363 Clouds 23 1006 94 10000 2.57 300 21:33 04.01.2023
364 Clouds 24 1006 94 10000 1.54 0 20:36 04.01.2023
365 Clouds 24 1006 94 10000 2.57 320 19:56 04.01.2023
366 Clouds 24 1006 94 10000 2.57 320 19:56 04.01.2023
367 Rain 24 1006 94 10000 2.57 320 19:31 04.01.2023
368 Rain 24 1006 94 10000 2.57 310 18:30 04.01.2023
369 Clouds 25 1006 94 10000 2.57 310 16:32 04.01.2023
370 Clouds 25 1008 94 10000 2.57 300 15:34 04.01.2023
371 Clouds 25 1009 88 10000 3.6 300 13:44 04.01.2023
372 Clouds 27 1008 74 10000 5.14 350 11:40 04.01.2023
373 Clouds 27 1008 74 10000 5.14 350 11:19 04.01.2023
374 Clouds 27 1007 78 10000 5.14 330 10:42 04.01.2023
375 Clouds 27 1007 78 10000 5.14 330 10:21 04.01.2023
376 Clouds 29 1005 70 10000 4.22 276 07:19 04.01.2023
377 Haze 29 1008 74 10000 2.57 320 01:43 04.01.2023
378 Haze 26 1008 89 10000 3.09 330 23:58 03.01.2023
379 Haze 26 1008 89 10000 3.09 330 23:32 03.01.2023
380 Clouds 25 1007 94 10000 3.09 340 22:26 03.01.2023
381 Clouds 25 1006 94 10000 5.14 320 20:51 03.01.2023
382 Rain 25 1006 94 10000 5.14 320 18:52 03.01.2023
383 Clouds 27 1007 83 10000 1.54 0 16:46 03.01.2023
384 Clouds 27 1007 83 10000 2.57 320 15:43 03.01.2023
385 Clouds 27 1008 82 10000 1.05 20 13:50 03.01.2023
386 Clouds 27 1008 81 10000 1.1 1 13:29 03.01.2023
387 Clouds 28 1008 74 10000 2.06 330 12:57 03.01.2023
388 Clouds 28 1008 74 10000 2.06 330 12:28 03.01.2023
389 Haze 31 1006 62 10000 5.14 270 09:58 03.01.2023
390 Haze 34 1006 52 10000 5.14 270 04:29 03.01.2023
391 Clouds 34 1007 46 10000 5.14 290 03:54 03.01.2023
392 Clouds 34 1007 46 10000 5.14 290 03:34 03.01.2023
393 Haze 28 1008 74 10000 2.57 330 23:21 02.01.2023
394 Clear 24 1008 94 10000 2.57 300 22:40 02.01.2023
395 Clear 22 1007 100 10000 3.09 310 21:30 02.01.2023
396 Clear 23 1006 94 10000 4.63 310 20:35 02.01.2023
397 Clouds 26 1007 77 10000 1.81 1 19:20 02.01.2023
398 Clouds 25 1008 88 10000 2.57 310 16:54 02.01.2023
399 Clouds 26 1009 83 10000 2.06 0 14:29 02.01.2023
400 Clouds 27 1009 78 10000 1.85 0 12:57 02.01.2023
401 Clouds 27 1009 77 10000 1.64 6 11:39 02.01.2023
402 Haze 30 1007 58 10000 5.14 300 09:35 02.01.2023
403 Haze 33 1006 43 10000 7.72 270 06:59 02.01.2023
404 Clouds 28 1010 74 10000 3.09 300 00:22 02.01.2023
405 Clouds 24 1008 88 10000 2.57 330 21:55 01.01.2023
406 Clouds 25 1008 83 10000 3.12 356 20:50 01.01.2023
407 Clouds 25 1008 83 10000 3.12 356 20:31 01.01.2023
408 Clouds 23 1008 94 10000 1.54 0 18:54 01.01.2023
409 Clouds 25 1008 83 10000 1.54 0 17:39 01.01.2023
410 Clouds 25 1008 83 10000 1.54 0 17:19 01.01.2023
411 Clouds 25 1010 88 10000 1.54 0 15:46 01.01.2023
412 Clouds 26 1010 78 10000 2.57 320 13:50 01.01.2023
413 Clouds 26 1010 78 10000 2.57 330 12:59 01.01.2023
414 Clouds 26 1010 78 10000 5.14 320 11:42 01.01.2023
415 Clouds 26 1010 78 10000 5.14 320 11:21 01.01.2023
416 Clouds 30 1008 66 10000 5.14 340 09:38 01.01.2023
417 Clouds 31 1008 55 10000 5.14 340 08:42 01.01.2023
418 Clouds 31 1008 55 10000 5.14 340 08:18 01.01.2023
419 Haze 32 1008 58 10000 7.72 340 06:46 01.01.2023
420 Clouds 27 1010 78 10000 2.06 320 23:47 31.12.2022
421 Clouds 27 1010 78 10000 2.06 320 23:26 31.12.2022
422 Clouds 26 1009 83 10000 2.57 350 22:22 31.12.2022
423 Clouds 24 1008 94 10000 3.6 330 21:24 31.12.2022
424 Clouds 24 1008 94 10000 4.12 350 20:24 31.12.2022
425 Clouds 25 1007 88 10000 3.6 350 18:51 31.12.2022
426 Clouds 25 1007 88 10000 3.6 350 18:32 31.12.2022
427 Clouds 26 1008 83 10000 5.14 350 17:57 31.12.2022
428 Clouds 26 1008 83 10000 5.14 350 17:31 31.12.2022
429 Clouds 26 1008 89 10000 6.17 340 16:31 31.12.2022
430 Clouds 26 1010 89 10000 5.14 340 15:28 31.12.2022
431 Clouds 26 1010 89 10000 2.57 0 13:55 31.12.2022
432 Clouds 26 1010 89 10000 2.57 0 13:27 31.12.2022
433 Clouds 27 1010 83 10000 2.57 330 12:21 31.12.2022
434 Clouds 27 1009 83 10000 2.57 320 11:51 31.12.2022
435 Clouds 27 1008 83 10000 2.57 310 10:55 31.12.2022
436 Clouds 29 1008 70 10000 5.14 280 09:56 31.12.2022
437 Clouds 29 1008 70 10000 5.14 280 09:36 31.12.2022
438 Clouds 32 1007 62 10000 5.14 330 07:58 31.12.2022
439 Clouds 27 1009 74 10000 3.03 346 00:59 31.12.2022
440 Clouds 25 1010 82 10000 3.09 357 00:24 31.12.2022
441 Clouds 24 1009 94 10000 5.14 300 22:52 30.12.2022
442 Clouds 23 1008 94 10000 4.12 300 21:54 30.12.2022
443 Clouds 23 1008 94 10000 4.12 300 21:31 30.12.2022
444 Clouds 23 1007 94 10000 3.6 300 19:52 30.12.2022
445 Clouds 23 1008 100 10000 5.14 300 17:53 30.12.2022
446 Clouds 23 1008 100 10000 5.14 300 17:33 30.12.2022
447 Clouds 24 1009 94 10000 3.09 310 15:58 30.12.2022
448 Clouds 25 1009 83 10000 1.4 78 14:54 30.12.2022
449 Clouds 25 1009 83 10000 3.09 320 12:52 30.12.2022
450 Rain 26 1009 89 10000 5.14 350 08:23 30.12.2022
451 Haze 29 1010 79 10000 4.12 330 03:44 30.12.2022
452 Haze 28 1011 78 10000 3.6 330 02:24 30.12.2022
453 Clouds 24 1011 88 10000 3.6 350 22:58 29.12.2022
454 Clouds 24 1010 88 10000 4.12 20 21:32 29.12.2022
455 Clouds 24 1010 94 10000 4.12 330 20:54 29.12.2022
456 Clouds 24 1010 94 10000 4.12 330 20:26 29.12.2022
457 Clouds 24 1010 93 6111 2.38 330 18:32 29.12.2022
458 Clouds 24 1011 94 10000 5.14 350 17:37 29.12.2022
459 Clouds 24 1011 94 10000 5.14 340 16:56 29.12.2022
460 Clouds 24 1011 94 10000 5.14 340 16:33 29.12.2022
461 Clouds 26 1012 83 10000 7.72 300 15:37 29.12.2022
462 Clouds 25 1012 94 10000 5.14 340 13:34 29.12.2022
463 Clouds 25 1012 94 10000 5.14 340 13:34 29.12.2022
464 Clouds 26 1011 94 10000 7.72 240 11:48 29.12.2022
465 Clouds 28 1009 74 10000 4.12 320 09:18 29.12.2022
466 Haze 26 1011 89 10000 5.14 340 00:23 29.12.2022
467 Clouds 25 1012 94 10000 5.14 360 23:28 28.12.2022
468 Clouds 24 1010 94 10000 2.57 350 21:22 28.12.2022
469 Clouds 24 1009 94 10000 2.57 340 20:50 28.12.2022
470 Clouds 24 1009 94 10000 2.57 320 19:38 28.12.2022
471 Clouds 24 1009 94 10000 2.57 340 16:57 28.12.2022
472 Clouds 24 1010 94 10000 2.57 310 15:25 28.12.2022
473 Clouds 25 1011 88 10000 2.57 0 12:56 28.12.2022
474 Clouds 25 1011 88 10000 2.57 0 12:23 28.12.2022
475 Rain 25 1011 88 10000 2.57 0 11:21 28.12.2022
476 Rain 25 1009 94 10000 2.57 20 08:45 28.12.2022
477 Rain 26 1008 94 10000 5.14 300 07:25 28.12.2022
478 Clouds 27 1008 83 10000 7.72 300 06:42 28.12.2022
479 Rain 25 1009 94 10000 2.57 300 23:36 27.12.2022
480 Rain 24 1008 100 10000 2.57 350 20:23 27.12.2022
481 Clouds 25 1007 87 10000 2.77 355 19:31 27.12.2022
482 Clouds 25 1007 87 10000 2.77 355 19:31 27.12.2022
483 Clouds 25 1007 87 10000 2.77 355 19:31 27.12.2022
484 Rain 25 1007 87 10000 2.99 346 17:28 27.12.2022
485 Rain 25 1009 94 10000 2.57 310 16:42 27.12.2022
486 Rain 25 1009 94 10000 2.57 350 15:28 27.12.2022
487 Clouds 26 1009 94 10000 2.06 320 12:34 27.12.2022
488 Clouds 26 1008 94 10000 2.06 320 11:28 27.12.2022
489 Clouds 29 1007 79 10000 5.14 320 09:46 27.12.2022
490 Clouds 29 1007 79 10000 5.14 320 09:46 27.12.2022
491 Clouds 29 1007 79 10000 5.14 320 09:23 27.12.2022
492 Rain 29 1006 79 10000 5.14 320 06:49 27.12.2022
493 Haze 29 1008 79 10000 5.14 340 04:29 27.12.2022
494 Haze 25 1009 94 10000 5.14 310 22:21 26.12.2022
495 Clouds 24 1007 100 10000 2.57 350 20:51 26.12.2022
496 Clouds 24 1007 100 10000 2.57 350 20:29 26.12.2022
497 Clouds 24 1007 100 10000 2.57 340 18:43 26.12.2022
498 Clouds 25 1008 94 10000 2.57 350 17:32 26.12.2022
499 Clouds 25 1008 94 10000 1.54 320 15:47 26.12.2022
500 Clouds 25 1008 94 10000 2.57 340 13:46 26.12.2022
501 Clouds 26 1008 85 10000 2 21 11:56 26.12.2022
502 Clouds 31 1006 70 10000 6.17 240 07:28 26.12.2022
503 Clouds 26 1009 89 10000 2.57 320 23:48 25.12.2022
504 Clouds 26 1009 89 10000 2.57 320 23:22 25.12.2022
505 Clouds 24 1009 100 10000 2.57 330 22:26 25.12.2022
506 Clouds 23 1009 100 10000 2.57 320 21:35 25.12.2022
507 Clouds 23 1009 100 10000 5.14 320 18:32 25.12.2022
508 Clouds 23 1008 100 10000 5.14 340 17:51 25.12.2022
509 Clouds 23 1008 100 10000 5.14 340 17:33 25.12.2022
510 Clouds 24 1010 100 10000 2.57 340 14:47 25.12.2022
511 Clouds 25 1010 94 10000 5.14 350 11:49 25.12.2022
512 Clouds 29 1005 77 10000 3.98 268 06:20 25.12.2022
513 Clouds 27 1008 83 10000 2.57 340 23:22 24.12.2022
514 Clear 24 1005 94 10000 4.12 320 19:58 24.12.2022
515 Fog 25 1005 94 10000 2.57 300 17:56 24.12.2022
516 Clouds 26 1005 88 10000 2.21 11 16:27 24.12.2022
517 Clouds 24 1006 94 10000 2.57 300 14:37 24.12.2022
518 Clouds 27 1006 84 10000 0.9 23 12:41 24.12.2022
519 Clouds 26 1005 94 10000 3.6 320 10:31 24.12.2022
520 Clouds 26 1006 94 10000 3.6 320 09:55 24.12.2022
521 Clouds 26 1006 94 10000 3.6 320 09:36 24.12.2022
522 Haze 32 1006 66 10000 5.14 320 03:52 24.12.2022
523 Clouds 30 1006 70 10000 2.96 310 00:43 24.12.2022
524 Haze 27 1007 89 10000 5.14 320 23:22 23.12.2022
525 Clouds 25 1005 94 10000 3.09 270 21:44 23.12.2022
526 Clouds 25 1004 94 10000 2.57 350 19:40 23.12.2022
527 Clouds 25 1004 94 10000 2.57 350 19:22 23.12.2022
528 Clouds 25 1004 90 10000 2.86 353 18:54 23.12.2022
529 Clouds 26 1004 90 10000 2.56 359 18:27 23.12.2022
530 Clouds 25 1004 94 10000 3.09 310 17:48 23.12.2022
531 Clouds 26 1006 94 10000 2.57 300 15:52 23.12.2022
532 Clouds 26 1006 100 10000 2.57 330 14:37 23.12.2022
533 Clouds 27 1005 85 10000 3.75 132 10:34 23.12.2022
534 Clouds 30 1005 74 10000 5.14 180 09:36 23.12.2022
535 Clouds 32 1003 74 10000 5.14 180 07:43 23.12.2022
536 Clouds 32 1003 66 10000 7.72 180 06:50 23.12.2022
537 Clouds 32 1007 62 10000 1.54 0 02:45 23.12.2022
538 Haze 27 1008 89 10000 2.57 320 23:20 22.12.2022
539 Clouds 24 1007 100 10000 2.06 340 21:56 22.12.2022
540 Clouds 25 1006 94 10000 2.57 340 19:48 22.12.2022
541 Clouds 25 1006 94 10000 2.57 340 19:21 22.12.2022
542 Clouds 25 1004 87 10000 1.75 20 17:59 22.12.2022
543 Clouds 26 1004 86 10000 1.41 53 16:53 22.12.2022
544 Clouds 25 1007 100 10000 1.54 0 15:47 22.12.2022
545 Clouds 25 1007 100 10000 1.54 0 15:29 22.12.2022
546 Clouds 25 1007 100 10000 1.54 0 15:29 22.12.2022
547 Clouds 25 1007 94 10000 1.54 0 14:27 22.12.2022
548 Rain 25 1008 100 10000 1.54 0 13:20 22.12.2022
549 Rain 26 1006 94 10000 1.54 0 11:42 22.12.2022
550 Rain 27 1006 89 10000 4.12 150 10:31 22.12.2022
551 Rain 27 1005 94 10000 2.57 100 09:24 22.12.2022
552 Rain 30 1004 74 10000 5.14 200 08:52 22.12.2022
553 Clouds 31 1003 74 10000 5.14 240 07:51 22.12.2022
554 Clouds 29 1005 67 10000 3.21 239 04:19 22.12.2022
555 Clouds 28 1007 70 10000 1.69 312 00:46 22.12.2022
556 Clouds 26 1006 89 10000 2.57 340 22:29 21.12.2022
557 Clouds 25 1005 100 10000 2.57 350 21:46 21.12.2022
558 Clouds 25 1005 100 10000 2.57 330 20:59 21.12.2022
559 Clouds 25 1005 100 10000 2.57 330 20:31 21.12.2022
560 Clouds 25 1004 100 10000 2.57 320 19:47 21.12.2022
561 Clouds 25 1004 100 10000 2.57 320 19:28 21.12.2022
562 Clouds 25 1004 100 10000 2.57 320 18:51 21.12.2022
563 Clouds 25 1004 100 10000 2.57 320 18:33 21.12.2022
564 Clouds 25 1006 100 10000 2.57 320 15:50 21.12.2022
565 Rain 26 1006 94 10000 2.57 350 13:52 21.12.2022
566 Rain 25 1005 100 10000 2.06 0 11:48 21.12.2022
567 Rain 25 1005 100 10000 2.06 0 11:20 21.12.2022
568 Clouds 29 1003 84 10000 5.14 240 09:50 21.12.2022
569 Clouds 30 1002 79 10000 5.14 240 08:48 21.12.2022
570 Clouds 29 1001 76 10000 2.42 212 06:30 21.12.2022
571 Clouds 28 1004 75 10000 0.64 4 00:24 21.12.2022
572 Clouds 24 1003 100 10000 2.57 300 21:47 20.12.2022
573 Clouds 25 1002 100 10000 1.54 340 20:33 20.12.2022
574 Clouds 25 1002 100 10000 1.54 0 19:43 20.12.2022
575 Clouds 25 1002 100 10000 1.54 0 19:43 20.12.2022
576 Clouds 25 1002 94 10000 1.54 0 18:41 20.12.2022
577 Clouds 25 1002 94 10000 1.54 0 18:21 20.12.2022
578 Clouds 25 1003 94 10000 1.54 0 17:46 20.12.2022
579 Clouds 25 1003 94 10000 1.54 0 16:57 20.12.2022
580 Clouds 25 1004 94 10000 1.54 0 15:49 20.12.2022
581 Clouds 25 1005 100 10000 1.54 0 14:50 20.12.2022
582 Clouds 25 1005 100 10000 1.54 0 14:50 20.12.2022
583 Clouds 25 1005 100 10000 1.54 0 14:29 20.12.2022
584 Rain 25 1005 94 10000 1.54 0 13:25 20.12.2022
585 Rain 25 1005 100 10000 1.54 0 12:32 20.12.2022
586 Rain 25 1005 100 10000 2.57 180 11:38 20.12.2022
587 Clouds 30 1002 79 10000 7.72 260 08:51 20.12.2022
588 Clouds 32 1004 70 10000 5.14 330 04:38 20.12.2022
589 Clouds 25 1004 94 10000 2.57 310 22:46 19.12.2022
590 Clouds 24 1003 94 10000 2.57 320 21:56 19.12.2022
591 Clouds 24 1003 94 10000 2.57 320 20:28 19.12.2022
592 Clouds 24 1003 94 10000 2.57 320 19:39 19.12.2022
593 Clouds 25 1003 94 10000 4.12 320 18:42 19.12.2022
594 Rain 25 1004 94 10000 1.54 320 16:52 19.12.2022
595 Rain 25 1005 94 10000 2.57 320 13:41 19.12.2022
596 Rain 25 1005 91 10000 2.7 24 12:21 19.12.2022
597 Rain 25 1004 95 4398 1.95 125 10:55 19.12.2022
598 Clouds 31 1002 70 10000 2.06 200 07:44 19.12.2022
599 Clouds 33 1004 62 10000 5.14 310 03:42 19.12.2022
600 Clouds 24 1005 100 10000 2.57 330 22:40 18.12.2022
601 Clouds 23 1004 100 10000 1.54 0 21:46 18.12.2022
602 Clouds 23 1004 100 10000 1.54 0 21:22 18.12.2022
603 Clouds 23 1004 100 10000 1.54 0 21:22 18.12.2022
604 Clouds 24 1003 94 10000 1.54 0 19:58 18.12.2022
605 Clouds 24 1003 94 10000 1.54 0 19:57 18.12.2022
606 Clouds 24 1003 94 10000 1.54 0 19:39 18.12.2022
607 Clouds 24 1003 94 10000 2.57 350 18:24 18.12.2022
608 Clouds 25 1004 94 10000 5.14 350 16:37 18.12.2022
609 Rain 25 1004 94 10000 4.12 340 15:40 18.12.2022
610 Drizzle 25 1004 94 10000 4.12 340 15:19 18.12.2022
611 Rain 25 1004 94 10000 3.6 320 13:40 18.12.2022
612 Rain 26 1005 85 10000 1.94 73 12:57 18.12.2022
613 Rain 26 1005 85 10000 1.94 73 12:57 18.12.2022
614 Rain 26 1005 85 10000 1.94 73 12:30 18.12.2022
615 Rain 25 1004 94 10000 4.63 320 10:50 18.12.2022
616 Clouds 31 1002 74 10000 7.72 190 08:47 18.12.2022
617 Clouds 31 1001 70 10000 5.14 200 07:43 18.12.2022
618 Clouds 32 1002 66 10000 7.72 200 06:21 18.12.2022
619 Clouds 31 1005 62 10000 7.72 190 03:40 18.12.2022
620 Clouds 29 1006 74 10000 3.09 300 00:45 18.12.2022
621 Clouds 25 1006 88 10000 2.57 310 22:21 17.12.2022
622 Clouds 24 1004 100 10000 2.57 320 19:27 17.12.2022
623 Clouds 25 1005 87 10000 1.12 32 17:18 17.12.2022
624 Clouds 25 1007 94 10000 1.54 0 14:31 17.12.2022
625 Rain 25 1006 94 10000 1.03 0 11:55 17.12.2022
626 Rain 25 1006 94 10000 1.54 150 10:49 17.12.2022
627 Clouds 26 1005 83 10000 6.17 90 09:46 17.12.2022
628 Clouds 30 1004 74 10000 7.72 190 08:32 17.12.2022
629 Haze 32 1003 62 10000 5.14 170 06:46 17.12.2022
630 Haze 26 1006 83 10000 2.57 320 23:57 16.12.2022
631 Clear 23 1005 94 10000 2.57 300 21:34 16.12.2022
632 Clouds 25 1004 86 10000 1.88 44 19:57 16.12.2022
633 Clear 24 1005 94 10000 1.54 0 16:55 16.12.2022
634 Clouds 24 1006 94 10000 2.06 0 14:49 16.12.2022
635 Clouds 25 1006 94 10000 2.06 0 13:49 16.12.2022
636 Clouds 26 1006 80 10000 1.22 109 12:18 16.12.2022
637 Clouds 26 1005 83 10000 2.57 320 10:42 16.12.2022
638 Clouds 27 1005 83 10000 7.72 20 09:26 16.12.2022
639 Clouds 27 1004 83 10000 7.72 20 08:25 16.12.2022
640 Clouds 27 1004 78 10000 7.72 40 07:54 16.12.2022
641 Clouds 27 1007 89 10000 2.57 330 23:39 15.12.2022
642 Clouds 25 1006 94 10000 2.57 310 22:29 15.12.2022
643 Clouds 25 1005 86 10000 1.66 12 20:40 15.12.2022
644 Clouds 24 1003 100 10000 2.57 350 19:37 15.12.2022
645 Clouds 24 1004 100 10000 2.57 350 18:25 15.12.2022
646 Clouds 24 1004 100 10000 2.57 310 17:26 15.12.2022
647 Clouds 25 1005 88 10000 1.54 0 15:36 15.12.2022
648 Clouds 25 1005 94 10000 2.57 320 13:52 15.12.2022
649 Clouds 25 1005 88 10000 5.14 350 12:34 15.12.2022
650 Rain 26 1004 89 10000 5.14 50 09:42 15.12.2022
651 Clouds 27 1004 81 10000 1.71 274 08:54 15.12.2022
652 Clouds 31 1002 70 10000 5.14 280 06:25 15.12.2022
653 Clouds 29 1004 73 10000 4.26 263 05:18 15.12.2022
654 Clouds 25 1006 87 10000 1.69 21 21:25 14.12.2022
655 Clouds 25 1006 87 10000 1.69 21 20:59 14.12.2022
656 Clouds 25 1006 87 10000 1.69 21 20:31 14.12.2022
657 Clouds 24 1005 100 10000 2.57 320 18:26 14.12.2022
658 Clouds 24 1006 94 10000 2.57 340 16:57 14.12.2022
659 Clouds 25 1006 88 10000 2.57 320 15:40 14.12.2022
660 Clouds 26 1007 87 10000 1.71 5 13:53 14.12.2022
661 Clouds 26 1007 83 10000 2.57 10 11:31 14.12.2022
662 Clouds 26 1006 89 10000 5.14 30 10:34 14.12.2022
663 Clouds 29 1005 79 10000 5.14 280 08:54 14.12.2022
664 Clouds 28 1009 83 10000 5.14 340 23:22 13.12.2022
665 Clouds 25 1008 94 10000 2.57 320 21:49 13.12.2022
666 Clouds 25 1006 94 10000 2.57 320 20:48 13.12.2022
667 Clouds 25 1006 94 10000 2.57 320 20:25 13.12.2022
668 Rain 26 1007 89 10000 5.14 340 17:50 13.12.2022
669 Rain 26 1008 89 10000 5.14 320 15:55 13.12.2022
670 Clouds 26 1008 89 10000 2.57 320 14:52 13.12.2022
671 Clouds 26 1008 89 10000 2.57 320 14:52 13.12.2022
672 Rain 26 1006 89 10000 2.57 140 11:32 13.12.2022
673 Rain 27 1007 83 10000 5.14 120 10:36 13.12.2022
674 Rain 29 1007 79 10000 5.14 180 09:43 13.12.2022
675 Clouds 30 1005 74 10000 7.72 230 06:20 13.12.2022
676 Clouds 24 1009 94 10000 3.09 320 22:23 12.12.2022
677 Clouds 24 1008 94 10000 3.09 340 21:27 12.12.2022
678 Clouds 24 1006 94 10000 3.09 340 18:34 12.12.2022
679 Clouds 25 1007 82 10000 1.22 24 17:19 12.12.2022
680 Clouds 24 1008 100 10000 2.57 310 15:22 12.12.2022
681 Rain 25 1009 85 10000 2.74 37 11:51 12.12.2022
682 Rain 26 1007 85 10000 1.96 38 09:19 12.12.2022
683 Haze 27 1008 94 10000 5.14 290 04:54 12.12.2022
684 Haze 29 1008 79 10000 5.14 330 01:53 12.12.2022
685 Haze 25 1008 94 10000 2.57 350 22:53 11.12.2022
686 Clouds 24 1006 94 10000 2.57 310 20:42 11.12.2022
687 Clouds 24 1006 100 10000 2.57 310 19:42 11.12.2022
688 Fog 24 1006 100 10000 5.14 310 18:56 11.12.2022
689 Fog 25 1007 94 10000 5.14 330 17:58 11.12.2022
690 Fog 25 1007 94 10000 5.14 330 17:29 11.12.2022
691 Clouds 25 1007 94 10000 1.54 0 16:52 11.12.2022
692 Clouds 25 1007 94 10000 2.06 0 15:46 11.12.2022
693 Clouds 24 1007 100 10000 3.09 310 14:26 11.12.2022
694 Clouds 25 1009 88 10000 1.92 35 12:44 11.12.2022
695 Rain 25 1008 100 10000 2.06 80 11:41 11.12.2022
696 Rain 29 1005 79 10000 7.72 190 06:30 11.12.2022
697 Clouds 29 1008 74 10000 2.57 320 00:34 11.12.2022
698 Clouds 25 1008 94 10000 4.12 330 22:53 10.12.2022
699 Clouds 25 1008 94 10000 4.12 330 22:33 10.12.2022
700 Clouds 25 1008 94 10000 4.12 330 22:33 10.12.2022
701 Clouds 24 1007 100 10000 2.57 310 21:19 10.12.2022
702 Clouds 25 1007 87 10000 1.53 28 20:26 10.12.2022
703 Clouds 24 1006 100 10000 2.57 300 18:37 10.12.2022
704 Clouds 24 1007 100 10000 2.57 320 16:47 10.12.2022
705 Clouds 24 1008 100 10000 4.12 340 15:57 10.12.2022
706 Clouds 24 1008 100 10000 4.12 340 15:35 10.12.2022
707 Clouds 25 1008 94 10000 4.12 340 14:21 10.12.2022
708 Clouds 25 1007 94 10000 2.57 350 12:49 10.12.2022
709 Clouds 25 1007 94 10000 2.57 350 11:28 10.12.2022
710 Clouds 26 1007 89 10000 2.57 20 10:28 10.12.2022
711 Rain 27 1006 89 10000 5.14 150 08:37 10.12.2022
712 Rain 30 1005 79 10000 7.72 200 07:19 10.12.2022
713 Haze 28 1008 83 10000 1.54 0 23:56 09.12.2022
714 Clouds 26 1008 94 10000 2.57 350 22:44 09.12.2022
715 Clouds 25 1007 94 10000 1.54 350 21:48 09.12.2022
716 Clouds 25 1007 94 10000 1.54 350 21:21 09.12.2022
717 Clouds 25 1006 94 10000 2.54 6 19:49 09.12.2022
718 Clouds 25 1007 94 10000 2.57 320 18:36 09.12.2022
719 Clouds 25 1007 94 10000 2.57 320 17:44 09.12.2022
720 Clouds 25 1007 100 10000 1.54 0 16:30 09.12.2022
721 Thunderstorm 25 1008 94 10000 4.12 320 15:32 09.12.2022
722 Thunderstorm 25 1008 94 10000 2.57 340 14:23 09.12.2022
723 Clouds 28 1006 83 10000 5.14 170 10:51 09.12.2022
724 Clouds 28 1006 83 10000 5.14 170 10:29 09.12.2022
725 Haze 29 1004 70 10000 2.06 90 08:22 09.12.2022
726 Clouds 28 1007 74 10000 2.16 253 03:18 09.12.2022
727 Clouds 26 1008 94 10000 2.57 330 23:36 08.12.2022
728 Clouds 25 1007 88 10000 1.75 14 20:56 08.12.2022
729 Clouds 25 1005 94 10000 5.14 320 18:59 08.12.2022
730 Clouds 25 1006 94 10000 2.57 340 16:50 08.12.2022
731 Rain 25 1007 94 10000 2.57 310 14:35 08.12.2022
732 Rain 25 1007 100 10000 1.03 0 13:40 08.12.2022
733 Rain 25 1007 91 10000 2.24 67 10:37 08.12.2022
734 Clouds 25 1006 94 10000 2.57 180 09:32 08.12.2022
735 Clouds 29 1003 84 10000 4.12 140 07:39 08.12.2022
736 Clouds 26 1007 94 10000 1.54 300 22:44 07.12.2022
737 Clouds 26 1007 94 10000 1.54 300 22:18 07.12.2022
738 Clouds 25 1006 100 10000 2.06 0 21:47 07.12.2022
739 Clouds 24 1007 89 10000 2.08 18 20:32 07.12.2022
740 Clouds 24 1005 91 10000 2.4 351 18:23 07.12.2022
741 Clouds 26 1007 94 10000 3.09 320 15:43 07.12.2022
742 Clouds 26 1007 94 10000 4.12 310 13:28 07.12.2022
743 Rain 28 1005 89 10000 2.57 200 10:54 07.12.2022
744 Rain 27 1005 94 5000 2.57 170 09:59 07.12.2022
745 Rain 27 1005 94 5000 2.57 170 09:30 07.12.2022
746 Haze 31 1004 70 10000 7.72 140 07:22 07.12.2022
747 Haze 33 1004 58 10000 7.72 180 05:25 07.12.2022
748 Clouds 29 1008 67 10000 2.6 174 00:56 07.12.2022
749 Clouds 24 1007 94 10000 2.57 340 21:49 06.12.2022
750 Clouds 24 1006 100 10000 1.54 0 19:22 06.12.2022
751 Clouds 25 1006 94 10000 1.54 0 17:19 06.12.2022
752 Clouds 25 1006 94 10000 1.54 0 16:29 06.12.2022
753 Clouds 25 1007 94 10000 1.54 0 15:35 06.12.2022
754 Clouds 26 1007 89 10000 2.57 350 14:35 06.12.2022
755 Clouds 26 1007 89 10000 2.57 310 13:49 06.12.2022
756 Clouds 28 1007 74 10000 2.57 110 12:41 06.12.2022
757 Clouds 28 1007 78 10000 5.14 140 11:34 06.12.2022
758 Clouds 31 1005 62 10000 5.14 150 07:49 06.12.2022
759 Clouds 32 1007 62 10000 5.14 170 03:20 06.12.2022
760 Clouds 27 1009 78 10000 1.54 0 23:21 05.12.2022
761 Fog 24 1007 94 10000 1.54 0 21:40 05.12.2022
762 Fog 24 1007 94 10000 1.54 0 21:40 05.12.2022
763 Clouds 24 1007 94 10000 1.54 0 20:52 05.12.2022
764 Clouds 24 1006 94 10000 1.54 0 19:53 05.12.2022
765 Clouds 24 1006 94 10000 1.54 0 19:34 05.12.2022
766 Clouds 25 1007 88 10000 1.54 0 16:51 05.12.2022
767 Clouds 25 1008 88 10000 2.57 160 15:29 05.12.2022
768 Clouds 27 1008 78 10000 5.14 100 13:52 05.12.2022
769 Clouds 27 1008 83 10000 5.14 140 12:57 05.12.2022
770 Clouds 27 1008 83 10000 5.14 140 12:38 05.12.2022
771 Clouds 27 1008 83 10000 5.14 140 11:40 05.12.2022
772 Clouds 29 1005 74 10000 7.72 170 08:32 05.12.2022
773 Clouds 29 1009 70 10000 1.54 0 00:18 05.12.2022
774 Clouds 25 1008 83 10000 1.54 0 22:44 04.12.2022
775 Clouds 25 1008 83 10000 1.54 0 22:18 04.12.2022
776 Clouds 24 1007 88 10000 1.54 0 21:32 04.12.2022
777 Rain 24 1007 94 10000 1.03 0 19:59 04.12.2022
778 Clouds 24 1007 94 10000 1.03 0 19:23 04.12.2022
779 Clear 24 1007 94 10000 1.03 0 18:32 04.12.2022
780 Clouds 24 1007 86 10000 1.65 29 17:22 04.12.2022
781 Clouds 25 1008 88 10000 2.06 0 16:36 04.12.2022
782 Clouds 25 1008 88 10000 2.06 0 16:18 04.12.2022
783 Clouds 25 1008 88 10000 1.54 340 15:26 04.12.2022
784 Clouds 25 1009 83 10000 1.5 14 14:19 04.12.2022
785 Clouds 26 1008 83 10000 1.54 0 12:51 04.12.2022
786 Clouds 26 1008 83 10000 1.54 0 12:33 04.12.2022
787 Clouds 26 1008 83 10000 1.54 0 11:34 04.12.2022
788 Clouds 29 1005 65 10000 5.14 260 07:36 04.12.2022
789 Clouds 31 1007 66 10000 7.72 330 02:51 04.12.2022
790 Clouds 27 1007 83 10000 5.14 350 23:44 03.12.2022
791 Clouds 25 1007 94 10000 3.6 330 22:34 03.12.2022
792 Clouds 24 1006 94 10000 2.57 330 21:47 03.12.2022
793 Clouds 24 1006 100 10000 1.54 0 20:38 03.12.2022
794 Clouds 24 1006 100 10000 1.54 0 18:40 03.12.2022
795 Clouds 25 1005 85 10000 3.27 340 17:33 03.12.2022
796 Clouds 25 1006 85 10000 3.16 345 15:49 03.12.2022
797 Rain 25 1007 85 10000 3.15 348 13:19 03.12.2022
798 Rain 25 1007 85 10000 3.15 348 12:41 03.12.2022
799 Rain 26 1007 83 10000 3.41 335 11:21 03.12.2022
800 Drizzle 27 1005 83 10000 7.72 10 07:59 03.12.2022
801 Rain 24 1008 95 2389 7.4 297 01:32 03.12.2022
802 Rain 25 1008 94 4963 7.29 309 01:31 03.12.2022
803 Haze 29 1006 70 10000 5.14 330 23:32 02.12.2022
804 Clouds 24 1005 100 10000 2.57 320 21:42 02.12.2022
805 Clouds 25 1003 94 10000 2.57 300 19:37 02.12.2022
806 Clouds 26 1005 89 10000 2.57 320 16:26 02.12.2022
807 Clouds 26 1006 89 10000 1.54 0 15:53 02.12.2022
808 Clouds 26 1007 76 10000 0.23 136 14:28 02.12.2022
809 Clouds 27 1007 83 10000 1.54 0 13:42 02.12.2022
810 Clouds 28 1006 74 10000 2.57 330 11:48 02.12.2022
811 Clouds 26 1005 76 10000 2.02 299 10:26 02.12.2022
812 Haze 32 1003 58 10000 5.14 330 07:48 02.12.2022
813 Clouds 27 1004 80 10000 3.73 347 07:18 02.12.2022
814 Clouds 24 1007 94 10000 7.72 330 22:49 01.12.2022
815 Clouds 24 1006 94 10000 5.14 320 21:41 01.12.2022
816 Clouds 24 1004 94 10000 2.57 310 20:36 01.12.2022
817 Clouds 24 1004 94 10000 2.57 330 18:58 01.12.2022
818 Clouds 26 1004 83 10000 0.97 19 16:57 01.12.2022
819 Clouds 27 1006 81 10000 1.31 89 14:21 01.12.2022
820 Clouds 27 1006 80 10000 0.4 95 10:56 01.12.2022
821 Clouds 30 1004 66 10000 5.14 320 09:54 01.12.2022
822 Clouds 30 1004 66 10000 5.14 320 09:36 01.12.2022
823 Clouds 30 1003 74 10000 5.14 270 05:49 01.12.2022
824 Clouds 25 1006 94 10000 2.06 0 22:41 30.11.2022
825 Clouds 24 1005 100 10000 2.06 0 21:20 30.11.2022
826 Clouds 25 1004 94 10000 2.57 330 20:55 30.11.2022
827 Clouds 25 1004 94 10000 2.57 330 20:23 30.11.2022
828 Clouds 25 1004 88 10000 2.57 300 18:36 30.11.2022
829 Clouds 25 1004 94 10000 2.57 330 17:39 30.11.2022
830 Clouds 26 1005 83 10000 2.57 330 16:20 30.11.2022
831 Clouds 26 1006 89 10000 1.54 0 14:45 30.11.2022
832 Clouds 26 1006 89 10000 1.54 0 14:24 30.11.2022
833 Clouds 28 1006 78 10000 1.54 0 11:57 30.11.2022
834 Clouds 31 1004 58 10000 7.72 200 08:41 30.11.2022
835 Clouds 28 1004 72 10000 1.96 176 07:59 30.11.2022
836 Haze 34 1004 49 10000 5.14 260 04:56 30.11.2022
837 Clouds 27 1008 75 10000 1.34 8 23:22 29.11.2022
838 Clouds 24 1006 94 10000 4.12 320 21:47 29.11.2022
839 Clouds 24 1006 94 10000 5.14 320 20:42 29.11.2022
840 Clouds 24 1005 94 10000 5.14 320 19:36 29.11.2022
841 Clouds 25 1006 88 10000 5.14 350 17:51 29.11.2022
842 Clouds 25 1007 88 10000 3.6 350 16:28 29.11.2022
843 Clouds 26 1008 89 10000 1.54 0 14:51 29.11.2022
844 Rain 27 1008 83 10000 1.54 0 13:38 29.11.2022
845 Clouds 27 1008 83 10000 1.54 0 12:35 29.11.2022
846 Rain 28 1007 78 10000 1.54 0 11:30 29.11.2022
847 Clouds 28 1006 78 10000 1.54 290 10:23 29.11.2022
848 Clouds 30 1005 66 10000 5.14 320 08:43 29.11.2022
849 Haze 31 1005 66 10000 7.72 330 05:52 29.11.2022
850 Clouds 26 1009 89 10000 5.14 300 23:38 28.11.2022
851 Clouds 26 1009 89 10000 5.14 300 23:19 28.11.2022
852 Clouds 24 1008 100 10000 5.14 320 21:55 28.11.2022
853 Clouds 24 1008 100 10000 5.14 320 21:36 28.11.2022
854 Clouds 24 1007 100 10000 5.14 310 20:19 28.11.2022
855 Fog 25 1007 94 10000 5.14 320 18:39 28.11.2022
856 Clouds 26 1007 94 10000 1.54 0 17:51 28.11.2022
857 Clouds 26 1007 94 10000 1.54 0 16:57 28.11.2022
858 Clouds 27 1008 94 10000 1.54 0 14:30 28.11.2022
859 Clouds 27 1008 82 10000 1.39 87 13:52 28.11.2022
860 Clouds 27 1008 81 10000 0.7 95 12:43 28.11.2022
861 Clouds 27 1007 76 10000 0.59 238 10:29 28.11.2022
862 Clouds 31 1004 62 10000 5.14 260 07:53 28.11.2022
863 Clouds 33 1006 55 10000 5.14 220 04:45 28.11.2022
864 Clouds 33 1007 55 10000 5.14 250 03:59 28.11.2022
865 Clouds 33 1007 55 10000 5.14 250 03:19 28.11.2022
866 Clouds 23 1009 100 10000 5.14 310 22:53 27.11.2022
867 Clouds 23 1008 94 10000 3.6 320 21:43 27.11.2022
868 Clouds 23 1007 94 10000 3.6 310 20:34 27.11.2022
869 Clouds 24 1007 94 10000 1.54 0 17:56 27.11.2022
870 Clouds 24 1008 94 10000 1.54 0 15:28 27.11.2022
871 Clouds 25 1006 88 10000 1.54 0 12:41 27.11.2022
872 Rain 27 1008 82 10000 1.03 33 10:50 27.11.2022
873 Clouds 25 1008 94 10000 5.14 20 08:19 27.11.2022
874 Clouds 28 1010 83 10000 5.14 320 00:49 27.11.2022
875 Clouds 24 1009 94 10000 5.14 330 22:25 26.11.2022
876 Clouds 23 1008 100 10000 2.57 340 20:51 26.11.2022
877 Clouds 25 1007 80 10000 2.12 15 19:26 26.11.2022
878 Clouds 24 1007 94 10000 2.57 330 17:30 26.11.2022
879 Clouds 24 1009 94 10000 5.14 320 15:47 26.11.2022
880 Clouds 25 1010 94 10000 2.57 320 13:33 26.11.2022
881 Clouds 25 1008 94 10000 2.57 320 11:36 26.11.2022
882 Rain 26 1008 89 10000 2.57 350 09:45 26.11.2022
883 Drizzle 25 1007 94 10000 2.57 100 08:49 26.11.2022
884 Clouds 32 1009 66 10000 2.57 320 01:30 26.11.2022
885 Clouds 25 1009 94 10000 2.06 300 21:42 25.11.2022
886 Clouds 25 1009 94 10000 2.06 300 21:20 25.11.2022
887 Clouds 25 1008 94 10000 2.57 320 19:48 25.11.2022
888 Clouds 26 1008 86 10000 0.98 64 16:46 25.11.2022
889 Clouds 26 1010 89 10000 2.57 300 13:50 25.11.2022
890 Rain 29 1009 79 10000 2.57 100 09:21 25.11.2022
891 Rain 30 1008 74 10000 5.14 170 08:40 25.11.2022
892 Haze 32 1008 66 10000 5.14 210 06:53 25.11.2022
893 Haze 33 1010 58 10000 5.14 300 03:35 25.11.2022
894 Clouds 29 1013 72 10000 2.1 327 23:49 24.11.2022
895 Clouds 27 1012 89 10000 3.09 330 22:43 24.11.2022
896 Clouds 26 1011 94 10000 3.09 300 21:55 24.11.2022
897 Clouds 26 1010 94 10000 1.54 0 19:50 24.11.2022
898 Clouds 26 1010 94 10000 2.57 310 18:18 24.11.2022
899 Clouds 26 1010 94 10000 2.57 300 17:38 24.11.2022
900 Clouds 26 1009 87 10000 1.93 36 17:19 24.11.2022
901 Clouds 26 1012 94 10000 1.54 0 14:27 24.11.2022
902 Clouds 26 1011 94 10000 1.03 0 13:42 24.11.2022
903 -273 0 0 0 0 0 11:52 24.11.2022
904 Clouds 27 1011 83 10000 0.85 126 11:52 24.11.2022
905 Clouds 27 1011 82 10000 0.42 167 10:33 24.11.2022
906 Clouds 29 1008 75 10000 4.2 258 06:25 24.11.2022
907 Clear 30 1011 67 10000 3.31 293 00:48 24.11.2022
908 Clear 29 1011 69 10000 2.75 317 23:32 23.11.2022
909 Clear 26 1011 78 10000 2.56 349 21:53 23.11.2022
910 Clear 25 1010 84 10000 2.71 355 21:18 23.11.2022
911 Clear 25 1009 86 10000 2.53 2 19:55 23.11.2022
912 Clear 25 1008 87 10000 2.17 6 18:57 23.11.2022
913 Clear 25 1008 87 10000 2.17 6 18:57 23.11.2022
914 Clear 26 1008 87 10000 1.97 9 18:19 23.11.2022
915 Clear 27 1010 82 10000 1.71 97 14:28 23.11.2022
916 Clouds 27 1010 83 10000 1.54 0 13:24 23.11.2022
917 Clouds 27 1010 89 10000 1.54 0 12:48 23.11.2022
918 Clouds 28 1009 83 10000 1.54 0 11:51 23.11.2022
919 Clouds 28 1009 83 10000 2.57 130 10:48 23.11.2022
920 Rain 28 1009 79 10000 2.24 154 10:18 23.11.2022
921 Rain 29 1009 79 10000 4.63 140 09:40 23.11.2022
922 Rain 29 1009 79 10000 4.63 140 09:21 23.11.2022
923 Haze 30 1008 74 10000 6.17 140 08:36 23.11.2022
924 Haze 33 1008 58 10000 2.57 210 05:20 23.11.2022
925 Clouds 33 1010 55 10000 5.14 170 01:53 23.11.2022
926 Haze 26 1010 83 10000 2.57 320 22:37 22.11.2022
927 Clouds 24 1009 94 10000 2.57 300 21:51 22.11.2022
928 Clouds 24 1009 94 10000 2.57 300 21:31 22.11.2022
929 Clouds 24 1008 88 10000 1.54 0 20:44 22.11.2022
930 Clouds 24 1008 94 10000 1.54 0 19:47 22.11.2022
931 Clouds 25 1009 88 10000 2.57 320 17:54 22.11.2022
932 Clouds 25 1009 94 10000 5.14 320 16:39 22.11.2022
933 Clouds 26 1009 89 10000 2.06 0 14:31 22.11.2022
934 Clouds 27 1010 89 10000 1.54 0 12:51 22.11.2022
935 Rain 29 1008 79 10000 5.14 170 09:41 22.11.2022
936 Rain 30 1007 74 10000 5.14 180 08:57 22.11.2022
937 Haze 32 1007 58 10000 5.14 200 06:44 22.11.2022
938 Clouds 28 1011 68 10000 1.53 178 00:54 22.11.2022
939 Clouds 24 1011 94 10000 2.57 320 22:57 21.11.2022
940 Clouds 24 1011 94 10000 2.57 320 22:23 21.11.2022
941 Clouds 23 1010 100 10000 2.57 320 21:31 21.11.2022
942 Clouds 24 1009 94 10000 2.57 320 19:54 21.11.2022
943 Clouds 24 1009 94 10000 2.57 320 19:35 21.11.2022
944 Clouds 24 1008 94 10000 2.57 320 18:51 21.11.2022
945 Clouds 23 1009 94 10000 2.57 320 17:28 21.11.2022
946 Clouds 23 1009 94 10000 5.14 10 16:42 21.11.2022
947 Clouds 24 1010 94 10000 2.06 0 15:58 21.11.2022
948 Clouds 24 1010 94 10000 2.06 0 15:23 21.11.2022
949 Clouds 24 1010 100 10000 4.63 350 13:53 21.11.2022
950 Clouds 25 1010 88 10000 3.68 12 12:50 21.11.2022
951 Rain 24 1009 94 10000 5.14 340 09:34 21.11.2022
952 Rain 26 1008 94 10000 5.14 320 07:52 21.11.2022
953 Haze 28 1010 78 10000 5.14 330 23:57 20.11.2022
954 Clouds 24 1008 94 10000 2.06 320 21:37 20.11.2022
955 Clouds 24 1007 94 10000 2.57 320 20:47 20.11.2022
956 Clouds 24 1007 94 10000 2.06 0 18:59 20.11.2022
957 Clouds 25 1006 90 10000 3.23 343 17:18 20.11.2022
958 Clouds 25 1007 94 10000 1.54 0 15:43 20.11.2022
959 Clouds 25 1007 94 10000 1.54 0 14:55 20.11.2022
960 Clouds 25 1007 94 10000 1.54 0 13:58 20.11.2022
961 Clouds 25 1007 94 10000 1.54 0 13:25 20.11.2022
962 Clouds 25 1007 94 10000 1.54 0 11:41 20.11.2022
963 Rain 25 1007 94 10000 4.12 350 10:57 20.11.2022
964 Rain 25 1007 88 10000 5.66 50 09:43 20.11.2022
965 Rain 25 1007 88 10000 7.72 50 08:52 20.11.2022
966 Thunderstorm 33 1006 55 10000 5.14 350 07:30 20.11.2022
967 Haze 33 1004 66 10000 7.72 210 06:43 20.11.2022
968 Clouds 30 1007 68 10000 2.06 245 01:26 20.11.2022
969 Clouds 30 1007 68 10000 2.06 245 00:45 20.11.2022
970 Clouds 29 1008 69 10000 1.4 294 00:26 20.11.2022
971 Haze 29 1007 74 10000 2.57 20 23:56 19.11.2022
972 Haze 29 1007 74 10000 2.57 20 23:26 19.11.2022
973 Clouds 27 1007 78 10000 2.57 320 22:42 19.11.2022
974 Clouds 25 1005 88 10000 2.06 320 21:39 19.11.2022
975 Clouds 25 1005 88 10000 2.06 320 21:20 19.11.2022
976 Clouds 25 1005 88 10000 2.06 330 20:40 19.11.2022
977 Clouds 25 1005 88 10000 2.57 340 19:35 19.11.2022
978 Clouds 25 1005 88 10000 1.54 0 17:43 19.11.2022
979 Clouds 25 1005 88 10000 1.54 0 17:25 19.11.2022
980 Clouds 26 1005 89 10000 2.69 113 16:35 19.11.2022
981 Clouds 26 1007 83 10000 1.54 0 14:40 19.11.2022
982 Clouds 27 1006 78 10000 1.54 0 12:42 19.11.2022
983 Clouds 28 1006 78 10000 2.57 0 11:19 19.11.2022
984 Haze 30 1006 74 10000 6.17 160 09:44 19.11.2022
985 Haze 32 1004 66 10000 5.14 170 07:52 19.11.2022
986 Haze 34 1006 59 10000 5.14 230 04:43 19.11.2022
987 Haze 31 1009 66 10000 1.54 0 00:30 19.11.2022
988 Haze 30 1008 70 10000 1.54 0 23:26 18.11.2022
989 Haze 27 1008 83 10000 1.54 0 22:18 18.11.2022
990 Clouds 25 1007 94 10000 2.06 0 21:34 18.11.2022
991 Clouds 25 1007 94 10000 2.06 0 20:45 18.11.2022
992 Clouds 25 1007 87 10000 1.5 48 19:47 18.11.2022
993 Clouds 26 1006 89 10000 1.03 0 18:57 18.11.2022
994 Clouds 26 1006 89 10000 1.03 0 17:45 18.11.2022
995 Clear 26 1008 89 10000 1.54 0 14:44 18.11.2022
996 Clouds 27 1008 83 10000 1.54 0 11:41 18.11.2022
997 Clouds 27 1008 83 10000 1.54 0 11:41 18.11.2022
998 Clouds 27 1007 78 10000 5.14 320 09:31 18.11.2022
999 Haze 32 1005 66 10000 5.14 190 07:52 18.11.2022
1000 Haze 33 1005 58 10000 5.14 200 05:26 18.11.2022
1001 Haze 33 1005 58 10000 5.14 200 05:26 18.11.2022
1002 Clouds 34 1008 55 10000 4.63 150 01:42 18.11.2022
1003 Haze 27 1008 83 10000 2.06 0 22:28 17.11.2022
1004 Clouds 25 1006 94 10000 1.54 0 20:46 17.11.2022
1005 Clouds 25 1007 77 10000 1.12 72 19:51 17.11.2022
1006 Clouds 25 1006 94 10000 1.54 0 18:50 17.11.2022
1007 Clouds 25 1007 94 10000 2.57 0 17:34 17.11.2022
1008 Clouds 26 1007 94 10000 2.57 0 16:54 17.11.2022
1009 Clouds 26 1007 89 10000 1.54 0 15:20 17.11.2022
1010 Clouds 28 1007 89 10000 2.57 160 11:24 17.11.2022
1011 Clouds 31 1005 70 10000 5.14 170 08:39 17.11.2022
1012 Haze 31 1004 70 10000 5.14 180 05:47 17.11.2022
1013 Clouds 31 1008 70 10000 1.54 140 00:48 17.11.2022
1014 Haze 27 1007 89 10000 1.54 0 22:31 16.11.2022
1015 Haze 26 1007 94 10000 1.54 0 21:18 16.11.2022
1016 Clouds 26 1006 88 10000 1.33 76 19:54 16.11.2022
1017 Clouds 26 1006 88 10000 1.33 49 18:46 16.11.2022
1018 Clouds 26 1005 87 10000 1.32 75 17:34 16.11.2022
1019 Clouds 27 1006 94 10000 2.57 110 14:19 16.11.2022
1020 Haze 29 1005 74 10000 5.14 140 09:56 16.11.2022
1021 Haze 32 1004 66 10000 7.72 190 06:38 16.11.2022
1022 Haze 32 1008 62 10000 4.12 350 01:26 16.11.2022
1023 Haze 26 1007 94 10000 3.6 330 22:33 15.11.2022
1024 Clouds 25 1006 94 10000 3.09 330 20:45 15.11.2022
1025 Clouds 25 1006 94 10000 5.14 330 19:34 15.11.2022
1026 Clouds 25 1006 94 10000 2.06 0 18:42 15.11.2022
1027 Clouds 25 1006 100 10000 1.54 0 17:21 15.11.2022
1028 Clouds 26 1006 89 10000 1.03 0 16:19 15.11.2022
1029 Clouds 26 1007 89 10000 2.06 0 14:45 15.11.2022
1030 Rain 27 1007 89 10000 1.54 0 12:59 15.11.2022
1031 Rain 27 1006 89 10000 1.54 0 11:43 15.11.2022
1032 Rain 27 1006 94 10000 5.14 160 10:55 15.11.2022
1033 Clouds 30 1004 79 10000 7.72 140 07:40 15.11.2022
1034 Haze 30 1007 74 10000 5.14 320 00:36 15.11.2022
1035 Haze 29 1007 79 10000 2.06 0 23:33 14.11.2022
1036 Clouds 26 1006 94 10000 1.54 0 21:30 14.11.2022
1037 Clouds 26 1005 94 10000 2.57 320 20:39 14.11.2022
1038 Clouds 26 1005 94 10000 1.54 0 18:37 14.11.2022
1039 Clouds 28 1007 83 10000 5.14 160 15:45 14.11.2022
1040 Clouds 28 1007 83 10000 5.14 140 12:54 14.11.2022
1041 Clouds 28 1006 83 10000 7.72 150 11:41 14.11.2022
1042 Rain 28 1005 83 10000 5.14 150 09:25 14.11.2022
1043 Haze 29 1005 79 10000 5.14 150 07:53 14.11.2022
1044 Haze 30 1005 74 10000 6.17 120 06:19 14.11.2022
1045 Clouds 29 1009 71 10000 1.49 156 00:18 14.11.2022
1046 Clouds 25 1008 94 10000 1.54 0 21:53 13.11.2022
1047 Clouds 26 1007 89 10000 1.54 0 20:58 13.11.2022
1048 Clouds 26 1006 89 10000 2.57 140 19:25 13.11.2022
1049 Clouds 26 1006 89 10000 2.57 130 17:55 13.11.2022
1050 Clouds 25 1006 89 10000 3.05 116 17:00 13.11.2022
1051 Clouds 27 1008 83 10000 6.17 140 14:58 13.11.2022
1052 Rain 27 1008 78 10000 5.14 140 13:26 13.11.2022
1053 Clouds 28 1008 74 10000 5.14 140 12:34 13.11.2022
1054 Clouds 28 1008 74 10000 5.14 140 12:34 13.11.2022
1055 Clouds 28 1008 74 10000 5.14 140 12:34 13.11.2022
1056 Clouds 28 1008 74 10000 5.14 140 12:34 13.11.2022
1057 Clouds 28 1007 78 10000 7.72 150 10:48 13.11.2022
1058 Clouds 30 1006 74 10000 7.72 140 06:31 13.11.2022
1059 Clouds 30 1010 66 10000 1.54 0 00:44 13.11.2022
1060 Clouds 26 1008 89 10000 4.12 120 21:59 12.11.2022
1061 Clouds 26 1008 89 10000 4.12 120 21:23 12.11.2022
1062 Clouds 25 1007 88 10000 2.06 0 19:53 12.11.2022
1063 Clouds 26 1008 83 10000 2.06 0 17:53 12.11.2022
1064 Clouds 26 1008 89 10000 4.12 140 16:21 12.11.2022
1065 Clear 26 1009 83 10000 5.14 130 14:50 12.11.2022
1066 Clouds 28 1008 78 10000 7.72 140 11:23 12.11.2022
1067 Clouds 28 1007 76 10000 7.31 155 08:25 12.11.2022
1068 Clouds 29 1010 63 10000 4.49 164 00:41 12.11.2022
1069 Clouds 24 1009 94 10000 1.54 0 21:35 11.11.2022
1070 Clouds 24 1009 86 10000 3.23 109 20:45 11.11.2022
1071 Clouds 24 1008 88 10000 1.54 0 19:29 11.11.2022
1072 Clouds 24 1008 88 10000 1.54 0 18:41 11.11.2022
1073 Clouds 25 1008 83 10000 1.54 0 17:41 11.11.2022
1074 Clouds 25 1009 88 10000 2.57 140 15:30 11.11.2022
1075 Clouds 25 1009 88 10000 2.57 150 14:18 11.11.2022
1076 Clouds 27 1009 78 10000 7.72 150 12:46 11.11.2022
1077 Clouds 28 1008 78 10000 7.72 160 09:36 11.11.2022
1078 Clouds 29 1007 74 10000 7.72 160 08:27 11.11.2022
1079 Clouds 31 1009 62 10000 7.72 190 03:48 11.11.2022
1080 Clear 25 1009 88 10000 1.54 130 22:54 10.11.2022
1081 Clouds 24 1009 88 10000 1.54 0 21:51 10.11.2022
1082 Clouds 24 1009 88 10000 1.54 0 21:29 10.11.2022
1083 Clouds 23 1008 94 10000 1.54 0 20:46 10.11.2022
1084 Clouds 23 1008 94 10000 1.54 0 20:20 10.11.2022
1085 Clouds 23 1008 94 10000 1.54 0 20:20 10.11.2022
1086 Clouds 25 1008 83 10000 5.14 120 18:59 10.11.2022
1087 Clouds 26 1008 78 10000 5.14 150 17:59 10.11.2022
1088 Clouds 26 1008 78 10000 5.14 120 16:25 10.11.2022
1089 Clouds 26 1010 78 10000 5.14 140 13:39 10.11.2022
1090 Haze 27 1007 74 10000 7.72 160 10:26 10.11.2022
1091 Haze 29 1007 70 10000 7.72 150 08:21 10.11.2022
1092 Haze 32 1010 48 10000 7.72 150 01:23 10.11.2022
1093 Haze 29 1010 65 10000 6.17 140 23:21 09.11.2022
1094 Clouds 26 1009 78 10000 2.57 140 21:57 09.11.2022
1095 Clouds 26 1008 83 10000 2.57 140 20:46 09.11.2022
1096 Clouds 26 1008 83 10000 2.57 140 20:28 09.11.2022
1097 Clouds 26 1008 83 10000 2.57 140 19:26 09.11.2022
1098 Clouds 26 1008 89 10000 5.14 130 17:50 09.11.2022
1099 Clouds 25 1009 86 10000 6.85 127 14:59 09.11.2022
1100 Clouds 25 1009 86 10000 6.85 127 14:41 09.11.2022
1101 Clouds 25 1010 86 10000 6.96 128 14:22 09.11.2022
1102 Clouds 28 1009 78 10000 5.14 140 12:57 09.11.2022
1103 Haze 29 1007 79 10000 7.72 160 09:45 09.11.2022
1104 Haze 31 1006 66 10000 7.72 150 07:47 09.11.2022
1105 Haze 32 1006 62 10000 5.14 160 06:55 09.11.2022
1106 Haze 25 1010 88 10000 1.54 0 22:46 08.11.2022
1107 Clouds 26 1010 83 10000 2.67 114 21:43 08.11.2022
1108 Clouds 25 1010 85 10000 2.47 113 21:21 08.11.2022
1109 Clouds 25 1008 88 10000 1.54 0 20:30 08.11.2022
1110 Rain 25 1008 88 10000 2.06 0 19:28 08.11.2022
1111 Haze 24 1008 100 10000 1.54 0 17:37 08.11.2022
1112 Clouds 26 1010 89 10000 1.03 0 15:38 08.11.2022
1113 Clouds 25 1010 85 10000 2.9 117 14:51 08.11.2022
1114 Clouds 25 1010 84 10000 3.18 113 13:34 08.11.2022
1115 Haze 28 1009 83 10000 2.57 130 11:54 08.11.2022
1116 Clouds 31 1006 70 10000 5.14 180 07:45 08.11.2022
1117 Clouds 31 1006 66 10000 2.57 170 06:29 08.11.2022
1118 Haze 28 1010 78 10000 2.57 350 23:50 07.11.2022
1119 Haze 24 1009 94 10000 2.57 320 21:56 07.11.2022
1120 Clouds 24 1008 94 10000 1.03 0 20:58 07.11.2022
1121 Clear 24 1007 94 10000 1.54 0 19:57 07.11.2022
1122 Clear 25 1008 94 10000 2.57 320 17:44 07.11.2022
1123 Clouds 26 1010 89 10000 2.57 50 15:55 07.11.2022
1124 Clouds 26 1010 89 10000 2.57 50 15:32 07.11.2022
1125 Clouds 26 1010 82 10000 3.19 124 13:51 07.11.2022
1126 Clouds 28 1009 83 10000 2.57 160 12:32 07.11.2022
1127 Clouds 28 1009 83 10000 5.14 140 10:46 07.11.2022
1128 Haze 28 1008 78 10000 6.17 150 09:18 07.11.2022
1129 Haze 32 1007 66 10000 5.14 160 06:54 07.11.2022
1130 Clouds 31 1011 62 10000 2.57 140 01:49 07.11.2022
1131 Clouds 27 1011 78 10000 1.54 0 23:47 06.11.2022
1132 Clouds 23 1009 100 10000 1.54 0 21:43 06.11.2022
1133 Clouds 23 1009 100 10000 1.54 0 21:18 06.11.2022
1134 Clouds 25 1008 86 10000 1.48 39 19:57 06.11.2022
1135 Clouds 25 1008 87 10000 1.64 60 19:28 06.11.2022
1136 Clouds 23 1009 100 10000 2.57 360 18:20 06.11.2022
1137 Clouds 24 1009 94 10000 2.57 360 17:42 06.11.2022
1138 Clouds 24 1009 94 10000 2.57 360 17:18 06.11.2022
1139 Clouds 24 1010 94 10000 2.57 310 16:19 06.11.2022
1140 Clouds 24 1011 94 10000 2.57 320 14:53 06.11.2022
1141 Clouds 24 1010 94 10000 1.54 0 12:46 06.11.2022
1142 Clouds 24 1009 94 10000 5.14 20 10:56 06.11.2022
1143 Clouds 24 1009 94 3000 5.14 70 09:52 06.11.2022
1144 Haze 31 1007 70 10000 7.72 160 07:44 06.11.2022
1145 Clouds 28 1011 78 10000 1.54 0 23:23 05.11.2022
1146 Clouds 25 1009 88 10000 1.54 0 20:45 05.11.2022
1147 Clouds 24 1008 94 10000 3.09 300 18:22 05.11.2022
1148 Clouds 24 1010 100 10000 2.06 0 16:35 05.11.2022
1149 Clouds 25 1010 88 10000 1.54 0 14:43 05.11.2022
1150 Clouds 25 1011 88 10000 1.54 0 13:39 05.11.2022
1151 Clouds 25 1009 88 10000 5.14 350 10:59 05.11.2022
1152 Rain 27 1009 74 10000 7.72 30 08:55 05.11.2022
1153 Haze 32 1007 66 10000 7.72 160 07:23 05.11.2022
1154 Haze 32 1007 62 10000 7.72 160 06:54 05.11.2022
1155 Haze 32 1012 58 10000 1.54 0 00:22 05.11.2022
1156 Haze 29 1011 70 10000 2.06 0 23:26 04.11.2022
1157 Haze 29 1011 70 10000 2.06 0 23:26 04.11.2022
1158 -273 0 0 0 0 0 20:38 04.11.2022
1159 Clouds 24 1009 94 10000 1.54 230 19:28 04.11.2022
1160 Clouds 24 1010 94 10000 1.54 0 17:24 04.11.2022
1161 Clouds 28 1012 78 10000 5.14 130 13:53 04.11.2022
1162 Clouds 28 1012 78 10000 5.14 140 12:27 04.11.2022
1163 Clouds 27 1012 83 10000 5.72 135 10:51 04.11.2022
1164 Haze 30 1009 74 10000 5.14 160 08:53 04.11.2022
1165 Haze 32 1009 58 10000 5.14 180 07:43 04.11.2022
1166 Haze 33 1010 52 10000 7.72 190 05:20 04.11.2022
1167 Haze 30 1012 62 10000 5.14 360 23:28 03.11.2022
1168 Clouds 25 1012 83 10000 2.47 60 20:51 03.11.2022
1169 Clouds 25 1012 82 10000 2.7 92 20:28 03.11.2022
1170 Clouds 24 1011 94 10000 2.57 350 19:29 03.11.2022
1171 Clouds 26 1011 83 10000 2.57 330 17:49 03.11.2022
1172 Clouds 25 1011 88 10000 2.57 330 16:52 03.11.2022
1173 Clouds 26 1012 79 10000 2.7 125 14:19 03.11.2022
1174 Clouds 27 1012 78 10000 1.54 0 12:39 03.11.2022
1175 Clouds 26 1011 83 10000 1.54 0 11:47 03.11.2022
1176 Haze 27 1011 78 10000 4.12 30 09:25 03.11.2022
1177 Clouds 29 1009 71 10000 3.69 172 07:43 03.11.2022
1178 Haze 25 1010 94 10000 1.54 0 21:29 02.11.2022
1179 Clouds 25 1009 94 10000 1.54 0 20:39 02.11.2022
1180 Clouds 25 1008 94 10000 2.57 350 19:56 02.11.2022
1181 Clouds 27 1009 83 10000 1.54 0 16:51 02.11.2022
1182 Clouds 27 1010 83 10000 1.54 0 15:50 02.11.2022
1183 Clouds 28 1010 78 10000 3.09 190 14:32 02.11.2022
1184 Clouds 28 1011 78 10000 3.09 150 12:43 02.11.2022
1185 Clouds 29 1009 74 10000 3.6 190 10:46 02.11.2022
1186 Haze 30 1007 66 10000 7.72 210 08:49 02.11.2022
1187 Haze 34 1007 55 10000 7.72 220 05:30 02.11.2022
1188 Haze 30 1010 66 10000 1.54 0 23:53 01.11.2022
1189 Haze 25 1009 94 10000 2.57 320 22:19 01.11.2022
1190 Haze 24 1008 94 10000 5.14 320 21:37 01.11.2022
1191 Haze 25 1008 88 10000 5.14 320 20:25 01.11.2022
1192 Clouds 25 1008 94 10000 5.14 330 19:42 01.11.2022
1193 Clouds 25 1008 90 10000 2.51 15 18:36 01.11.2022
1194 Clouds 24 1008 100 10000 5.14 320 17:28 01.11.2022
1195 Clouds 26 1010 94 10000 3.6 320 15:54 01.11.2022
1196 Rain 28 1011 78 10000 2.06 80 13:35 01.11.2022
1197 Rain 28 1010 78 10000 2.57 320 12:27 01.11.2022
1198 Clouds 28 1009 83 10000 3.09 320 11:22 01.11.2022
1199 Haze 31 1008 70 10000 5.14 280 09:49 01.11.2022
1200 Haze 31 1007 70 10000 2.57 230 08:38 01.11.2022
1201 Haze 32 1006 66 10000 5.14 220 07:29 01.11.2022
1202 Haze 32 1006 66 10000 7.72 210 06:46 01.11.2022
1203 Haze 33 1006 62 10000 5.14 220 05:52 01.11.2022
1204 Haze 34 1008 62 10000 7.72 230 03:32 01.11.2022
1205 Haze 26 1007 94 10000 1.54 0 21:36 31.10.2022
1206 Clouds 25 1006 94 10000 2.57 320 20:25 31.10.2022
1207 Clouds 26 1006 94 10000 2.57 330 18:47 31.10.2022
1208 Clouds 26 1006 86 10000 0.65 26 16:45 31.10.2022
1209 Clouds 28 1007 89 10000 1.54 0 15:52 31.10.2022
1210 Clouds 28 1007 83 10000 2.57 160 13:22 31.10.2022
1211 Haze 29 1005 79 10000 5.14 150 09:53 31.10.2022
1212 Haze 30 1005 74 10000 5.14 170 08:20 31.10.2022
1213 Haze 33 1008 62 10000 5.14 200 02:50 31.10.2022
1214 Haze 32 1008 66 10000 5.14 200 01:49 31.10.2022
1215 Haze 27 1008 89 10000 2.57 330 22:33 30.10.2022
1216 Clouds 25 1007 94 10000 3.09 310 20:45 30.10.2022
1217 Clouds 25 1007 88 10000 1.49 15 19:54 30.10.2022
1218 Clouds 25 1007 85 10000 1.67 67 16:48 30.10.2022
1219 Clouds 28 1008 89 10000 1.54 0 14:57 30.10.2022
1220 Clear 28 1008 89 10000 1.54 0 13:51 30.10.2022
1221 Clear 28 1008 89 10000 1.54 170 12:27 30.10.2022
1222 Clouds 28 1007 83 10000 3.6 170 10:32 30.10.2022
1223 Haze 28 1006 83 10000 5.14 140 09:35 30.10.2022
1224 Haze 31 1005 70 10000 5.14 150 08:18 30.10.2022
1225 Haze 29 1008 74 10000 2.06 0 00:29 30.10.2022
1226 Haze 28 1008 78 10000 2.06 0 23:48 29.10.2022
1227 Clouds 25 1007 94 10000 1.54 0 22:52 29.10.2022
1228 Clouds 26 1006 94 10000 1.54 0 19:57 29.10.2022
1229 Clouds 27 1007 89 10000 1.03 0 17:24 29.10.2022
1230 Clouds 27 1008 89 10000 2.57 180 15:40 29.10.2022
1231 Clouds 28 1008 83 10000 2.57 140 14:56 29.10.2022
1232 Clouds 28 1008 83 10000 2.57 140 14:36 29.10.2022
1233 Clouds 28 1007 83 10000 7.72 160 12:33 29.10.2022
1234 Clouds 28 1006 73 10000 2.55 168 09:43 29.10.2022
1235 Haze 33 1004 62 10000 3.6 180 07:23 29.10.2022
1236 Haze 33 1005 58 10000 6.17 220 05:55 29.10.2022
1237 Haze 26 1007 94 10000 1.54 0 23:51 28.10.2022
1238 Clouds 25 1007 81 10000 1.95 76 21:58 28.10.2022
1239 Clouds 25 1006 94 10000 1.54 0 20:45 28.10.2022
1240 Clouds 26 1006 89 10000 3.09 120 18:39 28.10.2022
1241 Clouds 26 1006 89 10000 3.09 120 18:20 28.10.2022
1242 Clouds 28 1008 83 10000 2.57 160 15:28 28.10.2022
1243 Clouds 28 1008 83 10000 2.57 140 13:44 28.10.2022
1244 Haze 28 1006 83 10000 4.63 160 11:56 28.10.2022
1245 Haze 28 1006 83 10000 4.63 160 11:33 28.10.2022
1246 Haze 29 1006 79 10000 4.63 170 10:45 28.10.2022
1247 Haze 31 1005 66 10000 3.6 170 09:37 28.10.2022
1248 Haze 33 1005 58 10000 5.14 200 07:19 28.10.2022
1249 Smoke 31 1009 62 10000 3.6 340 02:30 28.10.2022
1250 Haze 26 1009 94 10000 1.54 0 23:47 27.10.2022
1251 Haze 25 1007 94 10000 1.54 0 22:37 27.10.2022
1252 Clouds 25 1006 94 10000 1.54 0 20:59 27.10.2022
1253 Clouds 25 1006 94 10000 2.06 0 18:33 27.10.2022
1254 Clouds 26 1007 89 10000 2.06 0 17:22 27.10.2022
1255 Clouds 27 1008 76 10000 4.6 147 12:54 27.10.2022
1256 Clouds 29 1005 70 10000 3.23 174 07:50 27.10.2022
1257 Haze 32 1008 62 10000 5.14 350 02:55 27.10.2022
1258 Haze 26 1008 89 10000 2.06 0 23:53 26.10.2022
1259 Haze 24 1008 94 10000 1.54 0 22:43 26.10.2022
1260 Clouds 25 1007 88 10000 1.54 0 21:38 26.10.2022
1261 Clouds 25 1007 84 10000 2.42 108 18:29 26.10.2022
1262 Clouds 27 1007 89 10000 2.57 190 14:54 26.10.2022
1263 Clouds 27 1007 89 10000 1.03 0 13:34 26.10.2022
1264 Clouds 27 1008 81 10000 4.76 140 12:32 26.10.2022
1265 Clouds 30 1005 74 10000 7.72 150 09:20 26.10.2022
1266 Haze 31 1005 70 10000 6.17 200 08:53 26.10.2022
1267 Haze 32 1005 62 10000 5.14 200 07:52 26.10.2022
1268 Clouds 29 1010 67 10000 0.53 296 00:40 26.10.2022
1269 Clouds 26 1009 89 10000 1.54 0 22:59 25.10.2022
1270 Clouds 26 1008 89 10000 1.54 0 21:46 25.10.2022
1271 Clouds 25 1007 94 10000 2.57 20 20:46 25.10.2022
1272 Clouds 25 1008 85 10000 2.19 101 18:57 25.10.2022
1273 Clouds 26 1008 94 10000 2.57 320 17:49 25.10.2022
1274 Clouds 28 1008 83 10000 5.14 140 13:26 25.10.2022
1275 Clouds 29 1007 84 10000 7.72 160 11:38 25.10.2022
1276 Haze 29 1007 84 10000 5.14 170 10:36 25.10.2022
1277 Haze 32 1006 70 10000 5.14 140 08:43 25.10.2022
1278 Haze 32 1006 70 10000 5.14 140 08:18 25.10.2022
1279 Haze 33 1006 62 10000 5.14 220 07:53 25.10.2022
1280 Haze 33 1006 62 10000 5.14 220 06:52 25.10.2022
1281 Haze 33 1009 55 10000 5.14 240 03:32 25.10.2022
1282 Haze 30 1010 66 10000 1.54 0 00:32 25.10.2022
1283 Haze 24 1009 94 10000 1.54 0 22:28 24.10.2022
1284 Clouds 25 1008 88 10000 1.54 0 21:50 24.10.2022
1285 Clouds 25 1008 88 10000 1.54 0 21:31 24.10.2022
1286 Clouds 25 1008 88 10000 2.57 340 20:29 24.10.2022
1287 Clouds 25 1008 88 10000 1.54 0 18:45 24.10.2022
1288 Clouds 26 1009 89 10000 1.54 0 16:58 24.10.2022
1289 Clouds 26 1009 89 10000 1.54 0 15:34 24.10.2022
1290 Clouds 26 1010 78 10000 3.37 129 14:20 24.10.2022
1291 Clouds 28 1008 83 10000 6.17 150 12:37 24.10.2022
1292 Clouds 30 1006 74 10000 7.72 170 09:27 24.10.2022
1293 Clouds 33 1005 62 10000 7.72 200 07:31 24.10.2022
1294 Fog 24 1009 100 10000 2.06 0 22:39 23.10.2022
1295 Clouds 24 1007 100 10000 1.54 0 20:38 23.10.2022
1296 Clouds 25 1007 94 10000 1.03 0 18:41 23.10.2022
1297 Clouds 25 1008 94 10000 2.06 0 17:28 23.10.2022
1298 Clouds 27 1009 89 10000 2.57 110 15:40 23.10.2022
1299 Clouds 27 1009 89 10000 1.54 0 14:55 23.10.2022
1300 Clouds 28 1007 78 10000 2.57 190 11:40 23.10.2022
1301 Clouds 27 1008 77 10000 0.66 200 10:19 23.10.2022
1302 Haze 32 1009 62 10000 5.14 310 04:40 23.10.2022
1303 Clouds 23 1009 94 10000 3.6 330 22:49 22.10.2022
1304 Clouds 23 1008 94 10000 1.54 0 21:43 22.10.2022
1305 Clouds 23 1008 94 10000 2.06 0 20:57 22.10.2022
1306 Clouds 24 1008 85 10000 1.84 23 19:57 22.10.2022
1307 Clouds 24 1008 85 10000 1.84 23 19:30 22.10.2022
1308 Clouds 24 1008 94 10000 2.57 340 17:39 22.10.2022
1309 Clouds 24 1010 94 10000 2.06 0 15:58 22.10.2022
1310 Clouds 25 1010 88 10000 2.06 0 14:47 22.10.2022
1311 Clouds 25 1010 84 10000 1.47 4 13:54 22.10.2022
1312 Clouds 26 1009 82 10000 2.19 341 10:30 22.10.2022
1313 Clouds 29 1007 79 10000 2.57 240 09:39 22.10.2022
1314 Clouds 29 1007 79 10000 2.57 240 08:30 22.10.2022
1315 Clouds 31 1009 66 10000 5.14 300 03:42 22.10.2022
1316 Clouds 25 1009 94 10000 3.09 330 23:53 21.10.2022
1317 Clouds 24 1008 100 10000 3.09 310 21:36 21.10.2022
1318 Clouds 25 1008 94 10000 1.54 0 20:59 21.10.2022
1319 Clouds 25 1008 94 10000 1.54 0 19:56 21.10.2022
1320 Clouds 25 1009 94 10000 1.54 0 17:20 21.10.2022
1321 Clouds 25 1011 94 10000 1.54 0 14:23 21.10.2022
1322 Clouds 25 1010 94 10000 1.54 0 12:59 21.10.2022
1323 Clouds 25 1009 94 10000 2.57 290 11:33 21.10.2022
1324 Clouds 25 1009 94 10000 2.57 330 10:20 21.10.2022
1325 Haze 28 1007 78 10000 5.14 350 08:39 21.10.2022
1326 Haze 32 1007 62 10000 2.57 230 07:32 21.10.2022
1327 Haze 31 1011 66 10000 3.6 340 01:20 21.10.2022
1328 Clouds 25 1011 91 10000 2.77 36 22:26 20.10.2022
1329 Clouds 25 1009 94 10000 3.6 300 20:38 20.10.2022
1330 Clouds 25 1009 94 10000 2.57 320 19:39 20.10.2022
1331 Clouds 25 1010 94 10000 2.06 0 17:54 20.10.2022
1332 Clouds 25 1010 94 10000 2.06 0 17:33 20.10.2022
1333 Clouds 27 1010 83 10000 2.57 50 12:37 20.10.2022
1334 Clouds 27 1010 83 10000 2.57 50 12:18 20.10.2022
1335 Clouds 27 1010 83 10000 5.14 40 11:20 20.10.2022
1336 Clouds 29 1009 74 10000 5.14 270 10:45 20.10.2022
1337 Clouds 31 1008 66 10000 7.72 260 08:18 20.10.2022
1338 Clouds 27 1010 94 10000 5.14 290 05:43 20.10.2022
1339 Haze 28 1013 78 10000 3.6 340 01:50 20.10.2022
1340 Clouds 24 1011 94 10000 1.54 0 22:46 19.10.2022
1341 Clouds 24 1011 94 10000 2.57 320 21:57 19.10.2022
1342 Clouds 24 1010 94 10000 2.57 310 20:53 19.10.2022
1343 Clouds 24 1009 94 10000 5.14 320 18:50 19.10.2022
1344 Clouds 25 1010 88 10000 5.14 20 17:38 19.10.2022
1345 Clouds 25 1010 88 10000 1.54 0 15:47 19.10.2022
1346 Clouds 25 1012 87 10000 2.47 7 13:51 19.10.2022
1347 Haze 27 1009 83 10000 5.14 340 09:34 19.10.2022
1348 Haze 30 1008 74 10000 5.14 190 08:29 19.10.2022
1349 Haze 32 1007 62 10000 5.14 210 06:25 19.10.2022
1350 Clouds 28 1011 73 10000 1.81 322 01:25 19.10.2022
1351 Clouds 26 1010 86 10000 1.87 5 23:18 18.10.2022
1352 Clouds 25 1010 88 10000 1.92 5 21:45 18.10.2022
1353 Clouds 24 1008 94 10000 2.57 0 20:59 18.10.2022
1354 Clouds 24 1008 94 10000 5.14 320 19:58 18.10.2022
1355 Clouds 24 1009 94 10000 2.57 350 17:44 18.10.2022
1356 Clouds 24 1010 94 10000 2.57 320 16:52 18.10.2022
1357 Clouds 25 1009 88 10000 1.54 0 14:31 18.10.2022
1358 Clouds 26 1008 83 10000 1.54 0 12:33 18.10.2022
1359 Clouds 26 1008 78 10000 5.14 320 11:22 18.10.2022
1360 Haze 29 1007 74 10000 5.14 100 09:45 18.10.2022
1361 Haze 33 1006 66 10000 2.57 160 07:56 18.10.2022
1362 Clouds 29 1009 70 10000 2.51 216 03:19 18.10.2022
1363 Clouds 26 1009 89 10000 2.57 320 22:24 17.10.2022
1364 Clouds 26 1008 89 10000 2.57 320 20:55 17.10.2022
1365 Clouds 26 1008 89 10000 2.57 320 20:31 17.10.2022
1366 Clouds 26 1008 83 10000 1.54 0 19:51 17.10.2022
1367 Clouds 27 1008 78 10000 1.54 0 18:51 17.10.2022
1368 Clouds 27 1009 78 10000 4.12 140 16:52 17.10.2022
1369 Clouds 25 1009 88 10000 4.44 129 15:29 17.10.2022
1370 Clouds 27 1009 83 10000 7.72 150 14:34 17.10.2022
1371 Clouds 26 1008 88 10000 6.43 141 11:23 17.10.2022
1372 Haze 33 1007 62 10000 5.14 150 06:36 17.10.2022
1373 Clouds 26 1011 89 10000 1.54 0 23:30 16.10.2022
1374 Clouds 24 1010 94 10000 1.54 0 21:48 16.10.2022
1375 Clouds 25 1009 94 10000 1.03 0 20:43 16.10.2022
1376 Clouds 25 1009 91 10000 2.17 95 19:46 16.10.2022
1377 Clouds 24 1010 100 10000 2.57 330 17:52 16.10.2022
1378 Clouds 25 1010 88 10000 2.57 320 16:33 16.10.2022
1379 Clouds 26 1010 83 10000 2.57 140 15:57 16.10.2022
1380 Clouds 27 1010 83 10000 5.14 140 14:26 16.10.2022
1381 Clouds 27 1009 78 10000 2.57 310 12:23 16.10.2022
1382 Haze 28 1009 78 10000 2.06 0 10:27 16.10.2022
1383 Haze 31 1007 74 10000 6.69 140 08:44 16.10.2022
1384 Haze 30 1011 74 10000 3.09 300 01:26 16.10.2022
1385 Clouds 25 1009 94 10000 1.54 0 22:43 15.10.2022
1386 Clouds 25 1008 94 10000 1.54 0 21:25 15.10.2022
1387 Clouds 26 1008 94 10000 2.57 20 20:43 15.10.2022
1388 Clouds 26 1008 94 10000 2.57 320 18:44 15.10.2022
1389 Clouds 26 1009 88 10000 3.59 126 15:49 15.10.2022
1390 Clouds 26 1009 87 10000 3.83 131 14:39 15.10.2022
1391 Clouds 28 1008 89 10000 2.57 150 11:57 15.10.2022
1392 Clouds 28 1008 83 10000 7.72 150 10:47 15.10.2022
1393 Haze 32 1006 66 10000 7.72 190 08:54 15.10.2022
1394 Clouds 32 1009 66 10000 5.14 300 02:42 15.10.2022
1395 Haze 26 1009 94 10000 5.14 320 23:56 14.10.2022
1396 Haze 25 1008 94 10000 5.14 310 22:23 14.10.2022
1397 Clouds 25 1007 94 10000 1.54 0 21:29 14.10.2022
1398 Clouds 25 1007 88 10000 1.54 0 19:54 14.10.2022
1399 Clouds 26 1008 89 10000 5.14 150 16:38 14.10.2022
1400 Clouds 28 1008 83 10000 5.14 150 13:28 14.10.2022
1401 Clouds 28 1008 83 10000 7.72 150 12:19 14.10.2022
1402 Haze 29 1006 79 10000 7.72 170 09:31 14.10.2022
1403 Haze 31 1006 70 10000 7.72 140 07:22 14.10.2022
1404 Haze 32 1006 66 10000 10.29 140 06:18 14.10.2022
1405 Haze 32 1007 66 10000 8.75 150 05:42 14.10.2022
1406 Haze 31 1009 66 10000 5.14 220 03:44 14.10.2022
1407 Clouds 26 1009 94 10000 1.54 0 23:54 13.10.2022
1408 Clouds 25 1008 94 10000 1.54 0 22:22 13.10.2022
1409 Clouds 25 1007 94 10000 1.03 0 21:25 13.10.2022
1410 Clouds 25 1007 94 10000 1.54 140 19:49 13.10.2022
1411 Clouds 25 1007 94 10000 1.54 140 19:25 13.10.2022
1412 Clouds 26 1007 83 10000 2.57 120 18:42 13.10.2022
1413 Clouds 27 1008 83 10000 7.72 140 16:50 13.10.2022
1414 Clouds 26 1009 89 10000 5.14 150 15:45 13.10.2022
1415 Clouds 26 1009 86 10000 5.71 133 14:19 13.10.2022
1416 Clouds 27 1008 89 10000 5.14 140 12:49 13.10.2022
1417 Clouds 28 1007 83 10000 5.14 160 11:35 13.10.2022
1418 Haze 29 1006 74 10000 7.72 150 09:40 13.10.2022
1419 Haze 31 1006 70 10000 7.72 160 07:40 13.10.2022
1420 Haze 31 1006 66 10000 7.72 140 06:40 13.10.2022
1421 Haze 29 1009 70 10000 1.54 0 01:48 13.10.2022
1422 Haze 28 1009 74 10000 1.54 0 00:53 13.10.2022
1423 Haze 23 1008 100 10000 1.54 322 22:46 12.10.2022
1424 Clouds 24 1007 94 10000 2.57 340 21:55 12.10.2022
1425 Clouds 24 1007 94 10000 2.57 340 21:21 12.10.2022
1426 Clouds 24 1008 86 10000 2.78 113 20:52 12.10.2022
1427 Clouds 24 1007 94 10000 1.03 0 19:29 12.10.2022
1428 Clouds 25 1007 88 10000 1.03 0 18:21 12.10.2022
1429 Clouds 25 1007 84 10000 3.87 115 17:45 12.10.2022
1430 Clouds 27 1009 78 10000 5.14 130 15:35 12.10.2022
1431 Clouds 28 1009 74 10000 7.72 140 13:55 12.10.2022
1432 Clouds 28 1009 74 10000 7.72 140 12:34 12.10.2022
1433 Haze 29 1006 74 10000 7.72 150 09:37 12.10.2022
1434 Haze 31 1005 70 10000 7.72 160 07:42 12.10.2022
1435 Haze 32 1006 66 10000 7.72 160 06:45 12.10.2022
1436 Haze 32 1006 66 10000 7.72 160 06:22 12.10.2022
1437 Haze 27 1009 83 10000 1.03 290 00:55 12.10.2022
1438 Clouds 23 1007 100 10000 1.03 0 21:43 11.10.2022
1439 Clouds 24 1006 94 10000 1.54 300 20:36 11.10.2022
1440 Clouds 24 1007 100 10000 1.54 0 18:28 11.10.2022
1441 Clouds 25 1008 94 10000 1.54 0 16:33 11.10.2022
1442 Clouds 25 1009 94 10000 1.54 0 14:34 11.10.2022
1443 Drizzle 26 1007 94 10000 1.54 0 11:52 11.10.2022
1444 Clouds 26 1007 94 5000 3.09 140 10:28 11.10.2022
1445 Clouds 27 1006 80 9125 3.36 154 09:26 11.10.2022
1446 Haze 32 1007 66 10000 7.72 250 05:36 11.10.2022
1447 Haze 31 1009 66 10000 5.14 305 02:19 11.10.2022
1448 Clouds 28 1009 78 10000 2.57 340 00:27 11.10.2022
1449 Clouds 23 1008 100 10000 2.57 330 21:23 10.10.2022
1450 Clear 24 1007 94 10000 2.57 310 19:45 10.10.2022
1451 Clear 24 1007 94 10000 2.57 320 18:25 10.10.2022
1452 Clear 24 1008 94 10000 2.57 350 16:48 10.10.2022
1453 Clouds 25 1009 88 10000 1.54 0 14:48 10.10.2022
1454 Clouds 26 1008 83 10000 1.54 0 12:38 10.10.2022
1455 Clouds 26 1007 83 10000 2.57 320 11:18 10.10.2022
1456 Clouds 30 1005 74 10000 5.14 160 07:47 10.10.2022
1457 Clouds 31 1006 70 10000 7.72 200 05:39 10.10.2022
1458 Clouds 31 1008 62 10000 5.14 350 02:50 10.10.2022
1459 Clouds 28 1008 74 10000 1.54 0 00:26 10.10.2022
1460 Clouds 24 1007 94 10000 2.57 290 22:27 09.10.2022
1461 Clouds 25 1008 89 10000 2.37 29 21:54 09.10.2022
1462 Clouds 24 1006 94 10000 2.57 300 20:57 09.10.2022
1463 Clouds 24 1007 94 10000 1.54 0 19:53 09.10.2022
1464 Clouds 24 1007 94 10000 1.54 0 19:23 09.10.2022
1465 Clouds 24 1008 94 10000 2.57 330 18:32 09.10.2022
1466 Clouds 25 1009 94 10000 3.09 350 16:56 09.10.2022
1467 Clouds 25 1009 94 10000 3.09 350 16:25 09.10.2022
1468 Clouds 26 1010 89 10000 1.54 0 15:36 09.10.2022
1469 Clouds 26 1010 89 10000 0 0 14:28 09.10.2022
1470 Clouds 26 1008 89 10000 3.6 320 12:58 09.10.2022
1471 Clouds 27 1008 89 10000 3.6 50 11:44 09.10.2022
1472 Haze 27 1007 94 10000 5.14 140 10:37 09.10.2022
1473 Haze 31 1005 70 10000 7.2 140 08:25 09.10.2022
1474 Haze 30 1009 74 10000 7.72 220 03:36 09.10.2022
1475 Clouds 31 1010 70 10000 5.14 310 02:24 09.10.2022
1476 Clouds 27 1009 89 10000 2.06 0 23:57 08.10.2022
1477 Clouds 26 1008 94 10000 2.57 350 22:53 08.10.2022
1478 Clouds 26 1008 94 10000 3.6 320 21:44 08.10.2022
1479 Clouds 26 1007 94 10000 3.6 350 20:25 08.10.2022
1480 Clouds 25 1008 94 10000 2.57 330 18:32 08.10.2022
1481 Clouds 27 1009 83 10000 2.57 110 15:59 08.10.2022
1482 Clouds 27 1009 83 10000 7.72 150 14:42 08.10.2022
1483 Clouds 27 1009 89 10000 7.72 150 12:38 08.10.2022
1484 Clouds 27 1008 84 10000 6.53 144 10:37 08.10.2022
1485 Haze 29 1007 79 10000 7.72 150 09:52 08.10.2022
1486 Haze 30 1007 74 10000 5.14 150 08:41 08.10.2022
1487 Haze 31 1010 66 10000 5.14 340 03:50 08.10.2022
1488 Haze 27 1011 83 10000 2.06 0 00:35 08.10.2022
1489 Haze 25 1010 94 10000 1.54 0 23:21 07.10.2022
1490 Clouds 23 1009 100 10000 1.54 0 22:39 07.10.2022
1491 Clouds 23 1008 100 10000 2.57 320 20:50 07.10.2022
1492 Clouds 23 1008 100 10000 2.57 320 19:32 07.10.2022
1493 Clouds 24 1008 100 10000 1.54 0 17:46 07.10.2022
1494 Clouds 24 1009 94 10000 2.06 0 16:40 07.10.2022
1495 Clouds 26 1008 89 10000 2.39 133 14:54 07.10.2022
1496 Clouds 25 1008 88 10000 2.57 350 12:35 07.10.2022
1497 Haze 29 1006 79 10000 5.14 150 09:28 07.10.2022
1498 Haze 29 1006 79 10000 5.14 150 08:56 07.10.2022
1499 Haze 32 1006 62 10000 7.72 200 06:51 07.10.2022
1500 Haze 29 1009 79 10000 1.54 0 00:52 07.10.2022
1501 Haze 26 1008 94 10000 1.54 0 22:50 06.10.2022
1502 Haze 27 1007 89 10000 1.54 0 21:44 06.10.2022
1503 Haze 27 1007 89 10000 1.54 0 21:25 06.10.2022
1504 Haze 27 1007 89 10000 1.03 0 19:59 06.10.2022
1505 Haze 27 1007 89 10000 1.54 0 18:37 06.10.2022
1506 Haze 27 1007 89 10000 1.54 0 18:18 06.10.2022
1507 Haze 27 1009 89 10000 4.12 150 14:51 06.10.2022
1508 Haze 28 1007 83 10000 5.14 150 11:38 06.10.2022
1509 Haze 31 1006 70 10000 5.14 150 07:24 06.10.2022
1510 Haze 30 1009 74 10000 5.14 150 03:35 06.10.2022
1511 Clouds 26 1010 94 10000 1.54 0 23:44 05.10.2022
1512 Clouds 25 1008 94 10000 5.14 100 21:21 05.10.2022
1513 Clouds 25 1008 94 10000 2.57 300 18:57 05.10.2022
1514 Clouds 25 1009 94 10000 1.54 0 17:35 05.10.2022
1515 Clouds 25 1010 94 10000 1.54 0 15:57 05.10.2022
1516 Clouds 26 1011 89 10000 2.06 0 14:47 05.10.2022
1517 Clouds 26 1010 94 10000 5.14 130 13:56 05.10.2022
1518 Clouds 26 1010 89 10000 1.54 0 12:20 05.10.2022
1519 Drizzle 27 1007 94 10000 5.14 160 09:21 05.10.2022
1520 Haze 32 1006 62 10000 5.14 170 07:42 05.10.2022
1521 Haze 33 1008 58 10000 2.57 180 05:39 05.10.2022
1522 Haze 33 1009 55 10000 2.57 170 04:18 05.10.2022
1523 Haze 28 1010 74 10000 2.57 110 00:46 05.10.2022
1524 Haze 28 1010 74 10000 2.57 110 00:24 05.10.2022
1525 Haze 24 1009 94 10000 2.57 310 22:34 04.10.2022
1526 Clouds 25 1008 89 10000 2.29 105 20:31 04.10.2022
1527 Clouds 24 1008 94 10000 1.54 0 18:58 04.10.2022
1528 Clouds 24 1008 94 10000 1.54 0 18:58 04.10.2022
1529 Clouds 24 1008 94 10000 1.54 0 18:36 04.10.2022
1530 Clouds 24 1008 100 10000 1.54 0 17:44 04.10.2022
1531 Clouds 25 1008 88 10000 3.09 320 16:28 04.10.2022
1532 Clouds 26 1009 89 10000 1.54 0 12:41 04.10.2022
1533 Haze 31 1006 74 10000 7.72 150 09:32 04.10.2022
1534 Haze 32 1006 66 10000 5.14 160 07:23 04.10.2022
1535 Clouds 30 1010 74 10000 1.54 220 01:44 04.10.2022
1536 Haze 26 1009 94 10000 1.54 0 23:40 03.10.2022
1537 Clouds 25 1009 89 10000 1.55 93 21:52 03.10.2022
1538 Clouds 25 1007 94 10000 1.54 0 20:55 03.10.2022
1539 Clouds 24 1007 100 10000 2.57 320 19:34 03.10.2022
1540 Clouds 25 1007 94 10000 1.03 0 17:53 03.10.2022
1541 Clouds 25 1008 94 10000 1.54 0 16:43 03.10.2022
1542 Clouds 25 1008 94 10000 2.06 0 15:27 03.10.2022
1543 Clouds 25 1008 94 10000 2.06 0 13:45 03.10.2022
1544 Clouds 27 1008 83 10000 2.06 0 12:22 03.10.2022
1545 Haze 28 1007 89 10000 7.72 140 10:38 03.10.2022
1546 Smoke 30 1005 74 10000 7.72 140 09:35 03.10.2022
1547 Haze 33 1006 62 10000 7.72 160 05:34 03.10.2022
1548 Haze 33 1009 62 10000 3.09 170 02:36 03.10.2022
1549 Clouds 25 1009 94 10000 3.09 340 22:24 02.10.2022
1550 Clouds 24 1008 100 10000 2.57 330 20:37 02.10.2022
1551 Clouds 25 1007 94 10000 2.57 130 18:30 02.10.2022
1552 Clouds 25 1008 94 10000 3.09 150 17:35 02.10.2022
1553 Clouds 26 1008 89 10000 2.57 130 16:33 02.10.2022
1554 Haze 26 1009 89 10000 1.54 140 15:40 02.10.2022
1555 Clouds 27 1009 83 10000 3.09 140 13:51 02.10.2022
1556 Clouds 28 1008 83 10000 4.12 130 12:51 02.10.2022
1557 Clouds 28 1008 83 10000 4.12 130 12:24 02.10.2022
1558 Clouds 28 1008 83 10000 5.14 150 11:36 02.10.2022
1559 Clouds 27 1008 83 10000 5.63 147 10:36 02.10.2022
1560 Clouds 28 1006 75 10000 5.38 148 08:53 02.10.2022
1561 Haze 31 1005 66 10000 5.14 150 07:29 02.10.2022
1562 Haze 30 1009 70 10000 4.12 340 02:54 02.10.2022
1563 Haze 28 1009 78 10000 4.12 340 00:45 02.10.2022
1564 Haze 27 1009 83 10000 2.57 0 23:43 01.10.2022
1565 Haze 25 1008 94 10000 1.54 0 22:31 01.10.2022
1566 Clouds 25 1007 94 10000 1.54 0 19:58 01.10.2022
1567 Clouds 26 1008 89 10000 5.14 140 17:49 01.10.2022
1568 Clouds 26 1008 89 10000 3.09 140 16:29 01.10.2022
1569 Clear 26 1009 88 10000 6.16 132 14:19 01.10.2022
1570 Clouds 28 1008 83 10000 7.2 140 12:57 01.10.2022
1571 Clouds 28 1008 83 10000 7.2 140 12:29 01.10.2022
1572 Clouds 28 1008 83 10000 7.2 140 12:29 01.10.2022
1573 Clouds 26 1007 87 10000 7.6 148 11:19 01.10.2022
1574 Haze 28 1006 83 10000 7.72 160 10:31 01.10.2022
1575 Haze 29 1006 79 10000 10.29 160 09:27 01.10.2022
1576 Haze 31 1006 66 10000 7.72 160 08:41 01.10.2022
1577 Haze 31 1009 70 10000 4.12 220 03:55 01.10.2022
1578 Haze 31 1009 70 10000 4.12 220 03:28 01.10.2022
1579 Haze 27 1009 83 10000 1.54 0 23:33 30.09.2022
1580 Clouds 25 1008 94 10000 1.03 0 22:19 30.09.2022
1581 Clouds 25 1008 94 10000 1.03 0 22:19 30.09.2022
1582 Clouds 25 1008 94 10000 2.57 130 21:22 30.09.2022
1583 Clear 25 1008 87 10000 1 77 20:42 30.09.2022
1584 Clouds 26 1008 89 10000 2.57 140 19:30 30.09.2022
1585 Clouds 27 1008 83 10000 5.14 120 17:27 30.09.2022
1586 Clouds 27 1009 89 10000 7.72 160 14:55 30.09.2022
1587 Clouds 28 1009 78 10000 7.72 160 13:24 30.09.2022
1588 Clouds 27 1009 84 10000 7.09 136 11:56 30.09.2022
1589 Haze 30 1006 74 10000 5.14 170 09:50 30.09.2022
1590 Haze 31 1006 70 10000 5.14 170 08:20 30.09.2022
1591 Haze 32 1010 62 10000 7.72 220 04:24 30.09.2022
1592 Clouds 29 1012 70 10000 1.45 217 02:22 30.09.2022
1593 Clouds 24 1010 100 10000 5.14 330 22:23 29.09.2022
1594 Clouds 24 1009 100 10000 1.54 0 21:25 29.09.2022
1595 Clouds 25 1009 94 10000 1.54 0 19:58 29.09.2022
1596 Clouds 25 1009 94 10000 1.54 0 18:30 29.09.2022
1597 Clouds 25 1009 94 10000 1.54 0 18:30 29.09.2022
1598 Clouds 26 1011 89 10000 4.12 130 16:29 29.09.2022
1599 Clouds 27 1011 89 10000 4.12 150 15:37 29.09.2022
1600 Clouds 27 1011 89 10000 5.14 140 14:59 29.09.2022
1601 Clouds 28 1010 89 10000 5.14 150 12:54 29.09.2022
1602 Clouds 31 1007 66 10000 5.14 150 08:51 29.09.2022
1603 Clouds 32 1009 66 10000 5.14 200 05:35 29.09.2022
1604 Clouds 30 1011 70 10000 5.14 320 02:37 29.09.2022
1605 Clouds 25 1010 94 10000 2.57 310 23:29 28.09.2022
1606 Clouds 24 1009 94 10000 3.09 340 22:22 28.09.2022
1607 Clouds 24 1008 100 10000 2.06 340 21:25 28.09.2022
1608 Clouds 25 1008 88 10000 2.07 348 19:57 28.09.2022
1609 Clouds 25 1008 94 10000 1.54 0 17:19 28.09.2022
1610 Clouds 25 1010 94 10000 1.54 0 14:35 28.09.2022
1611 Clouds 25 1008 94 10000 1.54 0 11:49 28.09.2022
1612 Haze 25 1008 94 10000 5.14 120 10:22 28.09.2022
1613 Haze 31 1006 70 10000 5.14 180 07:53 28.09.2022
1614 Haze 31 1006 70 10000 5.14 190 06:27 28.09.2022
1615 Haze 29 1009 74 10000 5.14 330 01:47 28.09.2022
1616 Haze 29 1009 74 10000 5.14 330 01:25 28.09.2022
1617 Clouds 23 1008 100 10000 2.06 0 22:49 27.09.2022
1618 Clouds 24 1007 94 10000 1.54 0 21:20 27.09.2022
1619 Clouds 24 1007 94 10000 2.57 0 20:34 27.09.2022
1620 Clouds 24 1007 94 10000 3.6 320 19:40 27.09.2022
1621 Clouds 24 1007 94 10000 2.06 0 17:47 27.09.2022
1622 Clouds 24 1008 100 10000 1.54 0 16:56 27.09.2022
1623 Clouds 24 1008 94 10000 1.54 0 15:18 27.09.2022
1624 Clouds 24 1009 94 10000 2.57 340 13:53 27.09.2022
1625 Clouds 25 1009 94 10000 5.14 30 12:37 27.09.2022
1626 Haze 28 1007 83 10000 7.72 160 10:35 27.09.2022
1627 Haze 31 1005 70 10000 7.72 150 07:55 27.09.2022
1628 Haze 30 1008 70 10000 6.17 180 04:52 27.09.2022
1629 Haze 30 1009 70 10000 4.12 330 01:40 27.09.2022
1630 Haze 25 1008 88 10000 2.06 330 23:52 26.09.2022
1631 Haze 25 1008 88 10000 2.06 330 23:24 26.09.2022
1632 Clear 24 1007 89 10000 1.39 40 21:20 26.09.2022
1633 Clouds 24 1007 94 10000 3.09 340 19:49 26.09.2022
1634 Clouds 25 1007 94 10000 1.03 0 18:55 26.09.2022
1635 Clouds 25 1007 90 10000 3.2 117 17:25 26.09.2022
1636 Clouds 27 1008 83 10000 5.14 160 15:23 26.09.2022
1637 Clouds 28 1007 83 10000 5.14 130 12:31 26.09.2022
1638 Haze 29 1006 79 10000 4.63 150 10:43 26.09.2022
1639 Haze 29 1006 79 10000 4.63 150 10:23 26.09.2022
1640 Haze 29 1005 74 10000 7.72 150 09:57 26.09.2022
1641 Haze 29 1005 74 10000 7.72 150 09:27 26.09.2022
1642 Haze 31 1005 74 10000 7.72 140 08:59 26.09.2022
1643 Haze 32 1007 70 10000 7.72 190 05:30 26.09.2022
1644 Haze 30 1009 74 10000 4.12 350 01:57 26.09.2022
1645 Haze 25 1009 94 10000 1.54 0 23:23 25.09.2022
1646 Clouds 24 1007 100 10000 2.57 340 21:44 25.09.2022
1647 Clouds 24 1007 100 10000 4.12 330 20:57 25.09.2022
1648 Clouds 24 1007 100 10000 4.12 330 20:33 25.09.2022
1649 Clouds 25 1007 94 10000 1.54 0 18:44 25.09.2022
1650 Clouds 25 1007 94 10000 1.54 0 18:24 25.09.2022
1651 Clouds 26 1008 94 10000 5.14 160 16:59 25.09.2022
1652 Clouds 27 1008 89 10000 5.14 160 15:50 25.09.2022
1653 Clouds 27 1009 89 10000 5.14 150 14:35 25.09.2022
1654 Clouds 27 1008 89 10000 5.14 150 13:45 25.09.2022
1655 Haze 29 1006 79 10000 7.72 170 10:37 25.09.2022
1656 Haze 30 1005 74 10000 7.72 140 09:21 25.09.2022
1657 Haze 32 1006 62 10000 7.72 190 06:53 25.09.2022
1658 Haze 31 1008 66 10000 7.72 200 04:28 25.09.2022
1659 Haze 24 1008 100 10000 1.03 0 23:36 24.09.2022
1660 Clouds 24 1007 94 10000 1.54 0 21:19 24.09.2022
1661 Clouds 24 1007 100 10000 2.06 0 19:33 24.09.2022
1662 Clouds 24 1007 100 10000 1.54 0 18:44 24.09.2022
1663 Clouds 25 1008 94 10000 1.54 0 16:43 24.09.2022
1664 Clouds 25 1009 94 10000 1.54 0 15:23 24.09.2022
1665 Clouds 26 1009 94 10000 1.54 0 14:27 24.09.2022
1666 Clouds 26 1008 94 10000 2.57 160 12:59 24.09.2022
1667 Clouds 26 1008 94 10000 2.57 160 12:22 24.09.2022
1668 Haze 27 1006 83 10000 7.72 170 09:58 24.09.2022
1669 Haze 28 1006 78 10000 7.72 160 08:51 24.09.2022
1670 Haze 29 1006 70 10000 7.72 170 07:40 24.09.2022
1671 Haze 30 1008 66 10000 2.57 190 04:50 24.09.2022
1672 Haze 29 1009 61 10000 2.57 200 03:44 24.09.2022
1673 Clouds 24 1009 85 10000 1.97 96 22:48 23.09.2022
1674 Clouds 22 1008 94 10000 2.57 310 21:32 23.09.2022
1675 Clouds 22 1008 94 10000 2.06 0 20:57 23.09.2022
1676 Clouds 22 1008 94 10000 2.06 0 20:23 23.09.2022
1677 Clouds 23 1008 94 10000 1.54 0 18:51 23.09.2022
1678 Clouds 23 1010 94 10000 2.57 0 15:29 23.09.2022
1679 Clouds 25 1009 78 10000 1.03 0 11:28 23.09.2022
1680 Haze 26 1008 73 10000 1.54 340 09:35 23.09.2022
1681 Haze 29 1009 70 10000 5.14 0 05:59 23.09.2022
1682 Clouds 27 1011 83 10000 1.54 0 00:41 23.09.2022
1683 Clouds 25 1010 94 10000 1.54 0 23:22 22.09.2022
1684 Clouds 24 1009 100 10000 2.57 160 22:27 22.09.2022
1685 Clouds 24 1008 100 10000 1.54 0 21:18 22.09.2022
1686 Clouds 24 1008 100 10000 1.54 0 19:58 22.09.2022
1687 Clouds 25 1009 94 10000 2.57 250 17:28 22.09.2022
1688 Haze 26 1009 83 10000 2.57 350 12:52 22.09.2022
1689 Haze 27 1007 78 10000 2.57 340 10:36 22.09.2022
1690 Haze 31 1007 66 10000 5.14 140 08:56 22.09.2022
1691 Haze 31 1007 66 10000 7.72 140 06:57 22.09.2022
1692 Haze 31 1010 66 10000 7.72 160 04:36 22.09.2022
1693 Clouds 24 1010 94 10000 1.54 0 23:31 21.09.2022
1694 Clouds 24 1008 94 10000 1.54 0 21:50 21.09.2022
1695 Clouds 24 1008 94 10000 1.54 0 20:34 21.09.2022
1696 Clouds 25 1009 94 10000 1.54 0 17:50 21.09.2022
1697 Clouds 25 1010 94 10000 2.57 160 16:53 21.09.2022
1698 Haze 25 1010 88 10000 1.54 0 14:37 21.09.2022
1699 Haze 25 1010 88 10000 5.14 350 12:54 21.09.2022
1700 Haze 25 1010 94 10000 2.57 0 11:29 21.09.2022
1701 Haze 25 1009 88 10000 2.57 0 10:29 21.09.2022
1702 Haze 27 1008 83 10000 5.14 340 09:21 21.09.2022
1703 Haze 31 1007 66 10000 5.14 210 07:41 21.09.2022
1704 Haze 30 1011 70 10000 2.06 270 02:48 21.09.2022
1705 Haze 30 1011 70 10000 2.06 270 02:28 21.09.2022
1706 Clouds 27 1011 76 10000 1.49 260 00:34 21.09.2022
1707 Clouds 25 1010 83 10000 1.24 14 23:18 20.09.2022
1708 Clouds 25 1008 85 10000 1.28 73 20:52 20.09.2022
1709 Clouds 25 1008 94 10000 1.54 0 19:32 20.09.2022
1710 Clouds 25 1009 100 10000 2.57 200 16:28 20.09.2022
1711 Clouds 25 1009 100 10000 5.14 150 14:46 20.09.2022
1712 Clouds 26 1009 94 10000 2.57 180 13:28 20.09.2022
1713 Clouds 27 1008 89 3000 5.14 110 09:50 20.09.2022
1714 Haze 32 1006 66 10000 5.14 130 08:27 20.09.2022
1715 Clouds 30 1007 66 10000 5.54 165 05:24 20.09.2022
1716 Clouds 30 1010 66 10000 4.12 170 03:59 20.09.2022
1717 Clouds 23 1010 94 10000 1.54 0 22:59 19.09.2022
1718 Clouds 23 1010 94 10000 1.54 0 22:18 19.09.2022
1719 Clouds 23 1009 100 10000 2.57 320 20:51 19.09.2022
1720 Clouds 23 1009 100 10000 2.57 320 20:31 19.09.2022
1721 Clouds 23 1010 94 10000 2.57 320 17:45 19.09.2022
1722 Clouds 25 1011 87 10000 1.71 116 15:34 19.09.2022
1723 Clouds 24 1011 94 10000 1.03 0 13:32 19.09.2022
1724 Clouds 25 1010 88 10000 3.09 350 11:25 19.09.2022
1725 Haze 29 1008 79 10000 9.26 160 08:51 19.09.2022
1726 Clouds 30 1009 74 10000 2.57 180 07:25 19.09.2022
1727 Haze 29 1013 70 10000 2.57 0 01:55 19.09.2022
1728 Haze 26 1011 89 10000 1.54 0 23:22 18.09.2022
1729 Clouds 26 1010 89 10000 1.54 0 21:44 18.09.2022
1730 Clouds 26 1009 89 10000 1.54 0 20:25 18.09.2022
1731 Clouds 25 1009 94 10000 1.54 0 18:33 18.09.2022
1732 Clouds 26 1010 89 10000 1.54 0 17:39 18.09.2022
1733 Clouds 25 1011 88 10000 1.27 20 15:46 18.09.2022
1734 Clouds 28 1010 83 10000 2.06 0 13:51 18.09.2022
1735 Clouds 28 1010 83 10000 2.57 320 12:35 18.09.2022
1736 Clouds 28 1009 83 10000 2.57 200 11:24 18.09.2022
1737 Clouds 31 1010 70 10000 6.17 180 04:26 18.09.2022
1738 Clear 30 1011 66 10000 2.06 0 01:25 18.09.2022
1739 Clear 27 1011 83 10000 1.54 0 00:23 18.09.2022
1740 Clouds 23 1009 100 10000 2.06 0 21:40 17.09.2022
1741 Clouds 25 1009 88 10000 1.83 28 19:43 17.09.2022
1742 Clouds 25 1009 88 10000 1.83 28 19:43 17.09.2022
1743 Clouds 24 1010 94 10000 1.54 0 18:57 17.09.2022
1744 Clouds 26 1010 87 10000 1.03 104 16:18 17.09.2022
1745 Clouds 26 1011 87 10000 1.21 129 13:56 17.09.2022
1746 Haze 27 1008 89 10000 5.14 150 10:57 17.09.2022
1747 Haze 30 1008 74 10000 0.65 337 08:55 17.09.2022
1748 Haze 32 1008 66 10000 7.72 230 06:24 17.09.2022
1749 Clouds 26 1010 81 10000 0.87 1 00:20 17.09.2022
1750 Haze 25 1009 100 10000 1.54 0 22:52 16.09.2022
1751 Clouds 25 1008 100 10000 5.14 320 21:22 16.09.2022
1752 Clouds 25 1008 100 10000 1.54 0 19:50 16.09.2022
1753 Clouds 26 1009 89 10000 2.57 330 16:38 16.09.2022
1754 Clouds 26 1009 89 10000 2.06 0 14:58 16.09.2022
1755 Clouds 26 1009 83 10000 2.06 0 13:43 16.09.2022
1756 Clouds 27 1007 89 10000 2.06 0 11:31 16.09.2022
1757 Haze 31 1005 70 10000 5.14 160 08:19 16.09.2022
1758 Smoke 32 1005 66 10000 5.14 170 07:18 16.09.2022
1759 Haze 32 1006 62 10000 7.72 190 06:34 16.09.2022
1760 Haze 30 1010 74 10000 5.14 200 02:38 16.09.2022
1761 Clouds 25 1009 94 10000 1.03 0 22:43 15.09.2022
1762 Clouds 25 1008 94 10000 1.03 0 20:57 15.09.2022
1763 Clouds 25 1008 90 10000 2.09 111 19:48 15.09.2022
1764 Clouds 25 1009 88 10000 2.68 119 18:29 15.09.2022
1765 Clouds 26 1009 89 10000 1.03 0 17:31 15.09.2022
1766 Clouds 26 1010 89 10000 2.06 170 16:37 15.09.2022
1767 Clouds 26 1010 89 10000 5.14 140 14:20 15.09.2022
1768 Clouds 27 1009 78 10000 5.14 150 12:20 15.09.2022
1769 Haze 29 1007 74 10000 5.14 150 09:52 15.09.2022
1770 Haze 32 1007 62 10000 5.14 150 07:50 15.09.2022
1771 Haze 32 1010 66 10000 5.14 200 03:52 15.09.2022
1772 Haze 26 1011 94 10000 1.54 0 23:43 14.09.2022
1773 Haze 25 1010 94 10000 1.54 0 21:26 14.09.2022
1774 Haze 26 1010 89 10000 1.03 0 19:33 14.09.2022
1775 Haze 26 1010 89 10000 2.57 140 18:30 14.09.2022
1776 Clear 26 1011 89 10000 6.17 150 16:40 14.09.2022
1777 Clear 26 1011 89 10000 5.14 160 15:29 14.09.2022
1778 Clouds 27 1011 89 10000 5.14 150 13:35 14.09.2022
1779 Haze 28 1010 83 10000 4.63 140 10:47 14.09.2022
1780 Haze 29 1009 79 10000 7.72 130 09:27 14.09.2022
1781 Haze 32 1010 62 10000 5.66 200 06:50 14.09.2022
1782 Haze 32 1010 62 10000 5.66 200 06:31 14.09.2022
1783 Haze 32 1012 62 10000 3.09 220 03:21 14.09.2022
1784 Clouds 27 1013 73 10000 2.12 192 01:41 14.09.2022
1785 Clouds 27 1013 73 10000 0.78 194 01:19 14.09.2022
1786 Clouds 25 1013 88 10000 1.54 0 23:55 13.09.2022
1787 Clouds 25 1013 88 10000 1.54 0 23:37 13.09.2022
1788 Clouds 24 1013 82 10000 1.54 27 23:19 13.09.2022
1789 Clouds 25 1012 83 10000 3.6 30 22:32 13.09.2022
1790 Clouds 24 1011 94 10000 1.54 0 21:39 13.09.2022
1791 Clouds 25 1011 94 10000 1.54 0 18:59 13.09.2022
1792 Clouds 25 1011 94 10000 1.54 0 16:42 13.09.2022
1793 Clouds 26 1012 89 10000 1.54 0 15:31 13.09.2022
1794 Clouds 26 1011 89 10000 1.54 0 13:41 13.09.2022
1795 Clouds 27 1010 83 10000 5.14 140 11:23 13.09.2022
1796 Haze 30 1009 74 10000 10.29 160 08:18 13.09.2022
1797 Haze 30 1013 70 10000 5.14 210 02:27 13.09.2022
1798 Fog 23 1012 100 300 1.54 0 23:23 12.09.2022
1799 Fog 23 1011 100 10000 1.54 0 22:44 12.09.2022
1800 Clouds 23 1010 100 10000 1.54 0 21:35 12.09.2022
1801 Clouds 23 1010 100 10000 1.54 0 20:22 12.09.2022
1802 Clouds 24 1010 94 10000 1.54 350 18:24 12.09.2022
1803 Clouds 24 1012 94 10000 2.57 320 15:50 12.09.2022
1804 Clouds 25 1011 94 10000 1.54 0 12:30 12.09.2022
1805 Clouds 26 1009 89 10000 5.14 330 10:30 12.09.2022
1806 Rain 27 1008 94 10000 7.72 140 07:40 12.09.2022
1807 Haze 31 1010 70 10000 7.72 200 04:36 12.09.2022
1808 Haze 29 1012 74 10000 5.14 320 02:24 12.09.2022
1809 Haze 25 1010 94 10000 2.57 350 22:46 11.09.2022
1810 Clouds 25 1009 94 10000 3.09 320 21:27 11.09.2022
1811 Clouds 25 1009 94 10000 2.06 0 20:44 11.09.2022
1812 Clouds 25 1009 94 10000 2.06 0 19:39 11.09.2022
1813 Clouds 25 1009 94 10000 2.06 0 19:18 11.09.2022
1814 Clouds 25 1010 94 10000 1.54 0 17:28 11.09.2022
1815 Clouds 26 1011 89 10000 1.54 0 15:51 11.09.2022
1816 Clouds 26 1010 88 10000 4.89 130 13:22 11.09.2022
1817 Clouds 27 1009 94 10000 7.72 140 11:25 11.09.2022
1818 Haze 30 1007 74 10000 7.72 170 08:19 11.09.2022
1819 Haze 31 1008 70 10000 7.72 190 05:19 11.09.2022
1820 Clouds 25 1010 94 10000 1.54 0 23:50 10.09.2022
1821 Clouds 25 1009 94 10000 1.54 0 22:21 10.09.2022
1822 Clouds 26 1008 94 10000 2.06 0 20:33 10.09.2022
1823 Clouds 25 1009 94 10000 1.54 0 19:43 10.09.2022
1824 Clouds 25 1009 94 10000 1.54 0 19:24 10.09.2022
1825 Clouds 25 1009 88 10000 1.03 0 17:27 10.09.2022
1826 Clouds 26 1010 83 10000 1.54 0 15:35 10.09.2022
1827 Clouds 27 1009 83 10000 5.14 160 13:36 10.09.2022
1828 Clouds 27 1009 83 10000 7.72 160 12:29 10.09.2022
1829 Clouds 29 1008 79 10000 7.72 160 10:28 10.09.2022
1830 Haze 30 1008 74 10000 7.72 180 08:41 10.09.2022
1831 Haze 30 1008 74 10000 7.72 180 08:20 10.09.2022
1832 Haze 31 1011 70 10000 5.14 220 03:43 10.09.2022
1833 Haze 25 1011 94 10000 1.54 0 23:36 09.09.2022
1834 Haze 24 1010 94 10000 1.03 0 22:31 09.09.2022
1835 Clouds 25 1010 94 10000 2.06 320 20:49 09.09.2022
1836 Clouds 25 1010 94 10000 1.54 0 19:52 09.09.2022
1837 Clouds 25 1010 91 10000 2.64 104 19:22 09.09.2022
1838 Clouds 27 1011 83 10000 5.14 170 16:52 09.09.2022
1839 Clouds 27 1012 83 10000 7.72 160 14:42 09.09.2022
1840 Clouds 28 1012 78 10000 6.69 180 13:18 09.09.2022
1841 Haze 28 1009 83 10000 5.14 160 10:37 09.09.2022
1842 Haze 30 1009 74 10000 2.57 150 07:25 09.09.2022
1843 Haze 31 1012 70 10000 5.14 210 03:31 09.09.2022
1844 Haze 25 1012 100 10000 1.54 0 22:33 08.09.2022
1845 Clouds 26 1011 94 10000 2.57 310 21:51 08.09.2022
1846 Clouds 24 1011 92 10000 1.46 357 20:46 08.09.2022
1847 Clouds 25 1010 91 10000 0.91 71 20:24 08.09.2022
1848 Clouds 26 1011 94 10000 1.54 0 18:34 08.09.2022
1849 Clouds 26 1012 94 10000 2.57 160 16:49 08.09.2022
1850 Clouds 27 1012 89 10000 5.14 170 14:50 08.09.2022
1851 Clouds 27 1012 83 10000 5.14 160 13:27 08.09.2022
1852 Clouds 27 1011 89 10000 5.14 160 12:35 08.09.2022
1853 Haze 28 1010 89 10000 5.14 130 10:58 08.09.2022
1854 Haze 29 1009 79 10000 5.66 140 09:20 08.09.2022
1855 Clouds 31 1010 70 10000 8.23 160 06:43 08.09.2022
1856 Haze 31 1013 70 10000 1.54 0 02:37 08.09.2022
1857 Haze 31 1013 70 10000 1.54 0 02:19 08.09.2022
1858 Haze 30 1013 74 10000 1.54 0 01:58 08.09.2022
1859 Clouds 25 1011 94 10000 1.54 0 22:55 07.09.2022
1860 Clouds 25 1011 94 10000 1.54 0 21:43 07.09.2022
1861 Clouds 25 1011 94 10000 1.54 0 21:18 07.09.2022
1862 Clouds 26 1010 89 10000 1.54 0 19:54 07.09.2022
1863 Clouds 26 1010 89 10000 2.57 120 18:40 07.09.2022
1864 Clouds 27 1011 83 10000 5.14 140 15:21 07.09.2022
1865 Haze 28 1008 83 10000 7.72 160 10:50 07.09.2022
1866 Haze 28 1008 83 10000 7.72 160 10:24 07.09.2022
1867 Haze 31 1007 70 10000 10.29 160 07:36 07.09.2022
1868 Haze 32 1010 66 10000 5.66 150 04:39 07.09.2022
1869 Haze 27 1012 89 10000 3.09 340 00:25 07.09.2022
1870 Clouds 25 1010 100 10000 2.06 0 21:45 06.09.2022
1871 Clouds 25 1010 100 10000 2.06 0 21:24 06.09.2022
1872 Clouds 26 1009 89 10000 1.54 0 18:53 06.09.2022
1873 Clouds 26 1009 89 10000 1.54 0 18:23 06.09.2022
1874 Clouds 26 1010 89 10000 1.03 0 17:23 06.09.2022
1875 Clouds 26 1010 89 10000 2.06 0 16:38 06.09.2022
1876 Clouds 26 1010 89 10000 3.09 150 15:23 06.09.2022
1877 Clouds 27 1011 83 10000 3.6 120 13:45 06.09.2022
1878 Clouds 27 1011 83 10000 3.6 120 13:24 06.09.2022
1879 Clouds 27 1010 83 10000 5.14 140 12:31 06.09.2022
1880 Haze 28 1008 83 10000 10.29 160 10:45 06.09.2022
1881 Haze 29 1007 79 10000 12.86 150 08:50 06.09.2022
1882 Haze 30 1007 74 10000 12.35 160 07:49 06.09.2022
1883 Clouds 31 1010 66 10000 5.14 170 03:31 06.09.2022
1884 Clouds 25 1010 94 10000 1.54 0 23:27 05.09.2022
1885 Haze 25 1009 94 10000 1.54 0 22:21 05.09.2022
1886 Clouds 25 1009 94 10000 1.54 0 20:35 05.09.2022
1887 Clouds 25 1009 94 10000 2.57 110 19:20 05.09.2022
1888 Clouds 25 1009 94 10000 1.54 0 18:45 05.09.2022
1889 Clouds 25 1009 94 10000 1.54 0 18:21 05.09.2022
1890 Clouds 26 1010 89 10000 5.14 150 16:37 05.09.2022
1891 Rain 26 1011 89 10000 7.72 130 15:47 05.09.2022
1892 Clouds 26 1011 90 10000 4.86 131 13:25 05.09.2022
1893 Clouds 27 1010 89 10000 7.72 140 12:27 05.09.2022
1894 Haze 29 1008 74 10000 7.72 170 09:44 05.09.2022
1895 Clouds 32 1008 62 10000 7.72 200 06:41 05.09.2022
1896 Haze 27 1012 89 10000 2.57 320 01:56 05.09.2022
1897 Clouds 25 1010 94 10000 2.57 340 22:59 04.09.2022
1898 Clouds 25 1010 94 10000 2.57 340 22:27 04.09.2022
1899 Clouds 25 1009 100 10000 1.54 0 20:44 04.09.2022
1900 Clouds 25 1009 100 10000 2.57 320 19:32 04.09.2022
1901 Clouds 26 1010 89 10000 1.54 0 17:55 04.09.2022
1902 Clouds 27 1010 89 10000 1.54 0 16:42 04.09.2022
1903 Clouds 26 1011 87 10000 3.75 136 14:29 04.09.2022
1904 Clouds 27 1010 83 10000 5.14 160 13:28 04.09.2022
1905 Clouds 27 1010 83 10000 5.14 160 13:28 04.09.2022
1906 Clouds 28 1009 78 10000 5.14 170 11:52 04.09.2022
1907 Clouds 30 1008 70 10000 2.57 190 09:56 04.09.2022
1908 Clouds 30 1007 70 10000 5.14 160 07:27 04.09.2022
1909 Clouds 28 1009 70 10000 2.8 209 04:00 04.09.2022
1910 Clouds 25 1009 100 10000 2.57 0 23:40 03.09.2022
1911 Clouds 25 1008 94 10000 5.14 310 22:21 03.09.2022
1912 Clouds 25 1008 94 10000 5.14 320 21:23 03.09.2022
1913 Clouds 25 1008 94 10000 5.14 320 21:23 03.09.2022
1914 Rain 26 1009 94 10000 2.06 0 18:59 03.09.2022
1915 Clouds 26 1009 89 10000 1.54 0 17:25 03.09.2022
1916 Clouds 26 1009 89 10000 2.57 160 16:26 03.09.2022
1917 Clouds 26 1009 94 10000 2.57 180 14:44 03.09.2022
1918 Clouds 26 1009 94 10000 2.57 140 13:50 03.09.2022
1919 Clouds 28 1007 83 10000 5.14 190 11:51 03.09.2022
1920 Clouds 29 1006 79 10000 5.14 200 09:56 03.09.2022
1921 Clouds 31 1006 70 10000 5.14 260 07:57 03.09.2022
1922 Clouds 31 1008 66 10000 1.54 0 04:57 03.09.2022
1923 Clouds 31 1009 74 10000 2.57 0 03:57 03.09.2022
1924 Clouds 24 1009 94 10000 1.54 0 23:49 02.09.2022
1925 Clouds 24 1009 94 10000 2.57 330 22:39 02.09.2022
1926 Rain 24 1008 94 10000 4.12 320 20:57 02.09.2022
1927 Rain 24 1008 94 10000 4.12 320 20:27 02.09.2022
1928 Rain 24 1010 94 10000 2.57 340 18:59 02.09.2022
1929 Rain 24 1010 94 10000 2.57 340 18:59 02.09.2022
1930 Rain 24 1010 94 10000 2.57 340 18:27 02.09.2022
1931 Rain 23 1011 100 10000 5.14 340 17:30 02.09.2022
1932 Rain 23 1011 100 10000 5.14 340 17:30 02.09.2022
1933 Rain 24 1011 94 10000 2.57 100 16:45 02.09.2022
1934 Clouds 27 1010 83 10000 2.57 20 13:51 02.09.2022
1935 Clouds 28 1008 83 10000 5.14 20 11:36 02.09.2022
1936 Clouds 29 1008 79 10000 5.14 250 09:46 02.09.2022
1937 Clouds 30 1007 70 10000 5.14 220 08:55 02.09.2022
1938 Clouds 32 1007 66 10000 6.17 200 07:24 02.09.2022
1939 Clouds 32 1007 66 10000 7.72 240 06:34 02.09.2022
1940 Haze 31 1011 66 10000 7.2 330 02:34 02.09.2022
1941 Clouds 24 1009 94 10000 2.57 320 22:24 01.09.2022
1942 Clouds 25 1008 88 10000 2.57 320 21:39 01.09.2022
1943 Clouds 25 1008 88 10000 2.57 320 21:20 01.09.2022
1944 Clouds 25 1008 88 10000 2.57 320 20:31 01.09.2022
1945 Clouds 25 1009 94 10000 2.57 350 18:37 01.09.2022
1946 Clouds 25 1009 94 10000 1.54 0 16:55 01.09.2022
1947 Clouds 26 1009 89 10000 1.54 0 15:26 01.09.2022
1948 Rain 26 1009 83 10000 1.54 0 13:33 01.09.2022
1949 Rain 26 1008 83 10000 5.14 20 12:55 01.09.2022
1950 Rain 26 1008 83 10000 5.14 30 11:51 01.09.2022
1951 Rain 26 1008 83 10000 5.14 30 11:20 01.09.2022
1952 Haze 30 1008 74 10000 5.14 150 09:32 01.09.2022
1953 Haze 30 1007 70 10000 5.14 150 06:41 01.09.2022
1954 Haze 29 1009 79 10000 4.12 200 03:59 01.09.2022
1955 Haze 28 1009 83 10000 2.06 0 01:30 01.09.2022
1956 Haze 28 1009 83 10000 2.06 0 01:30 01.09.2022
1957 Haze 28 1009 83 10000 2.06 0 01:30 01.09.2022
1958 Haze 28 1009 83 10000 2.06 0 01:30 01.09.2022
1959 Haze 28 1009 83 10000 2.06 0 01:30 01.09.2022
1960 Haze 28 1009 83 10000 2.06 0 01:30 01.09.2022
1961 Haze 28 1009 83 10000 2.06 0 01:30 01.09.2022
1962 Haze 28 1009 83 10000 2.06 0 01:30 01.09.2022
1963 Clouds 25 1008 94 10000 1.54 0 22:50 31.08.2022
1964 Clouds 25 1007 94 10000 1.54 0 20:44 31.08.2022
1965 Clouds 26 1007 89 10000 1.54 0 18:46 31.08.2022
1966 Clouds 27 1008 89 10000 5.14 140 16:41 31.08.2022
1967 Clouds 27 1009 89 10000 5.14 140 15:22 31.08.2022
1968 Clouds 27 1008 83 10000 6.17 130 13:28 31.08.2022
1969 Clouds 28 1007 83 10000 5.14 130 11:54 31.08.2022
1970 Haze 29 1006 79 10000 5.14 160 09:35 31.08.2022
1971 Haze 31 1005 66 10000 5.14 160 07:39 31.08.2022
1972 Haze 29 1009 74 10000 2.57 130 02:47 31.08.2022
1973 Clouds 25 1008 94 10000 1.54 0 22:21 30.08.2022
1974 Clouds 25 1007 94 10000 1.54 0 21:27 30.08.2022
1975 Clouds 25 1007 94 10000 2.57 320 19:51 30.08.2022
1976 Clouds 26 1008 89 10000 1.54 0 16:48 30.08.2022
1977 Clouds 26 1008 89 10000 2.57 330 13:38 30.08.2022
1978 Clouds 27 1007 89 10000 2.57 190 11:44 30.08.2022
1979 Clouds 27 1007 89 10000 2.57 190 11:19 30.08.2022
1980 Haze 30 1006 70 10000 8.75 140 08:51 30.08.2022
1981 Haze 32 1009 58 10000 1.54 0 03:57 30.08.2022
1982 Haze 27 1009 83 10000 1.54 0 00:30 30.08.2022
1983 Haze 23 1008 100 10000 1.54 0 22:36 29.08.2022
1984 Clouds 24 1007 94 10000 1.54 0 21:48 29.08.2022
1985 Clouds 24 1007 94 10000 1.54 0 20:34 29.08.2022
1986 Clouds 24 1007 94 10000 5.14 320 18:39 29.08.2022
1987 Clouds 24 1008 94 10000 2.57 320 17:25 29.08.2022
1988 Clouds 25 1008 94 10000 2.06 350 16:56 29.08.2022
1989 Clouds 25 1008 94 10000 2.06 320 15:18 29.08.2022
1990 Clouds 25 1008 94 10000 2.06 320 15:18 29.08.2022
1991 Clouds 26 1008 89 10000 3.09 330 13:34 29.08.2022
1992 Clouds 26 1007 83 10000 3.6 350 11:33 29.08.2022
1993 Haze 28 1007 78 10000 5.14 50 10:39 29.08.2022
1994 Haze 30 1006 70 10000 5.14 130 08:39 29.08.2022
1995 Haze 30 1007 70 10000 5.14 200 06:25 29.08.2022
1996 Clouds 30 1009 74 10000 1.54 0 01:53 29.08.2022
1997 Clouds 24 1008 100 10000 1.54 0 22:55 28.08.2022
1998 Clouds 25 1007 94 10000 2.06 350 21:45 28.08.2022
1999 Clouds 25 1007 94 10000 1.54 0 20:58 28.08.2022
2000 Clouds 26 1007 94 10000 1.54 0 19:44 28.08.2022
2001 Clouds 24 1007 90 10000 1.91 108 18:22 28.08.2022
2002 Clouds 25 1007 94 10000 1.54 0 17:40 28.08.2022
2003 Clear 26 1008 89 10000 1.03 0 16:32 28.08.2022
2004 Clouds 27 1008 89 10000 5.14 160 14:44 28.08.2022
2005 Clouds 27 1008 89 10000 5.14 180 12:48 28.08.2022
2006 Clouds 28 1007 83 10000 5.14 170 10:51 28.08.2022
2007 Clouds 29 1007 79 10000 5.14 160 09:56 28.08.2022
2008 Clouds 31 1006 66 10000 5.14 160 08:38 28.08.2022
2009 Clouds 30 1007 66 10000 7.72 200 07:45 28.08.2022
2010 Haze 31 1009 70 10000 4.12 180 02:59 28.08.2022
2011 Haze 27 1009 83 10000 1.54 0 00:29 28.08.2022
2012 Clouds 24 1008 94 10000 1.54 0 22:37 27.08.2022
2013 Clouds 24 1008 100 10000 1.54 0 21:36 27.08.2022
2014 Clouds 25 1007 94 10000 2.06 0 19:49 27.08.2022
2015 Clouds 25 1008 94 10000 2.57 0 18:27 27.08.2022
2016 Clouds 26 1009 94 10000 2.57 340 15:53 27.08.2022
2017 Clouds 26 1009 94 10000 2.57 340 15:25 27.08.2022
2018 Clouds 27 1008 89 10000 2.57 190 12:30 27.08.2022
2019 Clouds 27 1007 83 10000 4.12 150 11:32 27.08.2022
2020 Clouds 27 1007 83 10000 4.12 150 11:32 27.08.2022
2021 Haze 29 1006 74 10000 5.14 150 09:49 27.08.2022
2022 Haze 31 1006 66 10000 5.14 160 08:22 27.08.2022
2023 Haze 30 1010 70 10000 5.14 200 03:40 27.08.2022
2024 Haze 25 1009 94 10000 1.54 0 23:58 26.08.2022
2025 Clouds 24 1008 94 10000 1.54 0 22:50 26.08.2022
2026 Clouds 24 1007 94 10000 1.54 0 21:30 26.08.2022
2027 Clouds 24 1008 94 10000 1.54 0 19:23 26.08.2022
2028 Clouds 26 1009 89 10000 5.14 160 16:50 26.08.2022
2029 Clouds 26 1010 89 10000 5.14 160 15:35 26.08.2022
2030 Clouds 25 1010 91 10000 4.84 134 14:34 26.08.2022
2031 Clouds 26 1009 89 10000 5.14 160 12:51 26.08.2022
2032 Clouds 26 1008 89 10000 7.72 150 11:33 26.08.2022
2033 Clouds 27 1007 83 10000 7.72 150 10:46 26.08.2022
2034 Haze 30 1006 70 10000 7.72 150 07:28 26.08.2022
2035 Clouds 29 1011 70 10000 7.72 140 02:30 26.08.2022
2036 Haze 24 1009 94 10000 1.54 0 23:41 25.08.2022
2037 Clouds 24 1009 94 10000 1.54 0 21:36 25.08.2022
2038 Clouds 24 1009 90 10000 3.38 119 20:29 25.08.2022
2039 Clouds 24 1009 100 10000 1.03 0 18:53 25.08.2022
2040 Clouds 25 1010 88 10000 3.6 130 17:44 25.08.2022
2041 Clouds 25 1010 88 10000 3.6 130 17:24 25.08.2022
2042 Clouds 25 1010 94 10000 5.14 150 15:39 25.08.2022
2043 Clouds 25 1010 94 10000 5.14 140 14:34 25.08.2022
2044 Rain 26 1010 89 10000 5.14 120 11:54 25.08.2022
2045 Clouds 26 1009 89 10000 5.14 140 10:46 25.08.2022
2046 Haze 29 1007 74 10000 7.72 150 08:54 25.08.2022
2047 Haze 30 1009 70 10000 5.14 170 05:20 25.08.2022
2048 Haze 25 1011 94 10000 1.54 0 00:59 25.08.2022
2049 Haze 24 1010 100 10000 1.54 330 23:26 24.08.2022
2050 Clouds 23 1009 100 10000 2.57 0 22:22 24.08.2022
2051 Clouds 23 1009 100 10000 2.57 0 21:34 24.08.2022
2052 Clouds 23 1009 100 10000 2.57 0 20:32 24.08.2022
2053 Clouds 24 1009 94 10000 1.54 0 18:46 24.08.2022
2054 Rain 24 1010 94 10000 1.54 0 16:28 24.08.2022
2055 Rain 25 1010 88 10000 2.57 350 15:51 24.08.2022
2056 Clouds 26 1011 89 10000 5.14 120 12:55 24.08.2022
2057 Clouds 26 1010 94 10000 7.72 150 11:24 24.08.2022
2058 Clouds 27 1008 94 7000 9.26 150 09:33 24.08.2022
2059 Haze 28 1008 83 10000 5.66 160 07:47 24.08.2022
2060 Haze 29 1012 74 10000 4.12 160 02:25 24.08.2022
2061 Clouds 25 1010 94 10000 1.54 0 22:59 23.08.2022
2062 Clouds 25 1010 94 10000 1.54 0 22:29 23.08.2022
2063 Clouds 25 1009 94 10000 2.57 140 21:27 23.08.2022
2064 Clouds 25 1009 94 10000 2.57 140 19:54 23.08.2022
2065 Clouds 25 1009 94 10000 5.14 150 18:30 23.08.2022
2066 Clouds 26 1010 89 10000 5.14 160 17:46 23.08.2022
2067 Clouds 26 1010 89 10000 3.6 0 16:35 23.08.2022
2068 Clouds 26 1010 89 10000 5.66 160 15:20 23.08.2022
2069 Clouds 26 1010 89 10000 5.14 150 13:25 23.08.2022
2070 Clouds 26 1009 89 10000 7.72 140 11:21 23.08.2022
2071 Haze 27 1008 89 10000 11.32 150 10:35 23.08.2022
2072 Haze 27 1008 83 10000 5.14 140 09:46 23.08.2022
2073 Haze 27 1008 83 10000 8.75 140 08:48 23.08.2022
2074 Haze 27 1008 83 10000 8.75 140 08:20 23.08.2022
2075 Haze 29 1007 74 10000 7.72 140 07:34 23.08.2022
2076 Haze 31 1008 66 10000 7.72 160 06:26 23.08.2022
2077 Clouds 28 1012 74 10000 1.54 0 01:55 23.08.2022
2078 Clouds 28 1012 74 10000 1.54 0 01:55 23.08.2022
2079 Clouds 27 1011 78 10000 1.54 0 00:27 23.08.2022
2080 Clouds 25 1011 88 10000 1.54 0 23:32 22.08.2022
2081 Clouds 24 1010 94 10000 1.54 0 22:32 22.08.2022
2082 Clouds 25 1010 88 10000 1.54 0 21:22 22.08.2022
2083 Clouds 24 1010 94 10000 2.57 140 19:47 22.08.2022
2084 Clouds 24 1010 94 10000 2.57 130 18:38 22.08.2022
2085 Clouds 25 1010 88 10000 5.14 170 16:31 22.08.2022
2086 Clouds 26 1011 83 10000 7.72 170 15:38 22.08.2022
2087 Clouds 26 1010 83 10000 7.72 160 12:57 22.08.2022
2088 Rain 26 1008 89 10000 5.14 160 10:20 22.08.2022
2089 Haze 29 1007 74 10000 5.14 160 07:40 22.08.2022
2090 Clouds 28 1012 74 10000 1.54 0 02:50 22.08.2022
2091 Clouds 24 1012 94 10000 1.54 0 00:37 22.08.2022
2092 Clouds 23 1011 94 10000 1.54 0 23:43 21.08.2022
2093 Clouds 24 1010 88 10000 2.57 130 21:57 21.08.2022
2094 Clouds 24 1010 88 10000 2.57 130 21:21 21.08.2022
2095 Clouds 23 1010 91 10000 3.91 122 20:21 21.08.2022
2096 Clouds 24 1011 88 10000 5.14 120 18:59 21.08.2022
2097 Clouds 24 1012 88 10000 5.14 150 16:52 21.08.2022
2098 Clouds 24 1013 88 10000 5.14 150 15:52 21.08.2022
2099 Clouds 25 1013 83 10000 5.14 150 14:57 21.08.2022
2100 Clouds 25 1013 83 10000 5.14 150 13:51 21.08.2022
2101 Clouds 26 1012 78 10000 5.14 150 12:56 21.08.2022
2102 Clouds 26 1011 78 10000 10.29 160 10:41 21.08.2022
2103 Clouds 26 1010 78 10000 10.29 160 09:21 21.08.2022
2104 Clouds 26 1010 78 10000 10.29 160 08:46 21.08.2022
2105 Clouds 26 1010 78 10000 10.29 160 08:28 21.08.2022
2106 Clouds 27 1010 74 10000 10.29 150 06:37 21.08.2022
2107 Haze 27 1013 65 10000 5.66 160 01:50 21.08.2022
2108 Haze 22 1013 83 10000 0.51 0 23:34 20.08.2022
2109 Clouds 20 1011 94 10000 1.54 0 21:55 20.08.2022
2110 Clouds 21 1011 83 10000 1.54 0 20:51 20.08.2022
2111 Clouds 21 1011 83 10000 1.54 0 19:44 20.08.2022
2112 Clouds 22 1012 78 10000 1.54 0 18:48 20.08.2022
2113 Clouds 22 1012 78 10000 1.54 0 18:26 20.08.2022
2114 Clouds 22 1013 88 10000 1.54 120 17:21 20.08.2022
2115 Clouds 22 1013 83 10000 1.54 0 15:57 20.08.2022
2116 Clouds 24 1014 74 10000 5.66 130 14:20 20.08.2022
2117 Clouds 26 1013 57 10000 7.72 140 11:56 20.08.2022
2118 Clouds 26 1013 57 10000 7.72 140 11:36 20.08.2022
2119 Haze 27 1012 65 10000 4.63 160 09:20 20.08.2022
2120 Haze 29 1011 54 10000 5.66 160 07:30 20.08.2022
2121 Haze 29 1013 65 10000 7.72 160 04:50 20.08.2022
2122 Haze 24 1014 83 10000 5.14 150 00:57 20.08.2022
2123 Haze 23 1013 83 10000 3.6 140 23:26 19.08.2022
2124 Clouds 23 1013 83 10000 2.57 130 22:44 19.08.2022
2125 Clouds 24 1012 78 10000 2.57 120 20:47 19.08.2022
2126 Clouds 24 1013 83 10000 1.54 0 18:59 19.08.2022
2127 Clouds 24 1013 83 10000 1.54 0 18:59 19.08.2022
2128 Clouds 24 1013 83 10000 5.14 100 15:58 19.08.2022
2129 Clouds 24 1013 78 10000 7.72 140 13:42 19.08.2022
2130 Clouds 25 1012 78 10000 7.72 150 11:46 19.08.2022
2131 Haze 26 1011 73 10000 6.17 160 10:31 19.08.2022
2132 Haze 27 1010 65 10000 5.66 160 08:31 19.08.2022
2133 Clouds 29 1013 48 10000 10.29 150 03:39 19.08.2022
2134 Haze 25 1014 65 10000 3.6 0 00:38 19.08.2022
2135 Haze 24 1013 73 10000 3.6 135 23:56 18.08.2022
2136 Clouds 24 1013 73 10000 5.14 150 22:54 18.08.2022
2137 Clouds 24 1013 73 10000 5.14 150 22:22 18.08.2022
2138 Clouds 24 1013 73 10000 3.6 150 21:45 18.08.2022
2139 Clouds 23 1012 83 10000 1.54 0 20:42 18.08.2022
2140 Clouds 23 1012 78 10000 1.54 0 19:32 18.08.2022
2141 Clouds 23 1012 78 10000 1.54 0 18:29 18.08.2022
2142 Clouds 24 1013 73 10000 2.57 140 17:29 18.08.2022
2143 Clouds 24 1014 69 10000 6.17 140 15:27 18.08.2022
2144 Clouds 24 1014 73 10000 7.72 160 14:20 18.08.2022
2145 Clouds 24 1014 73 10000 5.14 150 13:36 18.08.2022
2146 Clouds 25 1013 69 10000 7.72 160 12:26 18.08.2022
2147 Haze 25 1012 73 10000 7.72 160 10:22 18.08.2022
2148 Haze 26 1012 69 10000 7.72 160 09:42 18.08.2022
2149 Haze 27 1011 65 10000 9.26 160 07:24 18.08.2022
2150 Haze 29 1012 58 10000 7.72 160 04:47 18.08.2022
2151 Clouds 24 1013 69 10000 6.17 140 23:49 17.08.2022
2152 Clouds 24 1012 69 10000 7.72 140 21:54 17.08.2022
2153 Clouds 24 1012 69 10000 7.72 140 20:20 17.08.2022
2154 Clouds 24 1012 73 10000 7.72 140 19:31 17.08.2022
2155 Clouds 25 1012 69 10000 7.72 140 17:37 17.08.2022
2156 Clouds 25 1013 69 10000 7.72 140 16:39 17.08.2022
2157 Clouds 25 1013 69 10000 7.72 130 15:30 17.08.2022
2158 Clouds 25 1013 69 10000 5.14 150 13:31 17.08.2022
2159 Clouds 26 1012 61 10000 7.72 150 11:39 17.08.2022
2160 Clouds 28 1011 54 10000 6.69 160 09:59 17.08.2022
2161 Clouds 29 1010 45 10000 10.29 160 08:24 17.08.2022
2162 Haze 29 1013 51 10000 5.14 210 03:39 17.08.2022
2163 Haze 25 1014 69 10000 5.14 160 00:24 17.08.2022
2164 Clouds 23 1013 83 10000 4.39 128 22:41 16.08.2022
2165 Clouds 23 1011 88 10000 1.54 0 20:58 16.08.2022
2166 Clouds 23 1011 88 10000 1.54 0 19:54 16.08.2022
2167 Clear 23 1011 88 10000 2.57 0 18:43 16.08.2022
2168 Clear 23 1012 88 10000 2.57 160 17:43 16.08.2022
2169 Clouds 24 1012 88 10000 4.63 150 15:52 16.08.2022
2170 Clouds 25 1013 78 10000 7.72 150 14:55 16.08.2022
2171 Clouds 25 1013 78 10000 7.72 150 14:37 16.08.2022
2172 Clouds 25 1012 83 10000 6.17 150 12:58 16.08.2022
2173 Clouds 25 1010 88 8000 9.26 150 10:59 16.08.2022
2174 Haze 26 1009 83 10000 10.29 160 09:50 16.08.2022
2175 Clouds 27 1009 83 10000 9.26 160 08:47 16.08.2022
2176 Clouds 29 1009 70 10000 9.26 160 07:58 16.08.2022
2177 Clouds 28 1012 74 10000 1.54 0 02:50 16.08.2022
2178 Clouds 24 1010 94 10000 1.54 0 22:31 15.08.2022
2179 Clouds 24 1010 94 10000 2.57 110 21:55 15.08.2022
2180 Clouds 24 1010 94 10000 2.57 110 21:34 15.08.2022
2181 Clouds 25 1010 88 10000 5.14 120 20:20 15.08.2022
2182 Clouds 25 1010 88 10000 7.72 140 18:42 15.08.2022
2183 Clouds 25 1010 94 10000 10.29 150 17:36 15.08.2022
2184 Clouds 24 1011 91 10000 3.35 124 16:22 15.08.2022
2185 Clouds 26 1011 89 10000 5.14 150 13:57 15.08.2022
2186 Clouds 26 1010 89 10000 5.14 150 12:37 15.08.2022
2187 Clouds 26 1008 89 10000 5.14 150 10:18 15.08.2022
2188 Clouds 27 1008 83 10000 7.72 180 08:42 15.08.2022
2189 Clouds 29 1008 74 10000 5.14 160 06:27 15.08.2022
2190 Clouds 28 1011 78 10000 5.14 150 02:40 15.08.2022
2191 Clouds 25 1010 94 10000 3.09 120 22:40 14.08.2022
2192 Clouds 25 1009 94 10000 5.14 160 21:39 14.08.2022
2193 Clouds 25 1009 94 10000 2.57 160 20:29 14.08.2022
2194 Clouds 25 1009 94 10000 2.57 160 19:32 14.08.2022
2195 Clouds 25 1010 94 10000 5.14 160 18:20 14.08.2022
2196 Clouds 25 1010 94 10000 5.14 160 16:55 14.08.2022
2197 Clouds 25 1011 100 10000 5.14 160 15:51 14.08.2022
2198 Clouds 25 1011 94 10000 5.14 150 14:37 14.08.2022
2199 Clouds 25 1010 94 10000 5.14 150 13:50 14.08.2022
2200 Clouds 25 1010 90 10000 5.14 143 13:24 14.08.2022
2201 Clouds 26 1010 89 10000 5.14 160 12:34 14.08.2022
2202 Clouds 25 1009 90 10000 5.92 148 11:18 14.08.2022
2203 Clouds 29 1008 74 10000 5.14 160 08:53 14.08.2022
2204 Clouds 29 1008 74 10000 7.72 160 06:23 14.08.2022
2205 Clouds 27 1011 89 10000 7.72 160 03:48 14.08.2022
2206 Clouds 25 1011 94 500 1.03 0 00:39 14.08.2022
2207 Haze 25 1010 94 10000 2.57 160 22:56 13.08.2022
2208 Clouds 24 1010 92 10000 3.63 125 21:47 13.08.2022
2209 Clouds 25 1009 94 10000 1.54 180 20:47 13.08.2022
2210 Clouds 25 1009 94 10000 3.6 140 19:46 13.08.2022
2211 Clouds 24 1010 93 10000 4.21 134 18:19 13.08.2022
2212 Rain 26 1011 89 10000 5.14 160 15:40 13.08.2022
2213 Rain 26 1011 89 10000 5.14 160 14:32 13.08.2022
2214 Clouds 24 1011 92 10000 4.48 139 13:46 13.08.2022
2215 Haze 26 1009 89 10000 5.14 160 11:53 13.08.2022
2216 Haze 27 1009 83 10000 5.14 160 10:31 13.08.2022
2217 Haze 29 1008 74 10000 8.23 180 09:19 13.08.2022
2218 Clouds 30 1010 66 10000 6.17 230 05:57 13.08.2022
2219 Haze 23 1011 94 7000 1.54 0 00:30 13.08.2022
2220 Clouds 23 1010 94 10000 1.03 0 22:23 12.08.2022
2221 Clouds 24 1009 94 10000 1.54 0 20:58 12.08.2022
2222 Clouds 24 1009 94 10000 1.03 0 19:43 12.08.2022
2223 Clouds 24 1009 94 10000 1.03 0 18:58 12.08.2022
2224 Clouds 24 1010 94 10000 2.57 140 17:57 12.08.2022
2225 Clouds 25 1011 88 10000 1.54 0 16:24 12.08.2022
2226 Clouds 25 1011 83 10000 2.57 170 14:47 12.08.2022
2227 Clouds 26 1010 83 10000 5.14 160 12:57 12.08.2022
2228 Clouds 25 1010 89 10000 5.94 139 11:19 12.08.2022
2229 Haze 28 1008 78 10000 5.66 160 08:47 12.08.2022
2230 Haze 29 1008 74 10000 6.69 160 07:26 12.08.2022
2231 Haze 30 1011 62 10000 5.14 160 03:35 12.08.2022
2232 Haze 25 1011 83 10000 2.06 0 00:28 12.08.2022
2233 Haze 24 1011 83 10000 4.12 150 23:35 11.08.2022
2234 Clouds 24 1010 83 10000 2.57 140 22:28 11.08.2022
2235 Clouds 23 1010 88 10000 3.09 140 21:43 11.08.2022
2236 Clouds 23 1010 88 10000 2.06 140 20:59 11.08.2022
2237 Clouds 23 1010 88 10000 2.06 140 20:20 11.08.2022
2238 Clouds 23 1010 88 10000 2.06 180 19:32 11.08.2022
2239 Clouds 24 1010 83 10000 3.09 120 17:48 11.08.2022
2240 Clouds 25 1010 83 10000 10.29 160 16:37 11.08.2022
2241 Clouds 24 1010 85 10000 6.06 127 15:25 11.08.2022
2242 Clouds 26 1010 73 10000 10.29 140 13:37 11.08.2022
2243 Haze 28 1008 74 10000 10.29 150 10:58 11.08.2022
2244 Haze 31 1008 58 10000 9.77 150 07:47 11.08.2022
2245 Clouds 30 1010 62 10000 6.17 170 03:54 11.08.2022
2246 Haze 26 1011 78 10000 5.14 150 00:50 11.08.2022
2247 Clouds 24 1010 83 10000 2.57 120 22:32 10.08.2022
2248 Clouds 23 1009 88 10000 2.57 140 21:25 10.08.2022
2249 Clouds 23 1009 88 10000 3.6 130 20:55 10.08.2022
2250 Clouds 25 1010 78 10000 3.6 140 19:31 10.08.2022
2251 Clouds 25 1010 78 10000 4.12 150 18:22 10.08.2022
2252 Clouds 25 1011 83 10000 7.72 130 16:41 10.08.2022
2253 Clouds 25 1011 83 10000 7.72 150 13:36 10.08.2022
2254 Clouds 26 1011 83 10000 7.72 150 12:44 10.08.2022
2255 Haze 27 1009 78 10000 7.72 160 09:25 10.08.2022
2256 Clouds 27 1009 78 10000 7.72 160 08:33 10.08.2022
2257 Clouds 28 1008 74 10000 10.29 160 07:19 10.08.2022
2258 Clouds 28 1011 74 10000 10.29 160 03:28 10.08.2022
2259 Clouds 25 1011 83 10000 6.17 150 23:34 09.08.2022
2260 Clouds 24 1011 86 10000 6.01 130 22:56 09.08.2022
2261 Clear 25 1010 83 10000 5.14 140 21:36 09.08.2022
2262 Clear 25 1009 83 10000 5.14 130 20:30 09.08.2022
2263 Clear 25 1010 83 10000 5.14 130 18:44 09.08.2022
2264 Clouds 26 1010 78 10000 7.72 140 17:28 09.08.2022
2265 Clouds 26 1010 78 10000 7.72 140 17:28 09.08.2022
2266 Clouds 26 1010 78 10000 7.72 140 16:40 09.08.2022
2267 Rain 26 1010 78 10000 7.72 140 15:58 09.08.2022
2268 Clouds 25 1010 80 10000 7.37 133 12:52 09.08.2022
2269 Haze 29 1007 65 10000 11.83 160 09:39 09.08.2022
2270 Haze 31 1006 55 10000 11.83 160 08:50 09.08.2022
2271 Haze 32 1006 48 10000 10.29 160 07:52 09.08.2022
2272 Clear 29 1009 62 10000 6.86 161 04:22 09.08.2022
2273 Clouds 23 1009 88 10000 1.03 0 23:27 08.08.2022
2274 Clear 22 1009 88 10000 1.54 160 22:54 08.08.2022
2275 Clear 22 1009 88 10000 1.54 160 22:18 08.08.2022
2276 Clouds 23 1009 88 10000 4.41 112 21:18 08.08.2022
2277 Clear 24 1008 83 10000 5.14 140 19:51 08.08.2022
2278 Clouds 24 1008 83 10000 5.14 150 18:45 08.08.2022
2279 Haze 25 1009 78 10000 5.14 140 16:40 08.08.2022
2280 Haze 26 1009 78 10000 5.14 150 15:39 08.08.2022
2281 Haze 26 1009 78 10000 5.14 140 13:50 08.08.2022
2282 Haze 28 1007 69 10000 7.72 150 11:58 08.08.2022
2283 Haze 29 1006 70 10000 9.77 150 09:43 08.08.2022
2284 Haze 32 1008 58 10000 5.66 150 05:43 08.08.2022
2285 Haze 29 1010 70 10000 8.23 170 02:27 08.08.2022
2286 Clouds 26 1008 83 10000 3.09 140 22:25 07.08.2022
2287 Clouds 26 1008 83 10000 4.12 140 21:38 07.08.2022
2288 Clouds 26 1008 83 10000 3.09 140 20:25 07.08.2022
2289 Clouds 26 1008 83 10000 3.09 120 19:54 07.08.2022
2290 Clouds 26 1008 83 10000 3.09 120 19:33 07.08.2022
2291 Clouds 26 1008 83 10000 2.57 130 18:22 07.08.2022
2292 Clouds 26 1009 89 10000 5.14 140 16:54 07.08.2022
2293 Clouds 27 1009 83 10000 5.14 140 15:54 07.08.2022
2294 Clouds 27 1009 83 10000 7.72 150 14:39 07.08.2022
2295 Clouds 27 1008 83 10000 7.72 150 12:59 07.08.2022
2296 Haze 28 1007 83 10000 5.66 170 10:59 07.08.2022
2297 Haze 28 1007 83 10000 5.66 170 10:28 07.08.2022
2298 Haze 32 1009 62 10000 7.72 160 04:58 07.08.2022
2299 Haze 31 1010 66 10000 8.23 150 03:18 07.08.2022
2300 Haze 24 1010 94 10000 1.54 340 23:30 06.08.2022
2301 Clouds 25 1009 94 10000 1.54 0 22:20 06.08.2022
2302 Clouds 25 1008 94 10000 2.06 0 20:20 06.08.2022
2303 Clouds 25 1008 94 10000 1.54 0 19:38 06.08.2022
2304 Clouds 25 1008 91 10000 1.33 75 18:19 06.08.2022
2305 Clear 25 1008 94 10000 1.54 0 16:33 06.08.2022
2306 Clear 26 1008 89 10000 2.57 140 13:52 06.08.2022
2307 Clouds 27 1008 83 10000 2.57 140 12:50 06.08.2022
2308 Clouds 27 1007 83 10000 2.57 150 11:21 06.08.2022
2309 Haze 28 1006 83 10000 5.66 150 09:50 06.08.2022
2310 Haze 32 1006 62 10000 8.75 150 07:36 06.08.2022
2311 Haze 30 1009 70 10000 4.63 140 03:24 06.08.2022
2312 Haze 25 1008 94 10000 2.57 320 23:27 05.08.2022
2313 Clouds 25 1007 94 10000 1.54 0 21:51 05.08.2022
2314 Clouds 25 1007 94 10000 2.57 170 19:29 05.08.2022
2315 Clouds 25 1007 94 10000 1.54 0 18:44 05.08.2022
2316 Clouds 25 1008 94 10000 1.54 0 17:26 05.08.2022
2317 Clouds 26 1008 89 10000 1.54 0 16:43 05.08.2022
2318 Clouds 26 1008 89 10000 2.57 150 15:21 05.08.2022
2319 Clouds 27 1008 83 10000 4.12 150 13:43 05.08.2022
2320 Clouds 27 1008 83 10000 4.12 150 13:22 05.08.2022
2321 Clouds 27 1008 89 10000 6.17 150 12:24 05.08.2022
2322 Haze 28 1007 83 10000 2.57 160 10:30 05.08.2022
2323 Haze 31 1006 70 10000 8.75 0 07:58 05.08.2022
2324 Haze 31 1006 70 10000 8.75 0 07:58 05.08.2022
2325 Haze 33 1008 58 10000 5.14 190 05:30 05.08.2022
2326 Fog 24 1009 100 10000 1.54 0 23:51 04.08.2022
2327 Clouds 24 1008 88 10000 0.38 58 21:58 04.08.2022
2328 Clouds 24 1007 88 10000 0.9 41 21:25 04.08.2022
2329 Clouds 24 1007 88 10000 0.9 41 20:41 04.08.2022
2330 Haze 24 1007 100 10000 1.54 0 19:21 04.08.2022
2331 Haze 25 1007 94 10000 1.54 0 18:34 04.08.2022
2332 Haze 25 1007 94 10000 1.54 0 17:28 04.08.2022
2333 Clouds 27 1008 89 10000 6.17 140 13:35 04.08.2022
2334 Clouds 28 1007 78 10000 5.66 160 11:46 04.08.2022
2335 Haze 28 1007 83 10000 6.17 170 10:27 04.08.2022
2336 Haze 33 1006 55 10000 7.72 190 07:50 04.08.2022
2337 Haze 31 1009 66 10000 5.66 150 03:33 04.08.2022
2338 Haze 28 1010 78 10000 2.06 0 01:42 04.08.2022
2339 Haze 25 1009 94 10000 1.54 0 23:41 03.08.2022
2340 Fog 25 1008 88 10000 0 0 21:34 03.08.2022
2341 Fog 24 1007 94 10000 0 0 20:22 03.08.2022
2342 Clouds 25 1007 94 10000 1.54 0 19:28 03.08.2022
2343 Clouds 26 1008 89 10000 5.14 150 17:20 03.08.2022
2344 Clouds 26 1009 89 10000 5.14 130 16:23 03.08.2022
2345 Clouds 27 1008 83 10000 5.14 140 14:23 03.08.2022
2346 Clouds 28 1006 83 10000 5.14 150 11:46 03.08.2022
2347 Clouds 32 1006 66 10000 5.14 150 07:45 03.08.2022
2348 Clouds 28 1009 72 10000 1.85 195 04:22 03.08.2022
2349 Haze 30 1010 70 10000 5.14 200 03:24 03.08.2022
2350 Smoke 26 1010 89 10000 1.54 0 00:58 03.08.2022
2351 Fog 23 1009 100 10000 1.54 0 22:49 02.08.2022
2352 Clouds 23 1009 94 10000 2.57 0 21:52 02.08.2022
2353 Clear 24 1008 94 10000 1.31 62 20:37 02.08.2022
2354 Clear 25 1008 88 10000 1.54 0 18:39 02.08.2022
2355 Clouds 26 1010 89 10000 5.14 140 15:27 02.08.2022
2356 Clouds 27 1009 89 10000 5.14 160 11:30 02.08.2022
2357 Clouds 31 1007 66 10000 7.72 150 08:59 02.08.2022
2358 Clouds 31 1007 66 10000 7.72 160 07:52 02.08.2022
2359 Clouds 31 1007 66 10000 7.72 160 06:41 02.08.2022
2360 Haze 31 1009 66 10000 5.14 120 04:31 02.08.2022
2361 Clouds 25 1009 94 10000 0.51 0 23:35 01.08.2022
2362 Clouds 24 1009 100 10000 1.54 0 22:22 01.08.2022
2363 Clouds 24 1008 100 10000 2.06 0 20:47 01.08.2022
2364 Clouds 24 1008 100 10000 2.57 0 19:22 01.08.2022
2365 Clouds 25 1008 94 10000 3.09 0 17:57 01.08.2022
2366 Clouds 25 1009 94 10000 2.57 310 16:52 01.08.2022
2367 Clouds 26 1009 89 10000 2.57 130 15:51 01.08.2022
2368 Clouds 26 1009 89 10000 2.57 130 15:29 01.08.2022
2369 Clouds 26 1008 94 10000 2.57 150 13:45 01.08.2022
2370 Clouds 27 1008 89 10000 2.57 160 11:49 01.08.2022
2371 Haze 29 1007 74 10000 2.57 160 09:39 01.08.2022
2372 Haze 29 1006 74 10000 7.72 140 08:21 01.08.2022
2373 Haze 30 1008 70 10000 7.72 210 04:45 01.08.2022
2374 Haze 28 1010 78 10000 5.14 170 02:31 01.08.2022
2375 Fog 25 1009 100 3000 1.54 140 23:43 31.07.2022
2376 Fog 25 1008 94 1000 3.09 320 22:36 31.07.2022
2377 Clouds 24 1008 90 10000 1.37 23 20:50 31.07.2022
2378 Clouds 24 1008 94 10000 2.06 0 19:40 31.07.2022
2379 Clouds 25 1009 94 10000 0.51 0 17:44 31.07.2022
2380 Clouds 25 1009 91 10000 2.85 117 15:30 31.07.2022
2381 Clouds 26 1009 89 10000 5.14 140 13:31 31.07.2022
2382 Haze 27 1007 83 10000 5.14 150 11:45 31.07.2022
2383 Smoke 30 1006 74 10000 5.14 140 09:27 31.07.2022
2384 Haze 31 1007 66 10000 7.72 140 06:37 31.07.2022
2385 Haze 30 1009 70 10000 3.6 0 02:57 31.07.2022
2386 Haze 24 1009 94 10000 1.54 0 23:29 30.07.2022
2387 Clouds 25 1009 88 10000 1.54 0 22:19 30.07.2022
2388 Clouds 25 1009 88 10000 1.54 0 21:40 30.07.2022
2389 Clouds 24 1009 91 10000 4.31 119 20:51 30.07.2022
2390 Clouds 25 1009 88 10000 4.12 150 19:58 30.07.2022
2391 Clouds 25 1009 88 10000 2.57 120 18:26 30.07.2022
2392 Clouds 24 1009 91 10000 5.53 126 16:54 30.07.2022
2393 Clouds 25 1010 94 10000 5.14 150 15:35 30.07.2022
2394 Clouds 26 1009 89 10000 5.14 145 14:32 30.07.2022
2395 Clouds 26 1009 89 10000 7.72 140 12:43 30.07.2022
2396 Haze 27 1008 83 10000 7.72 150 11:55 30.07.2022
2397 Haze 27 1008 83 10000 7.72 150 10:20 30.07.2022
2398 Haze 28 1007 78 10000 10.29 150 09:42 30.07.2022
2399 Haze 30 1007 74 10000 7.72 160 07:44 30.07.2022
2400 Haze 29 1010 70 10000 2.57 160 02:34 30.07.2022
2401 Clouds 27 1010 78 10000 2.57 0 01:21 30.07.2022
2402 Clouds 24 1008 94 10000 4.12 130 21:39 29.07.2022
2403 Clouds 24 1008 88 10000 2.57 160 20:57 29.07.2022
2404 Clouds 24 1008 90 10000 3.62 118 19:48 29.07.2022
2405 Clouds 25 1008 88 10000 5.14 140 17:40 29.07.2022
2406 Clouds 26 1009 89 10000 4.12 150 14:53 29.07.2022
2407 Clouds 26 1009 89 10000 5.14 150 12:58 29.07.2022
2408 Haze 28 1006 78 10000 10.29 150 09:35 29.07.2022
2409 Haze 29 1006 74 10000 10.29 160 08:46 29.07.2022
2410 Haze 30 1006 70 10000 7.72 150 07:30 29.07.2022
2411 Haze 28 1010 74 10000 5.14 160 01:46 29.07.2022
2412 Clouds 25 1008 83 10000 5.14 130 21:54 28.07.2022
2413 Clouds 25 1008 88 10000 5.14 130 20:54 28.07.2022
2414 Clouds 25 1008 88 10000 5.14 130 20:21 28.07.2022
2415 Clouds 25 1008 88 10000 5.14 120 19:41 28.07.2022
2416 Clouds 24 1008 94 10000 5.14 130 18:26 28.07.2022
2417 Clouds 25 1009 88 10000 6.17 130 17:42 28.07.2022
2418 Clouds 25 1009 88 10000 7.72 140 16:41 28.07.2022
2419 Clouds 26 1010 83 10000 7.72 150 14:50 28.07.2022
2420 Clouds 26 1009 83 10000 7.72 160 12:41 28.07.2022
2421 Haze 28 1007 74 10000 7.72 150 09:34 28.07.2022
2422 Haze 31 1008 66 10000 10.29 140 05:45 28.07.2022
2423 Haze 31 1008 66 10000 10.29 140 05:24 28.07.2022
2424 Haze 27 1010 78 10000 6.17 140 00:29 28.07.2022
2425 Clouds 25 1009 88 10000 5.14 150 22:25 27.07.2022
2426 Clouds 25 1009 88 10000 5.66 150 20:20 27.07.2022
2427 Clouds 25 1009 88 10000 5.66 150 19:32 27.07.2022
2428 Clouds 26 1010 83 10000 7.72 150 16:34 27.07.2022
2429 Clouds 25 1011 94 10000 7.72 140 15:51 27.07.2022
2430 Clouds 25 1010 88 10000 7.72 150 14:42 27.07.2022
2431 Clouds 26 1010 83 10000 7.72 140 13:58 27.07.2022
2432 Clouds 26 1009 89 10000 7.72 150 11:49 27.07.2022
2433 Haze 29 1007 74 10000 10.29 160 07:53 27.07.2022
2434 Haze 28 1009 78 10000 7.72 160 05:23 27.07.2022
2435 Clouds 25 1010 88 10000 2.57 140 23:41 26.07.2022
2436 Clouds 25 1009 88 10000 3.6 140 22:20 26.07.2022
2437 Clouds 23 1009 90 10000 2.2 81 21:18 26.07.2022
2438 Clouds 25 1009 88 10000 4.63 150 19:33 26.07.2022
2439 Clouds 25 1009 88 10000 6.69 140 18:41 26.07.2022
2440 Clouds 25 1010 88 10000 6.69 150 17:55 26.07.2022
2441 Clouds 25 1010 83 10000 5.14 150 15:47 26.07.2022
2442 Clouds 24 1010 88 10000 5.78 125 14:43 26.07.2022
2443 Clouds 26 1010 83 10000 5.14 150 12:35 26.07.2022
2444 Clouds 27 1008 78 10000 10.8 150 10:35 26.07.2022
2445 Clouds 29 1007 74 10000 10.8 150 08:29 26.07.2022
2446 Haze 29 1010 74 10000 7.72 130 02:25 26.07.2022
2447 Clouds 26 1010 83 10000 5.14 130 00:21 26.07.2022
2448 Clouds 23 1009 100 10000 2.57 130 22:40 25.07.2022
2449 Haze 24 1009 94 10000 2.57 140 21:44 25.07.2022
2450 Clouds 25 1008 88 10000 2.57 130 20:46 25.07.2022
2451 Clouds 25 1008 88 10000 2.57 130 20:24 25.07.2022
2452 Clouds 25 1009 88 10000 4.51 122 19:25 25.07.2022
2453 Clouds 25 1010 94 10000 6.17 150 17:56 25.07.2022
2454 Clouds 25 1010 94 10000 6.17 150 17:20 25.07.2022
2455 Clouds 26 1009 89 10000 7.72 150 13:36 25.07.2022
2456 Clouds 26 1008 89 10000 10.29 150 10:55 25.07.2022
2457 Clouds 30 1007 70 10000 10.29 140 07:59 25.07.2022
2458 Haze 29 1011 74 10000 4.12 120 01:36 25.07.2022
2459 Clouds 25 1010 94 10000 4.12 150 23:45 24.07.2022
2460 Clouds 25 1009 94 10000 4.63 140 22:47 24.07.2022
2461 Clouds 25 1009 94 10000 7.2 150 21:42 24.07.2022
2462 Clouds 25 1009 94 10000 5.14 150 20:59 24.07.2022
2463 Clouds 25 1009 94 10000 5.14 150 20:41 24.07.2022
2464 Clouds 26 1009 89 10000 7.2 150 19:20 24.07.2022
2465 Clouds 26 1009 89 10000 7.72 150 17:57 24.07.2022
2466 Clouds 26 1010 89 10000 7.72 150 15:55 24.07.2022
2467 Clouds 26 1010 89 10000 7.72 150 14:47 24.07.2022
2468 Clouds 26 1009 89 10000 7.72 150 13:49 24.07.2022
2469 Clouds 26 1010 87 10000 6.71 140 12:28 24.07.2022
2470 Clouds 26 1009 89 10000 7.72 150 11:30 24.07.2022
2471 Haze 28 1008 78 10000 7.72 150 09:48 24.07.2022
2472 Haze 30 1008 70 10000 7.72 160 07:57 24.07.2022
2473 Haze 30 1008 70 10000 7.72 160 07:31 24.07.2022
2474 Clouds 29 1011 74 10000 5.14 150 02:57 24.07.2022
2475 Clouds 25 1010 94 10000 7.72 160 22:52 23.07.2022
2476 Clouds 25 1009 94 10000 10.29 150 20:47 23.07.2022
2477 Clouds 25 1009 94 10000 7.72 150 19:25 23.07.2022
2478 Clouds 24 1010 91 10000 4.62 124 18:18 23.07.2022
2479 Clouds 26 1010 89 10000 7.72 150 17:27 23.07.2022
2480 Clouds 26 1010 89 10000 5.14 150 16:22 23.07.2022
2481 Clouds 26 1011 89 10000 5.14 150 15:21 23.07.2022
2482 Clouds 26 1011 89 10000 5.14 160 14:52 23.07.2022
2483 Clouds 26 1011 89 10000 5.14 160 14:21 23.07.2022
2484 Clouds 27 1009 83 10000 6.17 160 11:55 23.07.2022
2485 Clouds 27 1009 89 10000 11.83 160 10:37 23.07.2022
2486 Clouds 28 1008 83 10000 13.89 160 09:34 23.07.2022
2487 Clouds 30 1008 74 10000 11.32 150 06:46 23.07.2022
2488 Haze 30 1010 70 10000 5.14 160 03:37 23.07.2022
2489 Clouds 25 1012 86 10000 1.68 105 00:27 23.07.2022
2490 Clouds 25 1010 94 10000 5.14 160 21:33 22.07.2022
2491 Clouds 25 1010 94 10000 2.57 140 20:31 22.07.2022
2492 Clouds 26 1010 89 10000 5.14 150 18:42 22.07.2022
2493 Clouds 26 1010 89 10000 5.14 150 17:39 22.07.2022
2494 Clouds 26 1010 89 10000 7.2 150 15:46 22.07.2022
2495 Clouds 27 1010 83 10000 7.72 160 12:47 22.07.2022
2496 Haze 29 1009 70 10000 7.72 150 09:56 22.07.2022
2497 Haze 29 1009 70 10000 7.72 150 09:21 22.07.2022
2498 Haze 30 1008 70 10000 5.14 140 07:51 22.07.2022
2499 Clouds 31 1010 62 10000 2.57 140 04:22 22.07.2022
2500 Clouds 25 1011 88 10000 3.6 140 23:29 21.07.2022
2501 Clouds 25 1010 94 10000 5.14 150 21:39 21.07.2022
2502 Clouds 25 1009 88 10000 2.17 122 19:42 21.07.2022
2503 Clouds 25 1009 89 10000 2.37 127 18:30 21.07.2022
2504 Clouds 25 1010 89 10000 2.6 131 17:21 21.07.2022
2505 Clouds 26 1011 89 10000 5.14 170 15:58 21.07.2022
2506 Clouds 26 1011 89 10000 5.14 160 14:46 21.07.2022
2507 Clouds 26 1011 89 10000 5.14 170 13:49 21.07.2022
2508 Clouds 25 1010 90 10000 3.28 140 11:48 21.07.2022
2509 Clouds 28 1008 78 10000 4.63 150 09:54 21.07.2022
2510 Clouds 30 1008 66 10000 4.63 190 08:53 21.07.2022
2511 Clouds 30 1008 70 10000 4.63 200 07:50 21.07.2022
2512 Clouds 31 1008 66 10000 4.63 190 06:27 21.07.2022
2513 Clouds 27 1011 75 10000 1.39 236 02:35 21.07.2022
2514 Fog 24 1010 100 5000 1.54 0 22:46 20.07.2022
2515 Clouds 24 1010 88 10000 1.52 127 22:18 20.07.2022
2516 Clouds 24 1009 87 10000 0.9 116 20:46 20.07.2022
2517 Clouds 24 1009 89 10000 0.68 34 19:46 20.07.2022
2518 Clouds 24 1009 89 10000 0.93 30 18:53 20.07.2022
2519 Clouds 24 1009 89 10000 0.93 30 18:30 20.07.2022
2520 Clouds 25 1010 87 10000 0.71 21 17:24 20.07.2022
2521 Clouds 26 1011 89 10000 1.54 0 15:32 20.07.2022
2522 Clouds 26 1011 94 10000 1.54 0 14:35 20.07.2022
2523 Clouds 26 1010 94 10000 4.12 150 12:51 20.07.2022
2524 Clouds 27 1009 83 10000 5.14 150 10:29 20.07.2022
2525 Clouds 26 1008 80 10000 2.11 202 05:52 20.07.2022
2526 Clouds 25 1010 88 10000 1.54 0 00:58 20.07.2022
2527 Clouds 25 1010 88 10000 1.54 0 00:40 20.07.2022
2528 Clouds 23 1009 100 10000 1.03 0 22:35 19.07.2022
2529 Clouds 23 1009 100 10000 2.06 0 21:54 19.07.2022
2530 Clouds 23 1009 100 10000 3.09 0 20:49 19.07.2022
2531 Clouds 23 1009 94 10000 2.06 0 19:22 19.07.2022
2532 Clouds 23 1009 100 10000 1.54 0 18:35 19.07.2022
2533 Clouds 23 1009 100 10000 1.54 0 17:53 19.07.2022
2534 Rain 24 1010 100 10000 1.54 150 15:26 19.07.2022
2535 Clouds 23 1010 100 10000 5.14 70 12:44 19.07.2022
2536 Clouds 23 1009 100 10000 5.14 70 11:32 19.07.2022
2537 Clouds 26 1008 94 10000 10.29 160 09:51 19.07.2022
2538 Clouds 26 1007 89 10000 7.72 140 08:42 19.07.2022
2539 Haze 29 1007 79 10000 7.72 160 07:19 19.07.2022
2540 Haze 30 1008 70 10000 7.72 190 05:50 19.07.2022
2541 Haze 30 1008 70 10000 7.72 190 05:18 19.07.2022
2542 Clouds 28 1010 77 10000 3.9 158 02:33 19.07.2022
2543 Clouds 25 1010 88 10000 2.17 105 23:50 18.07.2022
2544 Clouds 24 1010 91 10000 2.55 107 23:19 18.07.2022
2545 Clouds 24 1008 100 10000 1.54 0 22:26 18.07.2022
2546 Clouds 25 1008 94 10000 1.03 0 21:20 18.07.2022
2547 Clouds 24 1008 92 10000 3.32 116 19:54 18.07.2022
2548 Clouds 25 1008 94 10000 2.06 0 18:24 18.07.2022
2549 Clouds 25 1010 94 10000 1.03 0 16:28 18.07.2022
2550 Clouds 24 1010 92 10000 4.73 130 15:19 18.07.2022
2551 Clouds 26 1010 89 10000 5.14 160 13:31 18.07.2022
2552 Clouds 26 1009 89 8000 7.72 160 11:34 18.07.2022
2553 Haze 27 1008 83 10000 10.29 160 09:54 18.07.2022
2554 Haze 28 1008 78 10000 10.29 150 07:49 18.07.2022
2555 Haze 29 1011 74 10000 2.57 0 02:51 18.07.2022
2556 Clouds 24 1010 94 10000 1.54 0 22:55 17.07.2022
2557 Clouds 24 1010 94 10000 1.54 0 22:28 17.07.2022
2558 Clouds 24 1010 90 10000 1.48 79 21:26 17.07.2022
2559 Clouds 24 1010 90 10000 1.48 79 20:44 17.07.2022
2560 Clouds 24 1010 89 10000 2.07 100 19:49 17.07.2022
2561 Clouds 24 1010 89 10000 2.45 109 19:20 17.07.2022
2562 Clouds 24 1010 89 10000 3.07 114 17:39 17.07.2022
2563 Clouds 25 1011 94 10000 1.03 0 16:53 17.07.2022
2564 Clouds 25 1011 94 10000 1.03 0 16:27 17.07.2022
2565 Clouds 25 1011 94 10000 5.14 160 15:34 17.07.2022
2566 Clouds 27 1011 83 10000 5.14 140 13:47 17.07.2022
2567 Clouds 27 1010 83 10000 7.72 150 12:32 17.07.2022
2568 Haze 27 1009 83 10000 5.14 150 10:18 17.07.2022
2569 Haze 30 1009 66 10000 9.26 160 06:58 17.07.2022
2570 Haze 28 1012 61 10000 5.14 160 02:34 17.07.2022
2571 Haze 21 1012 88 10000 1.54 0 23:23 16.07.2022
2572 Clouds 21 1011 88 10000 2.57 140 21:57 16.07.2022
2573 Clouds 21 1011 88 10000 2.57 130 20:28 16.07.2022
2574 Clouds 23 1011 78 10000 2.57 160 18:42 16.07.2022
2575 Clouds 23 1012 78 10000 2.57 130 17:24 16.07.2022
2576 Clouds 24 1012 73 10000 5.14 130 15:41 16.07.2022
2577 Clouds 26 1011 73 10000 5.14 150 11:55 16.07.2022
2578 Haze 28 1010 65 10000 7.72 160 09:37 16.07.2022
2579 Haze 29 1010 61 10000 7.72 150 08:58 16.07.2022
2580 Haze 29 1010 61 10000 7.72 150 08:33 16.07.2022
2581 Clouds 31 1011 51 10000 7.72 160 05:59 16.07.2022
2582 Smoke 28 1012 57 10000 5.14 140 03:31 16.07.2022
2583 Haze 24 1012 73 10000 5.14 140 23:51 15.07.2022
2584 Clouds 24 1012 73 10000 5.14 140 22:44 15.07.2022
2585 Clouds 24 1012 73 10000 5.14 140 21:31 15.07.2022
2586 Clouds 24 1012 73 10000 5.14 140 21:31 15.07.2022
2587 Clouds 24 1012 69 10000 5.14 130 20:32 15.07.2022
2588 Clouds 24 1013 69 10000 5.14 130 18:44 15.07.2022
2589 Clouds 24 1013 73 10000 7.72 140 17:48 15.07.2022
2590 Clouds 24 1014 73 10000 7.72 140 14:57 15.07.2022
2591 Clouds 24 1014 74 10000 8.38 125 13:20 15.07.2022
2592 Clouds 23 1014 75 10000 8.81 125 11:48 15.07.2022
2593 Haze 24 1012 69 10000 7.72 140 10:42 15.07.2022
2594 Haze 28 1011 57 10000 7.72 150 07:42 15.07.2022
2595 Clouds 27 1014 65 10000 10.29 160 02:24 15.07.2022
2596 Clouds 25 1013 73 10000 2.57 140 00:38 15.07.2022
2597 Clouds 23 1012 83 10000 5.14 140 22:54 14.07.2022
2598 Clouds 23 1011 83 10000 5.14 140 21:56 14.07.2022
2599 Clouds 23 1011 83 10000 5.14 140 21:30 14.07.2022
2600 Clouds 23 1011 83 10000 5.14 150 20:45 14.07.2022
2601 Clouds 23 1011 83 10000 5.14 150 20:26 14.07.2022
2602 Clouds 23 1012 81 10000 8.08 129 19:45 14.07.2022
2603 Clouds 24 1013 78 10000 5.14 140 16:23 14.07.2022
2604 Clouds 23 1013 83 10000 5.14 140 15:50 14.07.2022
2605 Clouds 23 1013 83 10000 5.14 140 14:43 14.07.2022
2606 Clouds 23 1013 83 10000 5.14 140 13:21 14.07.2022
2607 Clouds 24 1012 78 10000 7.72 140 11:56 14.07.2022
2608 Clouds 24 1012 78 10000 7.72 140 11:24 14.07.2022
2609 Haze 25 1011 73 10000 5.14 140 10:37 14.07.2022
2610 Haze 26 1010 69 10000 10.29 150 07:55 14.07.2022
2611 Clouds 24 1012 88 5000 7.94 140 01:27 14.07.2022
2612 Clouds 24 1013 87 10000 7.94 140 00:54 14.07.2022
2613 Clouds 24 1010 88 10000 5.14 140 22:57 13.07.2022
2614 Clouds 24 1010 88 10000 5.14 140 22:22 13.07.2022
2615 Clouds 24 1010 89 10000 7.76 140 21:19 13.07.2022
2616 Clouds 25 1010 83 10000 5.14 150 19:58 13.07.2022
2617 Clouds 25 1010 83 10000 5.14 140 17:52 13.07.2022
2618 Clouds 25 1010 83 10000 7.72 150 16:46 13.07.2022
2619 Clouds 25 1011 89 10000 6.89 140 15:26 13.07.2022
2620 Clouds 25 1010 88 7000 7.72 140 12:56 13.07.2022
2621 Clouds 25 1010 88 7000 7.72 140 12:56 13.07.2022
2622 Smoke 25 1008 88 5000 7.72 150 10:46 13.07.2022
2623 Haze 25 1008 88 5000 7.72 150 10:25 13.07.2022
2624 Smoke 26 1008 89 5000 7.72 160 09:25 13.07.2022
2625 Haze 30 1008 66 10000 7.72 160 06:46 13.07.2022
2626 Clouds 30 1010 70 10000 5.14 160 02:38 13.07.2022
2627 Clouds 25 1010 88 10000 5.66 130 23:52 12.07.2022
2628 Clouds 24 1009 88 10000 3.09 124 21:58 12.07.2022
2629 Clouds 24 1009 88 10000 3.09 124 21:32 12.07.2022
2630 Clouds 26 1009 89 10000 2.57 140 20:41 12.07.2022
2631 Clouds 26 1009 89 10000 7.2 140 19:28 12.07.2022
2632 Clouds 27 1009 83 10000 7.2 150 17:50 12.07.2022
2633 Clouds 25 1010 86 10000 5.33 134 16:20 12.07.2022
2634 Clouds 27 1010 78 10000 7.72 140 14:31 12.07.2022
2635 Clouds 27 1009 78 10000 5.14 160 12:48 12.07.2022
2636 Clouds 27 1008 83 10000 7.72 160 11:26 12.07.2022
2637 Clouds 28 1007 78 10000 10.29 150 09:42 12.07.2022
2638 Clouds 30 1007 66 10000 7.72 170 08:23 12.07.2022
2639 Clouds 31 1007 66 10000 5.14 160 06:49 12.07.2022
2640 Clouds 32 1007 62 10000 5.14 160 05:42 12.07.2022
2641 Haze 30 1010 66 10000 3.6 150 02:32 12.07.2022
2642 Haze 24 1009 94 10000 1.03 0 23:30 11.07.2022
2643 Clouds 24 1009 88 10000 1.54 0 22:31 11.07.2022
2644 Clouds 24 1008 88 10000 5.14 140 20:41 11.07.2022
2645 Clouds 25 1008 88 10000 5.14 130 19:44 11.07.2022
2646 Clouds 25 1009 88 10000 5.14 140 18:32 11.07.2022
2647 Clouds 25 1009 88 10000 5.14 120 17:49 11.07.2022
2648 Clouds 26 1009 83 10000 5.14 145 16:20 11.07.2022
2649 Clouds 27 1010 78 10000 5.14 140 14:41 11.07.2022
2650 Clouds 27 1008 83 10000 5.14 150 11:58 11.07.2022
2651 Haze 28 1008 78 10000 10.8 160 10:35 11.07.2022
2652 Haze 30 1007 70 10000 7.2 160 09:43 11.07.2022
2653 Haze 30 1007 70 10000 6.69 150 08:34 11.07.2022
2654 Haze 30 1009 70 10000 5.14 170 05:52 11.07.2022
2655 Haze 26 1011 83 10000 5.14 150 00:22 11.07.2022
2656 Clouds 25 1009 88 10000 2.57 130 22:58 10.07.2022
2657 Clouds 25 1009 88 10000 5.14 130 21:51 10.07.2022
2658 Clouds 26 1009 89 10000 2.57 130 20:54 10.07.2022
2659 Clouds 26 1009 89 10000 5.14 130 19:50 10.07.2022
2660 Clouds 26 1009 89 10000 5.14 130 19:50 10.07.2022
2661 Clouds 26 1009 89 10000 5.14 140 18:49 10.07.2022
2662 Clouds 27 1009 83 10000 7.72 160 17:37 10.07.2022
2663 Clouds 27 1010 83 10000 7.2 160 16:57 10.07.2022
2664 Clouds 27 1010 83 10000 8.75 160 15:33 10.07.2022
2665 Clouds 27 1010 83 10000 10.29 120 14:30 10.07.2022
2666 Clouds 26 1010 88 10000 5.85 134 12:30 10.07.2022
2667 Clouds 27 1009 83 10000 9.26 160 11:25 10.07.2022
2668 Haze 29 1007 79 10000 8.75 160 08:46 10.07.2022
2669 Haze 30 1007 74 10000 8.23 150 07:59 10.07.2022
2670 Haze 30 1010 70 10000 1.54 0 02:50 10.07.2022
2671 Clouds 24 1009 94 10000 1.03 3 22:59 09.07.2022
2672 Clouds 24 1009 94 10000 1.03 3 22:25 09.07.2022
2673 Clouds 24 1009 94 10000 1.03 3 21:28 09.07.2022
2674 Clouds 25 1009 94 10000 1.03 120 18:45 09.07.2022
2675 Clouds 25 1009 94 10000 2.57 120 17:48 09.07.2022
2676 Clouds 26 1009 89 10000 2.57 120 16:58 09.07.2022
2677 Clouds 26 1010 89 10000 5.66 140 15:42 09.07.2022
2678 Clouds 25 1010 90 10000 4.36 127 14:44 09.07.2022
2679 Clouds 25 1010 89 10000 4.82 127 13:51 09.07.2022
2680 Clouds 25 1010 89 10000 5 130 12:48 09.07.2022
2681 Clouds 25 1009 88 10000 5.34 134 11:32 09.07.2022
2682 Haze 28 1007 78 10000 7.72 160 10:23 09.07.2022
2683 Haze 31 1007 66 10000 7.72 150 07:54 09.07.2022
2684 Haze 32 1008 62 10000 5.14 160 05:37 09.07.2022
2685 Haze 30 1009 66 10000 4.12 150 03:29 09.07.2022
2686 Clouds 25 1009 88 10000 1.54 0 22:59 08.07.2022
2687 Clouds 25 1008 88 10000 1.54 0 21:59 08.07.2022
2688 Clouds 24 1008 88 10000 2.06 150 20:55 08.07.2022
2689 Clouds 24 1008 88 10000 2.06 150 20:24 08.07.2022
2690 Clouds 24 1008 94 10000 2.57 140 18:29 08.07.2022
2691 Clouds 24 1008 94 10000 2.57 140 18:29 08.07.2022
2692 Clouds 25 1008 88 10000 4.12 140 17:21 08.07.2022
2693 Clouds 25 1008 88 10000 4.12 140 17:21 08.07.2022
2694 Clear 25 1010 89 10000 4.76 126 14:54 08.07.2022
2695 Clouds 26 1009 83 10000 5.14 140 13:45 08.07.2022
2696 Clouds 27 1008 83 10000 5.14 160 11:59 08.07.2022
2697 Clouds 26 1008 88 10000 7.03 135 10:37 08.07.2022
2698 Haze 30 1006 74 10000 10.8 150 08:37 08.07.2022
2699 Haze 31 1007 70 10000 10.29 160 06:50 08.07.2022
2700 Haze 30 1010 74 10000 5.14 160 01:31 08.07.2022
2701 Clouds 25 1010 81 10000 1.09 64 23:30 07.07.2022
2702 Clouds 24 1009 87 10000 1.45 57 22:35 07.07.2022
2703 Clear 25 1008 94 10000 0.51 0 20:36 07.07.2022
2704 Clouds 25 1008 90 10000 3.22 113 18:20 07.07.2022
2705 Clouds 27 1009 89 10000 2.57 0 16:53 07.07.2022
2706 Clouds 27 1009 89 10000 7.72 130 14:56 07.07.2022
2707 Clouds 28 1009 83 10000 7.72 140 13:25 07.07.2022
2708 Clouds 28 1009 83 10000 7.72 150 12:24 07.07.2022
2709 Clouds 28 1008 83 10000 7.72 150 11:45 07.07.2022
2710 Clouds 28 1008 83 10000 7.72 150 11:27 07.07.2022
2711 Clouds 28 1007 89 10000 7.72 150 10:42 07.07.2022
2712 Clouds 27 1007 85 10000 6.47 145 10:24 07.07.2022
2713 Clouds 32 1008 66 10000 7.2 130 06:58 07.07.2022
2714 Clouds 28 1011 72 10000 1.49 159 01:51 07.07.2022
2715 Clouds 26 1011 83 10000 1.57 98 23:36 06.07.2022
2716 Clouds 25 1010 87 10000 1.92 96 23:18 06.07.2022
2717 Clouds 24 1009 100 10000 1.54 0 22:52 06.07.2022
2718 Clouds 24 1009 100 10000 1.54 0 22:34 06.07.2022
2719 Clouds 24 1009 100 10000 1.54 0 20:36 06.07.2022
2720 Clouds 24 1009 100 10000 1.03 0 19:35 06.07.2022
2721 Clouds 25 1010 94 10000 1.54 0 17:32 06.07.2022
2722 Clouds 25 1010 100 10000 1.54 0 15:59 06.07.2022
2723 Rain 26 1011 94 10000 1.54 0 13:56 06.07.2022
2724 Clouds 26 1010 89 10000 1.54 0 12:30 06.07.2022
2725 Clouds 26 1010 89 10000 1.54 0 12:30 06.07.2022
2726 Clouds 26 1010 94 10000 1.54 0 11:44 06.07.2022
2727 Clouds 26 1009 86 10000 4.64 152 10:18 06.07.2022
2728 Clouds 29 1008 79 10000 7.72 190 07:44 06.07.2022
2729 Clouds 29 1008 79 10000 7.72 190 07:19 06.07.2022
2730 Clouds 27 1011 80 10000 0.66 75 01:20 06.07.2022
2731 Haze 23 1009 100 10000 1.54 0 22:44 05.07.2022
2732 Clouds 24 1008 94 10000 1.03 0 21:29 05.07.2022
2733 Clouds 24 1008 94 10000 2.06 0 20:35 05.07.2022
2734 Clouds 24 1008 94 10000 2.57 340 19:40 05.07.2022
2735 Clouds 24 1009 94 10000 0.51 0 18:23 05.07.2022
2736 Clouds 24 1009 94 10000 0.51 0 17:39 05.07.2022
2737 Clouds 25 1009 88 10000 1.14 53 16:36 05.07.2022
2738 Clouds 25 1009 88 10000 1.54 0 15:23 05.07.2022
2739 Clouds 25 1010 86 10000 0.91 100 13:36 05.07.2022
2740 Clouds 27 1009 89 10000 1.54 0 12:41 05.07.2022
2741 Haze 28 1007 83 10000 5.14 250 10:46 05.07.2022
2742 Haze 29 1006 79 10000 5.14 200 09:58 05.07.2022
2743 Haze 30 1006 74 10000 5.14 210 08:23 05.07.2022
2744 Clouds 28 1005 74 10000 3.05 245 07:20 05.07.2022
2745 Haze 31 1008 66 10000 5.14 230 04:39 05.07.2022
2746 Clouds 28 1009 72 10000 1.79 333 01:33 05.07.2022
2747 Clouds 25 1009 84 10000 1.96 5 23:38 04.07.2022
2748 Clouds 25 1007 94 10000 2.06 0 22:58 04.07.2022
2749 Clouds 25 1007 94 10000 2.06 0 22:19 04.07.2022
2750 Clouds 25 1007 94 10000 2.57 310 20:57 04.07.2022
2751 Clouds 25 1007 94 10000 2.57 310 20:37 04.07.2022
2752 Clouds 25 1007 94 10000 1.54 0 19:57 04.07.2022
2753 Clouds 25 1007 94 10000 1.54 0 19:37 04.07.2022
2754 Clouds 25 1007 94 10000 2.57 300 18:54 04.07.2022
2755 Clouds 26 1008 94 10000 2.57 180 16:58 04.07.2022
2756 Clouds 25 1008 89 10000 1.17 48 15:40 04.07.2022
2757 Clouds 25 1008 88 10000 1.1 122 14:19 04.07.2022
2758 Clouds 28 1007 83 10000 2.57 180 12:55 04.07.2022
2759 Haze 29 1005 79 10000 5.14 180 10:57 04.07.2022
2760 Haze 29 1005 79 10000 5.14 180 10:27 04.07.2022
2761 Haze 30 1004 70 10000 5.14 200 09:21 04.07.2022
2762 Haze 32 1005 62 10000 5.14 220 06:28 04.07.2022
2763 Haze 31 1007 66 10000 2.57 340 02:59 04.07.2022
2764 Haze 24 1007 94 10000 1.54 0 23:52 03.07.2022
2765 Clouds 24 1006 100 10000 1.54 0 22:29 03.07.2022
2766 Clouds 25 1006 94 10000 1.54 0 20:45 03.07.2022
2767 Clouds 24 1006 100 10000 1.54 0 19:43 03.07.2022
2768 Clouds 25 1006 88 10000 1.12 21 19:24 03.07.2022
2769 Clouds 25 1006 88 10000 0.98 30 18:23 03.07.2022
2770 Clouds 25 1007 94 10000 1.54 0 17:31 03.07.2022
2771 Clouds 26 1007 85 10000 0.77 69 15:27 03.07.2022
2772 Clouds 26 1007 85 10000 0.77 69 14:53 03.07.2022
2773 Clouds 26 1007 89 10000 1.03 0 13:50 03.07.2022
2774 Clouds 26 1006 89 10000 2.57 150 12:44 03.07.2022
2775 Clouds 27 1006 83 10000 2.57 180 11:47 03.07.2022
2776 Haze 28 1005 78 10000 5.14 180 10:51 03.07.2022
2777 Haze 28 1005 78 10000 5.14 180 10:33 03.07.2022
2778 Haze 31 1005 66 10000 5.14 200 07:38 03.07.2022
2779 Haze 31 1006 58 10000 5.14 220 05:34 03.07.2022
2780 Haze 25 1008 88 10000 2.57 260 00:26 03.07.2022
2781 Clouds 23 1007 100 10000 2.57 360 22:37 02.07.2022
2782 Clouds 23 1007 100 10000 2.57 360 22:18 02.07.2022
2783 Clouds 24 1007 94 10000 5.14 350 20:21 02.07.2022
2784 Clouds 25 1007 88 10000 5.14 350 19:49 02.07.2022
2785 Clouds 25 1007 94 10000 5.14 340 17:59 02.07.2022
2786 Clouds 25 1007 94 10000 5.14 340 17:37 02.07.2022
2787 Clouds 27 1007 83 10000 2.06 0 15:46 02.07.2022
2788 Clouds 27 1007 78 10000 2.06 0 12:56 02.07.2022
2789 Clouds 28 1007 83 10000 4.12 110 11:48 02.07.2022
2790 Haze 28 1006 83 10000 5.14 160 10:50 02.07.2022
2791 Haze 29 1006 79 10000 5.14 160 09:49 02.07.2022
2792 Haze 29 1006 79 10000 2.57 150 08:37 02.07.2022
2793 Haze 29 1006 79 10000 2.57 150 08:19 02.07.2022
2794 Haze 30 1009 66 10000 2.57 350 02:53 02.07.2022
2795 Haze 25 1009 94 10000 2.57 310 00:27 02.07.2022
2796 Clouds 24 1008 94 10000 1.54 0 22:59 01.07.2022
2797 Clouds 24 1008 94 10000 1.54 0 22:29 01.07.2022
2798 Clouds 24 1008 94 10000 1.54 0 21:37 01.07.2022
2799 Clouds 24 1008 87 10000 2.68 15 20:58 01.07.2022
2800 Clouds 24 1007 87 10000 2.26 354 20:20 01.07.2022
2801 Clouds 24 1008 94 10000 1.54 0 19:34 01.07.2022
2802 Clouds 24 1008 100 10000 2.06 0 16:40 01.07.2022
2803 Clouds 26 1009 94 10000 1.54 0 14:29 01.07.2022
2804 Clouds 26 1009 94 10000 1.54 0 13:33 01.07.2022
2805 Haze 29 1007 74 10000 5.14 200 10:53 01.07.2022
2806 Haze 29 1007 74 10000 5.14 200 10:19 01.07.2022
2807 Haze 31 1007 70 10000 2.57 200 06:21 01.07.2022
2808 Clear 28 1009 72 10000 1.38 177 02:19 01.07.2022
2809 Haze 23 1009 94 10000 1.54 0 23:34 30.06.2022
2810 Clouds 23 1009 100 10000 1.03 0 22:50 30.06.2022
2811 Clouds 23 1009 100 10000 1.03 0 22:31 30.06.2022
2812 Clouds 23 1008 100 10000 1.03 0 21:53 30.06.2022
2813 Clouds 24 1008 94 10000 1.03 0 20:45 30.06.2022
2814 Clouds 24 1008 94 10000 1.03 0 20:18 30.06.2022
2815 Clouds 23 1008 100 10000 0 0 19:47 30.06.2022
2816 Clear 24 1008 94 10000 1.03 0 18:49 30.06.2022
2817 Clear 24 1009 100 10000 1.03 0 17:49 30.06.2022
2818 Clouds 24 1009 94 10000 2.57 330 16:56 30.06.2022
2819 Clouds 24 1009 100 10000 2.57 320 15:56 30.06.2022
2820 Clouds 25 1009 94 10000 1.54 0 13:58 30.06.2022
2821 Clear 26 1008 86 10000 0.74 87 13:19 30.06.2022
2822 Clouds 26 1009 89 10000 1.54 0 12:33 30.06.2022
2823 Clouds 27 1007 78 10000 2.57 170 10:21 30.06.2022
2824 Haze 28 1007 78 10000 5.14 190 09:41 30.06.2022
2825 Haze 29 1007 79 10000 5.14 200 08:26 30.06.2022
2826 Haze 31 1006 70 10000 5.14 200 07:40 30.06.2022
2827 Haze 32 1008 58 10000 2.57 200 03:53 30.06.2022
2828 Fog 23 1008 100 10000 1.54 330 23:39 29.06.2022
2829 Fog 23 1008 100 10000 2.06 0 22:41 29.06.2022
2830 Fog 23 1008 100 10000 2.06 0 22:19 29.06.2022
2831 Clouds 24 1008 85 10000 1.54 14 20:35 29.06.2022
2832 Clouds 24 1007 86 10000 1.7 14 19:56 29.06.2022
2833 Clouds 24 1008 94 10000 1.54 0 17:55 29.06.2022
2834 Clouds 24 1008 86 10000 1.64 17 17:32 29.06.2022
2835 Clouds 24 1009 94 10000 1.54 0 16:23 29.06.2022
2836 Clouds 26 1009 94 10000 1.54 0 13:45 29.06.2022
2837 Clouds 26 1008 94 10000 2.06 130 12:38 29.06.2022
2838 Haze 30 1006 70 10000 5.14 200 09:50 29.06.2022
2839 Haze 30 1006 70 10000 5.14 200 09:26 29.06.2022
2840 Haze 31 1006 66 10000 5.14 220 06:29 29.06.2022
2841 Haze 31 1007 66 10000 5.14 220 04:44 29.06.2022
2842 Haze 24 1007 94 10000 1.54 0 00:53 29.06.2022
2843 Haze 24 1007 94 10000 1.54 0 00:34 29.06.2022
2844 Fog 23 1007 100 3000 2.06 0 22:52 28.06.2022
2845 Fog 23 1006 100 5000 1.54 0 21:59 28.06.2022
2846 Fog 23 1006 100 5000 1.54 0 21:40 28.06.2022
2847 Fog 23 1006 100 5000 1.54 0 21:22 28.06.2022
2848 Clouds 23 1006 100 10000 1.54 0 19:54 28.06.2022
2849 Clouds 23 1006 100 10000 1.54 0 19:30 28.06.2022
2850 Clouds 23 1007 94 10000 1.54 0 18:40 28.06.2022
2851 Clouds 25 1008 94 10000 1.54 0 16:58 28.06.2022
2852 Clouds 25 1008 88 10000 1.54 0 15:55 28.06.2022
2853 Clouds 25 1008 88 10000 1.54 0 14:50 28.06.2022
2854 Clouds 25 1008 88 10000 1.54 0 14:18 28.06.2022
2855 Clouds 26 1008 83 10000 1.54 0 13:45 28.06.2022
2856 Clouds 26 1007 86 10000 4.23 128 12:28 28.06.2022
2857 Haze 30 1006 70 10000 7.72 160 09:53 28.06.2022
2858 Haze 31 1006 66 10000 7.72 140 08:55 28.06.2022
2859 Haze 31 1006 66 10000 7.72 140 08:26 28.06.2022
2860 Clouds 27 1006 75 10000 2.31 198 07:20 28.06.2022
2861 Haze 30 1009 74 10000 1.54 0 02:42 28.06.2022
2862 Haze 25 1009 100 10000 2.57 0 23:51 27.06.2022
2863 Haze 25 1009 100 10000 2.57 0 23:25 27.06.2022
2864 Clouds 25 1007 100 10000 1.54 0 21:53 27.06.2022
2865 Clouds 25 1007 100 10000 1.54 0 21:21 27.06.2022
2866 Clouds 26 1007 89 10000 2.57 120 19:54 27.06.2022
2867 Clouds 26 1007 94 10000 2.57 140 18:45 27.06.2022
2868 Clouds 26 1007 94 10000 2.57 300 17:26 27.06.2022
2869 Clouds 26 1008 94 10000 1.03 0 15:43 27.06.2022
2870 Clouds 26 1008 86 10000 1.81 98 13:51 27.06.2022
2871 Clouds 27 1008 94 10000 2.57 120 12:57 27.06.2022
2872 Haze 28 1007 83 10000 5.14 160 10:51 27.06.2022
2873 Haze 30 1006 74 10000 5.14 170 09:43 27.06.2022
2874 Haze 30 1006 70 10000 5.14 170 08:38 27.06.2022
2875 Haze 31 1006 66 10000 5.14 210 07:39 27.06.2022
2876 Haze 31 1007 66 10000 5.14 240 05:19 27.06.2022
2877 Haze 29 1009 79 10000 1.54 0 01:21 27.06.2022
2878 Clouds 24 1008 94 10000 1.54 0 22:47 26.06.2022
2879 Clouds 24 1007 94 10000 1.54 0 21:23 26.06.2022
2880 Clouds 23 1007 100 10000 1.54 0 19:59 26.06.2022
2881 Clouds 24 1007 100 10000 1.54 0 18:33 26.06.2022
2882 Clouds 24 1007 100 10000 1.54 0 17:37 26.06.2022
2883 Clouds 25 1008 85 10000 1.22 35 15:31 26.06.2022
2884 Clouds 26 1008 85 10000 2.01 4 13:55 26.06.2022
2885 Clouds 26 1008 85 10000 2.04 25 13:23 26.06.2022
2886 Clouds 27 1007 89 10000 4.63 170 11:31 26.06.2022
2887 Haze 28 1005 78 10000 5.14 180 10:29 26.06.2022
2888 Haze 28 1005 78 10000 5.14 180 10:29 26.06.2022
2889 Haze 30 1005 70 10000 5.14 200 09:45 26.06.2022
2890 Haze 31 1005 66 10000 5.14 200 07:46 26.06.2022
2891 Haze 31 1008 66 10000 5.14 210 03:19 26.06.2022
2892 Haze 27 1009 89 10000 2.57 220 00:36 26.06.2022
2893 Haze 27 1009 89 10000 2.57 220 00:18 26.06.2022
2894 Haze 25 1008 94 10000 2.57 140 23:24 25.06.2022
2895 Clouds 24 1008 94 10000 2.57 140 22:28 25.06.2022
2896 Clouds 24 1007 94 10000 2.06 140 21:50 25.06.2022
2897 Clouds 24 1008 85 10000 1.34 67 21:20 25.06.2022
2898 Clouds 24 1007 100 10000 2.06 0 20:30 25.06.2022
2899 Clouds 25 1007 86 10000 1.37 35 19:55 25.06.2022
2900 Clouds 25 1007 94 10000 2.06 0 18:21 25.06.2022
2901 Clouds 24 1008 100 10000 2.06 0 17:25 25.06.2022
2902 Clouds 26 1008 89 10000 1.54 0 15:42 25.06.2022
2903 Clouds 26 1008 89 10000 2.57 160 13:51 25.06.2022
2904 Clouds 26 1007 94 10000 2.57 150 12:39 25.06.2022
2905 Clouds 26 1007 84 10000 5.32 136 10:58 25.06.2022
2906 Haze 29 1006 74 10000 5.14 150 09:22 25.06.2022
2907 Haze 30 1005 70 10000 5.14 180 08:46 25.06.2022
2908 Haze 30 1005 70 10000 5.14 180 08:46 25.06.2022
2909 Haze 30 1005 70 10000 5.14 180 08:19 25.06.2022
2910 Haze 31 1007 70 10000 5.14 230 05:23 25.06.2022
2911 Clouds 25 1009 94 10000 1.54 0 00:43 25.06.2022
2912 Clouds 24 1009 86 10000 1.54 15 23:18 24.06.2022
2913 Clear 23 1007 94 10000 1.03 0 21:57 24.06.2022
2914 Clouds 24 1008 88 10000 1.54 50 21:19 24.06.2022
2915 Clouds 24 1007 88 10000 1.61 94 20:19 24.06.2022
2916 Clouds 24 1007 88 10000 1.61 94 20:19 24.06.2022
2917 Clouds 24 1007 87 10000 3.24 123 19:22 24.06.2022
2918 Clear 24 1007 94 10000 2.57 120 18:49 24.06.2022
2919 Clear 24 1007 94 10000 2.57 120 18:30 24.06.2022
2920 Clear 25 1008 88 10000 2.57 150 17:41 24.06.2022
2921 Clouds 25 1009 88 10000 5.14 150 15:51 24.06.2022
2922 Clouds 25 1009 86 10000 5.75 124 14:28 24.06.2022
2923 Clouds 26 1010 89 10000 5.14 140 13:55 24.06.2022
2924 Clouds 27 1008 78 10000 7.72 140 11:45 24.06.2022
2925 Clouds 27 1008 78 10000 7.72 140 11:22 24.06.2022
2926 Haze 28 1007 74 10000 7.72 150 10:19 24.06.2022
2927 Haze 29 1007 74 10000 7.72 160 09:40 24.06.2022
2928 Haze 29 1006 74 10000 7.72 160 08:52 24.06.2022
2929 Haze 31 1007 70 10000 5.14 160 06:49 24.06.2022
2930 Haze 31 1007 70 10000 5.14 160 06:31 24.06.2022
2931 Haze 32 1008 62 10000 5.14 150 05:55 24.06.2022
2932 Haze 28 1010 74 10000 2.06 110 01:36 24.06.2022
2933 Clouds 23 1009 94 10000 1.54 0 22:45 23.06.2022
2934 Clouds 24 1009 88 10000 3.3 123 22:18 23.06.2022
2935 Clouds 24 1008 88 10000 5.14 150 20:54 23.06.2022
2936 Clouds 24 1008 88 10000 5.14 150 20:32 23.06.2022
2937 Clouds 24 1009 88 10000 5.14 140 18:49 23.06.2022
2938 Haze 24 1009 88 10000 5.14 150 17:45 23.06.2022
2939 Haze 25 1010 83 10000 5.14 160 16:36 23.06.2022
2940 Haze 25 1010 83 10000 5.14 160 15:31 23.06.2022
2941 Haze 25 1010 88 10000 5.14 160 14:59 23.06.2022
2942 Clouds 25 1009 87 10000 6.43 127 12:39 23.06.2022
2943 Haze 27 1009 78 10000 7.72 150 11:20 23.06.2022
2944 Haze 28 1008 78 10000 7.72 150 09:30 23.06.2022
2945 Haze 31 1008 70 10000 7.72 150 07:51 23.06.2022
2946 Haze 29 1012 70 10000 5.14 130 01:29 23.06.2022
2947 Clouds 25 1012 87 10000 4.34 111 00:25 23.06.2022
2948 Clouds 24 1012 90 10000 4.52 117 23:23 22.06.2022
2949 Clouds 25 1010 88 10000 7.72 140 21:45 22.06.2022
2950 Clouds 25 1010 88 10000 7.72 140 21:45 22.06.2022
2951 Clouds 25 1009 88 10000 7.72 130 20:52 22.06.2022
2952 Clouds 25 1009 88 10000 7.72 130 20:20 22.06.2022
2953 Clouds 25 1010 94 10000 7.72 170 19:44 22.06.2022
2954 Clouds 25 1010 94 10000 7.72 170 19:44 22.06.2022
2955 Clouds 26 1010 89 10000 7.72 160 17:50 22.06.2022
2956 Clouds 26 1011 89 10000 7.72 140 16:50 22.06.2022
2957 Clouds 26 1011 89 10000 5.14 150 15:29 22.06.2022
2958 Clouds 26 1011 89 10000 5.14 140 14:57 22.06.2022
2959 Clouds 27 1011 83 10000 7.72 150 13:49 22.06.2022
2960 Clouds 27 1011 83 10000 7.72 150 13:24 22.06.2022
2961 Clouds 26 1011 89 10000 6.72 132 12:31 22.06.2022
2962 Clouds 28 1010 78 10000 5.14 150 11:45 22.06.2022
2963 Haze 28 1009 78 10000 7.72 150 10:50 22.06.2022
2964 Haze 29 1008 79 10000 7.72 150 09:42 22.06.2022
2965 Haze 32 1008 66 10000 5.14 150 07:22 22.06.2022
2966 Haze 29 1011 79 10000 6.17 150 02:39 22.06.2022
2967 Haze 27 1010 78 10000 5.14 120 00:57 22.06.2022
2968 Clouds 23 1009 94 10000 4.12 140 22:57 21.06.2022
2969 Clouds 24 1009 88 10000 2.57 100 21:21 21.06.2022
2970 Clouds 24 1009 94 10000 5.14 160 19:30 21.06.2022
2971 Clouds 24 1009 94 10000 5.14 160 19:30 21.06.2022
2972 Clouds 25 1010 88 10000 5.14 130 17:56 21.06.2022
2973 Clouds 25 1010 88 10000 2.57 130 16:47 21.06.2022
2974 Haze 27 1008 78 10000 5.14 160 11:59 21.06.2022
2975 Haze 28 1008 78 10000 5.14 160 10:47 21.06.2022
2976 Haze 28 1007 83 10000 7.72 160 09:35 21.06.2022
2977 Haze 30 1007 66 10000 5.14 140 07:50 21.06.2022
2978 Haze 31 1009 58 10000 4.12 330 04:57 21.06.2022
2979 Clouds 24 1010 94 10000 5.14 350 00:31 21.06.2022
2980 Clouds 23 1008 100 10000 5.14 330 22:21 20.06.2022
2981 Clouds 24 1009 89 10000 1.37 15 21:40 20.06.2022
2982 Clouds 23 1007 100 10000 1.54 0 20:29 20.06.2022
2983 Clouds 23 1007 100 10000 2.57 140 19:36 20.06.2022
2984 Clouds 23 1008 100 10000 2.57 340 18:34 20.06.2022
2985 Clouds 23 1008 94 10000 2.57 320 17:49 20.06.2022
2986 Clouds 24 1009 94 10000 1.03 0 16:36 20.06.2022
2987 Clouds 25 1009 88 10000 1.54 0 15:30 20.06.2022
2988 Clouds 24 1009 94 10000 2.57 340 12:32 20.06.2022
2989 Haze 27 1007 83 10000 7.72 140 10:21 20.06.2022
2990 Haze 27 1007 83 10000 7.72 140 10:21 20.06.2022
2991 Haze 28 1006 78 10000 5.14 120 08:54 20.06.2022
2992 Haze 30 1005 74 10000 5.14 160 07:51 20.06.2022
2993 Haze 31 1006 70 10000 7.5 160 05:21 20.06.2022
2994 Clouds 29 1008 74 10000 2.57 140 01:33 20.06.2022
2995 Clouds 25 1007 88 10000 1.54 100 23:57 19.06.2022
2996 Clouds 25 1008 89 10000 5.77 126 22:40 19.06.2022
2997 Clouds 24 1006 94 10000 1.54 140 21:43 19.06.2022
2998 Clouds 24 1006 94 10000 2.57 140 20:55 19.06.2022
2999 Clouds 24 1006 94 10000 2.57 140 20:25 19.06.2022
3000 Clouds 24 1006 94 10000 2.57 170 19:45 19.06.2022
3001 Clouds 24 1007 94 10000 2.57 150 18:33 19.06.2022
3002 Clouds 24 1007 94 10000 2.57 140 17:48 19.06.2022
3003 Clouds 24 1007 94 10000 2.57 140 17:20 19.06.2022
3004 Clouds 25 1008 88 10000 2.57 100 16:34 19.06.2022
3005 Clouds 26 1008 83 10000 2.57 120 15:35 19.06.2022
3006 Clouds 26 1008 83 10000 2.57 120 14:43 19.06.2022
3007 Clouds 26 1008 83 10000 5.14 140 13:54 19.06.2022
3008 Clouds 27 1007 78 10000 7.72 150 12:26 19.06.2022
3009 Haze 28 1006 83 10000 7.72 150 10:53 19.06.2022
3010 Haze 29 1006 79 10000 5.14 150 09:31 19.06.2022
3011 Haze 30 1006 70 10000 10.29 150 08:35 19.06.2022
3012 Haze 31 1006 70 10000 7.72 150 07:30 19.06.2022
3013 Clouds 31 1008 66 10000 2.57 150 04:27 19.06.2022
3014 Clear 26 1010 79 10000 1.2 98 01:28 19.06.2022
3015 Clear 25 1009 85 10000 1.99 92 00:23 19.06.2022
3016 Clouds 26 1009 89 10000 2.57 140 23:35 18.06.2022
3017 Clouds 25 1009 94 10000 2.57 140 22:33 18.06.2022
3018 Clouds 25 1008 94 10000 2.57 140 20:55 18.06.2022
3019 Clouds 25 1008 94 10000 2.57 140 20:24 18.06.2022
3020 Clouds 26 1008 89 10000 2.57 140 19:21 18.06.2022
3021 Clouds 26 1008 89 10000 2.57 160 18:42 18.06.2022
3022 Rain 25 1008 89 10000 4.49 120 17:30 18.06.2022
3023 Clouds 26 1009 89 10000 2.57 80 16:20 18.06.2022
3024 Clouds 26 1009 89 10000 5.17 128 15:18 18.06.2022
3025 Clouds 27 1009 83 10000 6.17 140 14:41 18.06.2022
3026 Clouds 26 1009 94 10000 5.14 140 12:46 18.06.2022
3027 Clouds 27 1008 89 10000 5.14 160 11:29 18.06.2022
3028 Smoke 28 1008 83 10000 7.72 160 10:23 18.06.2022
3029 Haze 30 1007 74 10000 7.72 150 08:59 18.06.2022
3030 Haze 30 1007 74 10000 5.14 150 07:34 18.06.2022
3031 Haze 30 1007 74 10000 5.14 150 07:34 18.06.2022
3032 Clouds 29 1007 71 10000 3.89 180 05:58 18.06.2022
3033 Clouds 31 1010 66 10000 1.54 150 02:53 18.06.2022
3034 Haze 29 1010 74 10000 2.57 160 01:23 18.06.2022
3035 Haze 27 1010 83 10000 1.54 0 00:39 18.06.2022
3036 Clear 26 1010 85 10000 2.44 107 23:40 17.06.2022
3037 Clouds 24 1009 100 10000 1.54 0 22:33 17.06.2022
3038 Clear 25 1008 90 10000 2.47 110 20:33 17.06.2022
3039 Clouds 25 1008 94 10000 1.54 0 19:24 17.06.2022
3040 Clouds 25 1008 91 10000 3.06 116 18:19 17.06.2022
3041 Clouds 26 1009 89 10000 2.57 130 16:51 17.06.2022
3042 Clouds 26 1009 89 10000 2.57 130 16:25 17.06.2022
3043 Clouds 27 1010 83 10000 2.57 140 15:41 17.06.2022
3044 Clouds 27 1010 83 10000 5.14 140 14:24 17.06.2022
3045 Clouds 27 1010 89 10000 5.14 140 13:59 17.06.2022
3046 Clouds 27 1010 89 10000 5.14 140 13:39 17.06.2022
3047 Clouds 27 1009 89 10000 5.14 140 12:29 17.06.2022
3048 Clouds 27 1008 89 10000 7.72 150 11:55 17.06.2022
3049 Clouds 27 1008 89 10000 7.72 150 11:34 17.06.2022
3050 Haze 29 1008 74 10000 3.6 160 09:46 17.06.2022
3051 Clouds 28 1007 74 10000 3.56 164 08:26 17.06.2022
3052 Haze 31 1007 70 10000 7.72 120 06:51 17.06.2022
3053 Haze 30 1010 70 10000 5.14 200 04:19 17.06.2022
3054 Haze 29 1010 74 10000 2.06 0 01:56 17.06.2022
3055 Haze 27 1009 83 10000 1.54 0 00:24 17.06.2022
3056 Clouds 25 1008 94 10000 1.54 0 22:42 16.06.2022
3057 Clouds 24 1008 88 10000 1.23 26 21:23 16.06.2022
3058 Clouds 25 1008 94 10000 1.54 0 20:55 16.06.2022
3059 Clouds 24 1008 88 10000 1.23 26 20:35 16.06.2022
3060 Clouds 25 1008 94 10000 1.54 0 19:41 16.06.2022
3061 Clouds 25 1007 88 10000 1.22 66 18:24 16.06.2022
3062 Clouds 25 1007 88 10000 1.22 66 17:43 16.06.2022
3063 Clouds 25 1008 88 10000 1.6 86 16:35 16.06.2022
3064 Clouds 25 1009 94 10000 1.54 0 15:22 16.06.2022
3065 Clouds 25 1009 94 10000 1.54 0 14:37 16.06.2022
3066 Clouds 25 1009 94 10000 3.09 320 13:20 16.06.2022
3067 Clouds 27 1008 83 10000 1.54 0 12:36 16.06.2022
3068 Haze 27 1008 89 10000 2.06 130 11:51 16.06.2022
3069 Haze 29 1007 74 10000 5.14 160 10:55 16.06.2022
3070 Haze 30 1007 74 10000 5.14 160 09:53 16.06.2022
3071 Haze 30 1007 74 10000 5.14 160 09:21 16.06.2022
3072 Haze 31 1007 70 10000 5.14 160 08:28 16.06.2022
3073 Haze 31 1008 70 10000 5.14 180 07:24 16.06.2022
3074 Haze 31 1009 70 10000 2.57 140 04:42 16.06.2022
3075 Haze 29 1010 74 10000 2.57 330 02:19 16.06.2022
3076 Haze 29 1010 74 10000 2.57 340 01:34 16.06.2022
3077 Haze 29 1010 74 10000 2.57 340 01:34 16.06.2022
3078 Haze 27 1010 83 10000 1.54 0 00:38 16.06.2022
3079 Haze 24 1010 100 10000 1.54 0 23:25 15.06.2022
3080 Clouds 23 1010 100 10000 1.54 0 22:28 15.06.2022
3081 Clouds 24 1010 100 10000 2.06 0 21:21 15.06.2022
3082 Clouds 24 1010 88 10000 0.78 101 20:38 15.06.2022
3083 Clouds 25 1009 88 10000 0.78 48 20:19 15.06.2022
3084 Clouds 25 1009 88 10000 1.16 87 19:19 15.06.2022
3085 Clouds 24 1010 100 10000 1.03 0 17:55 15.06.2022
3086 Clouds 25 1010 94 10000 1.03 0 16:40 15.06.2022
3087 Clouds 26 1011 89 10000 2.57 150 15:35 15.06.2022
3088 Clouds 27 1011 78 10000 2.06 0 13:43 15.06.2022
3089 Clouds 27 1011 83 10000 5.14 140 12:53 15.06.2022
3090 Clouds 28 1010 78 10000 5.14 140 11:48 15.06.2022
3091 Haze 29 1008 74 10000 7.72 150 10:24 15.06.2022
3092 Haze 30 1008 74 10000 5.14 150 09:39 15.06.2022
3093 Haze 31 1008 70 10000 5.14 150 08:30 15.06.2022
3094 Haze 31 1009 66 10000 5.14 160 06:33 15.06.2022
3095 Haze 29 1011 74 10000 2.57 190 03:45 15.06.2022
3096 Haze 28 1012 74 10000 2.06 0 01:53 15.06.2022
3097 Haze 25 1011 83 10000 1.54 0 00:50 15.06.2022
3098 Clouds 24 1011 94 10000 1.54 0 23:39 14.06.2022
3099 Clouds 23 1010 100 10000 1.54 0 22:56 14.06.2022
3100 Clouds 23 1010 100 10000 1.54 0 22:18 14.06.2022
3101 Clouds 23 1010 100 10000 1.54 0 21:28 14.06.2022
3102 Clouds 23 1010 100 10000 1.54 0 20:48 14.06.2022
3103 Clouds 23 1010 100 10000 1.54 0 20:28 14.06.2022
3104 Clouds 23 1011 100 10000 1.54 0 18:45 14.06.2022
3105 Clouds 24 1011 100 10000 1.54 0 17:29 14.06.2022
3106 Clouds 24 1011 100 10000 2.57 320 16:43 14.06.2022
3107 Clouds 25 1011 94 10000 2.57 150 15:50 14.06.2022
3108 Clouds 25 1011 94 10000 2.57 150 15:49 14.06.2022
3109 Clouds 26 1011 89 10000 2.57 140 14:57 14.06.2022
3110 Clouds 26 1011 89 10000 2.57 140 14:23 14.06.2022
3111 Clouds 27 1011 89 10000 5.14 120 13:39 14.06.2022
3112 Clouds 27 1010 89 10000 2.57 150 12:27 14.06.2022
3113 Clouds 28 1010 83 10000 2.57 160 11:27 14.06.2022
3114 Clouds 28 1010 83 10000 5.14 160 10:35 14.06.2022
3115 Haze 29 1009 79 10000 7.72 170 09:45 14.06.2022
3116 Haze 30 1008 74 10000 7.72 170 08:41 14.06.2022
3117 Haze 30 1008 74 10000 7.72 170 07:26 14.06.2022
3118 Haze 31 1010 66 10000 4.12 140 04:35 14.06.2022
3119 Haze 30 1012 70 10000 2.57 0 02:43 14.06.2022
3120 Smoke 26 1011 89 10000 1.54 0 00:27 14.06.2022
3121 Clear 24 1011 86 10000 1.78 58 23:18 13.06.2022
3122 Clear 24 1011 89 10000 1.88 76 22:24 13.06.2022
3123 Clouds 24 1010 94 10000 2.06 0 21:41 13.06.2022
3124 Clouds 25 1009 90 10000 2.21 88 20:19 13.06.2022
3125 Clouds 24 1009 94 10000 1.54 0 19:26 13.06.2022
3126 Clouds 27 1010 83 10000 1.54 0 17:57 13.06.2022
3127 Clouds 27 1010 83 10000 1.54 0 17:35 13.06.2022
3128 Clouds 25 1010 89 10000 4.22 125 16:32 13.06.2022
3129 Clouds 27 1012 89 10000 5.14 160 14:53 13.06.2022
3130 Clouds 27 1012 89 10000 5.14 160 14:33 13.06.2022
3131 Clouds 27 1011 83 10000 5.14 160 13:39 13.06.2022
3132 Clouds 27 1011 83 10000 7.72 160 12:25 13.06.2022
3133 Clouds 27 1010 85 10000 6.56 138 11:18 13.06.2022
3134 Haze 28 1009 83 10000 5.14 160 10:26 13.06.2022
3135 Haze 28 1008 83 10000 5.14 160 09:22 13.06.2022
3136 Haze 32 1008 66 10000 5.14 150 06:55 13.06.2022
3137 Haze 31 1009 66 10000 2.57 150 05:39 13.06.2022
3138 Haze 29 1011 74 10000 1.54 140 02:47 13.06.2022
3139 Haze 29 1011 74 10000 1.54 0 01:36 13.06.2022
3140 Clouds 24 1010 100 10000 1.54 0 23:52 12.06.2022
3141 Clouds 23 1010 100 10000 1.54 0 22:50 12.06.2022
3142 Clouds 23 1010 100 10000 1.54 0 22:22 12.06.2022
3143 Clouds 24 1009 94 10000 1.54 0 20:58 12.06.2022
3144 Clouds 24 1009 94 10000 1.54 0 20:19 12.06.2022
3145 Clouds 24 1009 90 10000 1.85 93 19:30 12.06.2022
3146 Clouds 25 1010 94 10000 2.06 130 17:47 12.06.2022
3147 Clouds 25 1010 94 10000 1.54 0 15:58 12.06.2022
3148 Clouds 26 1010 89 10000 4.12 130 14:56 12.06.2022
3149 Clouds 26 1010 89 10000 4.12 130 14:20 12.06.2022
3150 Clouds 25 1010 89 10000 5.37 123 13:49 12.06.2022
3151 Clouds 27 1010 83 10000 5.66 140 12:35 12.06.2022
3152 Clouds 27 1009 89 10000 6.69 140 11:36 12.06.2022
3153 Clouds 28 1009 83 10000 7.72 150 10:21 12.06.2022
3154 Clouds 29 1008 84 10000 7.72 150 08:54 12.06.2022
3155 Clouds 29 1008 84 10000 7.72 150 08:35 12.06.2022
3156 Clouds 31 1008 74 10000 5.14 150 07:31 12.06.2022
3157 Clouds 28 1008 72 10000 5.06 162 04:35 12.06.2022
3158 Haze 30 1010 70 10000 1.54 0 02:33 12.06.2022
3159 Haze 28 1010 78 10000 1.54 0 01:36 12.06.2022
3160 Clouds 25 1010 94 10000 0 0 00:58 12.06.2022
3161 Clouds 25 1011 84 10000 1.89 103 00:20 12.06.2022
3162 Haze 24 1010 100 10000 1.54 0 23:21 11.06.2022
3163 Fog 23 1010 100 10000 2.25 109 22:38 11.06.2022
3164 Fog 23 1010 100 10000 2.25 109 22:38 11.06.2022
3165 Fog 24 1009 94 10000 1.03 0 21:36 11.06.2022
3166 Clouds 24 1009 94 10000 1.54 0 20:27 11.06.2022
3167 Clear 24 1009 94 10000 1.03 0 19:37 11.06.2022
3168 Clouds 24 1009 94 10000 2.06 0 18:50 11.06.2022
3169 Clouds 24 1009 94 10000 2.06 0 18:31 11.06.2022
3170 Clouds 24 1009 100 10000 1.54 0 17:49 11.06.2022
3171 Clouds 24 1009 100 10000 1.54 0 17:26 11.06.2022
3172 Clouds 25 1010 94 10000 2.57 140 16:44 11.06.2022
3173 Clouds 25 1010 94 10000 2.57 140 16:25 11.06.2022
3174 Clouds 25 1010 89 10000 4.79 124 15:18 11.06.2022
3175 Clouds 25 1010 89 10000 5.36 126 13:52 11.06.2022
3176 Clouds 26 1010 89 10000 6.73 134 12:19 11.06.2022
3177 Clouds 27 1008 89 10000 7.72 150 10:32 11.06.2022
3178 Clouds 28 1008 83 10000 7.72 150 09:41 11.06.2022
3179 Clouds 28 1008 83 10000 7.72 150 08:44 11.06.2022
3180 Clouds 28 1007 78 10000 6.36 165 06:34 11.06.2022
3181 Clouds 29 1009 79 10000 5.14 160 05:53 11.06.2022
3182 Clouds 29 1011 79 10000 5.14 190 03:31 11.06.2022
3183 Rain 28 1011 83 10000 2.57 310 01:51 11.06.2022
3184 Clouds 28 1011 83 10000 2.57 310 01:25 11.06.2022
3185 Rain 25 1010 94 10000 1.54 0 23:27 10.06.2022
3186 Rain 25 1009 94 10000 1.54 0 22:21 10.06.2022
3187 Rain 25 1009 94 10000 2.57 210 21:44 10.06.2022
3188 Rain 25 1008 94 10000 2.57 110 20:39 10.06.2022
3189 Rain 24 1009 90 10000 5.14 123 20:19 10.06.2022
3190 Rain 25 1009 90 10000 5.2 125 19:19 10.06.2022
3191 Rain 25 1009 90 10000 5.2 125 18:32 10.06.2022
3192 Clouds 25 1009 94 10000 4.12 170 17:50 10.06.2022
3193 Clouds 25 1009 94 10000 4.12 170 17:21 10.06.2022
3194 Clouds 26 1010 89 10000 4.12 140 16:26 10.06.2022
3195 Rain 25 1009 94 10000 1.54 170 15:39 10.06.2022
3196 Rain 25 1010 89 10000 6.18 132 14:24 10.06.2022
3197 Haze 26 1010 94 10000 2.57 140 12:57 10.06.2022
3198 Haze 27 1009 89 10000 5.66 160 11:59 10.06.2022
3199 Haze 27 1008 89 10000 5.14 160 10:45 10.06.2022
3200 Haze 28 1007 83 10000 5.14 150 09:55 10.06.2022
3201 Haze 30 1007 74 10000 5.14 160 08:44 10.06.2022
3202 Haze 28 1007 83 10000 7.72 150 07:30 10.06.2022
3203 Haze 28 1007 83 10000 7.72 160 06:45 10.06.2022
3204 Haze 28 1007 83 10000 7.72 160 06:26 10.06.2022
3205 Haze 31 1009 66 10000 5.14 120 03:56 10.06.2022
3206 Haze 28 1010 78 10000 2.57 0 01:42 10.06.2022
3207 Haze 26 1010 83 10000 2.57 280 00:32 10.06.2022
3208 Clouds 24 1009 94 10000 2.57 280 23:49 09.06.2022
3209 Fog 24 1008 100 2000 2.57 330 22:18 09.06.2022
3210 Fog 24 1008 100 600 2.57 350 21:37 09.06.2022
3211 Clouds 24 1009 89 10000 1.52 89 20:55 09.06.2022
3212 Clouds 24 1008 89 10000 2.1 88 20:26 09.06.2022
3213 Clouds 22 1008 100 10000 2.57 320 19:29 09.06.2022
3214 Clouds 23 1009 100 10000 1.54 0 18:34 09.06.2022
3215 Clouds 25 1009 89 10000 2.57 118 17:18 09.06.2022
3216 Clouds 24 1010 100 10000 1.54 0 15:54 09.06.2022
3217 Clouds 24 1010 100 10000 1.54 0 14:38 09.06.2022
3218 Clouds 25 1010 94 10000 1.54 0 13:55 09.06.2022
3219 Clouds 25 1010 94 10000 1.54 0 13:28 09.06.2022
3220 Clouds 26 1009 94 10000 1.54 0 11:54 09.06.2022
3221 Clouds 26 1009 87 10000 4.26 142 11:19 09.06.2022
3222 Rain 28 1008 83 10000 5.14 150 09:45 09.06.2022
3223 Clouds 28 1008 83 10000 5.14 150 09:24 09.06.2022
3224 Haze 28 1008 78 10000 4.63 170 07:52 09.06.2022
3225 Rain 29 1008 79 10000 5.14 160 06:41 09.06.2022
3226 Haze 30 1010 70 10000 2.57 210 03:19 09.06.2022
3227 Haze 24 1009 100 10000 1.54 0 23:48 08.06.2022
3228 Clouds 23 1009 100 10000 1.54 0 22:58 08.06.2022
3229 Clouds 23 1009 100 10000 1.54 0 22:27 08.06.2022
3230 Clouds 24 1008 100 10000 1.54 0 21:55 08.06.2022
3231 Clouds 24 1008 100 10000 1.54 0 21:21 08.06.2022
3232 Clouds 24 1008 100 10000 1.54 0 20:21 08.06.2022
3233 Clouds 24 1008 100 10000 1.54 0 19:38 08.06.2022
3234 Clouds 24 1008 100 10000 1.54 0 18:45 08.06.2022
3235 Clouds 25 1009 86 10000 1.78 112 17:18 08.06.2022
3236 Clear 25 1010 100 10000 1.54 0 15:48 08.06.2022
3237 Clouds 26 1010 94 10000 2.57 170 13:52 08.06.2022
3238 Clouds 27 1010 89 10000 2.57 130 12:20 08.06.2022
3239 Clouds 28 1009 83 10000 5.14 180 11:33 08.06.2022
3240 Haze 28 1008 83 10000 5.14 180 09:59 08.06.2022
3241 Haze 28 1008 83 10000 5.14 180 09:21 08.06.2022
3242 Haze 30 1007 70 10000 5.14 180 08:26 08.06.2022
3243 Rain 31 1009 70 10000 5.14 200 05:55 08.06.2022
3244 Haze 32 1010 62 10000 2.57 110 03:55 08.06.2022
3245 Haze 27 1010 83 10000 1.03 0 00:38 08.06.2022
3246 Clouds 24 1009 100 10000 2.06 0 23:28 07.06.2022
3247 Clouds 24 1009 94 10000 1.54 0 22:45 07.06.2022
3248 Clouds 24 1009 94 10000 1.54 0 22:23 07.06.2022
3249 Clouds 24 1009 100 10000 2.57 320 21:34 07.06.2022
3250 Clouds 25 1009 87 10000 0.72 25 20:58 07.06.2022
3251 Clouds 25 1009 87 10000 0.72 25 20:32 07.06.2022
3252 Clouds 24 1008 100 10000 1.54 0 19:38 07.06.2022
3253 Clouds 25 1009 94 10000 1.54 0 18:23 07.06.2022
3254 Clouds 25 1009 87 10000 1.64 34 17:26 07.06.2022
3255 Clouds 25 1010 94 10000 1.54 0 16:43 07.06.2022
3256 Clouds 26 1010 89 10000 1.54 0 15:47 07.06.2022
3257 Clouds 26 1010 89 10000 1.54 0 15:26 07.06.2022
3258 Clouds 26 1010 89 10000 1.54 0 15:26 07.06.2022
3259 Clouds 25 1010 85 10000 1.51 77 14:47 07.06.2022
3260 Clouds 26 1010 84 10000 1.35 102 14:29 07.06.2022
3261 Clouds 26 1010 89 10000 1.54 0 13:30 07.06.2022
3262 Clouds 26 1009 89 10000 1.54 0 12:45 07.06.2022
3263 Clouds 27 1008 83 10000 3.09 130 11:37 07.06.2022
3264 Haze 28 1008 78 10000 2.57 160 10:26 07.06.2022
3265 Clouds 29 1007 79 10000 5.14 200 08:49 07.06.2022
3266 Clouds 29 1007 79 10000 5.14 200 08:49 07.06.2022
3267 Clouds 29 1007 79 10000 5.14 200 08:49 07.06.2022
3268 Clouds 30 1007 74 10000 7.72 220 07:32 07.06.2022
3269 Clouds 31 1007 70 10000 1.54 0 05:56 07.06.2022
3270 Clouds 29 1010 79 10000 3.6 160 03:22 07.06.2022
3271 Clouds 27 1010 89 10000 2.06 0 00:42 07.06.2022
3272 Clouds 25 1009 94 10000 1.54 0 23:35 06.06.2022
3273 Clouds 25 1009 94 10000 1.54 0 22:45 06.06.2022
3274 Clouds 25 1008 94 10000 1.54 0 21:49 06.06.2022
3275 Clouds 25 1008 94 10000 1.54 0 20:21 06.06.2022
3276 Clouds 24 1008 90 10000 2.01 3 19:23 06.06.2022
3277 Clouds 25 1009 94 10000 1.54 0 18:46 06.06.2022
3278 Clouds 25 1009 94 10000 1.54 0 17:52 06.06.2022
3279 Clouds 25 1009 94 10000 2.57 0 16:48 06.06.2022
3280 Clouds 25 1009 94 10000 1.54 0 15:40 06.06.2022
3281 Clouds 25 1010 100 10000 2.57 320 14:57 06.06.2022
3282 Clouds 25 1010 100 10000 1.54 0 13:37 06.06.2022
3283 Clouds 26 1009 94 10000 1.54 0 12:44 06.06.2022
3284 Clouds 26 1009 94 10000 1.54 0 12:26 06.06.2022
3285 Clouds 25 1009 100 10000 2.57 190 11:45 06.06.2022
3286 Clouds 28 1008 78 10000 5.14 160 09:43 06.06.2022
3287 Rain 28 1008 78 10000 5.14 180 08:35 06.06.2022
3288 Rain 29 1008 79 10000 5.14 180 07:41 06.06.2022
3289 Clouds 31 1009 66 10000 5.14 210 05:48 06.06.2022
3290 Clouds 30 1010 70 10000 2.57 140 03:47 06.06.2022
3291 Clouds 28 1010 78 10000 1.54 200 01:30 06.06.2022
3292 Clouds 26 1011 89 10000 1.54 0 00:43 06.06.2022
3293 Clouds 26 1010 81 10000 1.77 11 00:19 06.06.2022
3294 Clouds 23 1010 100 10000 2.57 350 22:57 05.06.2022
3295 Clouds 24 1010 94 10000 2.57 350 21:56 05.06.2022
3296 Clouds 24 1009 89 10000 2.5 8 20:23 05.06.2022
3297 Clouds 24 1009 89 10000 2.49 2 18:47 05.06.2022
3298 Clouds 23 1010 100 10000 2.57 360 17:57 05.06.2022
3299 Clouds 23 1010 100 10000 2.57 360 17:38 05.06.2022
3300 Clouds 23 1010 100 10000 2.57 360 17:19 05.06.2022
3301 Clouds 24 1010 94 10000 2.57 340 16:46 05.06.2022
3302 Clouds 23 1011 100 10000 2.57 280 14:46 05.06.2022
3303 Clouds 23 1011 100 10000 2.57 360 13:55 05.06.2022
3304 Clouds 24 1011 100 6000 5.14 270 11:56 05.06.2022
3305 Haze 28 1009 83 10000 1.54 220 10:44 05.06.2022
3306 Haze 28 1009 83 10000 1.54 220 10:23 05.06.2022
3307 Clouds 28 1008 77 10000 1.39 206 08:45 05.06.2022
3308 Clouds 28 1007 73 10000 2.31 203 08:21 05.06.2022
3309 Haze 30 1008 74 10000 4.12 190 05:23 05.06.2022
3310 Haze 33 1009 62 10000 3.6 200 04:33 05.06.2022
3311 Haze 28 1010 83 10000 2.57 340 01:45 05.06.2022
3312 Haze 28 1010 83 10000 2.57 340 01:45 05.06.2022
3313 Haze 28 1010 83 10000 2.57 340 01:45 05.06.2022
3314 Haze 28 1010 83 10000 2.57 340 01:45 05.06.2022
3315 Haze 28 1010 83 10000 2.57 340 01:45 05.06.2022
3316 Haze 28 1010 83 10000 2.57 340 01:23 05.06.2022
3317 Clouds 23 1008 100 10000 1.54 0 22:45 04.06.2022
3318 Clouds 25 1008 87 10000 1.59 13 21:21 04.06.2022
3319 Clear 24 1008 100 10000 1.54 0 18:54 04.06.2022
3320 Clouds 25 1009 94 10000 1.54 0 16:47 04.06.2022
3321 Clouds 25 1009 87 10000 2.01 10 16:19 04.06.2022
3322 Clouds 25 1008 94 10000 1.54 0 15:22 04.06.2022
3323 Clouds 26 1008 89 10000 1.54 110 13:46 04.06.2022
3324 Haze 26 1007 89 10000 2.57 130 11:23 04.06.2022
3325 Clouds 25 1008 88 10000 1.91 103 10:50 04.06.2022
3326 Haze 30 1007 74 10000 5.14 190 09:45 04.06.2022
3327 Haze 31 1007 66 10000 5.14 180 08:44 04.06.2022
3328 Haze 31 1007 66 10000 5.14 180 08:44 04.06.2022
3329 Haze 30 1007 70 10000 5.14 230 07:59 04.06.2022
3330 Clouds 28 1007 73 10000 2.08 220 06:20 04.06.2022
3331 Clouds 30 1009 74 10000 2.57 180 02:36 04.06.2022
3332 Clouds 26 1010 89 10000 2.57 190 00:20 04.06.2022
3333 Clouds 25 1009 94 10000 1.54 0 22:41 03.06.2022
3334 Clouds 25 1009 94 10000 1.54 0 21:43 03.06.2022
3335 Clouds 25 1009 94 10000 1.54 0 20:38 03.06.2022
3336 Clouds 25 1009 94 10000 1.54 0 19:19 03.06.2022
3337 Clouds 25 1010 94 10000 1.54 0 16:54 03.06.2022
3338 Clouds 25 1009 89 10000 4.12 114 15:40 03.06.2022
3339 Clouds 26 1010 88 10000 5.53 121 13:49 03.06.2022
3340 Haze 26 1008 89 10000 1.54 0 11:51 03.06.2022
3341 Haze 28 1008 83 10000 5.14 150 09:53 03.06.2022
3342 Haze 28 1008 83 10000 5.14 150 09:28 03.06.2022
3343 Haze 31 1007 70 10000 5.14 160 07:27 03.06.2022
3344 Clouds 31 1008 66 10000 5.14 160 06:45 03.06.2022
3345 Clouds 31 1008 66 10000 5.14 160 06:27 03.06.2022
3346 Clouds 30 1011 70 10000 1.54 0 02:24 03.06.2022
3347 Clouds 24 1011 85 10000 1.54 0 23:34 02.06.2022
3348 Clouds 23 1010 100 10000 1.54 0 21:57 02.06.2022
3349 Clouds 23 1009 100 10000 1.54 0 20:26 02.06.2022
3350 Clouds 23 1009 100 10000 2.57 310 19:53 02.06.2022
3351 Clouds 23 1009 100 10000 2.57 310 19:35 02.06.2022
3352 Clouds 24 1009 94 10000 2.57 300 17:59 02.06.2022
3353 Clouds 24 1010 94 10000 2.57 340 16:28 02.06.2022
3354 Clouds 25 1010 94 10000 1.54 0 14:58 02.06.2022
3355 Clouds 25 1010 85 10000 1.35 89 13:30 02.06.2022
3356 Rain 25 1009 94 10000 4.12 320 12:42 02.06.2022
3357 Clouds 28 1010 78 10000 5.14 140 10:31 02.06.2022
3358 Clouds 28 1009 83 10000 5.14 150 09:28 02.06.2022
3359 Clouds 28 1009 89 7591 8.44 145 08:29 02.06.2022
3360 Clouds 31 1008 70 10000 5.14 160 07:48 02.06.2022
3361 Clouds 32 1010 62 10000 5.14 150 05:33 02.06.2022
3362 Clouds 30 1011 66 10000 5.14 150 03:48 02.06.2022
3363 Clouds 24 1012 94 10000 2.57 320 23:55 01.06.2022
3364 Clouds 23 1011 100 10000 2.57 340 22:55 01.06.2022
3365 Clouds 23 1011 100 10000 2.57 300 21:45 01.06.2022
3366 Clouds 23 1011 100 10000 2.57 300 21:20 01.06.2022
3367 Clouds 23 1010 100 10000 2.57 350 20:38 01.06.2022
3368 Clouds 24 1010 94 10000 2.57 350 19:48 01.06.2022
3369 Clouds 25 1011 94 10000 2.06 0 17:57 01.06.2022
3370 Clouds 25 1012 94 10000 1.03 0 16:46 01.06.2022
3371 Clouds 25 1012 94 10000 1.03 0 15:37 01.06.2022
3372 Clouds 25 1011 94 10000 3.09 140 13:57 01.06.2022
3373 Rain 26 1011 89 10000 2.57 140 12:29 01.06.2022
3374 Haze 26 1010 83 10000 5.14 140 10:37 01.06.2022
3375 Haze 28 1010 78 10000 5.14 160 09:25 01.06.2022
3376 Clouds 29 1010 65 10000 2.57 180 07:25 01.06.2022
3377 Haze 29 1010 65 10000 5.14 210 06:40 01.06.2022
3378 Clouds 25 1014 88 10000 5.14 150 01:29 01.06.2022
3379 Clouds 24 1012 94 5000 1.54 0 23:41 31.05.2022
3380 Clouds 24 1012 94 5000 2.57 340 22:37 31.05.2022
3381 Clouds 24 1011 94 10000 2.57 330 21:46 31.05.2022
3382 Clouds 24 1011 94 10000 3.09 320 20:52 31.05.2022
3383 Clouds 24 1011 94 10000 3.09 320 20:31 31.05.2022
3384 Clouds 24 1011 100 10000 2.06 0 18:54 31.05.2022
3385 Rain 24 1011 87 10000 1.24 94 17:51 31.05.2022
3386 Rain 24 1011 87 10000 1.65 92 17:20 31.05.2022
3387 Clouds 25 1012 87 10000 2.27 98 15:41 31.05.2022
3388 Clouds 26 1012 89 10000 1.54 0 14:33 31.05.2022
3389 Clouds 26 1011 83 10000 2.06 0 12:22 31.05.2022
3390 Clouds 26 1010 78 10000 2.57 140 11:23 31.05.2022
3391 Haze 29 1009 65 10000 5.14 170 09:31 31.05.2022
3392 Haze 31 1009 51 10000 5.14 170 07:28 31.05.2022
3393 Haze 30 1011 58 10000 5.14 190 05:23 31.05.2022
3394 Haze 28 1012 74 10000 3.6 120 01:35 31.05.2022
3395 Haze 22 1011 94 10000 1.54 0 23:27 30.05.2022
3396 Haze 22 1011 94 10000 1.54 0 22:56 30.05.2022
3397 Clouds 21 1010 100 10000 1.54 0 21:59 30.05.2022
3398 Clouds 21 1010 100 10000 1.54 0 21:33 30.05.2022
3399 Clouds 24 1010 85 10000 2.42 121 20:20 30.05.2022
3400 Clouds 24 1010 86 10000 2.29 110 18:41 30.05.2022
3401 Clouds 24 1010 86 10000 2.65 113 17:38 30.05.2022
3402 Clouds 24 1010 85 10000 2.77 117 16:41 30.05.2022
3403 Clouds 25 1011 83 10000 1.54 0 14:49 30.05.2022
3404 Clouds 26 1010 83 10000 5.14 140 12:29 30.05.2022
3405 Clouds 27 1009 78 10000 3.6 160 10:46 30.05.2022
3406 Clouds 28 1008 74 10000 3.09 180 09:38 30.05.2022
3407 Haze 30 1008 66 10000 3.6 160 07:22 30.05.2022
3408 Haze 31 1010 58 10000 2.57 180 05:49 30.05.2022
3409 Haze 28 1011 69 10000 5.14 160 01:48 30.05.2022
3410 Haze 22 1010 94 10000 1.54 0 23:19 29.05.2022
3411 Clouds 21 1010 94 10000 1.54 0 22:37 29.05.2022
3412 Clouds 21 1009 94 10000 1.54 0 20:55 29.05.2022
3413 Clouds 21 1009 94 10000 1.54 0 19:33 29.05.2022
3414 Clouds 21 1009 94 10000 1.54 0 18:59 29.05.2022
3415 Clouds 22 1009 94 10000 1.54 0 17:31 29.05.2022
3416 Clouds 23 1010 88 10000 1.54 0 15:48 29.05.2022
3417 Clouds 23 1010 88 10000 1.54 0 15:23 29.05.2022
3418 Clouds 24 1010 83 10000 2.57 140 13:59 29.05.2022
3419 Clouds 26 1009 78 10000 5.14 160 11:42 29.05.2022
3420 Haze 27 1008 69 10000 5.14 160 10:39 29.05.2022
3421 Haze 28 1008 65 10000 5.14 160 09:18 29.05.2022
3422 Clouds 27 1008 68 10000 6.13 166 06:18 29.05.2022
3423 Haze 31 1010 62 10000 7.72 160 04:45 29.05.2022
3424 Clouds 30 1011 62 10000 7.72 160 03:47 29.05.2022
3425 Haze 22 1010 94 10000 2.57 310 23:50 28.05.2022
3426 Haze 22 1010 94 10000 2.57 310 23:50 28.05.2022
3427 Haze 22 1010 94 10000 2.57 310 23:26 28.05.2022
3428 Clouds 21 1010 94 10000 1.03 0 22:39 28.05.2022
3429 Clouds 21 1009 94 10000 1.03 0 21:38 28.05.2022
3430 Clouds 22 1009 94 10000 1.54 0 19:49 28.05.2022
3431 Clouds 22 1009 94 10000 1.03 0 18:50 28.05.2022
3432 Clouds 22 1009 94 10000 1.03 0 17:37 28.05.2022
3433 Clouds 23 1010 88 10000 1.54 0 16:38 28.05.2022
3434 Clouds 23 1010 88 10000 1.54 240 15:43 28.05.2022
3435 Clouds 24 1011 83 10000 1.54 120 14:23 28.05.2022
3436 Haze 26 1010 78 10000 6.17 140 12:44 28.05.2022
3437 Clouds 25 1011 79 10000 5.46 127 12:18 28.05.2022
3438 Clouds 27 1009 78 10000 5.14 160 10:51 28.05.2022
3439 Haze 28 1008 74 10000 5.14 150 09:57 28.05.2022
3440 Haze 30 1008 66 10000 5.14 160 08:45 28.05.2022
3441 Haze 30 1008 66 10000 7.72 150 07:23 28.05.2022
3442 Haze 30 1009 70 10000 5.14 150 05:28 28.05.2022
3443 Haze 29 1012 65 10000 5.14 170 02:44 28.05.2022
3444 Haze 25 1011 83 10000 1.54 0 00:32 28.05.2022
3445 Clouds 22 1010 94 10000 1.54 0 22:51 27.05.2022
3446 Clouds 21 1010 100 10000 1.54 0 21:43 27.05.2022
3447 Clouds 21 1009 100 10000 1.54 0 20:49 27.05.2022
3448 Clouds 21 1009 100 10000 1.54 0 20:23 27.05.2022
3449 Clouds 21 1009 100 10000 0 0 19:42 27.05.2022
3450 Clouds 21 1009 100 10000 0 0 19:21 27.05.2022
3451 Clouds 23 1010 88 10000 1.54 170 17:52 27.05.2022
3452 Clouds 23 1011 94 10000 1.54 140 16:38 27.05.2022
3453 Clouds 25 1011 83 10000 4.75 123 15:22 27.05.2022
3454 Clouds 25 1011 83 10000 5.14 140 13:44 27.05.2022
3455 Clouds 26 1010 83 10000 2.57 140 12:35 27.05.2022
3456 Clouds 26 1010 78 10000 5.14 160 11:33 27.05.2022
3457 Clouds 27 1009 78 10000 5.14 160 10:54 27.05.2022
3458 Clouds 27 1009 78 10000 5.14 160 10:26 27.05.2022
3459 Clouds 28 1008 74 10000 5.14 160 09:32 27.05.2022
3460 Haze 30 1008 66 10000 7.72 160 07:42 27.05.2022
3461 Haze 31 1009 62 10000 5.14 170 05:27 27.05.2022
3462 Haze 28 1011 69 10000 1.54 0 01:47 27.05.2022
3463 Haze 23 1010 94 10000 0 0 23:55 26.05.2022
3464 Clouds 22 1009 100 10000 1.54 0 22:29 26.05.2022
3465 Clouds 22 1009 100 10000 1.54 0 21:33 26.05.2022
3466 Clouds 23 1009 94 10000 1.54 0 19:49 26.05.2022
3467 Clouds 24 1009 87 10000 3.74 124 19:18 26.05.2022
3468 Clouds 24 1009 87 10000 3.74 124 19:18 26.05.2022
3469 Clouds 23 1010 94 10000 2.57 300 17:36 26.05.2022
3470 Clouds 24 1011 94 10000 2.57 330 16:35 26.05.2022
3471 Clouds 25 1011 88 10000 1.54 0 15:34 26.05.2022
3472 Clouds 25 1012 88 10000 1.54 0 14:21 26.05.2022
3473 Clouds 26 1011 83 10000 5.14 130 12:35 26.05.2022
3474 Clouds 27 1010 78 10000 5.14 170 11:21 26.05.2022
3475 Clouds 28 1009 78 10000 5.14 150 09:39 26.05.2022
3476 Clouds 29 1008 84 10000 5.14 160 08:51 26.05.2022
3477 Clouds 29 1008 82 10000 2.57 0 07:38 26.05.2022
3478 Clouds 25 1012 88 10000 1.54 100 02:59 26.05.2022
3479 Clouds 23 1011 100 4000 5.14 130 00:20 26.05.2022
3480 Clouds 23 1011 100 3000 2.57 160 23:19 25.05.2022
3481 Clouds 24 1009 100 10000 2.57 360 21:46 25.05.2022
3482 Clouds 24 1008 100 10000 2.57 320 20:53 25.05.2022
3483 Clouds 24 1009 89 10000 4.72 127 19:59 25.05.2022
3484 Clouds 25 1009 94 10000 2.57 330 18:48 25.05.2022
3485 Clouds 25 1009 94 10000 2.57 320 17:26 25.05.2022
3486 Clouds 25 1009 90 10000 4.08 124 16:35 25.05.2022
3487 Clouds 26 1010 89 10000 1.54 0 15:49 25.05.2022
3488 Clouds 27 1010 89 10000 2.57 150 14:51 25.05.2022
3489 Clouds 27 1010 89 10000 2.57 150 14:32 25.05.2022
3490 Clouds 27 1010 83 10000 2.57 180 13:27 25.05.2022
3491 Clouds 25 1010 89 10000 5.14 127 11:51 25.05.2022
3492 Haze 28 1008 83 10000 7.72 160 10:42 25.05.2022
3493 Haze 29 1008 79 10000 7.72 160 09:46 25.05.2022
3494 Clouds 27 1008 84 10000 5.75 160 08:21 25.05.2022
3495 Clouds 28 1008 78 10000 5.23 151 06:37 25.05.2022
3496 Clouds 30 1011 74 10000 2.06 180 02:46 25.05.2022
3497 Clouds 26 1011 94 10000 1.54 0 23:52 24.05.2022
3498 Clouds 26 1011 94 10000 1.54 0 23:23 24.05.2022
3499 Clouds 24 1011 91 10000 3.56 114 22:18 24.05.2022
3500 Clouds 24 1011 91 10000 3.56 114 21:38 24.05.2022
3501 Clouds 24 1011 90 10000 3.11 121 21:19 24.05.2022
3502 Clouds 25 1010 89 10000 2.32 102 19:28 24.05.2022
3503 Clouds 27 1010 89 10000 2.06 130 18:40 24.05.2022
3504 Clouds 27 1010 89 10000 4.12 140 16:40 24.05.2022
3505 Clouds 27 1011 89 10000 4.12 160 15:54 24.05.2022
3506 Clouds 27 1011 89 10000 5.14 150 14:45 24.05.2022
3507 Clouds 28 1010 89 10000 7.72 160 13:48 24.05.2022
3508 Clouds 28 1010 89 10000 7.72 160 12:35 24.05.2022
3509 Haze 30 1008 79 10000 5.14 170 09:52 24.05.2022
3510 Haze 30 1008 79 10000 5.14 170 09:27 24.05.2022
3511 Haze 31 1008 70 10000 5.14 160 08:42 24.05.2022
3512 Haze 31 1008 70 10000 6.17 160 06:42 24.05.2022
3513 Clouds 30 1010 74 10000 2.57 240 03:48 24.05.2022
3514 Clouds 28 1011 75 10000 0.99 260 01:47 24.05.2022
3515 Clouds 27 1011 89 10000 2.57 330 00:53 24.05.2022
3516 Haze 24 1010 100 10000 2.57 330 22:25 23.05.2022
3517 Clouds 24 1009 100 10000 2.57 20 21:53 23.05.2022
3518 Clouds 24 1009 100 10000 1.54 0 20:53 23.05.2022
3519 Clouds 24 1009 100 10000 1.54 0 20:21 23.05.2022
3520 Clouds 25 1009 94 10000 1.54 0 19:30 23.05.2022
3521 Clouds 25 1009 94 10000 1.54 0 18:41 23.05.2022
3522 Clouds 25 1009 94 10000 1.54 0 18:22 23.05.2022
3523 Clouds 26 1011 89 10000 2.57 150 16:46 23.05.2022
3524 Clouds 28 1011 83 10000 7.72 160 14:44 23.05.2022
3525 Clouds 28 1009 83 10000 10.29 160 11:58 23.05.2022
3526 Clouds 28 1009 83 10000 10.29 160 11:20 23.05.2022
3527 Haze 30 1008 79 10000 6.17 160 09:48 23.05.2022
3528 Haze 31 1007 74 10000 7.72 160 08:50 23.05.2022
3529 Clouds 31 1007 74 10000 6.69 150 07:41 23.05.2022
3530 Clouds 32 1008 66 10000 7.2 160 06:41 23.05.2022
3531 Haze 32 1009 62 10000 2.57 140 04:40 23.05.2022
3532 Clouds 30 1011 70 10000 1.54 0 02:18 23.05.2022
3533 Clouds 30 1011 74 10000 5.14 130 01:33 23.05.2022
3534 Clouds 26 1010 89 10000 1.54 0 23:22 22.05.2022
3535 Clouds 26 1008 89 10000 2.57 110 22:33 22.05.2022
3536 Clouds 26 1008 94 10000 1.54 0 21:53 22.05.2022
3537 Clear 25 1009 88 10000 3.06 115 20:50 22.05.2022
3538 Clouds 25 1009 88 10000 2.98 121 20:23 22.05.2022
3539 Clouds 27 1008 89 10000 7.72 140 19:42 22.05.2022
3540 Clouds 27 1008 83 10000 7.72 140 18:52 22.05.2022
3541 Clouds 27 1008 83 10000 7.72 140 18:22 22.05.2022
3542 Clouds 26 1009 85 10000 3.52 115 17:26 22.05.2022
3543 Clouds 27 1009 89 10000 5.14 160 15:59 22.05.2022
3544 Clouds 28 1009 83 10000 7.72 160 14:48 22.05.2022
3545 Clouds 28 1009 83 10000 2.57 150 13:22 22.05.2022
3546 Clouds 28 1009 83 10000 7.72 150 12:48 22.05.2022
3547 Clouds 28 1008 89 10000 7.72 160 11:29 22.05.2022
3548 Haze 30 1006 74 10000 5.14 150 09:40 22.05.2022
3549 Haze 31 1006 70 10000 5.14 160 08:21 22.05.2022
3550 Haze 32 1006 66 10000 5.14 160 07:21 22.05.2022
3551 Haze 32 1008 62 10000 6.69 180 04:59 22.05.2022
3552 Haze 30 1010 70 10000 2.57 350 01:21 22.05.2022
3553 Haze 28 1009 78 10000 1.54 0 00:39 22.05.2022
3554 Haze 25 1009 94 10000 1.54 0 23:50 21.05.2022
3555 Clouds 24 1008 94 10000 1.03 0 22:26 21.05.2022
3556 Clouds 24 1008 94 10000 1.54 0 21:41 21.05.2022
3557 Clouds 24 1008 94 10000 1.54 0 20:48 21.05.2022
3558 Clouds 24 1008 94 10000 1.54 0 20:21 21.05.2022
3559 Clouds 24 1008 100 10000 1.03 0 19:25 21.05.2022
3560 Clouds 25 1009 94 10000 1.54 0 17:38 21.05.2022
3561 Clouds 26 1009 89 10000 3.09 130 15:38 21.05.2022
3562 Clouds 27 1010 83 10000 6.69 140 14:37 21.05.2022
3563 Clouds 27 1010 83 10000 7.72 150 13:39 21.05.2022
3564 Clouds 28 1008 83 10000 7.72 150 12:40 21.05.2022
3565 Clouds 28 1008 83 10000 7.72 160 11:54 21.05.2022
3566 Clouds 28 1008 78 10000 5.14 160 10:22 21.05.2022
3567 Clouds 29 1007 74 10000 5.14 160 09:20 21.05.2022
3568 Haze 30 1007 74 10000 5.14 150 08:47 21.05.2022
3569 Clouds 29 1007 72 10000 5.15 166 06:22 21.05.2022
3570 Clouds 31 1011 62 10000 2.57 160 02:24 21.05.2022
3571 Clouds 25 1010 94 10000 0 0 23:45 20.05.2022
3572 Clouds 24 1010 94 10000 1.54 0 22:42 20.05.2022
3573 Clouds 24 1010 94 10000 1.54 0 22:22 20.05.2022
3574 Clouds 24 1009 94 10000 1.54 0 21:27 20.05.2022
3575 Clouds 24 1009 94 10000 1.54 0 20:51 20.05.2022
3576 Clouds 24 1009 94 10000 1.54 0 19:55 20.05.2022
3577 Clouds 25 1010 88 10000 1.54 0 18:58 20.05.2022
3578 Clouds 25 1010 88 10000 1.54 0 18:24 20.05.2022
3579 Clouds 26 1010 83 10000 2.57 80 16:49 20.05.2022
3580 Clear 25 1011 85 10000 4.11 118 15:55 20.05.2022
3581 Clear 25 1011 85 10000 4.11 118 15:32 20.05.2022
3582 Clouds 26 1011 89 10000 5.14 140 14:28 20.05.2022
3583 Clouds 26 1011 89 10000 7.72 140 13:31 20.05.2022
3584 Clouds 28 1009 78 10000 5.14 150 10:48 20.05.2022
3585 Clouds 29 1009 74 10000 5.14 160 09:32 20.05.2022
3586 Clouds 30 1008 66 10000 5.14 160 08:37 20.05.2022
3587 Clouds 32 1009 58 10000 5.14 160 06:44 20.05.2022
3588 Clouds 32 1010 58 10000 7.72 160 05:52 20.05.2022
3589 Clear 31 1012 58 10000 5.14 140 02:52 20.05.2022
3590 Clouds 23 1012 100 10000 1.54 0 23:47 19.05.2022
3591 Clouds 23 1010 94 10000 1.54 0 22:39 19.05.2022
3592 Clouds 23 1010 94 10000 2.57 120 21:51 19.05.2022
3593 Clouds 23 1010 94 10000 2.57 120 21:24 19.05.2022
3594 Clouds 24 1010 88 10000 2.57 120 20:53 19.05.2022
3595 Clear 25 1010 86 10000 3.54 116 19:57 19.05.2022
3596 Clear 25 1010 87 10000 3.88 118 19:19 19.05.2022
3597 Clouds 25 1011 88 10000 2.57 150 17:47 19.05.2022
3598 Clouds 27 1012 83 10000 2.57 140 15:58 19.05.2022
3599 Clouds 27 1012 83 10000 5.14 140 14:50 19.05.2022
3600 Clouds 27 1012 83 10000 5.14 140 14:21 19.05.2022
3601 Clouds 27 1012 83 10000 5.14 140 14:21 19.05.2022
3602 Clear 26 1012 83 10000 5.84 132 12:19 19.05.2022
3603 Clouds 28 1010 78 10000 7.72 180 10:31 19.05.2022
3604 Clouds 30 1009 70 10000 5.14 160 08:46 19.05.2022
3605 Clouds 31 1009 66 10000 5.14 170 07:24 19.05.2022
3606 Clouds 32 1013 62 10000 5.14 150 03:52 19.05.2022
3607 Clouds 27 1013 83 10000 2.57 0 00:58 19.05.2022
3608 Clouds 25 1012 94 10000 2.57 0 23:40 18.05.2022
3609 Clouds 25 1012 88 10000 2.57 110 22:43 18.05.2022
3610 Clouds 25 1012 94 10000 2.57 130 21:43 18.05.2022
3611 Clouds 25 1012 86 10000 3.59 117 21:23 18.05.2022
3612 Clouds 26 1011 89 10000 2.57 140 20:21 18.05.2022
3613 Clouds 26 1012 94 10000 2.57 180 18:56 18.05.2022
3614 Clouds 26 1012 94 10000 1.54 0 17:57 18.05.2022
3615 Clouds 26 1012 94 10000 1.54 0 17:36 18.05.2022
3616 Clouds 26 1012 94 10000 1.54 0 17:18 18.05.2022
3617 Clouds 26 1012 89 10000 6.17 150 15:52 18.05.2022
3618 Clouds 26 1012 89 10000 6.17 150 15:33 18.05.2022
3619 Clouds 26 1013 94 10000 5.14 150 14:21 18.05.2022
3620 Clouds 28 1012 78 10000 5.14 150 12:54 18.05.2022
3621 Clouds 28 1011 78 10000 5.66 170 11:48 18.05.2022
3622 Clouds 28 1011 78 10000 5.66 170 11:30 18.05.2022
3623 Haze 28 1010 78 10000 7.72 160 10:43 18.05.2022
3624 Haze 31 1009 66 10000 5.14 190 07:59 18.05.2022
3625 Haze 31 1010 66 10000 5.14 200 06:54 18.05.2022
3626 Haze 32 1012 62 10000 5.14 150 03:34 18.05.2022
3627 Haze 26 1013 83 10000 2.06 330 00:42 18.05.2022
3628 Haze 23 1012 100 10000 1.03 300 23:21 17.05.2022
3629 Fog 23 1011 94 10000 2.57 320 21:21 17.05.2022
3630 Clouds 23 1011 100 10000 2.57 300 20:38 17.05.2022
3631 Clouds 23 1011 94 10000 2.57 310 19:30 17.05.2022
3632 Clouds 23 1012 100 10000 2.57 310 18:46 17.05.2022
3633 Clouds 23 1012 100 10000 1.54 0 17:34 17.05.2022
3634 Clouds 24 1013 94 10000 1.54 0 16:55 17.05.2022
3635 Clear 25 1012 86 10000 2.56 118 15:49 17.05.2022
3636 Clouds 25 1013 88 10000 2.57 320 14:52 17.05.2022
3637 Clouds 25 1013 88 10000 2.57 320 14:28 17.05.2022
3638 Clouds 26 1012 83 10000 2.06 70 12:37 17.05.2022
3639 Clouds 28 1011 74 10000 3.6 160 10:23 17.05.2022
3640 Haze 30 1010 66 10000 5.66 160 08:51 17.05.2022
3641 Haze 31 1010 62 10000 5.14 190 07:41 17.05.2022
3642 Haze 32 1011 62 10000 5.14 170 05:58 17.05.2022
3643 Haze 28 1013 83 10000 1.54 350 00:47 17.05.2022
3644 Clouds 24 1011 100 10000 1.54 0 22:51 16.05.2022
3645 Clouds 24 1011 100 10000 1.54 0 22:30 16.05.2022
3646 Clouds 24 1011 100 10000 1.54 0 20:56 16.05.2022
3647 Clouds 24 1011 100 10000 1.54 0 20:25 16.05.2022
3648 Clouds 25 1011 94 10000 2.57 140 18:41 16.05.2022
3649 Clouds 25 1012 94 10000 2.57 130 16:41 16.05.2022
3650 Clouds 25 1013 84 10000 1.08 109 14:48 16.05.2022
3651 Clouds 26 1012 89 10000 2.57 110 13:27 16.05.2022
3652 Clouds 27 1011 83 10000 2.57 240 11:42 16.05.2022
3653 Clouds 28 1010 78 10000 4.12 230 10:30 16.05.2022
3654 Clouds 27 1010 75 10000 1.87 242 07:45 16.05.2022
3655 Clouds 31 1011 70 10000 2.57 360 05:40 16.05.2022
3656 Clouds 24 1013 94 10000 2.57 60 00:35 16.05.2022
3657 Clouds 24 1011 100 10000 2.57 310 22:39 15.05.2022
3658 Clouds 24 1011 94 10000 2.57 340 21:54 15.05.2022
3659 Clouds 24 1011 94 10000 2.57 340 21:34 15.05.2022
3660 Clouds 24 1010 87 10000 1.21 55 20:35 15.05.2022
3661 Clouds 24 1010 87 10000 1.23 60 18:30 15.05.2022
3662 Clouds 23 1012 100 10000 1.54 0 16:37 15.05.2022
3663 Clear 25 1012 85 10000 1.12 60 14:18 15.05.2022
3664 Clouds 24 1011 100 10000 2.57 320 13:35 15.05.2022
3665 Clouds 28 1010 78 10000 1.03 160 11:55 15.05.2022
3666 Clouds 26 1010 82 10000 0.91 6 10:40 15.05.2022
3667 Clouds 30 1008 74 10000 5.14 220 08:52 15.05.2022
3668 Clouds 31 1008 70 10000 5.14 220 06:59 15.05.2022
3669 Clouds 31 1008 70 10000 5.14 220 06:39 15.05.2022
3670 Clouds 32 1012 62 10000 5.14 300 02:38 15.05.2022
3671 Clouds 25 1011 94 10000 5.14 300 23:59 14.05.2022
3672 Clouds 25 1011 94 10000 5.14 300 23:35 14.05.2022
3673 Clouds 25 1010 94 10000 2.57 0 21:45 14.05.2022
3674 Clouds 25 1010 94 10000 2.57 0 21:24 14.05.2022
3675 Clouds 25 1010 94 10000 1.03 0 19:54 14.05.2022
3676 Clouds 25 1010 88 10000 1.44 28 19:20 14.05.2022
3677 Clouds 25 1010 88 10000 1.44 28 18:47 14.05.2022
3678 Clouds 24 1010 100 10000 1.54 0 17:36 14.05.2022
3679 Clouds 25 1011 94 10000 1.54 0 15:47 14.05.2022
3680 Clouds 25 1011 100 10000 1.54 0 14:37 14.05.2022
3681 Clouds 26 1010 94 10000 1.54 0 12:51 14.05.2022
3682 Clouds 27 1009 89 10000 2.57 140 11:37 14.05.2022
3683 Clouds 28 1009 78 10000 3.09 180 10:23 14.05.2022
3684 Clouds 30 1008 70 10000 5.14 200 09:56 14.05.2022
3685 Clouds 30 1007 70 10000 5.14 230 08:59 14.05.2022
3686 Clouds 30 1007 70 10000 5.14 240 07:21 14.05.2022
3687 Clouds 31 1011 66 10000 2.57 300 03:41 14.05.2022
3688 Clouds 24 1011 94 10000 2.57 330 23:48 13.05.2022
3689 Clouds 24 1011 94 10000 2.57 330 23:22 13.05.2022
3690 Clouds 23 1010 100 10000 2.57 300 22:52 13.05.2022
3691 Clouds 23 1010 100 10000 2.57 300 22:20 13.05.2022
3692 Clouds 23 1009 100 10000 2.57 320 20:56 13.05.2022
3693 Clouds 23 1009 100 10000 2.57 320 20:28 13.05.2022
3694 Clouds 24 1009 100 10000 2.57 300 19:40 13.05.2022
3695 Clouds 24 1010 100 10000 2.57 300 18:41 13.05.2022
3696 Clouds 24 1010 100 10000 1.54 0 17:29 13.05.2022
3697 Clouds 25 1010 86 10000 1.76 358 16:23 13.05.2022
3698 Clear 24 1010 100 10000 1.54 0 15:43 13.05.2022
3699 Clouds 25 1011 94 10000 1.54 0 13:57 13.05.2022
3700 Clouds 26 1010 89 10000 2.57 300 12:33 13.05.2022
3701 Clouds 27 1009 83 10000 2.06 360 11:23 13.05.2022
3702 Clouds 30 1008 70 10000 5.14 290 09:35 13.05.2022
3703 Clouds 30 1007 70 10000 5.14 270 08:49 13.05.2022
3704 Clouds 30 1008 66 10000 2.57 230 07:48 13.05.2022
3705 Clouds 29 1008 79 10000 3.6 320 06:33 13.05.2022
3706 Clouds 29 1008 79 10000 3.6 320 06:33 13.05.2022
3707 Rain 24 1011 100 10000 5.14 320 03:34 13.05.2022
3708 Clouds 25 1013 94 10000 5.14 340 00:39 13.05.2022
3709 Clouds 24 1009 94 10000 5.14 300 22:45 12.05.2022
3710 Clouds 24 1009 94 10000 2.57 310 21:56 12.05.2022
3711 Clouds 25 1008 89 10000 2.69 17 20:29 12.05.2022
3712 Clouds 24 1008 94 10000 2.57 310 18:59 12.05.2022
3713 Clouds 24 1009 94 10000 2.57 300 17:24 12.05.2022
3714 Clouds 24 1009 94 10000 2.57 330 16:18 12.05.2022
3715 Clouds 26 1009 89 10000 2.57 310 14:41 12.05.2022
3716 Clouds 26 1010 89 10000 2.57 310 13:41 12.05.2022
3717 Clouds 27 1008 78 10000 2.57 300 10:46 12.05.2022
3718 Clouds 28 1007 74 10000 2.57 300 09:28 12.05.2022
3719 Clouds 28 1007 74 10000 2.57 300 09:28 12.05.2022
3720 Clouds 28 1006 74 10000 2.57 280 08:51 12.05.2022
3721 Rain 28 1007 78 10000 5.14 360 07:40 12.05.2022
3722 Rain 29 1008 79 10000 8.75 300 05:46 12.05.2022
3723 Haze 31 1010 70 10000 2.57 10 02:49 12.05.2022
3724 Clouds 26 1008 94 10000 2.57 320 00:35 12.05.2022
3725 Clouds 25 1007 94 10000 2.57 310 22:35 11.05.2022
3726 Clouds 25 1007 94 10000 2.57 340 21:46 11.05.2022
3727 Clouds 25 1007 94 10000 2.57 340 21:21 11.05.2022
3728 Clouds 25 1007 100 10000 2.57 330 18:33 11.05.2022
3729 Clouds 26 1007 86 10000 1.87 20 16:53 11.05.2022
3730 Clouds 27 1009 89 10000 3.6 20 14:58 11.05.2022
3731 Clouds 27 1009 89 10000 3.6 20 14:38 11.05.2022
3732 Clouds 27 1009 89 10000 3.6 20 14:18 11.05.2022
3733 Clouds 27 1007 94 10000 3.09 40 11:52 11.05.2022
3734 Clouds 29 1006 84 10000 5.14 40 10:32 11.05.2022
3735 Clouds 31 1004 70 10000 5.14 260 08:37 11.05.2022
3736 Clouds 31 1005 74 10000 5.14 240 05:27 11.05.2022
3737 Haze 28 1008 89 10000 3.6 320 00:42 11.05.2022
3738 Haze 25 1006 100 10000 2.57 340 22:31 10.05.2022
3739 Clouds 25 1005 100 10000 2.57 340 21:56 10.05.2022
3740 Clouds 26 1005 94 10000 2.57 320 20:56 10.05.2022
3741 Clouds 26 1005 94 10000 2.57 310 19:27 10.05.2022
3742 Clouds 27 1006 94 10000 2.57 330 17:54 10.05.2022
3743 Clouds 27 1006 94 10000 4.12 340 16:56 10.05.2022
3744 Haze 27 1005 94 10000 2.57 340 14:48 10.05.2022
3745 Clouds 27 1006 84 10000 0.45 136 12:39 10.05.2022
3746 Clouds 28 1005 89 10000 5.14 150 11:49 10.05.2022
3747 Clouds 27 1005 83 10000 0.88 229 11:18 10.05.2022
3748 Rain 29 1004 84 10000 3.6 180 10:22 10.05.2022
3749 Haze 30 1003 79 10000 5.14 130 09:25 10.05.2022
3750 Haze 32 1003 70 10000 6.69 210 06:46 10.05.2022
3751 Haze 33 1005 62 10000 2.57 0 03:29 10.05.2022
3752 Haze 29 1006 73 10000 1.54 0 00:34 10.05.2022
3753 Clouds 25 1005 100 10000 2.57 320 22:44 09.05.2022
3754 Clouds 24 1004 100 10000 2.57 350 21:48 09.05.2022
3755 Clouds 25 1004 100 10000 2.57 340 20:25 09.05.2022
3756 Clear 25 1004 100 10000 1.54 0 18:43 09.05.2022
3757 Clear 25 1004 100 10000 2.06 120 17:40 09.05.2022
3758 Clouds 26 1005 85 10000 1.28 10 16:29 09.05.2022
3759 Clouds 26 1006 94 10000 2.57 310 15:49 09.05.2022
3760 Clouds 26 1006 94 10000 2.57 310 14:47 09.05.2022
3761 Clouds 26 1006 94 10000 2.57 310 14:22 09.05.2022
3762 Clouds 27 1006 89 10000 5.14 310 13:36 09.05.2022
3763 Clouds 29 1005 84 10000 1.54 0 11:56 09.05.2022
3764 Haze 30 1004 79 10000 5.14 130 10:51 09.05.2022
3765 Haze 30 1004 79 10000 5.14 130 10:31 09.05.2022
3766 Clouds 32 1003 66 10000 3.6 220 08:23 09.05.2022
3767 Clouds 32 1004 66 10000 1.47 166 07:43 09.05.2022
3768 Haze 32 1007 70 10000 5.14 130 02:44 09.05.2022
3769 Clouds 25 1006 100 10000 1.54 0 23:29 08.05.2022
3770 Clouds 25 1006 94 10000 2.57 310 22:47 08.05.2022
3771 Clouds 25 1005 100 10000 2.57 300 21:47 08.05.2022
3772 Clouds 25 1005 100 10000 3.09 310 20:31 08.05.2022
3773 Clouds 26 1005 86 10000 1.99 61 19:37 08.05.2022
3774 Clouds 26 1005 94 10000 3.09 340 18:49 08.05.2022
3775 Clouds 26 1005 94 10000 4.12 330 17:52 08.05.2022
3776 Clouds 26 1006 94 10000 2.06 0 16:30 08.05.2022
3777 Clouds 26 1006 94 10000 1.54 0 15:25 08.05.2022
3778 Clouds 26 1006 94 10000 1.54 0 14:23 08.05.2022
3779 Clouds 27 1006 86 10000 0.82 126 11:53 08.05.2022
3780 Haze 29 1005 79 10000 5.14 150 10:27 08.05.2022
3781 Haze 30 1005 74 10000 5.14 200 09:54 08.05.2022
3782 Haze 32 1004 70 10000 5.14 200 08:23 08.05.2022
3783 Haze 33 1004 66 10000 5.14 170 06:21 08.05.2022
3784 Clouds 33 1007 62 10000 2.57 300 03:23 08.05.2022
3785 Clouds 30 1008 70 10000 1.54 0 01:19 08.05.2022
3786 Fog 25 1007 100 10000 1.54 330 23:57 07.05.2022
3787 Fog 25 1007 100 10000 1.54 330 23:34 07.05.2022
3788 Fog 24 1007 100 10000 1.36 38 22:46 07.05.2022
3789 Fog 25 1006 100 10000 1.72 31 21:57 07.05.2022
3790 Clouds 25 1007 87 10000 1.72 31 21:31 07.05.2022
3791 Clouds 25 1006 100 10000 1.59 16 20:25 07.05.2022
3792 Clouds 26 1006 100 10000 1.87 8 18:52 07.05.2022
3793 Clouds 26 1007 100 10000 1.54 0 16:50 07.05.2022
3794 Clouds 27 1008 89 10000 5.14 110 14:54 07.05.2022
3795 Clouds 28 1007 89 10000 5.14 160 11:51 07.05.2022
3796 Smoke 30 1006 74 10000 6.17 170 09:55 07.05.2022
3797 Smoke 31 1006 70 10000 6.69 160 08:33 07.05.2022
3798 Smoke 32 1005 66 10000 6.69 160 07:25 07.05.2022
3799 Smoke 33 1006 66 10000 5.14 160 06:42 07.05.2022
3800 Clouds 32 1008 66 10000 3.09 150 04:18 07.05.2022
3801 Clouds 25 1008 94 10000 3.6 310 23:51 06.05.2022
3802 Rain 25 1008 94 10000 3.6 340 22:40 06.05.2022
3803 Rain 25 1008 100 4000 2.57 330 21:53 06.05.2022
3804 Rain 25 1008 100 3000 2.06 330 21:24 06.05.2022
3805 Clouds 25 1007 100 10000 1.54 0 19:43 06.05.2022
3806 Clouds 25 1007 91 10000 1.87 9 19:21 06.05.2022
3807 Rain 25 1007 100 10000 2.57 320 18:29 06.05.2022
3808 Clouds 25 1007 91 10000 1.8 11 17:34 06.05.2022
3809 Clouds 26 1009 90 10000 1.62 28 15:51 06.05.2022
3810 Clouds 26 1009 94 10000 1.54 0 14:58 06.05.2022
3811 Clouds 26 1009 94 10000 2.06 0 13:38 06.05.2022
3812 Clouds 26 1008 94 10000 2.06 0 12:42 06.05.2022
3813 Clouds 26 1008 89 10000 3 108 11:58 06.05.2022
3814 Clouds 27 1008 89 10000 2.57 130 10:36 06.05.2022
3815 Clouds 28 1007 83 10000 3.6 200 09:46 06.05.2022
3816 Clouds 29 1006 79 10000 4.63 210 08:52 06.05.2022
3817 Clouds 29 1007 79 10000 3.6 220 07:26 06.05.2022
3818 Haze 30 1007 74 10000 5.14 210 06:24 06.05.2022
3819 Clouds 31 1009 70 10000 2.06 0 02:54 06.05.2022
3820 Clouds 29 1010 79 10000 1.54 0 01:57 06.05.2022
3821 Rain 25 1010 88 10000 0.82 42 22:45 05.05.2022
3822 Rain 25 1010 88 10000 0.82 42 22:45 05.05.2022
3823 Rain 25 1008 94 10000 2.57 340 21:31 05.05.2022
3824 Rain 24 1008 90 10000 1.76 80 20:26 05.05.2022
3825 Clouds 25 1007 100 10000 1.54 0 18:35 05.05.2022
3826 Clouds 25 1008 100 10000 2.06 0 16:40 05.05.2022
3827 Clouds 26 1010 94 10000 2.06 0 14:53 05.05.2022
3828 Rain 25 1010 91 10000 3.92 112 13:25 05.05.2022
3829 Rain 26 1009 94 10000 1.54 0 12:53 05.05.2022
3830 Clouds 26 1008 94 10000 2.57 170 10:52 05.05.2022
3831 Clouds 28 1007 78 10000 5.14 180 09:40 05.05.2022
3832 Rain 29 1007 74 10000 5.14 190 07:36 05.05.2022
3833 Clouds 26 1008 87 7148 0.9 292 05:19 05.05.2022
3834 Rain 25 1011 94 4000 5.14 350 01:59 05.05.2022
3835 Rain 24 1011 100 3000 5.14 320 01:29 05.05.2022
3836 Rain 25 1009 100 10000 5.14 350 23:52 04.05.2022
3837 Rain 25 1009 100 10000 2.57 350 22:46 04.05.2022
3838 Rain 25 1008 100 10000 2.57 340 21:50 04.05.2022
3839 Rain 25 1008 100 10000 2.57 340 21:29 04.05.2022
3840 Clouds 25 1008 94 10000 2.57 310 20:27 04.05.2022
3841 Clouds 25 1008 94 10000 2.57 300 19:53 04.05.2022
3842 Clouds 25 1007 89 10000 2.57 117 19:18 04.05.2022
3843 Clouds 25 1008 94 10000 1.54 0 18:22 04.05.2022
3844 Clouds 25 1008 94 10000 1.54 0 17:42 04.05.2022
3845 Clouds 26 1009 89 10000 1.54 0 15:42 04.05.2022
3846 Clouds 26 1009 89 10000 1.54 0 15:23 04.05.2022
3847 Clouds 25 1009 88 10000 1.54 0 14:21 04.05.2022
3848 Clouds 26 1009 89 10000 2.06 0 13:35 04.05.2022
3849 Clouds 27 1008 89 10000 5.14 120 12:33 04.05.2022
3850 Haze 29 1006 79 10000 10.29 150 10:41 04.05.2022
3851 Haze 29 1006 79 10000 10.29 150 09:43 04.05.2022
3852 Haze 31 1005 70 10000 10.29 150 08:46 04.05.2022
3853 Smoke 32 1006 66 10000 7.72 160 06:41 04.05.2022
3854 Clouds 31 1010 70 10000 4.63 160 02:59 04.05.2022
3855 Clouds 28 1010 78 10000 2.53 130 00:38 04.05.2022
3856 Clouds 25 1008 94 10000 1.54 0 22:37 03.05.2022
3857 Clouds 25 1008 94 10000 1.54 0 21:46 03.05.2022
3858 Clouds 26 1008 94 10000 1.54 0 20:54 03.05.2022
3859 Clouds 26 1008 94 10000 1.54 0 19:57 03.05.2022
3860 Clouds 27 1008 89 10000 1.54 0 18:54 03.05.2022
3861 Clouds 27 1008 89 10000 1.54 0 18:20 03.05.2022
3862 Clouds 27 1008 89 10000 5.14 150 16:44 03.05.2022
3863 Clouds 26 1009 94 10000 5.14 140 15:38 03.05.2022
3864 Clouds 28 1009 83 10000 7.72 140 12:47 03.05.2022
3865 Clouds 28 1009 83 10000 7.72 140 12:27 03.05.2022
3866 Haze 29 1007 84 10000 7.72 140 10:57 03.05.2022
3867 Haze 29 1007 84 10000 7.72 140 10:57 03.05.2022
3868 Clouds 27 1007 85 10000 7.43 149 09:34 03.05.2022
3869 Clouds 32 1006 66 10000 5.14 160 07:33 03.05.2022
3870 Clouds 32 1006 66 10000 5.14 160 06:44 03.05.2022
3871 Haze 28 1009 83 10000 1.54 0 00:54 03.05.2022
3872 Clouds 25 1008 94 10000 1.54 0 22:38 02.05.2022
3873 Clouds 25 1008 94 10000 1.54 0 21:52 02.05.2022
3874 Clouds 24 1007 100 10000 2.57 330 20:51 02.05.2022
3875 Haze 24 1008 100 10000 1.54 0 18:40 02.05.2022
3876 Haze 24 1008 100 10000 1.54 0 18:21 02.05.2022
3877 Haze 25 1008 94 10000 1.03 0 17:37 02.05.2022
3878 Haze 26 1008 89 10000 1.03 250 16:22 02.05.2022
3879 Clouds 26 1008 89 10000 3.9 115 15:30 02.05.2022
3880 Clouds 26 1008 89 10000 3.9 115 15:30 02.05.2022
3881 Haze 27 1009 89 10000 4.12 140 13:50 02.05.2022
3882 Clouds 27 1008 89 10000 4.12 150 12:19 02.05.2022
3883 Clouds 28 1006 83 10000 6.17 160 10:47 02.05.2022
3884 Clouds 30 1006 79 10000 7.72 140 09:20 02.05.2022
3885 Clouds 31 1005 70 10000 5.14 150 07:51 02.05.2022
3886 Clouds 30 1009 66 10000 2.57 160 03:48 02.05.2022
3887 Haze 26 1009 89 10000 2.06 0 00:24 02.05.2022
3888 Clouds 25 1009 94 10000 1.54 0 23:47 01.05.2022
3889 Clouds 24 1008 100 10000 3.09 330 22:25 01.05.2022
3890 Clouds 24 1007 94 10000 2.38 95 21:19 01.05.2022
3891 Clouds 25 1007 94 10000 1.54 0 19:51 01.05.2022
3892 Clouds 25 1007 89 10000 2.97 108 18:57 01.05.2022
3893 Clouds 25 1007 89 10000 3.17 115 18:27 01.05.2022
3894 Clouds 25 1008 89 10000 3.52 116 17:26 01.05.2022
3895 Rain 25 1008 88 10000 3.45 120 16:23 01.05.2022
3896 Rain 26 1008 89 10000 1.54 0 15:24 01.05.2022
3897 Clouds 26 1008 89 10000 2.57 140 13:42 01.05.2022
3898 Clouds 26 1008 87 9803 4.67 134 11:18 01.05.2022
3899 Clouds 31 1005 70 10000 5.14 150 08:53 01.05.2022
3900 Clouds 31 1005 70 10000 5.14 160 07:55 01.05.2022
3901 Clouds 32 1008 58 10000 5.14 190 03:31 01.05.2022
3902 Clouds 25 1009 94 10000 1.03 0 23:49 30.04.2022
3903 Clouds 24 1007 94 10000 1.03 0 21:44 30.04.2022
3904 Clouds 24 1007 100 10000 1.03 0 20:45 30.04.2022
3905 Clouds 24 1007 94 10000 1.54 0 19:41 30.04.2022
3906 Clouds 24 1007 94 10000 1.54 0 19:41 30.04.2022
3907 Clouds 25 1008 90 10000 2.15 29 17:45 30.04.2022
3908 Clouds 24 1009 100 10000 1.54 0 16:42 30.04.2022
3909 Clouds 25 1009 94 10000 2.06 0 15:24 30.04.2022
3910 Clouds 25 1009 94 10000 1.54 0 14:34 30.04.2022
3911 Clouds 26 1009 85 10000 2.92 336 12:40 30.04.2022
3912 Clouds 26 1008 89 10000 2.57 330 11:33 30.04.2022
3913 Clouds 27 1007 83 10000 3.6 280 10:43 30.04.2022
3914 Clouds 29 1006 79 10000 5.14 270 08:59 30.04.2022
3915 Rain 32 1006 62 10000 7.72 250 05:51 30.04.2022
3916 Haze 27 1009 89 10000 4.63 350 01:51 30.04.2022
3917 Rain 24 1008 100 10000 5.14 340 23:37 29.04.2022
3918 Fog 24 1007 100 1000 5.14 340 22:31 29.04.2022
3919 Fog 24 1007 100 1000 5.14 340 22:31 29.04.2022
3920 Fog 24 1006 100 10000 5.14 320 21:27 29.04.2022
3921 Clouds 24 1008 89 10000 2.49 8 20:39 29.04.2022
3922 Clouds 24 1008 88 10000 2.2 9 19:38 29.04.2022
3923 Clouds 25 1008 94 10000 2.57 310 17:54 29.04.2022
3924 Clouds 25 1009 85 10000 1.3 44 17:21 29.04.2022
3925 Clouds 25 1009 94 10000 1.03 0 14:57 29.04.2022
3926 Clouds 25 1009 94 10000 1.03 0 14:20 29.04.2022
3927 Clouds 28 1009 83 10000 5.14 170 12:43 29.04.2022
3928 Clouds 28 1008 78 10000 7.72 160 10:59 29.04.2022
3929 Clouds 31 1006 66 10000 7.72 200 08:33 29.04.2022
3930 Clouds 31 1007 66 10000 7.72 200 07:27 29.04.2022
3931 Clouds 32 1007 62 10000 7.72 190 06:37 29.04.2022
3932 Clouds 32 1010 58 10000 5.14 150 03:34 29.04.2022
3933 Haze 28 1010 78 10000 1.54 0 00:18 29.04.2022
3934 Haze 26 1009 89 10000 1.54 0 23:26 28.04.2022
3935 Clouds 25 1008 94 10000 1.54 310 22:40 28.04.2022
3936 Haze 25 1008 94 10000 1.54 350 21:46 28.04.2022
3937 Haze 25 1007 94 10000 1.54 130 20:55 28.04.2022
3938 Haze 25 1007 94 10000 1.54 130 20:22 28.04.2022
3939 Haze 25 1007 94 10000 2.57 130 19:40 28.04.2022
3940 Haze 25 1007 94 10000 2.57 130 19:21 28.04.2022
3941 Haze 25 1008 94 10000 5.14 150 18:23 28.04.2022
3942 Clouds 25 1008 94 10000 1.54 0 16:59 28.04.2022
3943 Clouds 25 1009 87 10000 3.6 123 16:21 28.04.2022
3944 Clouds 26 1009 89 10000 1.54 0 15:57 28.04.2022
3945 Clouds 26 1009 87 10000 4.1 126 15:23 28.04.2022
3946 Clouds 27 1009 89 10000 3.6 140 13:43 28.04.2022
3947 Clouds 26 1009 86 10000 4.31 127 12:34 28.04.2022
3948 Clouds 28 1008 83 10000 4.63 160 11:51 28.04.2022
3949 Clouds 26 1008 86 10000 4.71 131 10:30 28.04.2022
3950 Haze 30 1007 74 10000 5.14 150 09:51 28.04.2022
3951 Haze 31 1006 70 10000 5.14 170 07:45 28.04.2022
3952 Haze 32 1007 66 10000 5.14 170 06:54 28.04.2022
3953 Haze 32 1008 66 10000 5.14 200 05:54 28.04.2022
3954 Haze 32 1009 66 10000 5.14 190 04:44 28.04.2022
3955 Haze 30 1009 74 10000 5.14 200 03:28 28.04.2022
3956 Haze 25 1009 94 10000 1.54 0 23:52 27.04.2022
3957 Haze 24 1008 100 10000 2.57 320 22:30 27.04.2022
3958 Clouds 24 1008 100 10000 1.54 0 21:50 27.04.2022
3959 Clouds 24 1007 100 10000 2.57 340 20:51 27.04.2022
3960 Clouds 24 1007 100 10000 2.57 340 20:32 27.04.2022
3961 Clouds 25 1008 87 10000 1.21 57 19:36 27.04.2022
3962 Clouds 25 1007 94 10000 2.57 310 18:45 27.04.2022
3963 Clouds 25 1007 94 10000 2.57 310 18:21 27.04.2022
3964 Clouds 25 1009 100 10000 2.57 320 16:21 27.04.2022
3965 Clouds 26 1009 89 10000 2.06 0 13:29 27.04.2022
3966 Clouds 27 1008 89 10000 3.09 170 11:37 27.04.2022
3967 Clouds 29 1007 79 10000 5.14 170 10:51 27.04.2022
3968 Clouds 30 1006 74 10000 6.17 210 08:31 27.04.2022
3969 Clouds 33 1006 62 10000 5.14 200 06:44 27.04.2022
3970 Haze 32 1009 70 10000 2.57 0 02:40 27.04.2022
3971 Haze 30 1009 74 10000 2.57 160 01:24 27.04.2022
3972 Clouds 26 1009 94 10000 1.03 0 00:34 27.04.2022
3973 Clouds 25 1009 94 10000 1.54 0 23:24 26.04.2022
3974 Clouds 25 1008 94 10000 5.14 320 22:51 26.04.2022
3975 Clouds 25 1008 94 10000 5.14 320 22:31 26.04.2022
3976 Clouds 25 1008 94 10000 5.14 320 21:24 26.04.2022
3977 Clouds 26 1007 94 10000 3.6 320 20:38 26.04.2022
3978 Clouds 26 1008 94 10000 3.6 320 19:45 26.04.2022
3979 Clouds 26 1008 94 10000 3.6 320 19:26 26.04.2022
3980 Clouds 26 1008 94 10000 2.57 350 18:39 26.04.2022
3981 Clouds 26 1008 94 10000 2.57 310 17:41 26.04.2022
3982 Clouds 26 1009 94 10000 2.57 330 15:41 26.04.2022
3983 Clouds 28 1008 83 10000 2.57 70 13:51 26.04.2022
3984 Clouds 29 1007 79 10000 5.14 200 12:57 26.04.2022
3985 Clouds 28 1006 83 10000 5.14 180 11:23 26.04.2022
3986 Clouds 29 1006 84 10000 3.6 200 10:30 26.04.2022
3987 Clouds 31 1004 74 10000 5.14 180 08:33 26.04.2022
3988 Clouds 33 1006 66 10000 2.57 260 04:59 26.04.2022
3989 Clouds 33 1006 66 10000 2.57 260 04:22 26.04.2022
3990 Clouds 27 1008 89 10000 2.57 320 00:46 26.04.2022
3991 Clouds 25 1007 100 10000 2.57 320 23:49 25.04.2022
3992 Clouds 25 1006 94 10000 2.06 0 21:53 25.04.2022
3993 Clouds 25 1006 94 10000 2.06 0 21:25 25.04.2022
3994 Clouds 25 1006 100 10000 1.54 0 19:47 25.04.2022
3995 Clouds 25 1006 100 10000 1.03 0 18:31 25.04.2022
3996 Clouds 25 1007 100 10000 2.06 0 17:39 25.04.2022
3997 Clouds 26 1008 94 10000 1.54 0 16:35 25.04.2022
3998 Clouds 26 1008 84 10000 0.95 54 15:21 25.04.2022
3999 Clouds 26 1008 83 10000 1.12 99 14:23 25.04.2022
4000 Clouds 27 1007 89 10000 1.54 150 12:40 25.04.2022
4001 Clouds 29 1006 74 10000 5.14 220 10:29 25.04.2022
4002 Clouds 29 1006 74 10000 5.14 220 10:29 25.04.2022
4003 Clouds 30 1005 70 10000 5.14 220 09:39 25.04.2022
4004 Clouds 32 1004 62 10000 5.14 220 07:34 25.04.2022
4005 Clouds 32 1006 66 10000 5.14 240 05:53 25.04.2022
4006 Clouds 29 1009 74 10000 2.57 350 01:27 25.04.2022
4007 Clouds 23 1008 100 10000 1.54 0 23:54 24.04.2022
4008 Clouds 23 1008 100 10000 1.54 0 23:20 24.04.2022
4009 Clouds 23 1007 100 10000 1.54 0 22:37 24.04.2022
4010 Clouds 23 1007 100 10000 1.54 0 21:54 24.04.2022
4011 Clouds 23 1007 100 10000 1.54 0 21:20 24.04.2022
4012 Clouds 23 1007 100 10000 2.06 0 20:39 24.04.2022
4013 Clouds 24 1007 94 10000 2.06 0 19:51 24.04.2022
4014 Clouds 25 1006 83 10000 1.24 56 18:28 24.04.2022
4015 Clouds 25 1006 83 10000 1.24 56 17:40 24.04.2022
4016 Rain 25 1007 82 10000 1.36 89 17:20 24.04.2022
4017 Rain 24 1008 100 10000 2.06 340 16:49 24.04.2022
4018 Rain 24 1008 100 10000 2.06 340 16:20 24.04.2022
4019 Clouds 25 1008 94 10000 1.54 0 15:32 24.04.2022
4020 Clouds 25 1008 82 10000 2.11 112 14:30 24.04.2022
4021 Clouds 24 1008 100 10000 1.54 0 13:26 24.04.2022
4022 Clouds 25 1008 94 10000 1.54 0 12:37 24.04.2022
4023 Clouds 26 1008 89 10000 1.54 0 11:39 24.04.2022
4024 Rain 27 1007 83 10000 4.12 160 10:30 24.04.2022
4025 Rain 28 1006 74 10000 2.57 180 09:39 24.04.2022
4026 Clouds 28 1006 83 10000 3.6 150 07:31 24.04.2022
4027 Clouds 25 1009 100 2500 1.54 0 04:43 24.04.2022
4028 Clouds 28 1010 78 10000 5.14 330 01:38 24.04.2022
4029 Clouds 26 1010 94 10000 2.57 340 00:30 24.04.2022
4030 Clouds 24 1009 100 10000 2.57 340 23:45 23.04.2022
4031 Clouds 24 1009 100 10000 2.57 340 23:22 23.04.2022
4032 Clouds 23 1008 100 10000 2.57 320 21:53 23.04.2022
4033 Clouds 23 1008 100 10000 2.57 320 21:34 23.04.2022
4034 Clouds 25 1008 85 10000 1.17 37 20:51 23.04.2022
4035 Clouds 24 1007 94 10000 2.57 320 19:47 23.04.2022
4036 Clouds 25 1007 88 10000 1.8 356 19:19 23.04.2022
4037 Clouds 25 1007 88 10000 1.8 356 18:52 23.04.2022
4038 Clouds 24 1008 94 10000 3.09 300 17:51 23.04.2022
4039 Clouds 25 1008 89 10000 2.12 360 17:26 23.04.2022
4040 Clouds 24 1009 100 10000 2.06 0 16:41 23.04.2022
4041 Clouds 24 1009 100 10000 0 0 15:20 23.04.2022
4042 Rain 24 1009 100 10000 3.09 360 12:44 23.04.2022
4043 Clouds 25 1008 100 10000 2.57 30 10:43 23.04.2022
4044 Clouds 27 1007 94 10000 2.57 120 09:33 23.04.2022
4045 Clouds 30 1007 79 10000 5.14 260 06:32 23.04.2022
4046 Clouds 31 1009 66 10000 5.14 180 03:54 23.04.2022
4047 Clouds 26 1009 83 10000 2.57 320 00:57 23.04.2022
4048 Clouds 24 1008 94 10000 2.57 300 23:29 22.04.2022
4049 Clouds 24 1008 100 10000 1.54 0 22:20 22.04.2022
4050 Clouds 23 1007 100 10000 2.06 340 21:42 22.04.2022
4051 Clouds 24 1007 94 10000 2.57 300 20:46 22.04.2022
4052 Clouds 24 1007 94 10000 2.57 300 20:26 22.04.2022
4053 Clouds 24 1007 94 10000 1.54 0 19:18 22.04.2022
4054 Clouds 24 1008 94 10000 1.54 0 18:36 22.04.2022
4055 Clouds 24 1008 94 10000 1.54 0 17:40 22.04.2022
4056 Clouds 25 1008 94 10000 1.54 0 16:46 22.04.2022
4057 Clouds 25 1009 94 10000 2.06 0 15:32 22.04.2022
4058 Clouds 25 1009 94 10000 1.54 0 14:44 22.04.2022
4059 Clouds 25 1009 100 10000 1.54 0 13:43 22.04.2022
4060 Rain 25 1009 94 10000 1.54 0 12:57 22.04.2022
4061 Rain 25 1008 100 10000 2.06 0 11:43 22.04.2022
4062 Rain 25 1008 100 10000 2.06 0 11:20 22.04.2022
4063 Rain 27 1008 80 10000 1.32 145 10:47 22.04.2022
4064 Rain 27 1007 79 10000 1.12 203 10:27 22.04.2022
4065 Clouds 26 1007 89 10000 6.17 350 09:42 22.04.2022
4066 Haze 32 1006 66 10000 5.66 220 08:49 22.04.2022
4067 Haze 32 1006 58 10000 6.69 250 06:56 22.04.2022
4068 Haze 30 1009 66 10000 2.57 330 01:53 22.04.2022
4069 Clouds 24 1009 94 10000 2.06 360 23:53 21.04.2022
4070 Clouds 24 1008 94 10000 2.57 310 22:59 21.04.2022
4071 Clouds 24 1007 94 10000 2.57 310 21:56 21.04.2022
4072 Clouds 25 1007 93 6358 2.37 18 20:34 21.04.2022
4073 Clouds 24 1007 94 10000 2.57 0 19:51 21.04.2022
4074 Clouds 24 1007 94 10000 2.57 0 18:34 21.04.2022
4075 Clouds 25 1008 88 10000 2.57 0 17:49 21.04.2022
4076 Clouds 25 1008 94 10000 2.57 0 16:28 21.04.2022
4077 Clouds 25 1008 88 10000 1.54 0 15:20 21.04.2022
4078 Clouds 25 1008 88 10000 1.54 0 14:38 21.04.2022
4079 Clouds 26 1008 89 10000 2.06 0 13:23 21.04.2022
4080 Clouds 27 1008 89 10000 2.57 140 12:36 21.04.2022
4081 Haze 30 1007 70 10000 5.14 170 10:20 21.04.2022
4082 Haze 32 1006 62 10000 7.72 210 08:53 21.04.2022
4083 Haze 33 1006 58 10000 5.14 180 06:55 21.04.2022
4084 Haze 33 1007 58 10000 7.72 200 04:34 21.04.2022
4085 Haze 33 1008 62 10000 5.14 210 03:24 21.04.2022
4086 Haze 31 1008 70 10000 1.54 0 02:46 21.04.2022
4087 Clouds 28 1009 83 10000 2.06 340 00:43 21.04.2022
4088 Clouds 25 1009 94 10000 1.54 330 23:48 20.04.2022
4089 Clouds 25 1009 94 10000 1.54 330 23:21 20.04.2022
4090 Clouds 24 1008 94 10000 2.57 330 22:45 20.04.2022
4091 Clouds 24 1008 94 10000 2.57 330 22:18 20.04.2022
4092 Clouds 25 1008 90 10000 1.93 5 21:23 20.04.2022
4093 Clouds 25 1008 88 10000 1.77 10 20:22 20.04.2022
4094 Clouds 25 1008 100 10000 2.57 310 19:51 20.04.2022
4095 Clouds 25 1008 94 10000 1.54 0 18:52 20.04.2022
4096 Clouds 25 1008 86 10000 1.59 15 17:53 20.04.2022
4097 Clouds 25 1009 94 10000 2.57 350 16:40 20.04.2022
4098 Clouds 25 1010 100 10000 2.57 350 15:39 20.04.2022
4099 Clouds 27 1009 89 10000 2.57 120 12:47 20.04.2022
4100 Clouds 24 1008 100 10000 5.14 140 11:42 20.04.2022
4101 Clouds 29 1007 79 10000 1.03 190 10:51 20.04.2022
4102 Clouds 30 1006 74 10000 4.12 220 09:34 20.04.2022
4103 Clouds 31 1006 66 10000 3.6 200 08:51 20.04.2022
4104 Clouds 31 1006 66 10000 3.6 200 08:19 20.04.2022
4105 Clouds 33 1006 62 10000 5.14 210 06:26 20.04.2022
4106 Clouds 29 1009 69 10000 1.98 240 02:58 20.04.2022
4107 Clouds 26 1010 79 10000 1.1 24 00:22 20.04.2022
4108 Clouds 25 1010 84 10000 1.35 12 23:19 19.04.2022
4109 Clouds 23 1009 100 10000 2.57 320 22:24 19.04.2022
4110 Clouds 25 1009 86 10000 1.59 353 21:55 19.04.2022
4111 Clouds 25 1008 86 10000 1.69 0 20:59 19.04.2022
4112 Clouds 25 1008 86 10000 1.69 0 20:37 19.04.2022
4113 Clouds 25 1008 86 10000 1.4 24 19:41 19.04.2022
4114 Clouds 24 1009 100 10000 2.57 320 18:37 19.04.2022
4115 Clouds 24 1010 100 10000 1.54 0 17:24 19.04.2022
4116 Clouds 25 1010 94 10000 1.03 0 16:42 19.04.2022
4117 Clouds 25 1010 94 10000 1.03 0 16:42 19.04.2022
4118 Clouds 25 1010 85 10000 1.14 77 16:20 19.04.2022
4119 Clouds 26 1011 94 10000 1.03 0 14:46 19.04.2022
4120 Clouds 26 1011 94 10000 1.03 0 14:46 19.04.2022
4121 Haze 26 1010 94 10000 1.03 320 12:58 19.04.2022
4122 Haze 26 1010 94 10000 1.03 320 12:36 19.04.2022
4123 Clouds 27 1009 89 10000 1.03 50 11:35 19.04.2022
4124 Clouds 28 1008 83 10000 2.57 250 09:51 19.04.2022
4125 Clouds 29 1007 74 10000 7.72 270 07:49 19.04.2022
4126 Clouds 29 1009 79 10000 4.12 330 04:26 19.04.2022
4127 Clouds 26 1012 89 10000 5.14 280 02:39 19.04.2022
4128 Haze 26 1011 89 10000 3.09 310 00:23 19.04.2022
4129 Fog 24 1010 100 10000 3.09 300 22:54 18.04.2022
4130 Rain 25 1009 91 10000 2.97 2 21:28 18.04.2022
4131 Rain 24 1008 100 10000 3.6 310 20:40 18.04.2022
4132 Rain 24 1008 100 10000 3.6 310 20:22 18.04.2022
4133 Rain 24 1008 100 10000 2.06 0 19:40 18.04.2022
4134 Clouds 24 1008 100 10000 1.74 352 18:49 18.04.2022
4135 Clouds 25 1009 94 10000 2.06 0 17:49 18.04.2022
4136 Clouds 25 1009 94 10000 2.06 0 17:49 18.04.2022
4137 Clouds 25 1009 88 10000 1.48 27 17:19 18.04.2022
4138 Clouds 25 1009 88 10000 1.48 27 16:39 18.04.2022
4139 Clouds 26 1010 94 10000 4.12 330 15:41 18.04.2022
4140 Clouds 26 1010 94 10000 1.54 0 14:27 18.04.2022
4141 Clouds 27 1010 89 10000 1.54 0 13:24 18.04.2022
4142 Clouds 27 1009 85 10000 2.26 112 12:27 18.04.2022
4143 Clouds 29 1007 79 10000 5.14 160 10:58 18.04.2022
4144 Clouds 30 1007 74 10000 5.14 180 09:53 18.04.2022
4145 Clouds 28 1007 78 10000 2.75 188 09:27 18.04.2022
4146 Clouds 32 1006 66 10000 7.72 200 07:29 18.04.2022
4147 Haze 33 1009 55 10000 4.12 270 03:51 18.04.2022
4148 Clouds 25 1010 94 10000 3.09 340 23:30 17.04.2022
4149 Clouds 24 1009 100 10000 3.6 340 22:37 17.04.2022
4150 Clouds 24 1009 100 10000 1.54 0 21:34 17.04.2022
4151 Clouds 24 1008 100 10000 2.57 320 20:53 17.04.2022
4152 Clouds 25 1008 90 10000 2.07 16 20:19 17.04.2022
4153 Clouds 25 1008 88 10000 1.42 71 19:20 17.04.2022
4154 Clouds 25 1008 87 10000 1.25 87 17:34 17.04.2022
4155 Clouds 26 1009 87 10000 1.64 104 15:37 17.04.2022
4156 Clouds 27 1009 89 10000 2.57 140 14:46 17.04.2022
4157 Clouds 26 1010 94 10000 2.57 140 13:37 17.04.2022
4158 Clouds 27 1008 89 10000 5.14 160 12:52 17.04.2022
4159 Clouds 29 1007 74 10000 5.14 180 10:59 17.04.2022
4160 Clouds 29 1007 74 10000 5.14 180 10:30 17.04.2022
4161 Clouds 31 1006 66 10000 5.14 200 09:55 17.04.2022
4162 Clouds 31 1006 66 10000 5.14 200 09:21 17.04.2022
4163 Clouds 32 1006 62 10000 5.14 190 08:41 17.04.2022
4164 Rain 32 1007 58 10000 5.66 190 06:32 17.04.2022
4165 Haze 30 1009 66 10000 2.57 20 02:31 17.04.2022
4166 Clouds 26 1010 83 10000 2.57 290 00:42 17.04.2022
4167 Clouds 22 1009 100 10000 2.57 300 23:38 16.04.2022
4168 Fog 23 1008 100 3000 2.57 310 21:49 16.04.2022
4169 Fog 23 1007 100 1000 2.57 310 20:54 16.04.2022
4170 Clouds 23 1007 100 10000 2.57 310 19:28 16.04.2022
4171 Clouds 25 1007 86 10000 2.09 102 18:44 16.04.2022
4172 Rain 26 1008 86 10000 2.25 123 17:21 16.04.2022
4173 Clouds 23 1009 100 10000 1.54 0 16:19 16.04.2022
4174 Clouds 24 1009 94 10000 1.54 0 14:58 16.04.2022
4175 Clouds 24 1009 94 10000 1.54 0 14:40 16.04.2022
4176 Clouds 24 1009 94 10000 1.54 0 13:50 16.04.2022
4177 Clouds 24 1009 94 10000 1.54 0 13:18 16.04.2022
4178 Clouds 25 1008 88 10000 1.54 0 11:43 16.04.2022
4179 Clouds 25 1007 88 10000 2.57 300 10:35 16.04.2022
4180 Clouds 26 1008 83 10000 3.09 330 09:37 16.04.2022
4181 Clouds 26 1007 83 10000 5.14 350 08:52 16.04.2022
4182 Rain 26 1007 89 10000 6.69 340 07:22 16.04.2022
4183 Rain 26 1009 94 10000 5.14 320 05:38 16.04.2022
4184 Haze 29 1010 74 10000 5.14 10 01:47 16.04.2022
4185 Haze 25 1009 94 10000 2.57 350 23:52 15.04.2022
4186 Clouds 24 1008 100 10000 1.54 300 22:48 15.04.2022
4187 Clouds 24 1008 100 10000 1.54 300 22:28 15.04.2022
4188 Clouds 24 1007 100 10000 3.09 320 21:21 15.04.2022
4189 Clouds 25 1007 88 10000 1.83 35 20:38 15.04.2022
4190 Rain 24 1006 100 10000 2.57 290 19:43 15.04.2022
4191 Clouds 24 1007 100 10000 2.06 0 18:58 15.04.2022
4192 Clouds 26 1007 88 10000 1.66 87 18:26 15.04.2022
4193 Clouds 25 1008 100 10000 2.06 0 17:57 15.04.2022
4194 Clouds 25 1008 100 10000 2.06 0 17:24 15.04.2022
4195 Clouds 25 1009 100 10000 2.57 0 16:24 15.04.2022
4196 Clouds 26 1008 87 10000 3.34 113 15:42 15.04.2022
4197 Clouds 26 1008 87 10000 3.34 113 15:42 15.04.2022
4198 Clouds 27 1008 89 10000 2.57 0 13:55 15.04.2022
4199 Clouds 27 1009 85 10000 3.89 122 12:50 15.04.2022
4200 Clouds 27 1008 85 10000 4.03 128 12:21 15.04.2022
4201 Clouds 27 1008 85 10000 4.03 128 11:42 15.04.2022
4202 Clouds 27 1008 85 10000 4.23 139 10:46 15.04.2022
4203 Haze 31 1006 70 10000 5.14 170 09:59 15.04.2022
4204 Haze 31 1006 70 10000 5.14 170 09:22 15.04.2022
4205 Haze 31 1006 70 10000 5.14 180 08:39 15.04.2022
4206 Haze 31 1006 70 10000 5.14 200 06:48 15.04.2022
4207 Haze 32 1007 62 10000 3.13 195 04:42 15.04.2022
4208 Clouds 28 1009 72 10000 0.57 69 00:32 15.04.2022
4209 Haze 24 1008 100 10000 2.57 320 23:20 14.04.2022
4210 Haze 23 1008 100 10000 2.57 290 22:44 14.04.2022
4211 Haze 23 1008 100 10000 2.57 290 22:25 14.04.2022
4212 Clouds 24 1007 94 10000 2.57 320 21:39 14.04.2022
4213 Fog 24 1007 100 7000 4.12 330 19:24 14.04.2022
4214 Clouds 26 1006 83 10000 1.78 102 18:38 14.04.2022
4215 Clouds 25 1007 94 10000 1.54 0 17:45 14.04.2022
4216 Clouds 25 1008 94 10000 1.54 0 16:49 14.04.2022
4217 Clouds 25 1008 94 10000 2.06 0 15:50 14.04.2022
4218 Clouds 26 1008 94 10000 1.54 0 13:52 14.04.2022
4219 Clouds 26 1008 94 10000 1.54 0 13:19 14.04.2022
4220 Clouds 27 1008 89 10000 1.54 0 12:32 14.04.2022
4221 Clouds 27 1008 82 10000 2.66 119 11:37 14.04.2022
4222 Haze 29 1007 79 10000 5.14 200 10:58 14.04.2022
4223 Haze 29 1007 79 10000 5.14 200 10:31 14.04.2022
4224 Haze 30 1006 74 10000 5.14 200 09:28 14.04.2022
4225 Haze 32 1006 66 10000 5.14 200 07:54 14.04.2022
4226 Clouds 34 1007 52 10000 5.14 330 05:35 14.04.2022
4227 Clouds 25 1009 94 10000 2.57 290 00:22 14.04.2022
4228 Clouds 23 1007 94 10000 2.57 300 22:37 13.04.2022
4229 Clouds 23 1007 94 10000 2.57 310 21:42 13.04.2022
4230 Clouds 23 1007 94 10000 1.54 0 20:35 13.04.2022
4231 Clouds 23 1007 94 10000 1.54 0 19:46 13.04.2022
4232 Clouds 24 1007 100 10000 1.54 0 18:36 13.04.2022
4233 Clouds 24 1007 100 10000 1.54 0 17:25 13.04.2022
4234 Clouds 24 1008 100 10000 1.54 0 16:49 13.04.2022
4235 Clouds 25 1008 94 10000 2.57 330 15:44 13.04.2022
4236 Clouds 25 1008 94 10000 2.57 330 15:21 13.04.2022
4237 Clouds 25 1008 94 10000 2.57 300 14:34 13.04.2022
4238 Clouds 25 1008 94 10000 5.14 10 13:37 13.04.2022
4239 Rain 25 1008 94 10000 5.14 30 12:45 13.04.2022
4240 Rain 25 1007 100 10000 5.14 20 11:25 13.04.2022
4241 Rain 27 1006 94 7000 5.14 40 09:53 13.04.2022
4242 Rain 29 1005 79 10000 5.14 290 08:44 13.04.2022
4243 Clouds 33 1004 62 10000 7.72 270 07:38 13.04.2022
4244 Clouds 33 1004 62 10000 5.14 270 06:47 13.04.2022
4245 Clouds 33 1004 62 10000 5.14 270 06:23 13.04.2022
4246 Clouds 27 1007 89 10000 2.57 310 00:28 13.04.2022
4247 Clouds 25 1006 88 10000 2.57 310 23:55 12.04.2022
4248 Clouds 24 1006 94 10000 1.54 350 22:31 12.04.2022
4249 Clouds 24 1005 100 10000 1.54 360 21:42 12.04.2022
4250 Clouds 24 1005 100 10000 1.54 0 20:44 12.04.2022
4251 Clouds 24 1005 100 10000 1.54 0 19:54 12.04.2022
4252 Clouds 24 1005 100 10000 1.54 0 19:54 12.04.2022
4253 Clouds 24 1005 100 10000 1.54 0 19:35 12.04.2022
4254 Clouds 24 1006 100 10000 1.54 0 18:52 12.04.2022
4255 Clouds 25 1006 94 10000 1.54 0 17:36 12.04.2022
4256 Clouds 25 1007 94 10000 1.54 0 16:34 12.04.2022
4257 Clouds 25 1007 88 10000 2.06 0 15:33 12.04.2022
4258 Clouds 26 1007 89 10000 3.41 112 14:33 12.04.2022
4259 Clouds 26 1006 89 10000 1.03 200 13:40 12.04.2022
4260 Clouds 27 1007 83 10000 3.97 116 13:20 12.04.2022
4261 Haze 28 1005 83 10000 1.54 0 11:47 12.04.2022
4262 Haze 28 1005 83 10000 1.54 0 11:24 12.04.2022
4263 Clouds 29 1005 84 10000 5.14 150 09:25 12.04.2022
4264 Rain 30 1004 74 10000 5.14 140 08:26 12.04.2022
4265 Clouds 33 1005 66 10000 7.72 200 06:33 12.04.2022
4266 Haze 33 1006 66 10000 5.14 220 05:36 12.04.2022
4267 Haze 31 1008 70 10000 2.06 0 01:47 12.04.2022
4268 Clouds 25 1007 94 10000 2.57 0 23:20 11.04.2022
4269 Clouds 24 1006 100 10000 2.57 320 21:50 11.04.2022
4270 Clear 26 1005 84 10000 1.68 29 21:18 11.04.2022
4271 Clouds 25 1005 94 10000 3.6 320 20:30 11.04.2022
4272 Clouds 25 1005 94 10000 3.6 320 20:30 11.04.2022
4273 Clouds 26 1005 86 10000 2.02 28 19:57 11.04.2022
4274 Clouds 26 1005 86 10000 2.02 18 19:22 11.04.2022
4275 Clouds 26 1005 86 10000 2.02 18 18:49 11.04.2022
4276 Clouds 26 1005 86 10000 2.21 18 17:57 11.04.2022
4277 Clouds 25 1007 88 10000 3.6 310 16:57 11.04.2022
4278 Clouds 25 1007 88 10000 3.6 310 16:20 11.04.2022
4279 Clouds 25 1007 94 10000 1.54 0 14:35 11.04.2022
4280 Clouds 28 1006 94 10000 3.09 50 12:53 11.04.2022
4281 Clouds 28 1006 94 10000 3.09 50 12:35 11.04.2022
4282 Clouds 28 1006 89 10000 5.14 160 11:42 11.04.2022
4283 Clouds 31 1005 74 10000 5.14 190 10:34 11.04.2022
4284 Clouds 31 1004 74 10000 7.72 190 09:22 11.04.2022
4285 Haze 33 1004 62 10000 7.72 200 06:51 11.04.2022
4286 Haze 32 1007 66 10000 2.57 180 02:30 11.04.2022
4287 Clouds 24 1006 100 10000 1.03 0 22:39 10.04.2022
4288 Clouds 25 1006 87 10000 1.97 6 21:55 10.04.2022
4289 Clouds 25 1006 87 10000 1.97 6 21:33 10.04.2022
4290 Clouds 24 1005 100 10000 2.57 300 20:31 10.04.2022
4291 Clouds 25 1006 89 10000 1.85 14 19:45 10.04.2022
4292 Clouds 25 1006 89 10000 1.73 9 19:22 10.04.2022
4293 Clouds 25 1006 89 10000 1.73 9 18:43 10.04.2022
4294 Clouds 25 1007 100 10000 2.57 320 17:54 10.04.2022
4295 Clouds 25 1007 100 10000 2.57 320 17:34 10.04.2022
4296 Clouds 26 1007 94 10000 1.54 0 16:22 10.04.2022
4297 Clouds 26 1007 86 10000 1.26 61 15:19 10.04.2022
4298 Clouds 27 1007 85 10000 1.14 66 14:22 10.04.2022
4299 Clouds 27 1006 89 10000 2.57 160 12:34 10.04.2022
4300 Clouds 28 1006 83 10000 5.14 190 11:46 10.04.2022
4301 Clouds 28 1006 83 10000 5.14 190 11:28 10.04.2022
4302 Haze 30 1005 74 10000 5.14 190 10:48 10.04.2022
4303 Haze 31 1004 70 10000 7.72 250 09:55 10.04.2022
4304 Haze 31 1004 70 10000 7.72 250 09:21 10.04.2022
4305 Haze 32 1004 66 10000 5.14 250 08:21 10.04.2022
4306 Haze 33 1004 62 10000 7.72 270 07:18 10.04.2022
4307 Haze 33 1005 66 10000 5.14 240 05:19 10.04.2022
4308 Haze 30 1008 74 10000 5.14 320 02:20 10.04.2022
4309 Clouds 25 1007 100 10000 2.57 310 23:54 09.04.2022
4310 Clouds 25 1007 100 10000 2.57 310 23:35 09.04.2022
4311 Clouds 25 1005 100 10000 2.57 310 22:43 09.04.2022
4312 Clouds 25 1005 100 10000 2.57 310 21:32 09.04.2022
4313 Clouds 25 1005 100 10000 2.57 330 20:39 09.04.2022
4314 Clouds 25 1005 89 10000 1.74 6 20:18 09.04.2022
4315 Clouds 25 1005 100 10000 2.57 300 19:41 09.04.2022
4316 Clouds 25 1006 100 10000 2.57 300 18:26 09.04.2022
4317 Clouds 25 1006 100 10000 2.57 300 17:52 09.04.2022
4318 Clouds 25 1006 89 10000 1.17 47 17:18 09.04.2022
4319 Clouds 26 1007 94 10000 2.57 320 16:42 09.04.2022
4320 Clouds 25 1007 100 10000 2.57 320 15:52 09.04.2022
4321 Clouds 25 1007 100 10000 2.57 320 15:26 09.04.2022
4322 Clouds 26 1007 94 10000 2.57 310 14:26 09.04.2022
4323 Clouds 26 1007 100 10000 2.57 350 13:34 09.04.2022
4324 Clouds 27 1006 94 10000 2.57 320 12:57 09.04.2022
4325 Clouds 27 1006 89 10000 3.6 170 11:51 09.04.2022
4326 Clouds 28 1005 83 10000 3.6 260 10:52 09.04.2022
4327 Clouds 28 1005 83 10000 3.6 260 10:18 09.04.2022
4328 Clouds 29 1005 79 10000 4.12 260 09:23 09.04.2022
4329 Rain 29 1004 74 10000 0.78 99 08:26 09.04.2022
4330 Clouds 29 1006 79 10000 5.14 340 05:21 09.04.2022
4331 Haze 25 1008 94 10000 2.57 320 00:35 09.04.2022
4332 Haze 24 1007 100 10000 2.57 320 23:24 08.04.2022
4333 Clouds 24 1006 100 10000 1.54 0 21:53 08.04.2022
4334 Clouds 25 1006 88 10000 1.27 13 20:44 08.04.2022
4335 Clouds 25 1005 87 10000 1.71 99 19:50 08.04.2022
4336 Clouds 25 1005 94 10000 1.54 0 18:56 08.04.2022
4337 Clouds 25 1005 94 10000 1.54 0 18:22 08.04.2022
4338 Clouds 25 1006 94 10000 1.54 0 17:29 08.04.2022
4339 Clouds 25 1007 100 10000 1.54 0 16:58 08.04.2022
4340 Clouds 25 1007 100 10000 1.54 0 16:27 08.04.2022
4341 Clouds 25 1007 100 10000 2.06 0 15:36 08.04.2022
4342 Clouds 26 1007 86 10000 3.41 122 14:52 08.04.2022
4343 Rain 26 1008 86 10000 3.96 119 14:20 08.04.2022
4344 Rain 26 1008 94 10000 3.6 30 13:31 08.04.2022
4345 Clouds 28 1007 78 10000 6.17 160 12:55 08.04.2022
4346 Clouds 28 1006 78 10000 6.69 160 11:35 08.04.2022
4347 Haze 30 1004 70 10000 7.72 170 09:59 08.04.2022
4348 Haze 30 1004 70 10000 7.72 170 09:19 08.04.2022
4349 Haze 32 1004 62 10000 7.72 190 07:44 08.04.2022
4350 Haze 32 1004 62 10000 7.72 200 06:45 08.04.2022
4351 Clouds 30 1008 66 10000 2.57 0 02:55 08.04.2022
4352 Clouds 25 1008 94 10000 2.57 320 00:31 08.04.2022
4353 Clouds 23 1007 94 10000 2.57 270 23:47 07.04.2022
4354 Fog 22 1007 100 10000 2.57 270 22:55 07.04.2022
4355 Fog 22 1007 100 10000 2.57 270 22:36 07.04.2022
4356 Clouds 24 1007 82 10000 1.34 61 22:18 07.04.2022
4357 Clouds 23 1006 100 10000 4.12 310 21:30 07.04.2022
4358 Fog 23 1005 100 1000 2.57 320 20:46 07.04.2022
4359 Clouds 24 1006 83 10000 1.58 66 20:20 07.04.2022
4360 Clouds 25 1006 84 10000 1.98 87 17:43 07.04.2022
4361 Clouds 25 1006 84 10000 2.14 97 17:22 07.04.2022
4362 Clouds 25 1006 84 10000 2.14 97 16:34 07.04.2022
4363 Clouds 25 1007 83 10000 2.36 104 15:52 07.04.2022
4364 Clouds 25 1008 94 10000 2.57 320 13:59 07.04.2022
4365 Clouds 25 1008 94 10000 2.57 320 13:24 07.04.2022
4366 Clouds 25 1008 94 10000 2.57 320 13:24 07.04.2022
4367 Clouds 26 1007 79 10000 2.61 125 11:53 07.04.2022
4368 Clouds 28 1005 78 10000 2.57 170 10:54 07.04.2022
4369 Rain 28 1005 68 10000 1.8 194 09:19 07.04.2022
4370 Haze 32 1005 58 10000 6.17 170 06:59 07.04.2022
4371 Haze 31 1005 62 10000 5.14 210 05:28 07.04.2022
4372 Clouds 31 1008 62 10000 2.06 0 02:37 07.04.2022
4373 Clouds 26 1008 89 10000 1.54 0 00:44 07.04.2022
4374 Clouds 24 1007 94 10000 1.54 0 23:36 06.04.2022
4375 Clouds 23 1006 94 10000 1.54 0 22:45 06.04.2022
4376 Clouds 23 1006 94 10000 1.54 0 22:20 06.04.2022
4377 Clouds 24 1006 80 10000 2.06 18 20:50 06.04.2022
4378 Clouds 24 1006 80 10000 2.1 19 20:26 06.04.2022
4379 Clouds 24 1006 80 10000 2.1 19 19:44 06.04.2022
4380 Clouds 23 1006 94 10000 1.54 0 18:48 06.04.2022
4381 Clouds 23 1007 94 10000 2.57 320 17:36 06.04.2022
4382 Clouds 25 1007 77 10000 1.48 12 16:58 06.04.2022
4383 Clouds 25 1007 77 10000 1.48 12 16:34 06.04.2022
4384 Clouds 24 1008 94 10000 2.57 0 15:44 06.04.2022
4385 Clouds 24 1008 94 10000 2.06 0 13:53 06.04.2022
4386 Clouds 25 1008 88 10000 2.06 0 12:30 06.04.2022
4387 Clouds 26 1007 94 10000 1.54 0 11:44 06.04.2022
4388 Clouds 28 1006 83 10000 1.03 0 10:33 06.04.2022
4389 Clouds 28 1006 83 10000 1.03 0 10:33 06.04.2022
4390 Clouds 28 1006 83 10000 1.03 0 10:33 06.04.2022
4391 Rain 28 1006 78 10000 3.6 200 09:59 06.04.2022
4392 Clouds 28 1006 78 10000 3.6 200 09:25 06.04.2022
4393 Clouds 28 1006 65 10000 3.19 315 08:18 06.04.2022
4394 Clouds 29 1006 64 10000 2.56 268 06:40 06.04.2022
4395 Clouds 27 1009 83 10000 2.57 320 01:26 06.04.2022
4396 Rain 24 1008 94 10000 3.09 300 23:50 05.04.2022
4397 Rain 24 1007 94 10000 3.6 320 21:58 05.04.2022
4398 Rain 24 1008 86 10000 2.28 1 21:18 05.04.2022
4399 Clouds 25 1007 85 10000 2.07 357 20:24 05.04.2022
4400 Clouds 25 1007 83 10000 1.81 2 18:45 05.04.2022
4401 Clouds 24 1009 94 10000 2.57 320 17:22 05.04.2022
4402 Clouds 24 1009 94 10000 4.12 350 16:44 05.04.2022
4403 Clouds 26 1009 79 10000 1.09 334 15:52 05.04.2022
4404 Clouds 26 1009 79 10000 1.09 334 15:31 05.04.2022
4405 Clouds 25 1010 94 10000 4.12 330 13:55 05.04.2022
4406 Clouds 25 1009 94 10000 5.14 330 12:39 05.04.2022
4407 Clouds 26 1008 89 10000 5.14 320 11:43 05.04.2022
4408 Clouds 26 1008 89 10000 5.14 320 11:25 05.04.2022
4409 Clouds 26 1008 89 10000 5.14 320 11:25 05.04.2022
4410 Clouds 30 1007 66 10000 7.72 200 09:40 05.04.2022
4411 Clouds 30 1006 66 10000 7.72 200 08:47 05.04.2022
4412 Clouds 31 1009 62 10000 2.57 310 04:19 05.04.2022
4413 Clouds 24 1010 100 10000 1.54 0 23:45 04.04.2022
4414 Clouds 23 1009 100 10000 1.54 0 22:38 04.04.2022
4415 Clouds 25 1009 86 10000 1.67 40 21:51 04.04.2022
4416 Clouds 25 1009 85 10000 1.46 57 21:20 04.04.2022
4417 Clouds 25 1009 85 10000 1.46 57 20:47 04.04.2022
4418 Clouds 25 1008 86 10000 1.63 82 19:30 04.04.2022
4419 Clouds 25 1008 85 10000 1.5 94 18:46 04.04.2022
4420 Clouds 25 1008 84 10000 1.52 109 17:33 04.04.2022
4421 Clouds 25 1010 94 10000 1.54 0 16:36 04.04.2022
4422 Rain 26 1010 82 10000 1.77 110 15:34 04.04.2022
4423 Clouds 26 1010 89 10000 1.54 0 14:49 04.04.2022
4424 Clouds 26 1010 89 10000 1.54 0 14:31 04.04.2022
4425 Clouds 26 1010 80 10000 2.86 123 13:18 04.04.2022
4426 Clouds 27 1008 78 10000 4.12 170 11:29 04.04.2022
4427 Rain 29 1008 74 10000 5.14 170 10:29 04.04.2022
4428 Haze 33 1007 55 10000 7.72 170 06:58 04.04.2022
4429 Haze 31 1009 62 10000 4.12 140 03:18 04.04.2022
4430 Clouds 24 1010 94 10000 2.57 320 23:47 03.04.2022
4431 Clouds 23 1009 100 10000 2.57 330 22:31 03.04.2022
4432 Clouds 24 1010 82 10000 1.38 57 21:32 03.04.2022
4433 Clouds 24 1009 94 10000 2.57 340 20:36 03.04.2022
4434 Clouds 24 1009 85 10000 1.95 35 19:29 03.04.2022
4435 Clouds 24 1009 94 10000 1.54 0 18:27 03.04.2022
4436 Clouds 24 1010 94 10000 1.54 0 17:41 03.04.2022
4437 Clouds 25 1010 94 10000 1.54 0 16:50 03.04.2022
4438 Clouds 25 1011 85 10000 2.41 44 15:59 03.04.2022
4439 Clouds 26 1011 80 10000 1.8 89 14:27 03.04.2022
4440 Clouds 25 1011 83 10000 1.95 74 13:38 03.04.2022
4441 Clouds 26 1010 81 10000 3.02 127 11:59 03.04.2022
4442 Rain 27 1009 83 10000 3.6 140 10:22 03.04.2022
4443 Rain 27 1008 78 10000 3.41 157 09:19 03.04.2022
4444 Clouds 25 1008 88 10000 5.14 100 06:41 03.04.2022
4445 Clouds 32 1010 55 10000 2.06 0 03:36 03.04.2022
4446 Clouds 25 1010 88 10000 2.57 330 00:29 03.04.2022
4447 Clouds 23 1009 100 10000 1.54 320 22:52 02.04.2022
4448 Rain 23 1009 100 10000 2.06 350 21:56 02.04.2022
4449 Rain 24 1009 79 10000 1.42 52 21:26 02.04.2022
4450 Clouds 23 1009 94 10000 2.06 300 20:39 02.04.2022
4451 Clouds 24 1009 94 10000 2.06 300 18:51 02.04.2022
4452 Clouds 24 1009 94 10000 2.06 300 18:20 02.04.2022
4453 Rain 25 1009 81 10000 1.82 16 17:43 02.04.2022
4454 Clouds 25 1011 88 10000 2.06 0 15:58 02.04.2022
4455 Clouds 25 1011 88 10000 2.06 0 15:20 02.04.2022
4456 Clouds 25 1011 94 10000 4.12 20 14:32 02.04.2022
4457 Rain 25 1011 88 10000 1.54 0 13:34 02.04.2022
4458 Clouds 25 1010 88 10000 1.54 0 12:32 02.04.2022
4459 Haze 27 1009 78 10000 2.57 280 10:46 02.04.2022
4460 Haze 29 1007 65 10000 5.14 300 08:33 02.04.2022
4461 Haze 31 1008 62 10000 5.14 240 05:24 02.04.2022
4462 Clouds 30 1010 66 10000 2.06 120 03:28 02.04.2022
4463 Clouds 23 1009 94 10000 2.57 350 23:55 01.04.2022
4464 Clouds 22 1009 100 10000 2.57 330 22:51 01.04.2022
4465 Clouds 23 1007 94 10000 0 0 21:27 01.04.2022
4466 Clouds 23 1008 100 10000 1.54 0 20:49 01.04.2022
4467 Clouds 23 1008 100 10000 1.54 0 19:50 01.04.2022
4468 Rain 23 1008 100 10000 1.54 0 19:26 01.04.2022
4469 Clouds 23 1009 100 10000 1.54 0 18:42 01.04.2022
4470 Rain 24 1009 94 10000 2.57 320 17:43 01.04.2022
4471 Clouds 24 1010 94 10000 2.57 320 16:33 01.04.2022
4472 Clouds 23 1010 94 5911 3.65 353 15:18 01.04.2022
4473 Rain 24 1010 94 10000 4.12 350 13:56 01.04.2022
4474 Rain 24 1010 94 10000 4.12 350 13:31 01.04.2022
4475 Rain 24 1010 94 10000 5.14 20 12:26 01.04.2022
4476 Rain 24 1009 94 10000 5.14 350 10:52 01.04.2022
4477 Rain 25 1008 88 10000 7.72 350 09:41 01.04.2022
4478 Rain 26 1008 83 10000 7.72 330 07:41 01.04.2022
4479 Rain 26 1008 89 10000 5.14 320 05:45 01.04.2022
4480 Rain 27 1009 83 10000 5.14 340 04:43 01.04.2022
4481 Rain 25 1011 94 10000 5.02 312 03:19 01.04.2022
4482 Rain 26 1010 83 10000 5.14 340 01:51 01.04.2022
4483 Clouds 24 1008 94 10000 2.57 310 22:34 31.03.2022
4484 Clouds 24 1007 94 10000 2.57 330 21:44 31.03.2022
4485 Clouds 24 1007 94 10000 2.57 330 20:51 31.03.2022
4486 Clouds 25 1007 90 10000 2.98 349 20:28 31.03.2022
4487 Clouds 25 1007 94 10000 2.57 330 19:43 31.03.2022
4488 Clouds 25 1008 94 10000 2.57 320 18:34 31.03.2022
4489 Clouds 25 1008 88 10000 3.05 350 16:53 31.03.2022
4490 Rain 25 1008 88 10000 3.18 347 15:56 31.03.2022
4491 Rain 25 1009 87 10000 3.3 340 15:29 31.03.2022
4492 Rain 26 1009 89 10000 2.57 360 14:48 31.03.2022
4493 Clouds 26 1009 85 10000 3.53 329 13:42 31.03.2022
4494 Clouds 28 1008 78 10000 5.14 310 11:31 31.03.2022
4495 Clouds 28 1007 74 10000 5.14 300 10:26 31.03.2022
4496 Clouds 29 1007 74 10000 5.14 300 09:39 31.03.2022
4497 Clouds 31 1006 66 10000 7.72 280 07:48 31.03.2022
4498 Clouds 31 1010 62 10000 10.29 320 02:33 31.03.2022
4499 Clouds 24 1009 94 10000 5.14 340 23:24 30.03.2022
4500 Clouds 24 1007 94 10000 6.17 350 21:55 30.03.2022
4501 Clouds 24 1007 94 10000 6.17 350 21:30 30.03.2022
4502 Clouds 24 1007 94 10000 5.14 350 20:37 30.03.2022
4503 Clouds 24 1007 94 10000 5.14 340 19:47 30.03.2022
4504 Clouds 24 1007 94 10000 4.12 320 18:41 30.03.2022
4505 Clouds 25 1007 84 10000 3.51 344 17:51 30.03.2022
4506 Clouds 24 1008 88 10000 2.57 320 16:59 30.03.2022
4507 Clouds 24 1008 88 10000 2.57 320 16:39 30.03.2022
4508 Clouds 24 1009 88 10000 2.57 330 15:47 30.03.2022
4509 Clouds 24 1009 94 10000 2.57 320 14:22 30.03.2022
4510 Clouds 26 1009 83 10000 2.57 330 13:20 30.03.2022
4511 Clouds 26 1009 87 10000 3.47 346 11:55 30.03.2022
4512 Clouds 29 1007 70 10000 7.72 300 10:48 30.03.2022
4513 Clouds 31 1006 62 10000 7.72 300 09:30 30.03.2022
4514 Clouds 33 1006 55 10000 7.72 300 07:59 30.03.2022
4515 Clouds 32 1007 74 10000 7.72 310 05:41 30.03.2022
4516 Clouds 32 1007 74 10000 7.72 310 05:23 30.03.2022
4517 Clouds 30 1009 70 10000 5.14 330 01:45 30.03.2022
4518 Clouds 23 1009 100 10000 2.57 320 22:38 29.03.2022
4519 Clear 24 1007 94 10000 2.06 320 21:47 29.03.2022
4520 Clear 24 1006 94 10000 2.57 340 20:55 29.03.2022
4521 Clouds 25 1007 83 10000 3.41 351 20:25 29.03.2022
4522 Clouds 25 1007 82 10000 3.53 349 19:20 29.03.2022
4523 Clear 24 1007 94 10000 2.57 300 18:48 29.03.2022
4524 Clear 24 1008 94 10000 1.54 350 17:39 29.03.2022
4525 Clouds 25 1008 82 10000 3.14 5 16:59 29.03.2022
4526 Clouds 25 1008 82 10000 3.14 5 16:58 29.03.2022
4527 Clouds 25 1008 82 10000 3.05 19 16:20 29.03.2022
4528 Clouds 25 1009 88 10000 4.12 330 14:53 29.03.2022
4529 Clouds 25 1009 88 10000 4.12 330 14:24 29.03.2022
4530 Clouds 27 1009 89 10000 4.12 360 12:57 29.03.2022
4531 Clouds 25 1010 91 10000 2.76 359 11:45 29.03.2022
4532 Clouds 30 1007 74 10000 2.57 230 10:58 29.03.2022
4533 Clouds 31 1007 70 10000 3.6 240 09:49 29.03.2022
4534 Clouds 31 1006 66 10000 5.14 260 07:57 29.03.2022
4535 Clouds 30 1008 70 10000 5.14 250 05:35 29.03.2022
4536 Clouds 25 1010 88 10000 5.14 320 00:50 29.03.2022
4537 Clouds 24 1010 94 10000 4.12 330 23:24 28.03.2022
4538 Clouds 23 1009 100 10000 2.57 20 22:53 28.03.2022
4539 Clouds 23 1009 100 10000 2.57 20 22:26 28.03.2022
4540 Clouds 23 1008 100 10000 5.14 320 20:58 28.03.2022
4541 Clouds 25 1007 82 10000 1.54 79 20:23 28.03.2022
4542 Clouds 25 1007 82 10000 1.37 67 19:44 28.03.2022
4543 Clouds 25 1007 83 10000 1.54 58 19:25 28.03.2022
4544 Clouds 25 1007 83 10000 1.54 58 18:37 28.03.2022
4545 Clouds 24 1008 94 10000 1.54 0 17:39 28.03.2022
4546 Clouds 25 1009 86 10000 2.3 40 16:20 28.03.2022
4547 Clouds 25 1009 86 10000 1.48 45 14:29 28.03.2022
4548 Clouds 25 1009 86 10000 1.31 46 13:58 28.03.2022
4549 Clouds 27 1008 83 10000 1.54 0 12:20 28.03.2022
4550 Clouds 27 1008 83 10000 1.54 0 11:23 28.03.2022
4551 Clouds 30 1007 70 10000 5.14 260 09:42 28.03.2022
4552 Clouds 30 1007 70 10000 5.14 260 09:19 28.03.2022
4553 Clouds 31 1006 62 10000 5.14 260 08:22 28.03.2022
4554 Clouds 32 1006 62 10000 5.14 250 07:27 28.03.2022
4555 Clouds 32 1009 55 10000 5.14 250 03:27 28.03.2022
4556 Clouds 26 1008 81 10000 1.1 84 23:28 27.03.2022
4557 Clouds 24 1008 94 10000 2.57 320 22:24 27.03.2022
4558 Clouds 24 1007 100 10000 5.14 330 21:41 27.03.2022
4559 Clouds 24 1007 100 10000 5.14 320 20:54 27.03.2022
4560 Rain 24 1007 100 10000 2.57 330 19:46 27.03.2022
4561 Rain 24 1008 100 10000 5.14 330 18:54 27.03.2022
4562 Rain 24 1008 100 10000 5.14 330 18:26 27.03.2022
4563 Rain 24 1008 100 10000 5.14 330 18:26 27.03.2022
4564 Rain 25 1009 94 10000 5.14 350 17:38 27.03.2022
4565 Clouds 25 1010 94 10000 2.06 340 15:59 27.03.2022
4566 Clouds 26 1010 89 10000 3.6 320 14:26 27.03.2022
4567 Rain 27 1010 89 10000 1.54 0 13:54 27.03.2022
4568 Rain 28 1008 83 10000 1.54 0 11:52 27.03.2022
4569 Clouds 28 1008 83 10000 3.09 260 10:28 27.03.2022
4570 Haze 30 1006 74 10000 5.14 260 08:21 27.03.2022
4571 Haze 32 1007 62 10000 5.14 340 05:19 27.03.2022
4572 Clouds 28 1010 83 10000 5.14 340 00:37 27.03.2022
4573 Clouds 24 1009 100 10000 3.6 320 22:58 26.03.2022
4574 Clouds 24 1009 100 10000 3.6 320 22:27 26.03.2022
4575 Clouds 24 1008 100 10000 2.57 320 21:31 26.03.2022
4576 Clouds 24 1008 100 10000 1.54 300 19:46 26.03.2022
4577 Clouds 24 1007 100 10000 1.54 0 18:56 26.03.2022
4578 Clouds 24 1008 100 10000 1.54 0 17:44 26.03.2022
4579 Clouds 24 1008 100 10000 1.54 0 17:44 26.03.2022
4580 Clouds 24 1008 100 10000 1.54 0 17:44 26.03.2022
4581 Clouds 24 1008 100 10000 1.54 0 17:22 26.03.2022
4582 Clouds 25 1009 100 10000 2.57 0 15:52 26.03.2022
4583 Clouds 26 1010 94 10000 2.57 0 14:21 26.03.2022
4584 Clouds 26 1010 94 10000 2.57 0 13:51 26.03.2022
4585 Rain 27 1010 89 10000 1.54 0 12:36 26.03.2022
4586 Clouds 27 1009 78 10000 1.08 16 11:18 26.03.2022
4587 Haze 29 1007 74 10000 3.6 230 09:22 26.03.2022
4588 Haze 31 1006 66 10000 6.17 240 07:36 26.03.2022
4589 Haze 32 1007 58 10000 7.72 240 05:52 26.03.2022
4590 Haze 32 1009 55 10000 2.57 320 03:22 26.03.2022
4591 Haze 23 1009 100 10000 5.14 300 22:50 25.03.2022
4592 Clouds 23 1008 100 10000 2.57 340 20:58 25.03.2022
4593 Clouds 23 1008 100 10000 2.57 340 20:26 25.03.2022
4594 Clouds 23 1008 100 10000 2.57 310 19:20 25.03.2022
4595 Clouds 23 1007 100 10000 2.57 320 18:36 25.03.2022
4596 Clouds 25 1007 88 10000 1.81 352 17:34 25.03.2022
4597 Clouds 24 1008 94 10000 1.54 0 16:29 25.03.2022
4598 Clouds 24 1009 100 10000 1.54 0 15:37 25.03.2022
4599 Clouds 24 1009 100 10000 1.54 0 13:32 25.03.2022
4600 Clouds 27 1009 83 10000 1.85 311 11:25 25.03.2022
4601 Clouds 27 1008 89 10000 3.09 350 09:37 25.03.2022
4602 Clouds 27 1008 83 10000 3.09 350 08:56 25.03.2022
4603 Clouds 28 1007 78 10000 5.14 310 07:46 25.03.2022
4604 Clouds 28 1007 78 10000 5.14 310 07:19 25.03.2022
4605 Clouds 31 1009 70 10000 7.72 340 03:45 25.03.2022
4606 Clouds 25 1011 94 10000 5.14 320 23:49 24.03.2022
4607 Clouds 24 1010 94 10000 5.14 320 22:24 24.03.2022
4608 Clouds 23 1008 94 10000 5.14 330 20:58 24.03.2022
4609 Clouds 24 1008 94 10000 5.14 320 19:49 24.03.2022
4610 Clouds 24 1008 94 10000 5.14 320 18:45 24.03.2022
4611 Clouds 24 1007 91 10000 2.12 23 17:36 24.03.2022
4612 Clouds 24 1007 92 10000 2.57 17 16:33 24.03.2022
4613 Clouds 24 1010 94 10000 2.57 210 14:52 24.03.2022
4614 Clouds 24 1010 94 10000 2.57 210 14:22 24.03.2022
4615 Clouds 24 1010 94 10000 2.57 240 13:34 24.03.2022
4616 Rain 25 1010 100 10000 4.12 90 12:24 24.03.2022
4617 Clouds 26 1009 94 10000 2.57 350 11:27 24.03.2022
4618 Clouds 29 1007 74 10000 5.14 260 09:27 24.03.2022
4619 Clouds 31 1006 70 10000 7.72 250 08:34 24.03.2022
4620 Clouds 32 1006 58 10000 7.72 300 05:30 24.03.2022
4621 Clouds 32 1006 58 10000 7.72 300 05:30 24.03.2022
4622 Clouds 27 1009 78 10000 5.14 330 23:59 23.03.2022
4623 Clouds 25 1008 88 10000 2.28 31 22:19 23.03.2022
4624 Clouds 25 1008 89 10000 2.19 19 21:21 23.03.2022
4625 Clouds 24 1006 94 10000 4.12 330 19:56 23.03.2022
4626 Clouds 24 1006 94 10000 4.12 330 19:25 23.03.2022
4627 Clouds 25 1007 91 10000 3.02 360 17:48 23.03.2022
4628 Clouds 25 1007 91 10000 2.92 358 17:18 23.03.2022
4629 Rain 25 1009 90 10000 2.36 352 15:25 23.03.2022
4630 Rain 25 1009 90 10000 2.36 352 14:47 23.03.2022
4631 Clouds 25 1009 89 10000 2.47 348 13:30 23.03.2022
4632 Clouds 26 1008 94 10000 4.12 40 10:50 23.03.2022
4633 Clouds 28 1006 83 10000 5.14 350 08:21 23.03.2022
4634 Clouds 31 1006 66 10000 5.14 300 05:50 23.03.2022
4635 Clouds 29 1010 74 10000 5.14 320 01:59 23.03.2022
4636 Clouds 28 1009 83 10000 5.14 340 00:25 23.03.2022
4637 Clouds 28 1009 83 10000 5.14 340 00:25 23.03.2022
4638 Clouds 23 1008 100 10000 5.14 330 21:36 22.03.2022
4639 Clouds 24 1008 100 10000 5.14 340 20:57 22.03.2022
4640 Clouds 24 1007 100 10000 2.57 330 19:59 22.03.2022
4641 Clouds 24 1007 100 10000 2.57 330 19:25 22.03.2022
4642 Clouds 25 1006 86 10000 1.76 37 18:45 22.03.2022
4643 Clouds 24 1008 100 10000 2.57 350 17:42 22.03.2022
4644 Clouds 24 1008 100 10000 2.57 310 16:35 22.03.2022
4645 Clouds 24 1009 100 10000 1.54 0 15:37 22.03.2022
4646 Clouds 26 1008 86 10000 1.9 17 15:18 22.03.2022
4647 Clouds 25 1009 94 10000 2.57 320 14:41 22.03.2022
4648 Clouds 25 1009 94 10000 2.57 320 13:42 22.03.2022
4649 Clouds 25 1008 94 10000 5.14 30 11:52 22.03.2022
4650 Rain 26 1007 94 10000 5.14 50 10:53 22.03.2022
4651 Clouds 31 1006 70 10000 6.17 270 08:43 22.03.2022
4652 Clouds 32 1005 66 10000 2.57 270 07:21 22.03.2022
4653 Clouds 30 1008 79 10000 5.14 250 03:55 22.03.2022
4654 Clouds 30 1009 70 10000 3.6 340 00:46 22.03.2022
4655 Clouds 25 1009 94 10000 2.57 340 22:46 21.03.2022
4656 Clouds 24 1008 94 10000 2.57 300 21:20 21.03.2022
4657 Clouds 24 1008 100 10000 2.57 300 20:42 21.03.2022
4658 Clouds 24 1008 100 10000 2.57 300 19:59 21.03.2022
4659 Clouds 24 1008 100 10000 2.57 300 19:35 21.03.2022
4660 Clouds 24 1008 100 10000 2.57 330 18:46 21.03.2022
4661 Clouds 24 1008 100 10000 2.57 330 17:35 21.03.2022
4662 Clouds 25 1008 94 10000 2.57 330 16:58 21.03.2022
4663 Clouds 25 1008 94 10000 2.57 330 16:24 21.03.2022
4664 Clouds 25 1008 94 10000 1.54 330 15:21 21.03.2022
4665 Clouds 25 1009 100 10000 1.54 330 14:28 21.03.2022
4666 Clouds 27 1009 81 10000 1.33 76 12:53 21.03.2022
4667 Clouds 27 1009 80 10000 1.28 89 11:54 21.03.2022
4668 Clouds 29 1007 79 10000 1.54 0 10:49 21.03.2022
4669 Haze 31 1006 74 10000 2.57 120 09:42 21.03.2022
4670 Haze 32 1006 66 10000 5.14 190 07:22 21.03.2022
4671 Haze 33 1007 62 10000 5.14 200 04:54 21.03.2022
4672 Haze 29 1008 74 10000 5.14 350 00:36 21.03.2022
4673 Haze 25 1008 94 10000 2.57 320 22:56 20.03.2022
4674 Clouds 24 1008 100 10000 1.54 310 21:57 20.03.2022
4675 Clouds 24 1008 100 10000 1.54 310 21:30 20.03.2022
4676 Clouds 24 1007 100 10000 2.57 290 20:48 20.03.2022
4677 Clouds 24 1007 100 10000 2.57 290 20:25 20.03.2022
4678 Clouds 24 1007 100 10000 2.57 320 19:43 20.03.2022
4679 Clouds 25 1007 94 10000 2.57 320 18:44 20.03.2022
4680 Clouds 25 1007 100 10000 2.57 350 17:38 20.03.2022
4681 Clear 25 1008 100 10000 2.57 330 16:59 20.03.2022
4682 Clear 26 1009 94 10000 2.57 320 15:56 20.03.2022
4683 Rain 26 1008 86 10000 2.49 90 14:36 20.03.2022
4684 Rain 27 1009 83 10000 2.59 123 13:20 20.03.2022
4685 Drizzle 29 1007 74 10000 1.03 0 11:37 20.03.2022
4686 Rain 30 1006 74 10000 5.14 180 09:58 20.03.2022
4687 Haze 32 1005 66 10000 6.17 200 07:51 20.03.2022
4688 Haze 33 1005 66 10000 7.72 240 05:49 20.03.2022
4689 Clouds 30 1006 67 10000 3.03 236 03:18 20.03.2022
4690 Haze 29 1008 74 10000 2.57 360 00:48 20.03.2022
4691 Haze 27 1008 83 10000 1.03 0 23:21 19.03.2022
4692 Clouds 26 1008 86 10000 2.13 15 21:41 19.03.2022
4693 Clouds 25 1007 85 10000 1.95 13 21:18 19.03.2022
4694 Clouds 26 1006 84 10000 1.7 55 19:21 19.03.2022
4695 Clouds 24 1007 100 10000 3.09 320 18:25 19.03.2022
4696 Clouds 25 1007 94 10000 4.12 330 17:41 19.03.2022
4697 Clouds 25 1007 100 10000 1.54 0 16:29 19.03.2022
4698 Clouds 25 1008 94 10000 1.54 0 15:20 19.03.2022
4699 Clouds 25 1008 94 10000 2.57 110 13:35 19.03.2022
4700 Rain 26 1008 94 10000 5.14 140 12:42 19.03.2022
4701 Clouds 26 1007 94 10000 5.14 280 11:54 19.03.2022
4702 Clouds 26 1007 94 10000 5.14 280 11:33 19.03.2022
4703 Haze 29 1005 84 10000 2.57 190 08:23 19.03.2022
4704 Haze 32 1005 66 10000 7.72 200 04:23 19.03.2022
4705 Haze 33 1005 58 10000 3.09 320 02:30 19.03.2022
4706 Haze 28 1006 83 10000 2.57 320 23:46 18.03.2022
4707 Clouds 26 1006 85 10000 1.5 14 22:29 18.03.2022
4708 Clouds 26 1005 94 10000 3.09 320 21:55 18.03.2022
4709 Clouds 26 1005 94 10000 2.57 320 19:57 18.03.2022
4710 Clouds 26 1004 86 10000 1.09 17 19:22 18.03.2022
4711 Clouds 26 1004 85 10000 0.99 35 18:27 18.03.2022
4712 Clouds 26 1006 94 10000 1.54 0 16:52 18.03.2022
4713 Clouds 27 1006 94 10000 1.54 0 15:43 18.03.2022
4714 Clouds 27 1006 94 10000 1.54 0 15:43 18.03.2022
4715 Clouds 27 1007 83 10000 1.57 104 14:24 18.03.2022
4716 Clouds 27 1006 89 10000 2.57 140 12:39 18.03.2022
4717 Rain 26 1004 94 10000 2.57 140 10:58 18.03.2022
4718 Clouds 28 1004 89 10000 3.6 140 09:30 18.03.2022
4719 Clouds 29 1004 84 10000 5.66 120 08:42 18.03.2022
4720 Clouds 33 1003 62 10000 5.14 260 06:40 18.03.2022
4721 Clouds 33 1006 62 10000 5.14 340 03:19 18.03.2022
4722 Clouds 30 1008 66 10000 4.12 330 00:53 18.03.2022
4723 Clouds 27 1007 83 10000 2.57 330 23:44 17.03.2022
4724 Clouds 25 1006 100 10000 4.12 330 22:25 17.03.2022
4725 Fog 24 1006 100 10000 2.57 330 21:48 17.03.2022
4726 Fog 24 1006 100 10000 2.57 330 21:48 17.03.2022
4727 Fog 24 1006 100 10000 2.57 330 21:26 17.03.2022
4728 Fog 24 1005 100 10000 2.57 330 20:45 17.03.2022
4729 Clouds 25 1005 94 10000 2.57 330 19:50 17.03.2022
4730 Clouds 25 1005 94 10000 2.57 330 19:29 17.03.2022
4731 Clouds 25 1005 100 10000 1.54 0 18:46 17.03.2022
4732 Clouds 26 1006 94 10000 2.57 310 16:58 17.03.2022
4733 Haze 26 1007 94 10000 3.09 310 15:44 17.03.2022
4734 Haze 26 1007 94 10000 3.09 310 15:25 17.03.2022
4735 Haze 26 1007 94 10000 1.54 310 14:29 17.03.2022
4736 Haze 26 1006 94 10000 1.54 50 12:54 17.03.2022
4737 Haze 26 1006 94 10000 1.54 50 12:23 17.03.2022
4738 Haze 27 1006 89 10000 1.54 130 11:27 17.03.2022
4739 Clouds 27 1006 81 10000 3.36 137 10:30 17.03.2022
4740 Rain 29 1004 84 10000 2.57 150 08:37 17.03.2022
4741 Rain 29 1004 79 10000 5.14 150 07:34 17.03.2022
4742 Haze 32 1004 66 10000 7.72 180 05:47 17.03.2022
4743 Clouds 33 1007 62 10000 1.54 0 01:23 17.03.2022
4744 Clouds 28 1008 83 10000 2.57 300 23:50 16.03.2022
4745 Clouds 25 1007 100 10000 1.54 0 22:48 16.03.2022
4746 Clouds 25 1007 100 10000 1.54 0 22:30 16.03.2022
4747 Clouds 25 1007 94 10000 1.54 0 21:39 16.03.2022
4748 Clouds 25 1006 100 10000 1.54 0 19:41 16.03.2022
4749 Clouds 25 1006 86 10000 1.28 94 19:20 16.03.2022
4750 Clouds 25 1005 87 10000 1.03 65 18:36 16.03.2022
4751 Clear 25 1006 100 10000 1.54 0 17:41 16.03.2022
4752 Clouds 26 1006 86 10000 1.38 72 16:56 16.03.2022
4753 Clouds 27 1008 89 10000 2.57 120 15:55 16.03.2022
4754 Clouds 27 1008 89 10000 2.57 130 14:25 16.03.2022
4755 Clouds 26 1008 85 10000 2.22 126 13:27 16.03.2022
4756 Clouds 27 1008 83 10000 2.68 145 11:54 16.03.2022
4757 Clouds 27 1007 82 10000 2.64 155 11:20 16.03.2022
4758 Clouds 27 1007 82 10000 2.03 165 10:22 16.03.2022
4759 Clouds 30 1004 74 10000 5.14 200 08:51 16.03.2022
4760 Clouds 31 1007 70 10000 5.66 200 04:45 16.03.2022
4761 Haze 30 1009 70 10000 2.57 350 00:48 16.03.2022
4762 Clouds 24 1008 100 10000 2.57 320 22:37 15.03.2022
4763 Clouds 24 1007 100 10000 2.57 340 21:52 15.03.2022
4764 Clouds 24 1006 100 10000 2.57 340 19:53 15.03.2022
4765 Clouds 24 1006 100 10000 2.06 0 18:45 15.03.2022
4766 Clouds 25 1008 94 10000 2.06 0 16:52 15.03.2022
4767 Clouds 25 1007 91 10000 2.11 4 16:18 15.03.2022
4768 Clouds 26 1009 94 10000 2.57 350 14:57 15.03.2022
4769 Clouds 26 1009 94 10000 2.57 350 14:31 15.03.2022
4770 Rain 26 1009 88 10000 1.74 343 13:27 15.03.2022
4771 Clouds 27 1008 89 10000 1.54 0 11:56 15.03.2022
4772 Clouds 26 1007 87 10000 2.09 330 11:19 15.03.2022
4773 Haze 28 1006 78 10000 3.09 320 09:31 15.03.2022
4774 Haze 29 1006 74 10000 5.14 300 08:32 15.03.2022
4775 Haze 30 1005 70 10000 5.14 300 07:50 15.03.2022
4776 Haze 31 1005 70 10000 5.14 300 06:35 15.03.2022
4777 Haze 31 1008 70 10000 7.72 310 02:36 15.03.2022
4778 Haze 26 1008 89 10000 2.57 340 23:36 14.03.2022
4779 Clouds 26 1007 82 10000 2.55 347 23:18 14.03.2022
4780 Clouds 24 1005 94 10000 3.09 350 21:57 14.03.2022
4781 Clouds 24 1005 94 10000 3.09 350 21:20 14.03.2022
4782 Clouds 24 1005 94 10000 2.57 340 20:31 14.03.2022
4783 Clouds 24 1004 100 10000 2.57 340 19:47 14.03.2022
4784 Clouds 24 1004 100 10000 2.57 340 18:23 14.03.2022
4785 Clouds 22 1005 100 10000 2.57 340 17:43 14.03.2022
4786 Clouds 25 1006 94 10000 2.57 340 16:54 14.03.2022
4787 Clouds 25 1006 100 10000 2.06 320 15:20 14.03.2022
4788 Clouds 27 1006 84 10000 2.47 111 13:59 14.03.2022
4789 Rain 27 1005 82 10000 2.56 136 11:27 14.03.2022
4790 Haze 29 1004 79 10000 5.14 50 09:58 14.03.2022
4791 Haze 29 1004 79 10000 5.14 50 09:38 14.03.2022
4792 Haze 29 1004 79 10000 5.14 50 09:18 14.03.2022
4793 Haze 29 1004 84 10000 5.14 130 08:46 14.03.2022
4794 Haze 31 1004 74 10000 5.14 180 07:19 14.03.2022
4795 Clouds 33 1006 66 10000 7.72 210 03:36 14.03.2022
4796 Clouds 32 1007 70 10000 4.12 360 01:42 14.03.2022
4797 Clouds 30 1007 79 10000 5.14 310 00:29 14.03.2022
4798 Clouds 25 1005 94 10000 3.09 320 21:51 13.03.2022
4799 Clouds 25 1005 94 10000 3.09 320 21:22 13.03.2022
4800 Clouds 25 1005 94 10000 2.57 320 20:46 13.03.2022
4801 Clouds 25 1005 94 10000 2.57 320 20:22 13.03.2022
4802 Clouds 25 1005 94 10000 1.54 320 19:42 13.03.2022
4803 Clouds 25 1005 94 10000 1.54 320 19:42 13.03.2022
4804 Clouds 25 1005 94 10000 1.54 320 19:22 13.03.2022
4805 Clouds 26 1006 94 10000 1.54 330 18:45 13.03.2022
4806 Clouds 26 1006 94 10000 1.54 330 18:26 13.03.2022
4807 Clouds 26 1006 94 10000 1.03 330 17:38 13.03.2022
4808 Clouds 26 1006 90 10000 1.51 21 16:45 13.03.2022
4809 Clouds 26 1007 89 10000 1.55 53 16:23 13.03.2022
4810 Clouds 26 1008 94 10000 1.03 340 15:42 13.03.2022
4811 Clouds 26 1008 94 10000 1.03 0 14:37 13.03.2022
4812 Clouds 27 1008 86 10000 2.37 108 13:28 13.03.2022
4813 Clouds 27 1007 89 10000 1.54 130 12:22 13.03.2022
4814 Clouds 27 1007 89 10000 2.57 130 11:39 13.03.2022
4815 Clouds 28 1006 83 10000 3.6 180 10:49 13.03.2022
4816 Clouds 28 1006 83 10000 3.6 180 10:28 13.03.2022
4817 Clouds 29 1005 79 10000 5.14 190 09:42 13.03.2022
4818 Clouds 31 1005 70 10000 5.14 200 08:49 13.03.2022
4819 Clouds 31 1005 70 10000 5.14 200 08:49 13.03.2022
4820 Clouds 31 1005 70 10000 5.14 200 08:23 13.03.2022
4821 Clouds 32 1005 70 10000 5.14 220 06:40 13.03.2022
4822 Clouds 33 1007 66 10000 5.14 180 04:51 13.03.2022
4823 Clouds 30 1009 74 10000 1.54 0 01:46 13.03.2022
4824 Clouds 23 1008 100 10000 2.06 310 22:51 12.03.2022
4825 Clouds 23 1007 94 10000 2.57 320 21:29 12.03.2022
4826 Clouds 25 1007 87 10000 1.69 57 20:18 12.03.2022
4827 Clouds 25 1007 87 10000 1.69 57 19:43 12.03.2022
4828 Clouds 25 1007 88 10000 1.29 52 18:34 12.03.2022
4829 Clouds 23 1007 100 10000 2.57 320 17:48 12.03.2022
4830 Clouds 25 1007 88 10000 1.29 64 16:28 12.03.2022
4831 Clouds 24 1008 94 10000 1.54 0 15:25 12.03.2022
4832 Clouds 24 1008 94 10000 1.54 0 14:52 12.03.2022
4833 Clouds 24 1008 100 10000 2.57 320 13:53 12.03.2022
4834 Rain 24 1009 100 10000 2.57 320 12:25 12.03.2022
4835 Rain 24 1009 100 10000 2.57 340 11:51 12.03.2022
4836 Rain 24 1009 100 10000 2.57 340 11:20 12.03.2022
4837 Rain 26 1008 94 10000 5.14 30 09:58 12.03.2022
4838 Rain 26 1008 94 10000 5.14 30 09:39 12.03.2022
4839 Clouds 27 1006 82 10000 1.58 270 07:51 12.03.2022
4840 Clouds 28 1006 89 10000 5.14 260 05:20 12.03.2022
4841 Clouds 26 1009 94 10000 3.6 320 00:24 12.03.2022
4842 Rain 25 1008 94 10000 4.12 340 23:28 11.03.2022
4843 Clouds 24 1007 94 10000 5.14 320 21:48 11.03.2022
4844 Clouds 24 1006 94 10000 4.12 320 20:58 11.03.2022
4845 Clouds 24 1006 94 10000 4.12 320 20:37 11.03.2022
4846 Clouds 24 1006 94 10000 3.09 330 19:53 11.03.2022
4847 Clouds 24 1006 94 10000 3.09 330 19:26 11.03.2022
4848 Clouds 24 1007 94 10000 3.09 330 17:34 11.03.2022
4849 Clouds 24 1007 91 10000 1.25 345 16:42 11.03.2022
4850 Clouds 24 1008 100 10000 2.57 340 15:57 11.03.2022
4851 Clouds 25 1008 94 10000 2.57 330 14:22 11.03.2022
4852 Rain 25 1008 94 10000 2.57 30 12:53 11.03.2022
4853 Rain 25 1008 94 10000 2.57 30 12:21 11.03.2022
4854 Rain 25 1007 94 10000 2.57 30 11:55 11.03.2022
4855 Rain 26 1006 88 2737 1.83 24 10:18 11.03.2022
4856 Rain 28 1006 83 10000 5.14 130 08:57 11.03.2022
4857 Rain 28 1006 83 10000 5.14 130 08:24 11.03.2022
4858 Rain 30 1005 74 10000 5.14 180 07:45 11.03.2022
4859 Clouds 32 1005 66 10000 7.72 220 05:44 11.03.2022
4860 Clouds 29 1006 74 10000 2.18 242 03:48 11.03.2022
4861 Clouds 25 1008 94 10000 3.6 320 23:38 10.03.2022
4862 Clouds 24 1008 94 10000 2.57 330 22:30 10.03.2022
4863 Clouds 23 1007 100 10000 2.57 310 21:40 10.03.2022
4864 Clouds 23 1007 100 10000 2.57 310 21:18 10.03.2022
4865 Clouds 23 1007 100 10000 1.54 0 19:43 10.03.2022
4866 Clouds 23 1007 100 10000 0 0 18:40 10.03.2022
4867 Rain 24 1007 92 10000 1.34 50 17:19 10.03.2022
4868 Clouds 24 1008 93 10000 1.98 16 15:50 10.03.2022
4869 Clouds 23 1008 100 10000 2.57 320 14:39 10.03.2022
4870 Clouds 24 1008 94 10000 2.57 330 12:53 10.03.2022
4871 Clouds 24 1007 94 10000 4.12 310 11:57 10.03.2022
4872 Rain 24 1008 94 10000 2.57 330 10:50 10.03.2022
4873 Rain 25 1006 94 8000 7.72 150 08:55 10.03.2022
4874 Rain 29 1005 79 10000 7.72 180 06:58 10.03.2022
4875 Haze 32 1008 70 10000 5.14 260 03:52 10.03.2022
4876 Haze 28 1009 78 10000 2.57 320 00:51 10.03.2022
4877 Clouds 25 1009 94 10000 2.57 320 22:46 09.03.2022
4878 Clouds 25 1008 94 10000 2.57 320 21:48 09.03.2022
4879 Clouds 25 1008 94 10000 2.57 320 21:24 09.03.2022
4880 Clouds 25 1008 94 10000 2.06 320 19:42 09.03.2022
4881 Clouds 25 1008 94 10000 1.03 0 18:25 09.03.2022
4882 Clouds 26 1007 86 10000 1.19 83 17:26 09.03.2022
4883 Clouds 26 1008 86 10000 1.29 91 16:24 09.03.2022
4884 Rain 26 1008 85 10000 1.43 105 14:32 09.03.2022
4885 Rain 26 1009 85 10000 1.55 113 13:52 09.03.2022
4886 Rain 26 1009 84 10000 1.47 103 12:36 09.03.2022
4887 Rain 26 1009 84 10000 1.42 108 11:48 09.03.2022
4888 Rain 26 1009 83 10000 1.16 137 11:18 09.03.2022
4889 Drizzle 25 1008 94 10000 5.14 330 09:41 09.03.2022
4890 Drizzle 28 1007 83 10000 2.57 320 08:47 09.03.2022
4891 Drizzle 30 1006 79 10000 6.69 200 06:27 09.03.2022
4892 Haze 32 1009 58 10000 2.57 300 01:53 09.03.2022
4893 Haze 29 1010 79 10000 2.57 30 00:22 09.03.2022
4894 Haze 25 1009 94 10000 2.57 300 22:46 08.03.2022
4895 Clouds 24 1008 94 10000 2.57 350 21:52 08.03.2022
4896 Clouds 24 1008 94 10000 2.57 350 21:21 08.03.2022
4897 Clouds 24 1008 100 10000 2.57 0 20:22 08.03.2022
4898 Clouds 25 1006 85 10000 1.08 76 19:21 08.03.2022
4899 Clouds 25 1006 85 10000 1.11 78 18:22 08.03.2022
4900 Clouds 24 1008 100 10000 2.06 0 16:42 08.03.2022
4901 Clouds 25 1010 94 10000 1.54 0 14:57 08.03.2022
4902 Clouds 26 1009 85 10000 1.9 82 13:45 08.03.2022
4903 Clouds 27 1009 82 10000 1.08 121 12:20 08.03.2022
4904 Clouds 27 1008 94 10000 1.54 0 11:42 08.03.2022
4905 Clouds 28 1007 83 10000 3.09 170 10:28 08.03.2022
4906 Haze 30 1005 74 10000 5.14 180 08:56 08.03.2022
4907 Haze 31 1005 66 10000 7.72 260 06:30 08.03.2022
4908 Clouds 29 1007 70 10000 2.78 232 02:37 08.03.2022
4909 Clouds 25 1008 94 10000 2.57 310 22:43 07.03.2022
4910 Clouds 24 1008 100 10000 1.54 350 21:44 07.03.2022
4911 Clouds 24 1007 100 10000 1.54 320 20:56 07.03.2022
4912 Clouds 25 1006 87 10000 1.23 55 20:29 07.03.2022
4913 Clouds 25 1006 94 10000 2.06 340 19:48 07.03.2022
4914 Clouds 25 1007 94 10000 2.06 320 18:50 07.03.2022
4915 Clouds 25 1006 90 10000 1.67 44 18:28 07.03.2022
4916 Clouds 26 1007 94 10000 1.54 320 16:56 07.03.2022
4917 Clouds 26 1007 94 10000 1.54 320 16:37 07.03.2022
4918 Haze 27 1009 94 10000 1.54 0 14:41 07.03.2022
4919 Clouds 27 1007 89 10000 1.03 0 12:34 07.03.2022
4920 Clouds 28 1007 83 10000 1.03 0 11:21 07.03.2022
4921 Haze 28 1006 83 10000 2.57 220 10:26 07.03.2022
4922 Haze 32 1004 66 10000 5.14 260 07:42 07.03.2022
4923 Haze 29 1009 79 10000 5.14 320 00:37 07.03.2022
4924 Clouds 27 1009 79 10000 1.24 348 00:19 07.03.2022
4925 Clouds 26 1009 85 10000 1.76 18 23:19 06.03.2022
4926 Clouds 25 1009 94 10000 4.12 320 22:25 06.03.2022
4927 Clouds 25 1007 94 10000 5.14 320 20:56 06.03.2022
4928 Clouds 25 1007 94 10000 5.14 320 20:28 06.03.2022
4929 Clouds 25 1007 94 10000 2.57 340 19:31 06.03.2022
4930 Clouds 25 1007 94 10000 2.57 340 18:40 06.03.2022
4931 Clouds 24 1007 100 10000 2.57 320 17:22 06.03.2022
4932 Clouds 25 1008 94 10000 2.57 340 16:52 06.03.2022
4933 Clouds 25 1008 94 10000 2.57 340 16:24 06.03.2022
4934 Clouds 25 1008 86 10000 1.92 31 15:19 06.03.2022
4935 Clouds 25 1008 86 10000 1.92 31 14:41 06.03.2022
4936 Rain 25 1009 86 10000 1.83 76 13:47 06.03.2022
4937 Rain 26 1009 84 10000 1.59 93 12:36 06.03.2022
4938 Rain 26 1007 89 10000 5.14 40 11:30 06.03.2022
4939 Haze 26 1007 89 10000 5.14 50 10:30 06.03.2022
4940 Haze 31 1005 70 10000 5.14 160 08:51 06.03.2022
4941 Haze 31 1005 70 10000 5.14 160 08:27 06.03.2022
4942 Clouds 32 1005 62 10000 5.14 200 06:33 06.03.2022
4943 Haze 28 1008 83 10000 1.54 330 01:32 06.03.2022
4944 Haze 27 1009 89 10000 2.06 330 00:33 06.03.2022
4945 Haze 26 1008 89 10000 1.54 0 23:41 05.03.2022
4946 Clouds 26 1008 82 10000 0.57 113 23:18 05.03.2022
4947 Haze 25 1008 94 10000 1.54 0 22:25 05.03.2022
4948 Clouds 24 1007 94 10000 1.54 0 21:24 05.03.2022
4949 Clouds 26 1006 84 10000 1.55 94 19:53 05.03.2022
4950 Clouds 26 1006 84 10000 1.32 87 18:56 05.03.2022
4951 Clouds 26 1005 83 10000 1.72 94 18:27 05.03.2022
4952 Clouds 26 1005 83 10000 1.99 108 16:52 05.03.2022
4953 Clouds 26 1008 89 10000 1.54 0 15:40 05.03.2022
4954 Clouds 25 1008 94 10000 1.54 0 14:52 05.03.2022
4955 Clouds 27 1007 82 10000 2.13 114 14:33 05.03.2022
4956 Clouds 27 1008 81 10000 2.08 120 13:22 05.03.2022
4957 Clouds 26 1007 94 10000 1.45 74 11:48 05.03.2022
4958 Rain 27 1007 84 10000 1.96 118 11:19 05.03.2022
4959 Haze 26 1006 94 10000 2.06 340 10:20 05.03.2022
4960 Haze 28 1006 78 10000 2.57 350 09:22 05.03.2022
4961 Clouds 30 1005 70 10000 2.06 200 07:51 05.03.2022
4962 Clouds 32 1005 62 10000 7.72 200 05:43 05.03.2022
4963 Clouds 31 1007 70 10000 5.14 210 03:49 05.03.2022
4964 Clouds 26 1008 94 10000 2.57 310 23:38 04.03.2022
4965 Clouds 25 1007 94 10000 2.57 290 22:42 04.03.2022
4966 Clouds 25 1007 94 10000 2.57 290 22:19 04.03.2022
4967 Clouds 24 1006 100 10000 2.57 320 20:56 04.03.2022
4968 Clouds 24 1006 100 10000 2.57 320 20:27 04.03.2022
4969 Clouds 25 1005 94 10000 0 0 19:36 04.03.2022
4970 Clouds 25 1006 94 10000 2.57 320 18:45 04.03.2022
4971 Clouds 25 1006 100 10000 2.57 320 17:39 04.03.2022
4972 Clouds 26 1008 94 10000 1.54 0 16:54 04.03.2022
4973 Clouds 26 1008 94 10000 1.54 0 15:29 04.03.2022
4974 Rain 25 1009 86 10000 2.18 52 14:33 04.03.2022
4975 Haze 26 1009 94 10000 1.54 300 13:26 04.03.2022
4976 Haze 26 1008 94 10000 2.57 340 11:46 04.03.2022
4977 Haze 27 1007 89 10000 2.57 320 10:52 04.03.2022
4978 Haze 30 1006 70 10000 5.14 260 09:52 04.03.2022
4979 Haze 30 1006 70 10000 5.14 260 08:39 04.03.2022
4980 Clouds 28 1006 74 10000 1.95 273 07:36 04.03.2022
4981 Clouds 33 1009 55 10000 6.17 270 03:56 04.03.2022
4982 Clouds 29 1010 74 10000 3.09 320 00:28 04.03.2022
4983 Clouds 24 1009 100 10000 2.57 310 22:27 03.03.2022
4984 Clouds 24 1008 94 10000 2.57 320 21:42 03.03.2022
4985 Clouds 24 1008 94 10000 2.57 320 21:24 03.03.2022
4986 Clouds 24 1008 94 10000 2.57 320 19:52 03.03.2022
4987 Clouds 24 1007 94 10000 2.57 330 18:54 03.03.2022
4988 Clouds 25 1007 86 10000 1.41 32 18:24 03.03.2022
4989 Clouds 24 1008 94 10000 2.57 330 17:30 03.03.2022
4990 Clouds 25 1008 86 10000 2.09 23 16:24 03.03.2022
4991 Clouds 25 1009 94 10000 1.54 0 15:23 03.03.2022
4992 Clouds 26 1010 89 10000 1.54 0 14:43 03.03.2022
4993 Clouds 26 1010 83 10000 1.41 36 13:24 03.03.2022
4994 Clouds 26 1009 89 10000 1.54 0 12:21 03.03.2022
4995 Clouds 28 1007 78 10000 5.14 300 10:47 03.03.2022
4996 Haze 29 1007 70 10000 7.72 280 09:38 03.03.2022
4997 Haze 31 1006 66 10000 6.17 270 07:48 03.03.2022
4998 Haze 32 1006 62 10000 7.72 270 06:35 03.03.2022
4999 Clouds 31 1010 66 10000 5.14 320 02:23 03.03.2022
5000 Clouds 23 1009 94 10000 3.09 320 23:31 02.03.2022
5001 Clouds 23 1009 94 10000 3.6 320 22:52 02.03.2022
5002 Clouds 23 1008 94 10000 5.14 330 21:32 02.03.2022
5003 Clouds 22 1008 100 10000 2.57 300 20:46 02.03.2022
5004 Clouds 22 1008 100 10000 2.57 300 20:24 02.03.2022
5005 Clouds 23 1007 94 10000 1.54 320 19:36 02.03.2022
5006 Clouds 23 1007 100 10000 1.54 350 18:46 02.03.2022
5007 Clouds 23 1008 100 10000 2.57 320 17:59 02.03.2022
5008 Clouds 23 1008 100 10000 2.57 320 17:28 02.03.2022
5009 Clouds 24 1008 94 10000 2.57 330 16:51 02.03.2022
5010 Clouds 24 1009 94 10000 1.54 0 14:45 02.03.2022
5011 Clouds 26 1009 75 10000 1.85 354 13:24 02.03.2022
5012 Clouds 25 1008 94 10000 1.54 0 12:43 02.03.2022
5013 Rain 25 1007 88 10000 2.57 300 11:47 02.03.2022
5014 Clouds 25 1007 88 10000 2.57 300 11:24 02.03.2022
5015 Clouds 25 1008 81 10000 3.49 3 09:46 02.03.2022
5016 Rain 26 1006 89 10000 5.14 340 08:59 02.03.2022
5017 Haze 25 1008 94 10000 5.14 10 07:39 02.03.2022
5018 Drizzle 25 1009 94 4000 2.57 280 06:51 02.03.2022
5019 Clouds 26 1010 89 10000 2.57 330 02:54 02.03.2022
5020 Rain 23 1011 100 5000 7.72 340 23:55 01.03.2022
5021 Rain 23 1010 100 5000 7.72 340 22:46 01.03.2022
5022 Rain 23 1009 100 3000 5.14 290 22:19 01.03.2022
5023 Rain 24 1009 100 4000 5.14 280 21:25 01.03.2022
5024 Rain 25 1008 81 10000 2.98 345 20:30 01.03.2022
5025 Rain 25 1008 81 10000 2.98 345 20:30 01.03.2022
5026 Rain 25 1008 81 10000 2.98 345 20:30 01.03.2022
5027 Rain 25 1008 81 10000 2.98 345 20:30 01.03.2022
5028 Clouds 24 1007 100 10000 3.09 300 19:38 01.03.2022
5029 Clouds 24 1007 94 10000 1.54 0 18:49 01.03.2022
5030 Clouds 24 1007 94 10000 1.54 0 18:20 01.03.2022
5031 Clouds 24 1007 100 10000 2.57 310 17:22 01.03.2022
5032 Clouds 24 1008 94 10000 2.57 310 16:33 01.03.2022
5033 Clouds 25 1009 94 10000 3.09 300 15:38 01.03.2022
5034 Clouds 26 1008 79 10000 2.19 5 14:35 01.03.2022
5035 Clouds 25 1008 94 10000 4.12 350 13:53 01.03.2022
5036 Clouds 25 1008 94 10000 4.12 350 13:24 01.03.2022
5037 Clouds 25 1008 100 10000 3.6 340 12:32 01.03.2022
5038 Clouds 27 1006 89 10000 2.57 320 10:36 01.03.2022
5039 Rain 29 1005 74 10000 5.14 350 08:42 01.03.2022
5040 Rain 30 1005 70 10000 5.14 330 07:52 01.03.2022
5041 Rain 30 1007 70 10000 5.14 320 05:54 01.03.2022
5042 Rain 26 1010 89 10000 5.14 10 02:33 01.03.2022
5043 Rain 25 1011 83 10000 5.14 350 00:34 01.03.2022
5044 Rain 27 1010 79 10000 6.5 311 23:30 28.02.2022
5045 Rain 24 1009 88 10000 7.72 340 22:18 28.02.2022
5046 Rain 24 1008 94 10000 3.6 320 21:25 28.02.2022
5047 Rain 25 1007 94 10000 5.14 320 19:55 28.02.2022
5048 Rain 25 1007 94 10000 5.14 320 19:33 28.02.2022
5049 Rain 25 1007 82 10000 3.31 345 18:43 28.02.2022
5050 Clouds 25 1008 94 10000 5.14 330 17:30 28.02.2022
5051 Rain 25 1008 94 10000 3.09 340 16:33 28.02.2022
5052 Clouds 25 1008 94 10000 1.54 0 15:24 28.02.2022
5053 Clouds 25 1008 83 10000 2.63 339 14:31 28.02.2022
5054 Clouds 25 1009 83 10000 2.34 358 13:47 28.02.2022
5055 Clouds 26 1009 81 10000 2.88 9 12:47 28.02.2022
5056 Clouds 27 1008 89 10000 2.57 340 11:57 28.02.2022
5057 Rain 27 1007 83 10000 2.57 310 10:48 28.02.2022
5058 Rain 27 1007 83 10000 2.57 310 10:20 28.02.2022
5059 Rain 28 1007 83 10000 3.6 330 09:32 28.02.2022
5060 Clouds 29 1006 74 10000 5.14 350 08:29 28.02.2022
5061 Haze 29 1006 74 10000 2.57 310 07:28 28.02.2022
5062 Haze 31 1007 70 10000 7.72 270 04:55 28.02.2022
5063 Clouds 29 1008 68 10000 3.67 288 04:26 28.02.2022
5064 Clouds 26 1008 83 10000 3.09 40 23:42 27.02.2022
5065 Clouds 25 1008 88 10000 5.14 20 22:34 27.02.2022
5066 Clouds 27 1008 78 10000 5.14 340 21:51 27.02.2022
5067 Clouds 25 1008 78 10000 2.76 330 21:21 27.02.2022
5068 Clouds 26 1008 83 10000 7.72 280 20:32 27.02.2022
5069 Clouds 24 1007 94 10000 2.57 340 19:58 27.02.2022
5070 Clouds 26 1007 79 10000 2.84 336 19:27 27.02.2022
5071 Clouds 23 1007 100 10000 5.14 320 18:47 27.02.2022
5072 Clouds 25 1007 81 10000 3.34 329 17:56 27.02.2022
5073 Clouds 26 1007 81 10000 3.31 321 17:18 27.02.2022
5074 Clouds 26 1007 81 10000 3.5 318 16:21 27.02.2022
5075 Clouds 25 1009 88 10000 3.82 345 13:34 27.02.2022
5076 Clouds 25 1009 88 10000 4.12 340 12:33 27.02.2022
5077 Clouds 27 1008 74 10000 5.14 340 10:59 27.02.2022
5078 Clouds 27 1007 78 10000 6.11 303 10:20 27.02.2022
5079 Haze 29 1007 70 10000 7.72 320 09:50 27.02.2022
5080 Haze 29 1007 70 10000 7.72 320 09:20 27.02.2022
5081 Haze 30 1006 70 10000 8.23 290 07:54 27.02.2022
5082 Haze 32 1006 58 10000 7.72 300 05:38 27.02.2022
5083 Haze 30 1009 62 10000 5.14 330 02:21 27.02.2022
5084 Clouds 26 1009 78 10000 5.14 300 23:23 26.02.2022
5085 Clouds 22 1008 94 10000 3.6 310 21:58 26.02.2022
5086 Clouds 22 1008 94 10000 3.6 310 20:59 26.02.2022
5087 Clouds 22 1008 94 10000 3.6 310 20:20 26.02.2022
5088 Clouds 23 1008 94 10000 3.6 330 19:50 26.02.2022
5089 Clouds 23 1008 94 10000 3.6 330 19:26 26.02.2022
5090 Clouds 23 1008 94 10000 3.09 330 17:52 26.02.2022
5091 Clouds 23 1008 94 10000 3.09 330 17:28 26.02.2022
5092 Clouds 24 1008 82 10000 3.14 350 15:57 26.02.2022
5093 Clouds 24 1008 81 10000 2.76 352 15:25 26.02.2022
5094 Clouds 23 1009 100 10000 2.57 330 14:55 26.02.2022
5095 Clouds 23 1009 100 10000 2.57 330 14:36 26.02.2022
5096 Clouds 24 1009 94 10000 2.57 330 13:24 26.02.2022
5097 Clouds 24 1009 94 10000 2.57 330 12:31 26.02.2022
5098 Rain 24 1010 88 10000 4.2 14 11:29 26.02.2022
5099 Rain 25 1008 94 10000 2.57 330 10:51 26.02.2022
5100 Rain 25 1007 94 10000 5.14 330 08:59 26.02.2022
5101 Rain 25 1008 94 10000 5.14 320 07:37 26.02.2022
5102 Drizzle 26 1010 83 10000 7.72 330 01:53 26.02.2022
5103 Rain 24 1008 88 10000 7.72 350 22:57 25.02.2022
5104 Rain 25 1007 83 10000 5.14 340 21:46 25.02.2022
5105 Rain 25 1007 83 10000 5.14 340 21:26 25.02.2022
5106 Rain 23 1006 94 10000 5.14 320 20:33 25.02.2022
5107 Rain 24 1007 88 10000 4.72 327 19:21 25.02.2022
5108 Rain 23 1005 95 1894 7.27 340 17:30 25.02.2022
5109 Rain 24 1006 88 7054 7.2 309 16:35 25.02.2022
5110 Clouds 25 1006 81 10000 7.68 320 15:48 25.02.2022
5111 Clouds 26 1007 78 10000 8.06 336 15:22 25.02.2022
5112 Clouds 24 1009 88 10000 5.14 320 14:42 25.02.2022
5113 Clouds 24 1009 94 10000 4.12 340 13:51 25.02.2022
5114 Clouds 25 1008 83 10000 6.88 327 13:19 25.02.2022
5115 Clouds 24 1008 94 10000 6.17 330 11:28 25.02.2022
5116 Clouds 23 1008 100 10000 6.17 330 10:43 25.02.2022
5117 Clouds 23 1008 100 10000 6.17 330 10:22 25.02.2022
5118 Clouds 24 1007 94 10000 7.72 330 09:30 25.02.2022
5119 Clouds 28 1005 78 10000 12.86 270 07:42 25.02.2022
5120 Clouds 33 1005 49 10000 11.18 324 05:51 25.02.2022
5121 Haze 32 1006 51 10000 10.29 330 04:41 25.02.2022
5122 Clouds 29 1007 61 10000 5.14 320 00:22 25.02.2022
5123 Clouds 24 1006 88 10000 3.6 330 21:58 24.02.2022
5124 Clouds 24 1006 88 10000 3.6 330 21:58 24.02.2022
5125 Clouds 24 1006 88 10000 3.6 330 21:39 24.02.2022
5126 Clouds 25 1005 80 10000 6.88 330 21:19 24.02.2022
5127 Clouds 25 1005 83 10000 6.69 330 19:53 24.02.2022
5128 Clouds 25 1005 83 10000 5.14 330 18:45 24.02.2022
5129 Clouds 26 1004 81 10000 7.33 331 18:19 24.02.2022
5130 Clouds 26 1006 73 10000 5.14 320 17:40 24.02.2022
5131 Clouds 26 1006 73 10000 5.14 340 16:50 24.02.2022
5132 Clouds 26 1006 73 10000 5.14 340 16:24 24.02.2022
5133 Clouds 25 1007 88 10000 5.14 320 14:56 24.02.2022
5134 Rain 25 1007 88 10000 5.14 320 14:36 24.02.2022
5135 Rain 26 1008 82 10000 5.22 326 13:40 24.02.2022
5136 Rain 26 1008 80 10000 4.64 320 13:21 24.02.2022
5137 Clouds 27 1006 74 10000 5.14 340 10:41 24.02.2022
5138 Clouds 29 1006 65 10000 5.14 340 09:24 24.02.2022
5139 Clouds 31 1005 58 10000 2.57 340 08:41 24.02.2022
5140 Haze 31 1007 62 10000 10.29 340 05:59 24.02.2022
5141 Haze 28 1009 78 10000 5.14 310 02:59 24.02.2022
5142 Clouds 23 1011 100 10000 2.57 340 23:40 23.02.2022
5143 Clouds 24 1009 94 10000 7.72 350 21:53 23.02.2022
5144 Clouds 23 1009 94 8245 5.4 354 20:32 23.02.2022
5145 Clouds 25 1008 94 10000 5.14 340 19:49 23.02.2022
5146 Clouds 24 1008 87 10000 5.07 338 18:42 23.02.2022
5147 Clouds 24 1007 100 10000 2.57 330 17:45 23.02.2022
5148 Rain 24 1009 100 10000 2.57 0 15:26 23.02.2022
5149 Rain 24 1010 100 10000 2.57 0 13:28 23.02.2022
5150 Clouds 24 1010 100 10000 2.57 0 12:24 23.02.2022
5151 Rain 25 1009 94 8000 2.57 100 10:44 23.02.2022
5152 Rain 26 1008 87 10000 6.05 318 09:00 23.02.2022
5153 Clouds 25 1007 94 5000 5.14 280 08:23 23.02.2022
5154 Clouds 26 1007 86 7981 7.3 310 07:18 23.02.2022
5155 Rain 27 1010 83 10000 5.14 330 01:21 23.02.2022
5156 Rain 25 1009 94 10000 2.57 330 23:39 22.02.2022
5157 Rain 24 1009 100 10000 2.57 330 22:51 22.02.2022
5158 Clouds 24 1008 94 10000 5.14 320 21:51 22.02.2022
5159 Clouds 24 1008 94 10000 5.14 320 21:31 22.02.2022
5160 Clouds 24 1008 94 10000 5.14 330 20:59 22.02.2022
5161 Clouds 24 1008 94 10000 5.14 330 20:31 22.02.2022
5162 Clouds 24 1007 100 10000 6.17 340 19:47 22.02.2022
5163 Clouds 24 1007 100 10000 6.17 340 19:28 22.02.2022
5164 Clouds 24 1006 100 10000 5.14 340 18:21 22.02.2022
5165 Clouds 25 1007 90 10000 3.35 0 17:24 22.02.2022
5166 Clouds 24 1007 100 10000 5.14 320 16:41 22.02.2022
5167 Clouds 25 1008 94 10000 5.14 350 15:56 22.02.2022
5168 Clouds 25 1008 91 10000 2.65 6 14:45 22.02.2022
5169 Rain 25 1008 94 10000 2.57 350 12:44 22.02.2022
5170 Rain 26 1007 94 10000 5.14 30 10:53 22.02.2022
5171 Haze 30 1004 70 10000 4.63 270 08:48 22.02.2022
5172 Haze 32 1004 62 10000 7.72 200 07:27 22.02.2022
5173 Haze 33 1004 58 10000 5.14 190 05:57 22.02.2022
5174 Haze 32 1007 58 10000 5.14 140 02:45 22.02.2022
5175 Clouds 24 1006 94 10000 2.06 310 22:46 21.02.2022
5176 Clouds 24 1006 94 10000 5.14 330 21:42 21.02.2022
5177 Clouds 23 1005 100 10000 2.57 330 20:36 21.02.2022
5178 Clouds 26 1004 87 10000 1.23 41 18:46 21.02.2022
5179 Clouds 25 1006 94 10000 5.14 320 17:36 21.02.2022
5180 Rain 26 1006 84 10000 1.14 72 15:22 21.02.2022
5181 Rain 26 1007 94 10000 2.57 330 14:21 21.02.2022
5182 Rain 26 1007 94 10000 2.57 330 14:21 21.02.2022
5183 Rain 26 1007 94 10000 2.57 340 13:22 21.02.2022
5184 Rain 26 1007 94 10000 2.57 340 12:23 21.02.2022
5185 Clouds 27 1006 83 10000 2.06 0 11:19 21.02.2022
5186 Haze 29 1004 74 10000 4.12 250 09:34 21.02.2022
5187 Clouds 32 1003 58 10000 5.24 263 05:35 21.02.2022
5188 Clouds 26 1008 89 7000 7.72 320 23:41 20.02.2022
5189 Clouds 25 1007 94 10000 5.14 320 22:25 20.02.2022
5190 Clouds 25 1006 94 10000 5.14 330 21:42 20.02.2022
5191 Clouds 25 1005 94 10000 5.14 330 20:53 20.02.2022
5192 Clouds 25 1005 94 10000 5.14 330 20:33 20.02.2022
5193 Clouds 25 1004 84 10000 2.13 15 19:31 20.02.2022
5194 Clouds 25 1004 84 10000 2.13 15 19:31 20.02.2022
5195 Clouds 26 1005 94 10000 5.14 320 18:50 20.02.2022
5196 Clouds 26 1005 94 10000 5.14 320 18:31 20.02.2022
5197 Clouds 26 1005 94 10000 5.14 320 18:31 20.02.2022
5198 Clouds 26 1005 94 10000 2.57 320 17:48 20.02.2022
5199 Clouds 26 1006 94 10000 2.57 320 15:32 20.02.2022
5200 Clouds 24 1006 92 9594 3.18 22 14:41 20.02.2022
5201 Clouds 26 1006 89 10000 3.04 343 13:23 20.02.2022
5202 Clouds 26 1005 90 10000 2.79 357 12:25 20.02.2022
5203 Rain 27 1004 80 10000 2.12 303 10:21 20.02.2022
5204 Rain 28 1004 83 10000 5.14 340 09:53 20.02.2022
5205 Rain 28 1003 89 10000 4.12 320 08:25 20.02.2022
5206 Clouds 29 1007 74 10000 5.14 310 00:54 20.02.2022
5207 Clouds 29 1007 74 10000 5.14 310 00:29 20.02.2022
5208 Clouds 26 1005 94 10000 3.09 320 22:44 19.02.2022
5209 Clouds 26 1005 94 10000 3.09 320 22:21 19.02.2022
5210 Clouds 25 1004 100 10000 2.57 320 20:51 19.02.2022
5211 Clouds 25 1005 100 10000 3.6 320 19:48 19.02.2022
5212 Clouds 25 1005 100 10000 3.6 320 19:25 19.02.2022
5213 Clouds 26 1005 94 10000 3.6 330 18:32 19.02.2022
5214 Clouds 25 1004 86 10000 2.32 7 17:33 19.02.2022
5215 Clouds 25 1006 90 10000 2.53 30 16:22 19.02.2022
5216 Clouds 26 1007 94 10000 1.54 0 14:56 19.02.2022
5217 Rain 26 1007 94 10000 1.54 0 14:37 19.02.2022
5218 Rain 27 1006 89 10000 2.57 340 11:59 19.02.2022
5219 Clouds 27 1006 89 10000 2.57 340 11:36 19.02.2022
5220 Clouds 29 1004 74 10000 5.14 270 09:34 19.02.2022
5221 Clouds 31 1004 70 10000 2.57 330 06:52 19.02.2022
5222 Clouds 31 1008 70 10000 5.14 300 01:39 19.02.2022
5223 Clouds 27 1008 94 10000 2.57 310 23:28 18.02.2022
5224 Clouds 25 1007 94 10000 1.03 0 21:30 18.02.2022
5225 Clouds 25 1006 94 10000 1.54 0 20:33 18.02.2022
5226 Clouds 25 1006 89 10000 2.19 13 19:51 18.02.2022
5227 Clouds 25 1006 100 10000 1.54 0 18:39 18.02.2022
5228 Clouds 25 1005 89 10000 1.58 35 18:19 18.02.2022
5229 Clouds 25 1006 89 10000 1.61 38 17:20 18.02.2022
5230 Clouds 25 1007 100 10000 1.54 0 14:39 18.02.2022
5231 Clouds 26 1008 86 10000 0.97 9 13:47 18.02.2022
5232 Clouds 26 1007 94 10000 1.54 0 12:51 18.02.2022
5233 Clouds 27 1006 89 10000 1.54 0 11:57 18.02.2022
5234 Clouds 28 1006 78 10000 2.57 260 10:47 18.02.2022
5235 Clouds 27 1006 83 10000 3.04 278 09:20 18.02.2022
5236 Haze 30 1005 70 10000 7.72 300 06:48 18.02.2022
5237 Rain 30 1005 70 10000 5.14 330 05:34 18.02.2022
5238 Clouds 24 1008 100 10000 2.57 340 22:39 17.02.2022
5239 Clouds 24 1007 100 10000 2.57 340 21:42 17.02.2022
5240 Clouds 24 1006 94 10000 2.57 330 20:52 17.02.2022
5241 Clouds 24 1006 94 10000 2.57 330 20:33 17.02.2022
5242 Clouds 24 1005 100 10000 2.57 330 19:42 17.02.2022
5243 Clouds 24 1006 100 10000 3.6 340 18:29 17.02.2022
5244 Clouds 24 1006 100 10000 4.12 340 17:45 17.02.2022
5245 Clouds 24 1007 94 10000 2.57 310 15:58 17.02.2022
5246 Rain 24 1008 94 10000 2.57 320 14:30 17.02.2022
5247 Rain 26 1008 83 10000 1.79 5 13:47 17.02.2022
5248 Rain 25 1007 94 10000 5.14 320 11:52 17.02.2022
5249 Rain 25 1006 94 10000 5.14 340 10:57 17.02.2022
5250 Clouds 30 1003 84 10000 2.57 200 07:56 17.02.2022
5251 Clouds 26 1006 89 10000 2.57 340 23:50 16.02.2022
5252 Clouds 24 1006 100 10000 1.54 0 22:36 16.02.2022
5253 Rain 24 1004 94 10000 4.12 320 20:22 16.02.2022
5254 Clouds 24 1003 100 10000 4.12 310 18:56 16.02.2022
5255 Clouds 24 1003 100 10000 4.12 310 18:27 16.02.2022
5256 Clouds 24 1004 100 10000 3.6 320 17:24 16.02.2022
5257 Clouds 25 1006 94 10000 1.54 0 15:23 16.02.2022
5258 Rain 24 1007 84 10000 2.52 77 13:46 16.02.2022
5259 Rain 25 1007 94 10000 5.14 350 12:26 16.02.2022
5260 Rain 26 1006 89 10000 5.14 20 11:46 16.02.2022
5261 Rain 28 1005 83 10000 3.6 110 10:34 16.02.2022
5262 Haze 29 1004 79 10000 5.14 190 09:38 16.02.2022
5263 Haze 33 1002 58 10000 2.57 260 06:43 16.02.2022
5264 Haze 29 1007 70 10000 4.63 340 00:37 16.02.2022
5265 Clouds 24 1006 100 10000 3.09 310 22:34 15.02.2022
5266 Clouds 23 1005 100 10000 2.57 340 21:50 15.02.2022
5267 Clouds 23 1005 100 10000 2.57 340 21:29 15.02.2022
5268 Clouds 23 1005 100 10000 2.57 330 20:58 15.02.2022
5269 Clouds 24 1004 88 10000 1.83 12 20:22 15.02.2022
5270 Clouds 24 1005 94 10000 5.14 320 19:43 15.02.2022
5271 Clouds 23 1004 100 10000 2.57 330 18:25 15.02.2022
5272 Clouds 24 1005 94 10000 2.57 350 17:53 15.02.2022
5273 Clouds 25 1005 88 10000 2.16 7 17:28 15.02.2022
5274 Clouds 24 1006 100 10000 3.09 320 15:36 15.02.2022
5275 Clouds 25 1007 94 10000 1.54 0 13:49 15.02.2022
5276 Clouds 25 1007 94 10000 1.54 0 13:25 15.02.2022
5277 Haze 25 1007 100 10000 5.14 330 11:41 15.02.2022
5278 Clouds 26 1006 87 10000 3.61 110 10:19 15.02.2022
5279 Rain 30 1004 74 10000 2.57 180 07:41 15.02.2022
5280 Haze 30 1005 70 10000 2.57 200 06:45 15.02.2022
5281 Haze 26 1008 83 10000 2.57 340 23:35 14.02.2022
5282 Haze 23 1007 100 10000 1.54 0 21:56 14.02.2022
5283 Clouds 24 1007 89 10000 1.82 10 20:52 14.02.2022
5284 Clouds 24 1007 89 10000 1.64 15 19:46 14.02.2022
5285 Clouds 24 1006 90 10000 1.73 30 19:28 14.02.2022
5286 Clouds 24 1006 94 10000 2.57 300 18:23 14.02.2022
5287 Clouds 25 1007 88 10000 4.12 330 17:27 14.02.2022
5288 Clouds 25 1008 94 10000 4.12 340 16:27 14.02.2022
5289 Clouds 25 1008 86 10000 1.42 95 14:43 14.02.2022
5290 Clouds 25 1009 86 10000 2.04 102 13:34 14.02.2022
5291 Clouds 25 1009 87 10000 3.23 92 12:58 14.02.2022
5292 Clouds 26 1009 84 10000 3.85 108 11:56 14.02.2022
5293 Clouds 26 1009 84 10000 3.85 108 11:38 14.02.2022
5294 Haze 29 1006 70 10000 5.14 160 09:37 14.02.2022
5295 Clouds 28 1005 74 10000 6.21 160 07:37 14.02.2022
5296 Clouds 28 1005 73 10000 6.19 163 07:19 14.02.2022
5297 Haze 25 1008 94 10000 1.54 0 22:48 13.02.2022
5298 Haze 25 1008 94 10000 1.54 0 22:29 13.02.2022
5299 Clouds 25 1007 88 10000 1.54 0 21:48 13.02.2022
5300 Clouds 25 1007 88 10000 1.54 0 20:42 13.02.2022
5301 Clouds 25 1007 88 10000 1.54 0 19:57 13.02.2022
5302 Clouds 24 1007 84 10000 3.22 112 18:57 13.02.2022
5303 Clouds 24 1007 84 10000 3.22 112 18:38 13.02.2022
5304 Clouds 25 1008 88 10000 2.57 100 16:40 13.02.2022
5305 Clear 25 1008 83 10000 3.86 117 15:51 13.02.2022
5306 Clouds 26 1008 83 10000 4.12 150 14:38 13.02.2022
5307 Clear 26 1008 79 10000 4.81 125 13:26 13.02.2022
5308 Clouds 27 1007 78 10000 7.2 150 12:40 13.02.2022
5309 Clouds 28 1006 78 10000 5.66 160 10:40 13.02.2022
5310 Clouds 29 1006 70 10000 5.14 150 09:49 13.02.2022
5311 Clouds 30 1005 66 10000 5.14 150 08:33 13.02.2022
5312 Haze 31 1008 58 10000 2.57 170 01:24 13.02.2022
5313 Haze 28 1009 74 10000 2.57 300 00:21 13.02.2022
5314 Clouds 23 1008 94 10000 3.09 320 22:34 12.02.2022
5315 Clouds 22 1007 100 10000 1.54 320 21:40 12.02.2022
5316 Clouds 22 1006 94 10000 1.54 0 20:55 12.02.2022
5317 Clouds 23 1006 94 10000 1.54 0 19:56 12.02.2022
5318 Clouds 24 1007 85 10000 1.74 46 18:54 12.02.2022
5319 Clouds 24 1007 85 10000 1.74 46 18:54 12.02.2022
5320 Clouds 24 1007 85 10000 1.74 46 18:35 12.02.2022
5321 Clouds 24 1006 85 10000 1.65 43 17:38 12.02.2022
5322 Clouds 24 1007 83 10000 1.35 47 16:44 12.02.2022
5323 Clouds 24 1008 94 10000 2.57 330 15:52 12.02.2022
5324 Clouds 25 1008 81 10000 0.98 72 15:20 12.02.2022
5325 Clouds 25 1009 83 10000 4.12 50 14:25 12.02.2022
5326 Clouds 25 1009 83 10000 4.12 50 14:25 12.02.2022
5327 Clouds 26 1008 74 10000 1.77 162 11:26 12.02.2022
5328 Clouds 28 1007 74 10000 5.14 190 10:29 12.02.2022
5329 Haze 29 1006 70 10000 7.72 210 09:36 12.02.2022
5330 Haze 30 1005 66 10000 6.17 200 08:46 12.02.2022
5331 Clouds 31 1005 58 10000 2.57 210 06:46 12.02.2022
5332 Haze 31 1006 62 10000 6.17 200 04:38 12.02.2022
5333 Clouds 31 1007 55 10000 3.09 280 02:19 12.02.2022
5334 Clouds 25 1008 78 10000 5.14 350 23:20 11.02.2022
5335 Clouds 22 1008 94 10000 3.6 330 22:20 11.02.2022
5336 Clouds 22 1007 94 10000 2.57 300 21:18 11.02.2022
5337 Clear 22 1006 94 10000 1.54 0 20:21 11.02.2022
5338 Clouds 22 1006 94 10000 1.54 0 19:27 11.02.2022
5339 Clouds 23 1006 94 10000 0 0 18:29 11.02.2022
5340 Clouds 24 1007 80 10000 2.11 59 17:26 11.02.2022
5341 Clouds 24 1007 78 10000 1.84 86 16:26 11.02.2022
5342 Clouds 23 1008 94 10000 1.54 0 14:59 11.02.2022
5343 Clouds 23 1008 94 10000 1.54 0 14:37 11.02.2022
5344 Clouds 23 1008 94 10000 1.54 0 14:18 11.02.2022
5345 Clouds 25 1008 83 10000 2.57 150 13:40 11.02.2022
5346 Clouds 26 1009 74 10000 2.11 115 12:37 11.02.2022
5347 Clouds 27 1007 74 10000 5.14 170 10:30 11.02.2022
5348 Clouds 27 1006 66 10000 4.57 160 09:22 11.02.2022
5349 Haze 30 1005 62 10000 5.14 190 08:28 11.02.2022
5350 Haze 31 1005 66 10000 5.14 160 07:39 11.02.2022
5351 Haze 30 1008 58 10000 3.09 350 02:40 11.02.2022
5352 Haze 30 1008 58 10000 3.09 350 02:20 11.02.2022
5353 Haze 25 1009 73 10000 3.09 340 23:36 10.02.2022
5354 Clouds 25 1008 80 10000 3.54 112 21:53 10.02.2022
5355 Clouds 24 1007 82 10000 3.71 110 21:24 10.02.2022
5356 Clouds 21 1007 100 10000 1.54 0 20:48 10.02.2022
5357 Clouds 24 1007 82 10000 3.98 110 19:37 10.02.2022
5358 Clouds 24 1006 82 10000 4.74 117 19:18 10.02.2022
5359 Clouds 25 1007 82 10000 5.09 120 17:39 10.02.2022
5360 Clouds 25 1007 83 10000 5.42 125 17:19 10.02.2022
5361 Clouds 24 1007 94 10000 5.14 140 16:20 10.02.2022
5362 Clouds 25 1008 88 10000 5.14 140 15:33 10.02.2022
5363 Clouds 25 1008 88 10000 3.6 140 14:49 10.02.2022
5364 Clouds 26 1008 82 10000 5.67 124 14:29 10.02.2022
5365 Clouds 26 1008 82 10000 5.67 124 13:33 10.02.2022
5366 Clouds 26 1008 83 10000 3.6 140 12:51 10.02.2022
5367 Clouds 28 1007 78 10000 2.57 140 11:38 10.02.2022
5368 Clouds 28 1007 78 10000 2.57 140 11:20 10.02.2022
5369 Clouds 28 1007 78 10000 5.14 160 10:18 10.02.2022
5370 Clouds 29 1006 79 10000 5.14 160 09:25 10.02.2022
5371 Clouds 31 1005 66 10000 7.72 140 07:36 10.02.2022
5372 Clouds 33 1006 62 10000 7.72 170 05:51 10.02.2022
5373 Clouds 31 1009 66 10000 2.06 0 01:52 10.02.2022
5374 Clouds 29 1009 74 10000 2.06 0 00:50 10.02.2022
5375 Clouds 29 1009 74 10000 2.06 0 00:28 10.02.2022
5376 Clouds 27 1009 83 10000 2.06 0 23:24 09.02.2022
5377 Clouds 25 1009 94 10000 1.54 0 22:36 09.02.2022
5378 Clouds 23 1008 100 10000 1.54 0 21:52 09.02.2022
5379 Clouds 23 1008 100 10000 1.54 0 21:29 09.02.2022
5380 Clouds 24 1007 100 10000 1.03 0 20:48 09.02.2022
5381 Clouds 25 1007 87 10000 3.02 110 20:29 09.02.2022
5382 Clouds 25 1007 87 10000 3.02 110 19:54 09.02.2022
5383 Clouds 25 1007 87 10000 3.02 110 19:31 09.02.2022
5384 Clouds 25 1007 87 10000 3.19 113 17:37 09.02.2022
5385 Clouds 25 1008 94 10000 2.06 0 16:48 09.02.2022
5386 Clouds 26 1008 89 10000 2.06 0 15:50 09.02.2022
5387 Clouds 26 1008 86 10000 2.71 115 14:35 09.02.2022
5388 Clouds 26 1008 84 10000 3.65 120 12:28 09.02.2022
5389 Clouds 28 1008 83 10000 5.14 160 10:54 09.02.2022
5390 Clouds 28 1008 83 10000 5.14 160 10:26 09.02.2022
5391 Haze 29 1007 79 10000 4.38 130 09:40 09.02.2022
5392 Haze 29 1007 79 10000 4.5 145 09:19 09.02.2022
5393 Haze 32 1005 70 10000 4.89 157 07:53 09.02.2022
5394 Haze 33 1006 58 10000 7.72 190 05:30 09.02.2022
5395 Haze 34 1009 59 10000 5.14 160 03:50 09.02.2022
5396 Haze 30 1009 70 10000 5.14 300 00:38 09.02.2022
5397 Haze 28 1009 78 10000 2.57 350 23:31 08.02.2022
5398 Haze 25 1008 94 10000 1.54 0 22:46 08.02.2022
5399 Haze 25 1008 94 10000 1.54 0 22:21 08.02.2022
5400 Haze 25 1008 94 10000 1.54 0 22:21 08.02.2022
5401 Haze 25 1008 94 10000 1.54 0 22:21 08.02.2022
5402 Haze 24 1007 94 10000 1.54 0 21:38 08.02.2022
5403 Haze 24 1007 94 10000 1.54 0 21:20 08.02.2022
5404 Clouds 24 1007 94 10000 1.54 0 20:42 08.02.2022
5405 Clouds 24 1006 94 10000 1.54 0 19:46 08.02.2022
5406 Clouds 25 1006 84 10000 1.46 39 18:35 08.02.2022
5407 Clouds 25 1007 94 10000 1.54 0 17:38 08.02.2022
5408 Clouds 26 1007 83 10000 1.83 98 16:22 08.02.2022
5409 Clouds 26 1009 94 10000 1.54 0 15:29 08.02.2022
5410 Clouds 26 1009 94 10000 2.06 0 14:26 08.02.2022
5411 Clouds 27 1009 89 10000 3.6 180 12:41 08.02.2022
5412 Clouds 27 1008 81 10000 2.12 148 11:28 08.02.2022
5413 Rain 27 1007 78 10000 1.87 156 10:18 08.02.2022
5414 Haze 31 1007 66 10000 5.14 200 09:41 08.02.2022
5415 Haze 32 1005 62 10000 5.14 210 07:37 08.02.2022
5416 Haze 32 1007 62 10000 5.14 210 04:40 08.02.2022
5417 Haze 32 1007 62 10000 5.14 210 04:22 08.02.2022
5418 Haze 33 1008 55 10000 3.08 245 03:37 08.02.2022
5419 Haze 33 1008 55 10000 2.47 242 03:18 08.02.2022
5420 Haze 32 1009 55 10000 1.54 0 02:59 08.02.2022
5421 Haze 32 1009 55 10000 1.54 0 02:37 08.02.2022
5422 Clouds 29 1009 64 10000 2.28 253 02:19 08.02.2022
5423 Haze 31 1010 62 10000 2.06 0 01:55 08.02.2022
5424 Haze 31 1010 62 10000 2.06 0 01:37 08.02.2022
5425 Haze 31 1010 62 10000 2.06 0 01:19 08.02.2022
5426 Haze 29 1010 74 10000 2.57 340 00:44 08.02.2022
5427 Haze 26 1010 89 10000 2.06 320 23:45 07.02.2022
5428 Clouds 26 1009 78 10000 0.87 12 23:18 07.02.2022
5429 Haze 24 1009 94 10000 2.57 300 22:59 07.02.2022
5430 Haze 24 1009 94 10000 2.57 300 22:19 07.02.2022
5431 Clouds 24 1008 94 10000 2.57 310 21:51 07.02.2022
5432 Clouds 24 1008 94 10000 2.57 310 21:28 07.02.2022
5433 Clouds 24 1008 94 10000 2.57 310 20:52 07.02.2022
5434 Clouds 24 1008 94 10000 2.57 310 20:34 07.02.2022
5435 Clouds 24 1007 94 10000 1.54 0 19:47 07.02.2022
5436 Clouds 24 1007 94 10000 1.54 0 19:47 07.02.2022
5437 Clouds 24 1007 94 10000 1.54 0 18:58 07.02.2022
5438 Clouds 25 1008 88 10000 1.54 0 17:38 07.02.2022
5439 Rain 25 1009 88 10000 1.54 0 16:52 07.02.2022
5440 Rain 25 1009 94 10000 1.54 0 15:48 07.02.2022
5441 Clouds 25 1009 94 10000 1.54 0 14:30 07.02.2022
5442 Clouds 26 1010 83 10000 0.65 88 13:27 07.02.2022
5443 Clouds 26 1009 89 10000 1.54 0 12:36 07.02.2022
5444 Clouds 26 1009 89 10000 1.54 0 11:50 07.02.2022
5445 Clouds 26 1009 89 10000 1.54 0 11:24 07.02.2022
5446 Clouds 27 1008 83 10000 2.57 310 10:42 07.02.2022
5447 Clouds 27 1008 83 10000 2.57 310 10:24 07.02.2022
5448 Haze 29 1008 79 10000 5.14 280 09:52 07.02.2022
5449 Haze 29 1008 79 10000 5.14 280 09:18 07.02.2022
5450 Haze 32 1007 58 10000 5.14 280 07:53 07.02.2022
5451 Haze 32 1006 62 10000 7.72 320 06:34 07.02.2022
5452 Haze 31 1008 70 10000 3.6 340 04:49 07.02.2022
5453 Haze 29 1010 70 10000 3.6 330 02:37 07.02.2022
5454 Haze 27 1010 83 10000 5.14 320 00:20 07.02.2022
5455 Rain 26 1010 83 10000 5.14 360 23:20 06.02.2022
5456 Haze 25 1010 88 10000 5.14 360 22:41 06.02.2022
5457 Clouds 24 1009 94 10000 4.12 340 21:38 06.02.2022
5458 Rain 24 1009 94 10000 4.12 340 21:20 06.02.2022
5459 Rain 24 1009 100 10000 4.12 330 20:48 06.02.2022
5460 Clouds 24 1009 100 10000 4.12 330 20:23 06.02.2022
5461 Clouds 25 1008 86 10000 2.82 359 19:18 06.02.2022
5462 Clouds 25 1008 87 10000 2.43 5 18:28 06.02.2022
5463 Clouds 24 1009 94 10000 3.6 320 17:31 06.02.2022
5464 Clouds 25 1009 87 10000 2.44 1 16:51 06.02.2022
5465 Clouds 25 1009 87 10000 2.23 354 15:51 06.02.2022
5466 Clouds 25 1010 87 10000 2.29 358 15:28 06.02.2022
5467 Clouds 25 1010 94 10000 2.57 340 15:00 06.02.2022
5468 Clouds 26 1010 85 10000 1.93 344 13:59 06.02.2022
5469 Clouds 25 1010 87 10000 1.88 332 13:20 06.02.2022
5470 Clouds 26 1010 87 10000 2.18 320 12:19 06.02.2022
5471 Rain 26 1009 87 10000 2.81 285 10:33 06.02.2022
5472 Haze 30 1007 66 10000 5.14 260 09:36 06.02.2022
5473 Haze 31 1007 62 10000 5.14 290 08:41 06.02.2022
5474 Haze 33 1007 52 10000 7.72 290 06:31 06.02.2022
5475 Haze 32 1007 58 10000 5.14 290 05:28 06.02.2022
5476 Haze 32 1007 58 10000 5.14 290 05:28 06.02.2022
5477 Haze 30 1009 66 10000 5.14 340 02:25 06.02.2022
5478 Clouds 28 1010 74 10000 5.14 320 00:32 06.02.2022
5479 Clouds 26 1009 78 10000 5.14 320 23:38 05.02.2022
5480 Rain 25 1008 84 10000 4.27 346 21:46 05.02.2022
5481 Rain 24 1007 94 10000 5.14 340 20:39 05.02.2022
5482 Clouds 25 1007 85 10000 3.87 344 20:19 05.02.2022
5483 Rain 24 1006 100 10000 3.09 330 19:41 05.02.2022
5484 Clouds 25 1006 85 10000 3.93 342 18:26 05.02.2022
5485 Rain 25 1006 85 10000 3.93 342 17:34 05.02.2022
5486 Rain 25 1008 88 10000 5.14 320 15:43 05.02.2022
5487 Rain 25 1008 88 10000 5.14 320 15:25 05.02.2022
5488 Rain 26 1009 87 10000 3.3 342 13:24 05.02.2022
5489 Rain 26 1009 86 10000 3.18 341 12:42 05.02.2022
5490 Rain 26 1008 87 10000 4.17 310 11:18 05.02.2022
5491 Clouds 28 1007 74 10000 5.14 360 10:43 05.02.2022
5492 Haze 29 1006 70 10000 5.14 320 09:49 05.02.2022
5493 Haze 30 1005 66 10000 6.17 300 08:34 05.02.2022
5494 Haze 32 1005 58 10000 7.72 300 06:58 05.02.2022
5495 Haze 33 1005 55 10000 7.49 280 05:44 05.02.2022
5496 Clouds 31 1008 66 10000 2.57 340 01:47 05.02.2022
5497 Clouds 29 1007 68 10000 5.13 308 01:18 05.02.2022
5498 Clouds 29 1007 68 10000 5.13 308 01:18 05.02.2022
5499 Clouds 28 1008 78 10000 5.14 350 00:36 05.02.2022
5500 Clouds 27 1007 78 10000 5.14 350 23:33 04.02.2022
5501 Clouds 24 1006 94 10000 2.57 350 22:28 04.02.2022
5502 Clouds 23 1005 100 10000 3.6 340 21:36 04.02.2022
5503 Clouds 23 1005 100 10000 3.6 340 21:18 04.02.2022
5504 Clouds 23 1005 100 10000 3.6 350 20:28 04.02.2022
5505 Clouds 24 1006 94 10000 4.12 350 18:30 04.02.2022
5506 Clouds 25 1008 94 10000 1.54 0 15:57 04.02.2022
5507 Clouds 26 1008 89 10000 2.57 320 14:56 04.02.2022
5508 Clouds 26 1008 89 10000 2.57 320 14:24 04.02.2022
5509 Clouds 26 1008 89 10000 5.14 320 12:43 04.02.2022
5510 Clouds 27 1006 78 10000 5.14 320 11:43 04.02.2022
5511 Clouds 28 1006 74 10000 5.14 320 10:48 04.02.2022
5512 Clouds 32 1004 55 10000 5.14 280 08:50 04.02.2022
5513 Clouds 33 1004 52 10000 5.14 300 06:58 04.02.2022
5514 Clouds 33 1006 55 10000 5.14 320 02:51 04.02.2022
5515 Clouds 31 1006 66 10000 5.14 350 01:56 04.02.2022
5516 Clouds 25 1007 88 10000 5.14 330 23:31 03.02.2022
5517 Clouds 24 1006 94 10000 2.57 330 22:46 03.02.2022
5518 Clouds 23 1006 94 10000 2.57 310 21:49 03.02.2022
5519 Clouds 23 1006 94 10000 2.57 310 21:49 03.02.2022
5520 Clouds 23 1005 94 10000 2.57 310 20:41 03.02.2022
5521 Clouds 23 1005 94 10000 2.57 310 20:20 03.02.2022
5522 Clouds 23 1005 94 10000 2.57 300 19:32 03.02.2022
5523 Clouds 23 1005 94 10000 3.6 310 18:40 03.02.2022
5524 Clouds 23 1005 94 10000 3.6 310 17:35 03.02.2022
5525 Clouds 23 1006 94 10000 3.09 320 16:35 03.02.2022
5526 Clouds 24 1007 88 10000 1.54 320 14:49 03.02.2022
5527 Clouds 25 1006 83 10000 1.54 350 12:59 03.02.2022
5528 Clouds 27 1005 69 10000 2.57 340 11:23 03.02.2022
5529 Clouds 32 1004 51 10000 5.14 280 08:37 03.02.2022
5530 Clouds 32 1005 51 10000 5.14 310 05:26 03.02.2022
5531 Clouds 27 1008 78 10000 5.14 320 00:32 03.02.2022
5532 Clouds 25 1007 88 10000 5.14 300 23:43 02.02.2022
5533 Clouds 23 1006 94 10000 5.14 330 22:19 02.02.2022
5534 Clouds 23 1006 94 10000 5.14 320 21:34 02.02.2022
5535 Clouds 23 1006 94 10000 5.14 320 20:49 02.02.2022
5536 Rain 24 1007 81 10000 3.74 346 19:58 02.02.2022
5537 Clouds 24 1006 82 10000 4.17 347 19:27 02.02.2022
5538 Clouds 23 1007 94 10000 2.06 350 18:45 02.02.2022
5539 Clouds 24 1006 82 10000 5.86 331 17:56 02.02.2022
5540 Clouds 24 1007 84 10000 6.95 328 17:19 02.02.2022
5541 Clouds 23 1008 94 10000 2.57 340 16:42 02.02.2022
5542 Clouds 23 1010 100 10000 2.57 320 13:28 02.02.2022
5543 Rain 23 1010 100 10000 2.57 310 12:20 02.02.2022
5544 Rain 23 1010 94 10000 3.09 350 11:33 02.02.2022
5545 Rain 24 1009 94 6000 2.57 340 09:47 02.02.2022
5546 Rain 24 1009 94 2000 5.14 340 07:33 02.02.2022
5547 Rain 23 1009 94 10000 3.09 330 22:52 01.02.2022
5548 Rain 23 1008 94 10000 5.14 340 21:50 01.02.2022
5549 Clouds 23 1007 94 10000 5.14 340 19:58 01.02.2022
5550 Clouds 23 1008 94 10000 5.14 320 17:43 01.02.2022
5551 Rain 23 1008 94 10000 5.14 330 16:39 01.02.2022
5552 Rain 23 1008 94 10000 5.14 330 16:39 01.02.2022
5553 Rain 23 1010 94 10000 5.14 340 13:56 01.02.2022
5554 Clouds 23 1010 94 10000 5.14 350 12:43 01.02.2022
5555 Rain 25 1010 89 10000 4.26 332 11:20 01.02.2022
5556 Clouds 28 1010 78 10000 5.14 330 02:34 01.02.2022
5557 Haze 26 1009 83 10000 5.14 330 23:41 31.01.2022
5558 Haze 25 1008 88 10000 5.14 340 22:57 31.01.2022
5559 Clouds 24 1007 94 10000 5.14 310 21:39 31.01.2022
5560 Clouds 24 1007 94 10000 5.14 310 20:50 31.01.2022
5561 Clouds 25 1008 72 10000 1.87 2 20:27 31.01.2022
5562 Clouds 25 1007 74 10000 1.7 12 19:20 31.01.2022
5563 Clouds 25 1007 77 10000 2.09 16 18:25 31.01.2022
5564 Clouds 25 1007 88 10000 2.57 310 17:26 31.01.2022
5565 Clouds 25 1008 75 10000 2.43 341 16:26 31.01.2022
5566 Clouds 25 1008 76 10000 2.7 334 14:54 31.01.2022
5567 Clouds 25 1009 76 10000 3.16 336 13:51 31.01.2022
5568 Clouds 25 1009 94 10000 2.06 0 12:38 31.01.2022
5569 Clouds 26 1008 83 10000 2.06 0 11:42 31.01.2022
5570 Clouds 27 1008 78 10000 4.12 320 10:49 31.01.2022
5571 Clouds 28 1008 69 10000 4.63 300 09:45 31.01.2022
5572 Rain 29 1007 79 10000 4.63 300 08:58 31.01.2022
5573 Rain 29 1007 79 10000 4.63 300 08:38 31.01.2022
5574 Rain 29 1007 79 10000 4.63 300 08:19 31.01.2022
5575 Rain 28 1008 78 10000 4.63 300 06:18 31.01.2022
5576 Clouds 25 1010 88 10000 5.14 350 00:44 31.01.2022
5577 Clouds 24 1009 88 10000 5.14 350 22:34 30.01.2022
5578 Clouds 23 1008 94 10000 5.14 350 21:56 30.01.2022
5579 Rain 23 1008 94 10000 5.14 350 21:37 30.01.2022
5580 Rain 23 1008 94 10000 5.14 350 21:18 30.01.2022
5581 Clouds 24 1008 92 10000 5.01 327 20:43 30.01.2022
5582 Rain 24 1008 93 4176 5.08 326 20:25 30.01.2022
5583 Clouds 23 1009 94 10000 5.14 350 19:23 30.01.2022
5584 Clouds 23 1009 94 10000 5.14 340 18:35 30.01.2022
5585 Rain 25 1008 83 10000 5.14 330 17:40 30.01.2022
5586 Clouds 24 1008 88 9679 5.02 306 17:19 30.01.2022
5587 Clouds 25 1008 94 10000 2.57 340 16:36 30.01.2022
5588 Rain 25 1008 94 10000 2.57 340 16:18 30.01.2022
5589 Rain 25 1009 94 10000 2.57 340 15:45 30.01.2022
5590 Rain 25 1009 94 10000 2.57 340 15:25 30.01.2022
5591 Clouds 25 1009 85 10000 4 305 14:44 30.01.2022
5592 Rain 25 1010 85 10000 3.85 320 12:46 30.01.2022
5593 Rain 25 1008 88 10000 2.57 340 11:52 30.01.2022
5594 Rain 25 1007 94 10000 3.09 340 10:26 30.01.2022
5595 Rain 27 1007 83 10000 2.57 350 09:41 30.01.2022
5596 Haze 28 1007 78 10000 5.14 340 08:44 30.01.2022
5597 Rain 25 1010 94 10000 2.57 330 02:58 30.01.2022
5598 Rain 25 1011 94 10000 5.14 330 01:54 30.01.2022
5599 Clouds 24 1010 94 7000 5.14 350 23:49 29.01.2022
5600 Rain 24 1009 94 10000 3.09 330 22:58 29.01.2022
5601 Rain 25 1008 88 10000 2.57 50 21:44 29.01.2022
5602 Rain 25 1008 88 10000 2.57 50 21:20 29.01.2022
5603 Rain 25 1007 81 10000 2.85 317 20:21 29.01.2022
5604 Clouds 25 1007 94 10000 5.66 220 19:33 29.01.2022
5605 Rain 25 1006 94 10000 3.09 320 18:51 29.01.2022
5606 Clouds 25 1007 100 10000 3.09 350 17:56 29.01.2022
5607 Clouds 25 1006 82 10000 2.17 337 17:19 29.01.2022
5608 Rain 26 1008 89 10000 4.12 20 15:35 29.01.2022
5609 Clouds 26 1008 80 10000 1.68 343 13:58 29.01.2022
5610 Clouds 26 1008 79 10000 1.13 335 13:28 29.01.2022
5611 Clouds 26 1008 79 10000 1.13 335 12:59 29.01.2022
5612 Clouds 27 1008 89 10000 5.14 270 11:39 29.01.2022
5613 Clouds 27 1008 89 10000 5.14 270 11:39 29.01.2022
5614 Rain 27 1007 89 10000 2.57 290 10:33 29.01.2022
5615 Clouds 28 1005 71 10000 3.96 276 08:20 29.01.2022
5616 Clouds 32 1008 62 10000 2.57 330 02:48 29.01.2022
5617 Clouds 27 1008 83 10000 2.57 340 00:32 29.01.2022
5618 Clouds 26 1009 94 10000 2.57 340 23:31 28.01.2022
5619 Rain 24 1008 100 10000 2.57 340 22:47 28.01.2022
5620 Rain 25 1008 83 10000 2.66 357 22:19 28.01.2022
5621 Clouds 24 1007 100 10000 4.12 310 20:41 28.01.2022
5622 Clouds 25 1008 94 10000 2.57 330 19:57 28.01.2022
5623 Clouds 25 1006 94 10000 2.57 340 18:52 28.01.2022
5624 Clouds 25 1007 94 10000 2.57 340 17:53 28.01.2022
5625 Clouds 25 1008 94 10000 2.57 310 15:52 28.01.2022
5626 Clouds 25 1009 94 10000 1.54 0 14:50 28.01.2022
5627 Clouds 27 1009 83 10000 1.54 0 12:41 28.01.2022
5628 Clouds 27 1008 83 10000 5.14 320 11:43 28.01.2022
5629 Clouds 28 1007 74 10000 5.14 280 10:26 28.01.2022
5630 Clouds 30 1007 66 10000 5.14 280 09:45 28.01.2022
5631 Haze 32 1006 62 10000 5.14 270 07:40 28.01.2022
5632 Haze 32 1006 66 10000 5.14 330 05:30 28.01.2022
5633 Haze 32 1008 62 10000 5.14 300 03:48 28.01.2022
5634 Haze 32 1009 62 10000 5.14 300 02:23 28.01.2022
5635 Haze 32 1009 58 10000 4.12 310 01:35 28.01.2022
5636 Haze 30 1009 66 10000 1.54 0 00:33 28.01.2022
5637 Haze 24 1007 94 10000 3.6 320 21:58 27.01.2022
5638 Haze 24 1007 94 10000 3.6 320 21:34 27.01.2022
5639 Clouds 25 1007 84 10000 2.3 3 20:55 27.01.2022
5640 Rain 25 1007 85 10000 2.38 1 19:35 27.01.2022
5641 Rain 24 1007 94 10000 4.12 310 17:56 27.01.2022
5642 Clear 24 1009 100 10000 3.09 320 15:31 27.01.2022
5643 Clear 25 1010 88 10000 1.03 0 13:39 27.01.2022
5644 Clear 25 1009 88 10000 3.6 350 12:46 27.01.2022
5645 Haze 27 1008 83 10000 5.14 10 10:57 27.01.2022
5646 Haze 28 1007 78 10000 1.94 229 09:20 27.01.2022
5647 Haze 31 1006 70 10000 1.94 229 08:38 27.01.2022
5648 Haze 32 1006 62 10000 3.71 237 07:22 27.01.2022
5649 Haze 32 1010 66 10000 5.14 330 02:57 27.01.2022
5650 Haze 26 1010 94 10000 2.57 300 23:45 26.01.2022
5651 Haze 25 1009 94 10000 3.09 320 22:26 26.01.2022
5652 Haze 24 1008 100 10000 2.57 330 21:37 26.01.2022
5653 Clouds 25 1008 83 10000 1.49 45 20:41 26.01.2022
5654 Clouds 25 1007 83 10000 1.03 62 20:23 26.01.2022
5655 Clouds 24 1007 100 10000 2.06 320 19:23 26.01.2022
5656 Clouds 24 1008 100 10000 2.57 320 18:45 26.01.2022
5657 Clouds 25 1008 94 10000 2.57 320 17:51 26.01.2022
5658 Clouds 25 1008 94 10000 2.57 320 17:23 26.01.2022
5659 Rain 25 1008 94 10000 2.06 0 16:33 26.01.2022
5660 Clouds 26 1007 83 10000 1.49 71 15:49 26.01.2022
5661 Clouds 27 1009 81 10000 1.63 93 14:20 26.01.2022
5662 Clouds 26 1008 94 10000 2.57 300 11:52 26.01.2022
5663 Clouds 28 1008 78 10000 2.69 143 10:28 26.01.2022
5664 Clouds 27 1007 89 10000 2.57 0 09:48 26.01.2022
5665 Clouds 32 1006 66 10000 4.63 220 07:44 26.01.2022
5666 Haze 33 1008 62 10000 5.14 170 03:31 26.01.2022
5667 Haze 29 1009 79 10000 2.57 40 23:57 25.01.2022
5668 Haze 25 1009 94 10000 3.09 350 22:57 25.01.2022
5669 Haze 25 1009 94 10000 3.09 350 22:21 25.01.2022
5670 Clouds 25 1008 94 10000 1.54 0 21:58 25.01.2022
5671 Clouds 25 1008 94 10000 1.54 0 20:46 25.01.2022
5672 Clouds 25 1008 94 10000 1.54 0 20:23 25.01.2022
5673 Clouds 25 1007 94 10000 1.54 0 19:50 25.01.2022
5674 Clouds 25 1007 94 10000 1.54 0 18:32 25.01.2022
5675 Clouds 25 1008 94 10000 1.54 0 17:43 25.01.2022
5676 Clouds 26 1007 94 10000 1.03 0 16:35 25.01.2022
5677 Clouds 26 1009 94 10000 1.54 0 15:49 25.01.2022
5678 Clouds 26 1009 94 10000 1.54 0 15:31 25.01.2022
5679 Clouds 26 1009 94 10000 1.54 0 14:57 25.01.2022
5680 Clouds 26 1008 94 10000 1.03 0 13:40 25.01.2022
5681 Rain 28 1007 83 10000 2.57 130 10:39 25.01.2022
5682 Rain 29 1006 79 10000 2.57 130 08:34 25.01.2022
5683 Haze 29 1006 74 10000 5.14 200 07:28 25.01.2022
5684 Rain 29 1005 70 10000 1.17 204 06:47 25.01.2022
5685 Haze 33 1007 62 10000 7.72 230 04:22 25.01.2022
5686 Clouds 28 1009 75 10000 1.5 320 23:37 24.01.2022
5687 Clouds 27 1008 81 10000 1.46 3 23:18 24.01.2022
5688 Clouds 25 1008 94 10000 2.57 340 22:59 24.01.2022
5689 Clouds 25 1008 94 10000 2.57 340 22:41 24.01.2022
5690 Fog 24 1008 100 10000 2.57 340 21:49 24.01.2022
5691 Fog 24 1008 100 10000 2.57 340 21:28 24.01.2022
5692 Clouds 24 1007 100 10000 2.57 340 20:29 24.01.2022
5693 Clouds 25 1007 94 10000 2.57 320 19:39 24.01.2022
5694 Clouds 25 1007 94 10000 2.57 320 19:20 24.01.2022
5695 Clouds 25 1007 100 10000 2.57 310 17:45 24.01.2022
5696 Clouds 25 1007 100 10000 2.57 310 17:23 24.01.2022
5697 Clouds 25 1008 100 10000 1.54 0 16:33 24.01.2022
5698 Clouds 25 1009 100 10000 2.57 350 15:52 24.01.2022
5699 Clouds 27 1007 84 10000 0.96 114 14:27 24.01.2022
5700 Clouds 27 1006 94 10000 0 0 12:36 24.01.2022
5701 Clouds 27 1007 84 10000 1.03 183 11:59 24.01.2022
5702 Clouds 28 1006 78 10000 2.57 150 10:25 24.01.2022
5703 Haze 29 1006 70 10000 3.09 190 09:47 24.01.2022
5704 Haze 30 1005 66 10000 5.14 180 08:19 24.01.2022
5705 Clouds 32 1008 62 10000 5.14 350 02:51 24.01.2022
5706 Clouds 29 1008 73 10000 2.7 310 01:29 24.01.2022
5707 Haze 30 1009 70 10000 3.09 310 00:34 24.01.2022
5708 Haze 25 1008 94 10000 3.09 310 23:47 23.01.2022
5709 Haze 25 1008 94 10000 3.09 310 22:21 23.01.2022
5710 Haze 23 1008 100 10000 2.06 310 21:42 23.01.2022
5711 Haze 23 1008 100 10000 2.06 310 21:24 23.01.2022
5712 Clouds 25 1007 83 10000 2.14 5 20:29 23.01.2022
5713 Clear 23 1007 100 10000 2.06 360 19:21 23.01.2022
5714 Clear 24 1006 94 10000 1.54 0 18:44 23.01.2022
5715 Clear 24 1007 94 10000 2.57 300 17:27 23.01.2022
5716 Clear 24 1008 100 10000 2.57 360 16:38 23.01.2022
5717 Clouds 25 1008 85 10000 1.74 25 14:56 23.01.2022
5718 Clouds 25 1008 85 10000 1.74 43 14:19 23.01.2022
5719 Clouds 26 1009 86 10000 1.93 64 12:49 23.01.2022
5720 Clouds 26 1008 86 10000 2.32 73 12:21 23.01.2022
5721 Clouds 25 1007 94 10000 5.14 20 11:51 23.01.2022
5722 Rain 25 1007 94 10000 5.14 20 11:18 23.01.2022
5723 Rain 26 1006 89 10000 5.14 30 10:26 23.01.2022
5724 Haze 26 1007 94 10000 5.14 20 09:37 23.01.2022
5725 Rain 27 1006 80 10000 1.28 247 08:51 23.01.2022
5726 Clouds 30 1007 74 10000 4.52 255 05:37 23.01.2022
5727 Clouds 31 1009 66 10000 5.14 310 01:43 23.01.2022
5728 Clouds 31 1009 66 10000 5.14 310 01:23 23.01.2022
5729 Clouds 28 1009 78 10000 3.09 320 00:22 23.01.2022
5730 Clouds 26 1009 89 10000 3.09 290 23:19 22.01.2022
5731 Clouds 24 1008 94 10000 1.9 348 22:34 22.01.2022
5732 Clouds 24 1008 94 10000 1.9 348 22:34 22.01.2022
5733 Clouds 23 1007 100 10000 2.57 340 21:18 22.01.2022
5734 Clouds 24 1007 94 10000 3.09 330 19:46 22.01.2022
5735 Clouds 24 1007 94 10000 2.06 0 18:45 22.01.2022
5736 Clouds 24 1007 94 10000 2.57 350 17:56 22.01.2022
5737 Clouds 24 1007 94 10000 2.57 350 17:35 22.01.2022
5738 Clouds 24 1007 94 10000 2.57 300 16:55 22.01.2022
5739 Clouds 24 1008 94 10000 2.06 0 15:49 22.01.2022
5740 Clouds 26 1008 85 10000 1.56 14 14:57 22.01.2022
5741 Clouds 26 1009 85 10000 1.65 5 13:36 22.01.2022
5742 Clouds 26 1009 85 10000 2.15 359 12:47 22.01.2022
5743 Clouds 26 1009 85 10000 1.55 356 12:24 22.01.2022
5744 Clouds 26 1008 89 10000 5.14 350 10:55 22.01.2022
5745 Rain 26 1008 89 10000 5.14 350 10:28 22.01.2022
5746 Rain 27 1007 83 10000 5.14 340 09:46 22.01.2022
5747 Clouds 27 1006 79 10000 1.43 262 08:51 22.01.2022
5748 Rain 28 1005 71 10000 2.68 249 07:28 22.01.2022
5749 Clouds 32 1007 66 10000 5.14 210 04:50 22.01.2022
5750 Clouds 30 1009 66 10000 2.57 340 01:32 22.01.2022
5751 Clouds 26 1008 89 10000 2.57 330 23:30 21.01.2022
5752 Clouds 25 1008 84 10000 1.25 11 22:19 21.01.2022
5753 Clouds 24 1007 94 10000 2.06 300 19:56 21.01.2022
5754 Clouds 24 1006 86 10000 1.8 19 18:23 21.01.2022
5755 Clouds 25 1007 86 10000 1.73 30 17:18 21.01.2022
5756 Clouds 25 1008 85 10000 1.33 34 15:27 21.01.2022
5757 Clouds 26 1009 83 10000 0.95 3 13:18 21.01.2022
5758 Clouds 26 1008 89 10000 5.14 260 12:26 21.01.2022
5759 Rain 29 1008 70 10000 5.14 260 11:26 21.01.2022
5760 Clouds 29 1006 70 10000 5.14 260 09:46 21.01.2022
5761 Clouds 30 1006 62 10000 2.57 280 08:22 21.01.2022
5762 Clouds 29 1006 69 10000 4.94 272 04:37 21.01.2022
5763 Clouds 25 1009 89 10000 3.49 347 23:19 20.01.2022
5764 Clouds 24 1007 94 10000 2.57 330 21:50 20.01.2022
5765 Clouds 24 1007 94 10000 2.57 330 21:31 20.01.2022
5766 Clouds 24 1007 94 10000 2.57 330 20:21 20.01.2022
5767 Clouds 24 1007 92 6763 4.46 337 19:19 20.01.2022
5768 Clouds 24 1006 89 10000 3.86 338 17:46 20.01.2022
5769 Clouds 25 1007 94 10000 2.57 330 16:35 20.01.2022
5770 Clouds 25 1007 87 10000 3.23 332 15:40 20.01.2022
5771 Clouds 25 1008 88 10000 3.04 337 14:40 20.01.2022
5772 Haze 25 1008 94 10000 5.14 350 13:21 20.01.2022
5773 Haze 25 1008 94 10000 6.69 350 12:31 20.01.2022
5774 Haze 25 1007 94 10000 3.6 350 11:20 20.01.2022
5775 Haze 25 1007 94 10000 5.14 350 10:37 20.01.2022
5776 Haze 27 1005 89 10000 5.14 280 09:29 20.01.2022
5777 Clouds 28 1004 77 10000 5.45 301 07:24 20.01.2022
5778 Clouds 28 1007 78 10000 7.72 330 00:41 20.01.2022
5779 Clouds 25 1006 94 10000 2.57 340 22:50 19.01.2022
5780 Clouds 24 1005 100 10000 2.57 340 21:44 19.01.2022
5781 Clouds 24 1006 85 10000 2.47 10 21:22 19.01.2022
5782 Clouds 24 1005 100 10000 2.57 350 20:45 19.01.2022
5783 Clouds 24 1005 94 10000 2.57 350 19:26 19.01.2022
5784 Clouds 25 1005 94 10000 1.54 0 17:51 19.01.2022
5785 Clouds 25 1005 94 10000 1.54 0 17:28 19.01.2022
5786 Clouds 25 1007 94 10000 1.54 0 15:36 19.01.2022
5787 Clouds 25 1007 94 10000 1.54 0 13:38 19.01.2022
5788 Clouds 25 1006 94 10000 3.09 280 12:24 19.01.2022
5789 Clouds 25 1006 94 10000 2.57 30 11:38 19.01.2022
5790 Clouds 26 1006 89 10000 5.14 350 09:52 19.01.2022
5791 Clouds 26 1006 89 10000 5.14 350 09:33 19.01.2022
5792 Clouds 28 1005 83 10000 7.72 340 06:34 19.01.2022
5793 Clouds 28 1008 78 10000 1.54 0 00:33 19.01.2022
5794 Clouds 26 1007 89 10000 1.54 0 23:18 18.01.2022
5795 Clouds 26 1007 82 10000 1.65 4 21:50 18.01.2022
5796 Clouds 25 1006 84 10000 1.73 2 20:38 18.01.2022
5797 Clouds 25 1005 84 10000 1.63 357 19:51 18.01.2022
5798 Clouds 25 1005 85 10000 1.66 26 19:33 18.01.2022
5799 Clouds 25 1004 84 10000 1.58 27 18:23 18.01.2022
5800 Clouds 25 1005 94 10000 4.12 330 17:33 18.01.2022
5801 Clouds 26 1005 82 10000 1.29 40 16:22 18.01.2022
5802 Clouds 26 1006 81 10000 0.98 54 15:25 18.01.2022
5803 Clouds 26 1006 80 10000 1.03 64 14:23 18.01.2022
5804 Clouds 27 1006 89 10000 5.14 320 11:45 18.01.2022
5805 Clouds 27 1006 77 10000 0.32 166 10:30 18.01.2022
5806 Haze 29 1005 79 10000 7.72 240 08:29 18.01.2022
5807 Haze 30 1004 74 10000 7.72 210 07:45 18.01.2022
5808 Haze 29 1008 79 10000 3.09 330 00:42 18.01.2022
5809 Haze 25 1008 88 10000 2.57 300 22:46 17.01.2022
5810 Clouds 24 1007 94 10000 2.06 300 21:44 17.01.2022
5811 Clouds 24 1007 94 10000 2.06 300 21:24 17.01.2022
5812 Clouds 24 1006 100 10000 1.54 350 18:51 17.01.2022
5813 Clouds 24 1006 100 10000 1.54 350 18:25 17.01.2022
5814 Clouds 24 1007 100 10000 2.57 320 17:22 17.01.2022
5815 Clouds 25 1008 94 10000 2.57 310 15:54 17.01.2022
5816 Rain 25 1008 94 10000 4.12 330 14:58 17.01.2022
5817 Rain 25 1008 94 10000 4.12 330 14:58 17.01.2022
5818 Clouds 25 1008 94 10000 4.12 330 14:31 17.01.2022
5819 Clouds 26 1008 86 10000 1.28 344 13:18 17.01.2022
5820 Clouds 26 1007 84 10000 0.94 352 13:18 17.01.2022
5821 Clouds 26 1007 89 10000 3.09 10 11:53 17.01.2022
5822 Clouds 27 1007 83 10000 3.09 280 10:52 17.01.2022
5823 Clouds 27 1007 82 10000 1.37 328 09:46 17.01.2022
5824 Clouds 29 1006 79 10000 5.14 270 08:43 17.01.2022
5825 Clouds 30 1006 74 10000 5.14 270 07:20 17.01.2022
5826 Clouds 29 1009 74 10000 2.57 330 00:59 17.01.2022
5827 Clouds 28 1009 78 10000 2.57 350 23:27 16.01.2022
5828 Clouds 24 1008 94 10000 1.54 310 20:51 16.01.2022
5829 Clouds 23 1007 100 10000 1.54 350 19:56 16.01.2022
5830 Clouds 24 1008 94 10000 1.54 320 18:45 16.01.2022
5831 Clouds 24 1008 100 10000 2.06 340 17:47 16.01.2022
5832 Clouds 24 1009 100 10000 2.06 340 16:52 16.01.2022
5833 Clouds 25 1009 94 10000 2.06 360 15:39 16.01.2022
5834 Clouds 26 1009 82 10000 1.54 11 14:29 16.01.2022
5835 Clouds 26 1009 82 10000 1.54 11 14:29 16.01.2022
5836 Clouds 26 1010 80 10000 0.75 348 12:57 16.01.2022
5837 Clouds 26 1008 89 10000 1.54 0 11:49 16.01.2022
5838 Clouds 27 1007 83 10000 4.12 300 10:58 16.01.2022
5839 Clouds 27 1007 83 10000 4.12 300 10:26 16.01.2022
5840 Haze 29 1007 74 10000 5.14 270 09:56 16.01.2022
5841 Haze 29 1007 74 10000 5.14 270 09:23 16.01.2022
5842 Haze 29 1007 74 10000 5.14 280 08:52 16.01.2022
5843 Haze 32 1007 66 10000 5.14 250 05:35 16.01.2022
5844 Clouds 26 1010 89 10000 5.14 350 23:51 15.01.2022
5845 Clouds 24 1010 94 10000 2.57 300 22:35 15.01.2022
5846 Clouds 23 1009 100 10000 2.57 340 21:20 15.01.2022
5847 Clouds 23 1008 100 10000 2.57 320 20:40 15.01.2022
5848 Clouds 23 1008 100 10000 1.03 0 19:30 15.01.2022
5849 Clear 23 1008 100 10000 2.57 350 18:47 15.01.2022
5850 Clear 24 1009 94 10000 3.09 340 17:35 15.01.2022
5851 Clear 24 1009 94 10000 2.57 340 16:37 15.01.2022
5852 Clouds 25 1009 83 10000 1.27 25 13:57 15.01.2022
5853 Clouds 25 1008 88 10000 3.6 20 12:20 15.01.2022
5854 Clouds 26 1007 89 10000 5.14 20 10:43 15.01.2022
5855 Clouds 30 1007 70 10000 5.14 280 08:32 15.01.2022
5856 Clouds 29 1009 68 10000 3.38 305 00:35 15.01.2022
5857 Clouds 24 1008 100 10000 2.57 310 21:52 14.01.2022
5858 Clouds 24 1008 100 10000 2.57 310 21:52 14.01.2022
5859 Fog 24 1008 94 10000 2.57 340 20:41 14.01.2022
5860 Fog 24 1008 94 10000 2.57 340 20:21 14.01.2022
5861 Clouds 24 1007 94 10000 3.09 320 18:49 14.01.2022
5862 Clouds 24 1007 94 10000 3.09 320 18:20 14.01.2022
5863 Clouds 25 1007 87 10000 2.7 359 16:50 14.01.2022
5864 Clouds 25 1008 86 10000 2.68 1 15:39 14.01.2022
5865 Clouds 25 1008 100 10000 2.06 0 14:42 14.01.2022
5866 Clouds 25 1009 100 10000 2.06 0 13:36 14.01.2022
5867 Clouds 26 1010 82 10000 2.23 344 12:28 14.01.2022
5868 Rain 27 1010 89 10000 2.06 0 10:53 14.01.2022
5869 Clouds 26 1008 81 10000 3.4 318 08:54 14.01.2022
5870 Clouds 26 1008 81 10000 3.4 318 08:34 14.01.2022
5871 Rain 26 1009 94 10000 4.12 350 05:29 14.01.2022
5872 Rain 25 1011 94 10000 7.72 330 00:59 14.01.2022
5873 Rain 25 1009 94 5000 4.12 310 22:46 13.01.2022
5874 Clouds 25 1008 94 10000 2.57 300 21:31 13.01.2022
5875 Rain 25 1007 94 10000 2.57 300 20:57 13.01.2022
5876 Rain 26 1007 94 10000 2.06 0 19:40 13.01.2022
5877 Rain 25 1008 85 10000 2.27 357 19:21 13.01.2022
5878 Clouds 26 1007 94 10000 2.06 0 17:48 13.01.2022
5879 Rain 26 1008 94 10000 2.06 0 16:20 13.01.2022
5880 Rain 26 1009 94 10000 2.06 0 15:37 13.01.2022
5881 Clouds 26 1010 94 10000 1.54 0 13:48 13.01.2022
5882 Haze 25 1009 94 10000 2.06 0 12:25 13.01.2022
5883 Clouds 26 1008 81 10000 1.34 235 10:23 13.01.2022
5884 Haze 31 1007 70 10000 5.14 290 08:57 13.01.2022
5885 Haze 31 1007 70 10000 5.14 290 08:26 13.01.2022
5886 Haze 30 1006 74 10000 5.14 250 07:22 13.01.2022
5887 Clouds 33 1007 62 10000 8.23 310 05:59 13.01.2022
5888 Clouds 30 1007 66 10000 3.49 243 05:19 13.01.2022
5889 Clouds 32 1011 62 10000 2.57 310 01:53 13.01.2022
5890 Clouds 29 1010 66 10000 2.3 299 00:40 13.01.2022
5891 Clouds 28 1011 89 10000 2.57 310 23:45 12.01.2022
5892 Clouds 25 1010 94 10000 2.57 310 22:57 12.01.2022
5893 Clouds 24 1009 100 10000 2.57 310 21:56 12.01.2022
5894 Clouds 24 1009 100 10000 2.57 310 21:21 12.01.2022
5895 Clouds 24 1008 100 10000 2.57 350 20:56 12.01.2022
5896 Clouds 24 1008 100 10000 2.57 310 19:35 12.01.2022
5897 Clouds 26 1008 83 10000 1.03 61 18:29 12.01.2022
5898 Clouds 26 1009 94 10000 2.57 310 16:59 12.01.2022
5899 Clouds 26 1010 94 10000 2.06 0 15:58 12.01.2022
5900 Clouds 27 1009 81 10000 2.04 118 14:47 12.01.2022
5901 Clouds 27 1009 81 10000 3.03 137 12:58 12.01.2022
5902 Haze 30 1007 70 10000 5.14 200 09:59 12.01.2022
5903 Haze 32 1006 66 10000 5.14 190 08:36 12.01.2022
5904 Haze 32 1006 66 10000 7.72 200 07:34 12.01.2022
5905 Haze 32 1005 66 10000 7.72 200 06:21 12.01.2022
5906 Haze 28 1010 89 10000 4.12 130 23:30 11.01.2022
5907 Haze 26 1009 94 10000 1.54 120 22:41 11.01.2022
5908 Haze 26 1009 94 10000 1.54 120 22:21 11.01.2022
5909 Rain 25 1009 85 10000 0.66 81 20:49 11.01.2022
5910 Rain 25 1008 86 10000 0.44 25 19:42 11.01.2022
5911 Rain 26 1008 83 10000 1.36 68 18:25 11.01.2022
5912 Rain 26 1008 82 10000 1.37 92 17:19 11.01.2022
5913 Rain 26 1008 82 10000 1.37 92 16:37 11.01.2022
5914 Clouds 27 1010 89 10000 1.54 0 14:59 11.01.2022
5915 Clouds 27 1010 89 10000 1.54 0 14:40 11.01.2022
5916 Clouds 27 1010 80 10000 1.97 126 13:54 11.01.2022
5917 Rain 27 1010 80 10000 1.97 126 13:31 11.01.2022
5918 Clouds 27 1010 89 10000 2.57 200 12:41 11.01.2022
5919 Clouds 28 1008 78 10000 5.14 190 10:59 11.01.2022
5920 Clouds 30 1006 74 10000 2.57 200 08:58 11.01.2022
5921 Clouds 32 1006 66 10000 2.57 240 06:28 11.01.2022
5922 Clouds 28 1011 78 10000 2.57 20 00:30 11.01.2022
5923 Clouds 28 1010 78 10000 2.57 340 23:41 10.01.2022
5924 Clouds 26 1010 89 10000 2.57 340 22:51 10.01.2022
5925 Clouds 26 1010 89 10000 2.57 340 22:51 10.01.2022
5926 Clouds 26 1010 82 10000 2.04 359 22:18 10.01.2022
5927 Clouds 24 1009 94 10000 2.06 0 21:48 10.01.2022
5928 Clouds 25 1009 84 10000 2.32 3 21:19 10.01.2022
5929 Clouds 24 1009 94 10000 1.54 0 20:56 10.01.2022
5930 Clouds 24 1009 94 10000 1.54 0 20:26 10.01.2022
5931 Clouds 24 1008 94 10000 1.54 0 19:41 10.01.2022
5932 Clouds 26 1008 81 10000 1.55 8 19:20 10.01.2022
5933 Clouds 26 1008 81 10000 1.55 8 18:48 10.01.2022
5934 Clouds 24 1008 94 10000 1.54 0 17:24 10.01.2022
5935 Clouds 25 1009 88 10000 1.54 0 16:41 10.01.2022
5936 Clouds 25 1010 94 10000 2.57 300 15:20 10.01.2022
5937 Clouds 26 1010 89 10000 5.14 30 13:39 10.01.2022
5938 Clouds 27 1009 89 10000 2.57 320 11:57 10.01.2022
5939 Clouds 27 1009 82 10000 1.55 307 11:24 10.01.2022
5940 Rain 29 1008 74 10000 5.14 280 09:41 10.01.2022
5941 Clouds 32 1007 62 10000 5.14 290 05:52 10.01.2022
5942 Clouds 32 1007 62 10000 5.14 290 05:23 10.01.2022
5943 Haze 30 1010 70 10000 3.6 340 01:24 10.01.2022
5944 Haze 29 1010 70 10000 5.14 330 00:23 10.01.2022
5945 Clouds 26 1010 81 10000 3.16 341 23:28 09.01.2022
5946 Clouds 23 1009 100 10000 3.09 350 22:33 09.01.2022
5947 Clouds 23 1008 94 10000 2.57 310 21:42 09.01.2022
5948 Clouds 23 1008 94 10000 2.57 310 21:23 09.01.2022
5949 Clouds 23 1008 94 10000 2.57 310 21:23 09.01.2022
5950 Clouds 23 1007 94 10000 2.57 350 20:49 09.01.2022
5951 Clouds 23 1007 94 10000 2.57 350 20:29 09.01.2022
5952 Clouds 23 1007 100 10000 2.57 300 19:44 09.01.2022
5953 Clouds 23 1007 100 10000 2.57 300 19:22 09.01.2022
5954 Clouds 23 1007 94 10000 2.57 310 18:49 09.01.2022
5955 Clouds 23 1007 94 10000 2.57 310 18:30 09.01.2022
5956 Clouds 23 1008 100 10000 2.57 320 17:30 09.01.2022
5957 Clouds 24 1008 94 10000 3.6 340 16:51 09.01.2022
5958 Clouds 24 1009 94 10000 3.6 330 15:52 09.01.2022
5959 Clouds 24 1009 94 10000 3.6 330 15:33 09.01.2022
5960 Clouds 25 1008 87 10000 2.74 14 14:39 09.01.2022
5961 Clouds 25 1009 86 10000 2.63 358 13:50 09.01.2022
5962 Clouds 25 1009 85 10000 2.8 338 12:31 09.01.2022
5963 Clouds 26 1009 85 10000 2.81 330 11:47 09.01.2022
5964 Haze 29 1007 70 10000 6.69 300 09:56 09.01.2022
5965 Haze 29 1007 70 10000 6.69 300 09:29 09.01.2022
5966 Clouds 28 1006 79 10000 5.65 295 08:25 09.01.2022
5967 Clouds 28 1010 78 10000 5.14 340 01:43 09.01.2022
5968 Clouds 28 1009 67 10000 4.04 316 01:19 09.01.2022
5969 Clouds 27 1010 70 10000 3.34 334 23:38 08.01.2022
5970 Clouds 23 1009 100 10000 3.09 340 22:58 08.01.2022
5971 Rain 23 1008 94 10000 3.09 330 21:32 08.01.2022
5972 Rain 23 1008 94 10000 3.09 340 20:44 08.01.2022
5973 Rain 23 1008 94 10000 3.09 340 20:23 08.01.2022
5974 Rain 23 1007 94 10000 3.09 350 19:55 08.01.2022
5975 Clouds 24 1008 94 10000 3.6 340 17:49 08.01.2022
5976 Clouds 24 1009 94 10000 3.6 340 16:57 08.01.2022
5977 Clouds 24 1010 94 10000 3.09 340 15:37 08.01.2022
5978 Clouds 25 1009 88 10000 5.14 360 14:38 08.01.2022
5979 Rain 24 1009 94 10000 3.09 350 12:36 08.01.2022
5980 Clouds 24 1009 94 10000 5.14 340 10:46 08.01.2022
5981 Clouds 24 1009 94 10000 5.14 340 10:24 08.01.2022
5982 Clouds 27 1007 83 10000 7.72 240 09:34 08.01.2022
5983 Clouds 27 1007 83 10000 7.72 240 09:34 08.01.2022
5984 Clouds 25 1008 89 10000 6.84 333 07:18 08.01.2022
5985 Rain 24 1010 94 3000 5.14 340 01:52 08.01.2022
5986 Rain 23 1010 100 3000 6.69 340 00:25 08.01.2022
5987 Rain 23 1010 100 7000 7.72 350 22:39 07.01.2022
5988 Rain 23 1008 94 10000 7.72 350 20:40 07.01.2022
5989 Rain 24 1008 92 7022 6.66 318 19:34 07.01.2022
5990 Rain 25 1007 88 10000 5.14 350 18:50 07.01.2022
5991 Clouds 24 1008 90 8839 7.23 329 18:26 07.01.2022
5992 Rain 25 1007 88 10000 5.14 290 17:24 07.01.2022
5993 Rain 24 1008 94 10000 5.14 340 15:55 07.01.2022
5994 Clouds 24 1009 94 10000 5.14 350 13:52 07.01.2022
5995 Clouds 24 1009 94 10000 7.72 350 12:57 07.01.2022
5996 Clouds 24 1008 94 10000 7.72 320 11:58 07.01.2022
5997 Clouds 32 1008 55 10000 7.72 330 04:56 07.01.2022
5998 Clouds 30 1009 66 10000 5.14 320 02:53 07.01.2022
5999 Clouds 30 1010 66 10000 2.57 320 01:50 07.01.2022
6000 Clouds 30 1010 66 10000 2.57 320 01:26 07.01.2022
6001 Clouds 29 1009 70 10000 2.57 330 00:34 07.01.2022
6002 Clouds 25 1008 88 10000 2.57 300 22:42 06.01.2022
6003 Clouds 25 1009 89 10000 4.8 336 20:54 06.01.2022
6004 Rain 24 1008 90 10000 4.59 337 20:18 06.01.2022
6005 Rain 24 1008 90 10000 4.59 337 19:39 06.01.2022
6006 Rain 25 1008 83 10000 7.72 340 17:52 06.01.2022
6007 Rain 25 1008 83 10000 7.72 340 17:28 06.01.2022
6008 Rain 25 1009 88 10000 7.72 330 16:38 06.01.2022
6009 Rain 27 1010 78 10000 5.14 340 15:44 06.01.2022
6010 Rain 27 1010 78 10000 5.14 340 15:23 06.01.2022
6011 Rain 26 1010 89 10000 3.6 350 14:20 06.01.2022
6012 Rain 27 1010 78 10000 3.09 350 13:41 06.01.2022
6013 Rain 26 1009 89 10000 2.57 360 12:28 06.01.2022
6014 Clouds 27 1009 83 10000 2.57 340 11:31 06.01.2022
6015 Clouds 27 1008 83 10000 2.57 350 10:59 06.01.2022
6016 Clouds 26 1008 83 10000 1.43 271 06:54 06.01.2022
6017 Rain 24 1011 94 10000 5.14 310 00:34 06.01.2022
6018 Rain 23 1010 94 10000 5.14 340 23:33 05.01.2022
6019 Rain 23 1010 94 10000 5.14 320 22:48 05.01.2022
6020 Rain 23 1010 94 10000 5.14 320 22:28 05.01.2022
6021 Clouds 23 1009 94 10000 5.14 330 21:43 05.01.2022
6022 Clouds 25 1009 87 10000 6.7 329 20:44 05.01.2022
6023 Clouds 25 1007 86 10000 6.16 328 19:42 05.01.2022
6024 Clouds 25 1006 86 10000 5.28 328 18:22 05.01.2022
6025 Clouds 25 1006 85 10000 4.46 340 16:57 05.01.2022
6026 Clouds 25 1007 85 10000 4.02 345 16:21 05.01.2022
6027 Clouds 24 1008 100 10000 3.6 310 15:20 05.01.2022
6028 Clouds 26 1008 84 10000 4.18 344 13:35 05.01.2022
6029 Clouds 26 1008 89 10000 2.57 350 12:30 05.01.2022
6030 Clouds 29 1006 74 10000 7.72 310 08:46 05.01.2022
6031 Haze 30 1006 70 10000 5.14 290 06:46 05.01.2022
6032 Haze 31 1008 62 10000 7.72 320 01:49 05.01.2022
6033 Haze 27 1009 78 10000 5.14 330 23:44 04.01.2022
6034 Haze 27 1009 78 10000 5.14 330 23:25 04.01.2022
6035 Clouds 24 1007 94 10000 2.57 350 21:50 04.01.2022
6036 Clouds 24 1006 94 10000 2.57 310 20:45 04.01.2022
6037 Clouds 24 1006 94 10000 2.57 310 18:41 04.01.2022
6038 Clear 24 1006 100 10000 3.6 360 17:34 04.01.2022
6039 Clear 24 1007 100 10000 2.57 330 16:39 04.01.2022
6040 Clear 24 1007 100 10000 2.57 330 16:20 04.01.2022
6041 Clouds 26 1006 85 10000 2.98 353 14:42 04.01.2022
6042 Clouds 25 1008 88 10000 2.57 310 13:57 04.01.2022
6043 Rain 27 1007 82 10000 3.24 321 12:24 04.01.2022
6044 Rain 26 1007 89 10000 5.14 340 10:24 04.01.2022
6045 Clouds 29 1006 74 10000 6.17 300 08:57 04.01.2022
6046 Clouds 29 1006 74 10000 7.72 300 06:28 04.01.2022
6047 Clouds 31 1008 66 10000 5.14 330 00:43 04.01.2022
6048 Clouds 28 1008 83 10000 3.09 320 23:56 03.01.2022
6049 Clouds 25 1007 100 10000 3.09 320 22:22 03.01.2022
6050 Clouds 24 1006 100 10000 2.57 330 21:40 03.01.2022
6051 Clear 24 1006 100 10000 2.57 340 20:41 03.01.2022
6052 Clear 24 1006 100 10000 2.06 340 19:38 03.01.2022
6053 Clear 24 1005 100 10000 2.57 350 18:31 03.01.2022
6054 Clear 24 1006 100 10000 1.03 0 17:21 03.01.2022
6055 Clear 25 1006 100 10000 2.57 280 16:53 03.01.2022
6056 Clouds 25 1007 88 10000 2.46 356 14:32 03.01.2022
6057 Clouds 26 1008 85 10000 2.63 341 12:53 03.01.2022
6058 Clouds 27 1007 89 10000 4.12 320 11:50 03.01.2022
6059 Clouds 28 1006 78 10000 5.14 290 10:52 03.01.2022
6060 Haze 30 1005 74 10000 5.14 260 09:28 03.01.2022
6061 Haze 32 1004 62 10000 5.14 250 07:54 03.01.2022
6062 Haze 33 1007 55 10000 6.17 310 03:22 03.01.2022
6063 Haze 28 1008 83 10000 4.12 360 23:24 02.01.2022
6064 Haze 26 1008 94 10000 2.57 340 22:56 02.01.2022
6065 Clouds 25 1008 89 10000 2.92 360 21:58 02.01.2022
6066 Clouds 25 1008 94 10000 2.57 340 20:50 02.01.2022
6067 Clouds 25 1008 94 10000 2.57 340 20:30 02.01.2022
6068 Clouds 25 1007 100 10000 5.14 340 19:31 02.01.2022
6069 Clouds 25 1007 94 10000 2.57 0 18:56 02.01.2022
6070 Clouds 25 1007 94 10000 2.06 0 17:57 02.01.2022
6071 Clouds 25 1007 94 10000 2.06 0 17:39 02.01.2022
6072 Clouds 25 1007 94 10000 2.06 0 17:20 02.01.2022
6073 Clouds 25 1007 94 10000 2.57 340 16:28 02.01.2022
6074 Clouds 26 1008 94 10000 1.54 0 14:41 02.01.2022
6075 Clouds 27 1008 79 10000 1.27 330 13:25 02.01.2022
6076 Clouds 27 1008 83 10000 1.54 0 12:31 02.01.2022
6077 Clouds 28 1007 78 10000 2.06 0 11:41 02.01.2022
6078 Clouds 29 1007 74 10000 5.14 240 10:53 02.01.2022
6079 Clouds 30 1006 66 10000 6.69 260 09:55 02.01.2022
6080 Haze 33 1005 55 10000 5.66 260 07:29 02.01.2022
6081 Haze 31 1009 66 10000 7.72 320 02:51 02.01.2022
6082 Haze 26 1010 94 10000 3.09 330 23:41 01.01.2022
6083 Haze 26 1010 94 10000 3.09 330 23:23 01.01.2022
6084 Haze 24 1010 100 10000 3.6 320 22:24 01.01.2022
6085 Clouds 26 1010 82 10000 1.21 7 21:44 01.01.2022
6086 Clouds 24 1008 100 10000 2.57 320 20:56 01.01.2022
6087 Clouds 25 1008 86 10000 1.97 9 20:19 01.01.2022
6088 Clouds 25 1008 86 10000 1.97 9 19:32 01.01.2022
6089 Clouds 25 1007 85 10000 2.54 354 18:29 01.01.2022
6090 Clouds 25 1008 94 10000 2.57 300 16:51 01.01.2022
6091 Clouds 25 1008 94 10000 2.57 300 16:29 01.01.2022
6092 Clear 25 1009 94 10000 2.06 0 15:30 01.01.2022
6093 Clear 26 1009 89 10000 2.06 0 14:21 01.01.2022
6094 Clear 27 1009 83 10000 1.54 0 12:50 01.01.2022
6095 Clouds 27 1009 89 10000 2.57 320 11:59 01.01.2022
6096 Clouds 26 1009 82 10000 2.03 346 11:24 01.01.2022
6097 Haze 28 1008 83 10000 5.14 260 10:42 01.01.2022
6098 Haze 29 1008 79 10000 5.14 260 09:47 01.01.2022
6099 Haze 30 1007 70 10000 7.2 260 08:26 01.01.2022
6100 Haze 31 1007 66 10000 6.69 300 07:55 01.01.2022
6101 Rain 31 1007 66 10000 6.69 300 07:34 01.01.2022
6102 Clouds 32 1007 62 10000 5.14 270 06:41 01.01.2022
6103 Clouds 32 1009 58 10000 5.14 280 04:38 01.01.2022
6104 Rain 31 1010 66 10000 2.57 350 02:54 01.01.2022
6105 Clouds 27 1010 83 10000 3.6 320 23:44 31.12.2021
6106 Clouds 24 1009 94 10000 3.6 300 21:53 31.12.2021
6107 Clouds 24 1009 94 10000 2.57 300 20:39 31.12.2021
6108 Clouds 24 1008 94 10000 2.57 300 19:31 31.12.2021
6109 Clouds 24 1008 94 10000 2.57 300 19:31 31.12.2021
6110 Clouds 24 1008 94 10000 2.57 300 18:41 31.12.2021
6111 Clouds 25 1008 82 10000 2.83 1 17:43 31.12.2021
6112 Clouds 25 1008 83 10000 2.91 359 17:19 31.12.2021
6113 Rain 25 1008 83 10000 2.91 359 16:40 31.12.2021
6114 Rain 25 1009 88 10000 5.14 310 15:57 31.12.2021
6115 Rain 25 1009 88 10000 5.14 310 15:29 31.12.2021
6116 Rain 25 1009 88 10000 5.14 310 15:29 31.12.2021
6117 Rain 26 1010 83 10000 3.6 340 14:57 31.12.2021
6118 Rain 26 1010 83 10000 3.6 340 14:30 31.12.2021
6119 Rain 25 1010 88 10000 5.14 350 13:37 31.12.2021
6120 Rain 26 1010 83 10000 5.14 350 12:49 31.12.2021
6121 Clouds 26 1009 89 10000 2.57 340 11:52 31.12.2021
6122 Clouds 26 1009 89 10000 2.57 340 11:33 31.12.2021
6123 Clouds 27 1008 83 10000 5.14 300 10:38 31.12.2021
6124 Clouds 27 1008 78 10000 3.77 338 10:20 31.12.2021
6125 Clouds 29 1007 70 10000 2.57 300 09:33 31.12.2021
6126 Clouds 30 1007 66 10000 2.57 300 08:43 31.12.2021
6127 Rain 30 1007 66 10000 2.57 310 07:31 31.12.2021
6128 Clouds 25 1010 94 10000 3.09 330 23:32 30.12.2021
6129 Clouds 25 1009 88 10000 3.09 330 22:34 30.12.2021
6130 Rain 24 1008 94 10000 5.14 340 21:59 30.12.2021
6131 Rain 24 1008 94 10000 5.14 340 21:59 30.12.2021
6132 Rain 24 1008 94 10000 5.14 340 21:37 30.12.2021
6133 Rain 24 1008 94 10000 5.14 340 21:37 30.12.2021
6134 Clouds 25 1009 89 10000 4.45 349 20:47 30.12.2021
6135 Clouds 25 1008 87 10000 4.45 331 20:28 30.12.2021
6136 Clouds 25 1007 83 10000 5.14 340 19:48 30.12.2021
6137 Clouds 26 1007 84 10000 4.06 327 18:48 30.12.2021
6138 Clouds 26 1007 82 10000 3.66 321 18:19 30.12.2021
6139 Rain 26 1007 82 10000 3.57 335 16:20 30.12.2021
6140 Clouds 26 1007 82 10000 3.57 335 15:52 30.12.2021
6141 Clouds 28 1009 74 10000 5.14 350 14:40 30.12.2021
6142 Clouds 28 1009 69 10000 5.14 320 13:55 30.12.2021
6143 Clouds 27 1009 80 10000 3.9 329 12:44 30.12.2021
6144 Clouds 30 1007 54 10000 7.72 310 10:59 30.12.2021
6145 Clouds 32 1006 51 10000 7.72 320 09:59 30.12.2021
6146 Clouds 32 1006 51 10000 7.72 320 09:21 30.12.2021
6147 Haze 34 1005 46 10000 10.29 300 06:54 30.12.2021
6148 Haze 33 1007 49 10000 10.29 310 04:20 30.12.2021
6149 Clouds 34 1008 46 10000 10.29 330 03:38 30.12.2021
6150 Clouds 29 1008 65 10000 5.14 330 23:57 29.12.2021
6151 Clouds 29 1008 65 10000 5.14 330 23:23 29.12.2021
6152 Clouds 28 1008 69 10000 5.14 330 22:22 29.12.2021
6153 Clouds 26 1007 78 10000 4.12 310 21:45 29.12.2021
6154 Clouds 26 1007 83 10000 5.14 350 20:39 29.12.2021
6155 Clouds 26 1006 83 10000 5.14 320 19:50 29.12.2021
6156 Clouds 26 1006 89 10000 5.14 340 18:57 29.12.2021
6157 Clouds 26 1008 83 10000 4.6 345 17:57 29.12.2021
6158 Rain 26 1008 82 10000 3.59 347 17:28 29.12.2021
6159 Clouds 27 1007 89 10000 3.6 350 16:44 29.12.2021
6160 Clouds 26 1008 83 10000 3.05 4 16:19 29.12.2021
6161 Clouds 26 1009 82 10000 2.62 0 14:24 29.12.2021
6162 Clouds 26 1009 83 10000 3.6 348 12:42 29.12.2021
6163 Clouds 29 1008 74 10000 4.12 360 11:49 29.12.2021
6164 Rain 29 1007 70 10000 2.57 350 10:31 29.12.2021
6165 Haze 33 1004 62 10000 7.72 290 07:52 29.12.2021
6166 Haze 33 1004 62 10000 7.72 270 06:43 29.12.2021
6167 Haze 33 1004 62 10000 7.72 270 06:23 29.12.2021
6168 Haze 33 1005 62 10000 7.72 270 05:40 29.12.2021
6169 Clouds 30 1007 66 10000 6.21 274 02:48 29.12.2021
6170 Haze 30 1008 66 10000 5.14 320 00:24 29.12.2021
6171 Haze 27 1008 83 10000 5.14 310 23:45 28.12.2021
6172 Haze 25 1007 94 10000 4.12 310 22:42 28.12.2021
6173 Haze 25 1007 94 10000 4.12 310 22:24 28.12.2021
6174 Clouds 24 1006 94 10000 2.06 0 21:52 28.12.2021
6175 Clouds 24 1005 94 10000 2.06 0 20:40 28.12.2021
6176 Clouds 24 1005 94 10000 1.54 0 19:31 28.12.2021
6177 Clouds 26 1005 78 10000 0.98 29 18:41 28.12.2021
6178 Clouds 25 1005 94 10000 2.06 0 17:59 28.12.2021
6179 Clouds 26 1005 94 10000 2.57 110 16:35 28.12.2021
6180 Clouds 26 1006 94 10000 2.57 150 15:50 28.12.2021
6181 Clouds 26 1006 94 10000 2.57 150 15:22 28.12.2021
6182 Clouds 27 1006 89 10000 5.14 140 14:50 28.12.2021
6183 Clouds 27 1007 78 10000 2.65 101 14:21 28.12.2021
6184 Clouds 27 1006 89 10000 5.14 140 13:42 28.12.2021
6185 Clouds 27 1006 89 10000 5.14 140 13:24 28.12.2021
6186 Clouds 27 1007 83 10000 5.14 130 12:49 28.12.2021
6187 Clouds 27 1007 83 10000 5.14 130 11:46 28.12.2021
6188 Haze 32 1005 55 10000 2.63 164 08:35 28.12.2021
6189 Haze 33 1005 55 10000 4.12 200 06:58 28.12.2021
6190 Clouds 29 1009 70 10000 5.14 350 00:34 28.12.2021
6191 Clouds 28 1009 66 10000 0.47 96 23:24 27.12.2021
6192 Clouds 24 1007 94 10000 3.09 300 21:42 27.12.2021
6193 Clouds 24 1007 94 10000 3.09 300 21:21 27.12.2021
6194 Clouds 24 1006 94 10000 4.12 320 20:23 27.12.2021
6195 Clouds 24 1006 94 10000 4.12 320 19:41 27.12.2021
6196 Rain 24 1006 94 10000 2.57 320 18:34 27.12.2021
6197 Clouds 25 1006 94 10000 2.57 320 17:48 27.12.2021
6198 Clouds 25 1007 94 10000 2.57 330 16:40 27.12.2021
6199 Clouds 26 1008 89 10000 3.09 340 15:52 27.12.2021
6200 Clouds 27 1008 78 10000 1.54 0 14:33 27.12.2021
6201 Clouds 28 1008 78 10000 0 0 13:39 27.12.2021
6202 Clouds 27 1009 78 10000 2.57 330 12:36 27.12.2021
6203 Clouds 28 1009 73 10000 1.72 151 10:31 27.12.2021
6204 Clouds 31 1007 55 10000 5.14 270 09:47 27.12.2021
6205 Clouds 32 1006 55 10000 5.14 270 07:38 27.12.2021
6206 Clouds 32 1006 55 10000 5.14 270 07:20 27.12.2021
6207 Clouds 30 1007 62 10000 2.98 286 02:19 27.12.2021
6208 Clouds 28 1008 74 10000 2.06 0 23:58 26.12.2021
6209 Clouds 28 1008 74 10000 2.06 0 23:36 26.12.2021
6210 Clouds 25 1008 94 10000 1.54 0 22:23 26.12.2021
6211 Clouds 23 1007 100 10000 3.6 310 20:54 26.12.2021
6212 Clouds 23 1007 100 10000 3.09 340 19:47 26.12.2021
6213 Clouds 23 1007 100 10000 3.09 340 19:47 26.12.2021
6214 Rain 26 1007 82 10000 2.06 315 18:24 26.12.2021
6215 Clouds 26 1007 85 10000 2.65 356 16:20 26.12.2021
6216 Clouds 26 1009 86 10000 3.15 351 14:27 26.12.2021
6217 Clouds 26 1009 86 10000 3.15 351 13:40 26.12.2021
6218 Clouds 26 1009 85 10000 3.64 342 13:19 26.12.2021
6219 Clouds 26 1009 84 10000 3.18 357 12:32 26.12.2021
6220 Clouds 26 1009 94 10000 5.14 330 10:32 26.12.2021
6221 Clouds 28 1007 78 10000 2.8 326 09:19 26.12.2021
6222 Clouds 30 1007 70 10000 5.14 280 08:43 26.12.2021
6223 Clouds 32 1007 58 10000 6.17 280 07:34 26.12.2021
6224 Rain 30 1010 74 10000 5.14 350 01:24 26.12.2021
6225 Clouds 27 1010 89 10000 3.09 320 23:53 25.12.2021
6226 Clouds 27 1010 89 10000 3.09 320 23:27 25.12.2021
6227 Clouds 25 1010 100 10000 3.09 320 22:23 25.12.2021
6228 Clouds 25 1008 100 10000 3.09 330 20:48 25.12.2021
6229 Clouds 25 1008 100 10000 2.57 330 19:23 25.12.2021
6230 Clouds 26 1007 83 10000 1.45 50 18:54 25.12.2021
6231 Clouds 26 1007 82 10000 1.43 117 17:29 25.12.2021
6232 Clouds 26 1007 82 10000 1.43 117 16:35 25.12.2021
6233 Clouds 26 1007 81 10000 1.52 112 14:38 25.12.2021
6234 Clouds 27 1007 79 10000 0.9 67 12:49 25.12.2021
6235 Clouds 27 1007 89 10000 2.06 290 11:45 25.12.2021
6236 Clouds 30 1005 74 10000 5.14 280 09:50 25.12.2021
6237 Clouds 32 1005 70 10000 5.14 350 08:38 25.12.2021
6238 Haze 32 1009 62 10000 7.72 320 02:59 25.12.2021
6239 Clouds 30 1010 74 10000 5.14 300 00:33 25.12.2021
6240 Clouds 28 1010 89 10000 3.09 340 23:39 24.12.2021
6241 Clouds 25 1008 94 10000 2.57 330 19:40 24.12.2021
6242 Clouds 25 1008 94 10000 2.57 330 19:22 24.12.2021
6243 Clouds 25 1009 94 10000 2.57 330 16:50 24.12.2021
6244 Clouds 25 1009 94 10000 2.57 330 16:21 24.12.2021
6245 Clouds 26 1008 84 10000 0.77 50 15:46 24.12.2021
6246 Clouds 26 1008 83 10000 0.47 80 14:46 24.12.2021
6247 Clouds 26 1008 82 10000 0.96 66 14:23 24.12.2021
6248 Clouds 26 1008 82 10000 0.96 66 13:37 24.12.2021
6249 Clouds 27 1007 89 10000 0.51 0 12:48 24.12.2021
6250 Clouds 27 1008 83 10000 1.54 0 11:52 24.12.2021
6251 Clouds 27 1008 83 10000 1.54 0 11:26 24.12.2021
6252 Clouds 28 1007 74 10000 4.12 250 10:50 24.12.2021
6253 Clouds 27 1007 78 10000 1.16 150 10:22 24.12.2021
6254 Haze 30 1006 66 10000 6.17 250 08:25 24.12.2021
6255 Haze 31 1005 70 10000 7.72 270 07:50 24.12.2021
6256 Clouds 30 1009 74 10000 5.14 300 02:52 24.12.2021
6257 Clouds 28 1010 71 10000 1.81 333 00:19 24.12.2021
6258 Clouds 28 1009 83 10000 2.57 120 23:22 23.12.2021
6259 Clouds 26 1009 89 10000 1.03 0 22:37 23.12.2021
6260 Clouds 26 1009 89 10000 1.03 0 22:37 23.12.2021
6261 Clouds 26 1009 89 10000 1.03 0 22:19 23.12.2021
6262 Clouds 24 1007 94 10000 1.54 0 21:33 23.12.2021
6263 Clouds 25 1008 85 10000 2.21 4 20:19 23.12.2021
6264 Clouds 25 1007 86 10000 2.35 7 18:37 23.12.2021
6265 Clouds 25 1007 87 10000 2.44 11 17:57 23.12.2021
6266 Clouds 25 1007 86 10000 2.37 5 16:47 23.12.2021
6267 Clouds 25 1008 87 10000 2.18 6 16:24 23.12.2021
6268 Clouds 25 1008 88 10000 3.09 350 15:31 23.12.2021
6269 Clouds 26 1008 85 10000 2.04 7 14:52 23.12.2021
6270 Clouds 26 1008 85 10000 2.04 7 14:31 23.12.2021
6271 Rain 26 1009 82 10000 1.87 21 12:57 23.12.2021
6272 Clouds 26 1008 81 10000 0.08 206 10:52 23.12.2021
6273 Clouds 27 1008 79 10000 0.25 251 09:47 23.12.2021
6274 Clouds 31 1006 70 10000 7.72 180 08:59 23.12.2021
6275 Clouds 31 1006 70 10000 7.72 180 08:59 23.12.2021
6276 Clouds 29 1005 71 10000 2.77 212 06:55 23.12.2021
6277 Clouds 32 1006 62 10000 7.72 210 04:33 23.12.2021
6278 Clouds 27 1008 75 10000 0.5 13 23:20 22.12.2021
6279 Clouds 27 1008 75 10000 0.5 13 22:42 22.12.2021
6280 Haze 24 1007 100 10000 2.57 320 21:56 22.12.2021
6281 Haze 24 1007 100 10000 2.57 320 21:29 22.12.2021
6282 Clouds 24 1006 100 10000 1.54 0 20:47 22.12.2021
6283 Clouds 24 1006 100 10000 1.54 0 20:26 22.12.2021
6284 Clouds 24 1006 100 10000 1.54 0 19:28 22.12.2021
6285 Clouds 25 1006 94 10000 2.57 320 17:42 22.12.2021
6286 Clouds 26 1006 89 10000 1.54 0 16:39 22.12.2021
6287 Clouds 26 1007 89 10000 1.54 0 15:40 22.12.2021
6288 Clouds 26 1008 89 10000 1.54 0 13:33 22.12.2021
6289 Clouds 27 1008 81 10000 2.03 116 12:40 22.12.2021
6290 Clouds 27 1007 76 10000 2.05 143 10:19 22.12.2021
6291 Clouds 27 1007 76 10000 2.05 143 09:38 22.12.2021
6292 Clouds 32 1005 58 10000 5.66 180 07:25 22.12.2021
6293 Clouds 33 1006 55 10000 6.69 210 05:43 22.12.2021
6294 Clouds 33 1006 55 10000 6.69 210 05:24 22.12.2021
6295 Haze 33 1007 55 10000 4.12 140 04:49 22.12.2021
6296 Haze 33 1007 55 10000 4.12 140 04:24 22.12.2021
6297 Haze 33 1008 55 10000 5.14 200 03:32 22.12.2021
6298 Clouds 30 1009 66 10000 2.57 320 00:47 22.12.2021
6299 Clouds 25 1009 94 10000 2.57 320 22:52 21.12.2021
6300 Clouds 26 1009 81 10000 1.29 64 22:28 21.12.2021
6301 Clouds 24 1008 94 10000 2.57 310 21:44 21.12.2021
6302 Clouds 24 1008 94 10000 1.54 0 20:55 21.12.2021
6303 Clouds 24 1008 94 10000 1.54 0 20:21 21.12.2021
6304 Clouds 24 1007 94 10000 1.54 0 19:41 21.12.2021
6305 Clouds 24 1007 94 10000 1.54 0 18:45 21.12.2021
6306 Clouds 25 1007 85 10000 1.73 49 18:21 21.12.2021
6307 Clouds 24 1007 94 10000 2.06 310 17:41 21.12.2021
6308 Clouds 25 1008 94 10000 1.54 0 15:55 21.12.2021
6309 Clouds 26 1009 81 10000 0.93 63 15:20 21.12.2021
6310 Clouds 26 1009 89 10000 1.54 0 13:50 21.12.2021
6311 Clouds 26 1009 89 10000 1.54 0 13:29 21.12.2021
6312 Clouds 27 1008 83 10000 2.57 140 10:56 21.12.2021
6313 Clouds 30 1007 66 10000 4.12 170 09:59 21.12.2021
6314 Clouds 28 1008 73 10000 1.75 214 09:18 21.12.2021
6315 Clouds 32 1006 58 10000 5.14 200 07:54 21.12.2021
6316 Clouds 32 1006 58 10000 5.14 200 07:25 21.12.2021
6317 Haze 33 1007 58 10000 2.57 200 05:31 21.12.2021
6318 Haze 32 1010 55 10000 4.63 350 02:40 21.12.2021
6319 Haze 27 1010 78 10000 2.57 350 23:58 20.12.2021
6320 Haze 27 1010 78 10000 2.57 350 23:24 20.12.2021
6321 Haze 25 1010 88 10000 2.57 350 22:28 20.12.2021
6322 Clouds 25 1010 84 10000 1.09 18 21:43 20.12.2021
6323 Clouds 25 1010 85 10000 1.29 25 21:23 20.12.2021
6324 Clouds 24 1008 94 10000 2.57 320 20:42 20.12.2021
6325 Clouds 25 1009 85 10000 1.29 29 19:48 20.12.2021
6326 Clouds 25 1008 85 10000 1.01 29 19:29 20.12.2021
6327 Clouds 25 1008 85 10000 1.01 29 18:49 20.12.2021
6328 Clouds 25 1009 88 10000 1.54 0 17:52 20.12.2021
6329 Clouds 25 1009 88 10000 1.54 0 16:56 20.12.2021
6330 Clouds 25 1009 88 10000 1.54 0 16:36 20.12.2021
6331 Rain 25 1009 87 10000 1.5 35 15:47 20.12.2021
6332 Clouds 25 1010 87 10000 1.45 20 14:41 20.12.2021
6333 Clouds 25 1011 84 10000 1.64 17 12:44 20.12.2021
6334 Clouds 28 1009 78 10000 2.57 250 10:55 20.12.2021
6335 Clouds 29 1009 74 10000 5.14 240 09:47 20.12.2021
6336 Clouds 30 1008 70 10000 5.14 230 08:56 20.12.2021
6337 Clouds 30 1008 70 10000 5.14 230 08:38 20.12.2021
6338 Clouds 31 1007 66 10000 7.72 230 07:46 20.12.2021
6339 Clouds 32 1007 66 10000 7.72 230 06:40 20.12.2021
6340 Clouds 31 1010 74 10000 5.14 340 02:32 20.12.2021
6341 Clouds 27 1010 89 10000 2.57 350 23:37 19.12.2021
6342 Clouds 25 1011 94 10000 2.06 320 22:44 19.12.2021
6343 Clouds 24 1010 100 10000 1.54 0 21:44 19.12.2021
6344 Clouds 24 1010 100 10000 1.54 0 21:25 19.12.2021
6345 Clouds 24 1010 85 10000 1.35 42 20:24 19.12.2021
6346 Clouds 24 1008 94 10000 1.54 330 19:43 19.12.2021
6347 Clouds 24 1009 100 10000 1.54 0 18:50 19.12.2021
6348 Clouds 24 1009 100 10000 1.54 0 17:54 19.12.2021
6349 Clouds 24 1009 100 10000 1.54 0 17:35 19.12.2021
6350 Clouds 24 1009 100 10000 1.54 0 16:45 19.12.2021
6351 Clouds 24 1009 100 10000 1.54 0 16:45 19.12.2021
6352 Clouds 25 1009 85 10000 1.33 39 15:56 19.12.2021
6353 Clouds 25 1010 84 10000 1.29 34 15:25 19.12.2021
6354 Clouds 25 1010 94 10000 1.54 0 14:48 19.12.2021
6355 Clouds 25 1011 84 10000 1.23 37 13:38 19.12.2021
6356 Clouds 25 1011 85 10000 0.94 36 12:59 19.12.2021
6357 Clouds 25 1011 85 10000 0.94 36 12:32 19.12.2021
6358 Clouds 25 1010 94 10000 3.09 330 11:38 19.12.2021
6359 Clouds 26 1009 89 10000 3.09 340 10:50 19.12.2021
6360 Clouds 26 1009 89 10000 3.09 340 10:22 19.12.2021
6361 Clouds 29 1008 74 10000 3.6 200 08:51 19.12.2021
6362 Clouds 32 1008 62 10000 5.14 230 06:51 19.12.2021
6363 Clouds 30 1011 70 10000 2.57 160 01:52 19.12.2021
6364 Clouds 29 1011 65 10000 1.54 0 00:54 19.12.2021
6365 Clouds 26 1010 83 10000 1.54 0 23:21 18.12.2021
6366 Clouds 23 1010 100 10000 1.54 0 22:28 18.12.2021
6367 Clouds 23 1009 94 10000 1.54 0 21:44 18.12.2021
6368 Clouds 23 1009 94 10000 1.54 0 21:25 18.12.2021
6369 Clouds 23 1009 94 10000 1.54 0 20:43 18.12.2021
6370 Clouds 22 1008 100 10000 2.57 320 19:38 18.12.2021
6371 Clouds 23 1008 94 10000 2.57 310 18:25 18.12.2021
6372 Clouds 23 1009 94 10000 2.57 340 17:49 18.12.2021
6373 Clouds 23 1009 94 10000 2.06 0 16:48 18.12.2021
6374 Clouds 23 1009 94 10000 2.06 0 16:20 18.12.2021
6375 Clouds 25 1010 86 10000 2.34 352 14:54 18.12.2021
6376 Clouds 25 1011 84 10000 2.31 358 13:45 18.12.2021
6377 Clouds 25 1010 84 10000 1.14 101 11:57 18.12.2021
6378 Clouds 25 1009 86 10000 0.61 157 09:54 18.12.2021
6379 Clouds 25 1009 86 10000 0.61 157 09:31 18.12.2021
6380 Clouds 27 1008 89 10000 5.14 340 08:36 18.12.2021
6381 Clouds 27 1008 89 10000 4.12 300 06:28 18.12.2021
6382 Clouds 25 1010 100 4000 2.57 100 01:45 18.12.2021
6383 Rain 25 1009 100 4000 5.14 150 23:49 17.12.2021
6384 Rain 26 1009 89 4667 2.6 341 22:39 17.12.2021
6385 Rain 25 1007 88 10000 1.29 77 21:29 17.12.2021
6386 Rain 25 1007 88 10000 1.29 77 20:43 17.12.2021
6387 Rain 26 1006 88 10000 1.49 90 19:51 17.12.2021
6388 Clouds 26 1006 88 10000 2.58 112 18:39 17.12.2021
6389 Clouds 26 1005 88 10000 2.56 112 17:47 17.12.2021
6390 Clouds 26 1006 87 10000 3.16 128 16:50 17.12.2021
6391 Clouds 26 1006 88 10000 2.99 125 16:27 17.12.2021
6392 Clouds 26 1006 87 10000 3.2 116 15:27 17.12.2021
6393 Clouds 27 1007 94 10000 2.57 130 14:42 17.12.2021
6394 Clouds 28 1007 89 10000 4.12 130 13:35 17.12.2021
6395 Clouds 27 1007 86 10000 4.78 131 12:28 17.12.2021
6396 Clouds 27 1006 87 10000 4.88 140 10:41 17.12.2021
6397 Clouds 29 1005 79 10000 5.14 150 09:47 17.12.2021
6398 Clouds 29 1005 79 10000 5.14 150 09:47 17.12.2021
6399 Clouds 31 1004 70 10000 5.14 150 08:31 17.12.2021
6400 Clouds 29 1004 77 10000 3.82 167 07:21 17.12.2021
6401 Haze 32 1006 70 10000 7.72 220 04:40 17.12.2021
6402 Clouds 26 1008 94 10000 3.09 320 23:58 16.12.2021
6403 Clouds 26 1008 86 10000 0.99 59 22:24 16.12.2021
6404 Clouds 24 1006 94 10000 1.03 0 21:51 16.12.2021
6405 Clouds 24 1006 94 10000 1.03 0 21:30 16.12.2021
6406 Clouds 24 1006 94 10000 2.06 330 20:31 16.12.2021
6407 Clouds 24 1005 94 10000 2.57 300 19:49 16.12.2021
6408 Clouds 24 1005 100 10000 1.54 0 18:41 16.12.2021
6409 Clouds 24 1005 100 10000 3.09 320 17:57 16.12.2021
6410 Clouds 24 1005 100 10000 3.09 320 17:31 16.12.2021
6411 Clouds 26 1007 86 10000 1.41 37 16:22 16.12.2021
6412 Clouds 26 1008 85 10000 0.99 32 14:51 16.12.2021
6413 Clouds 25 1007 94 10000 1.54 0 13:29 16.12.2021
6414 Rain 25 1007 94 10000 3.6 340 11:20 16.12.2021
6415 Rain 25 1007 94 10000 5.14 320 10:59 16.12.2021
6416 Rain 25 1007 94 10000 5.14 320 10:22 16.12.2021
6417 Rain 27 1006 89 10000 5.14 10 08:25 16.12.2021
6418 Clouds 27 1006 86 5091 3.78 233 06:22 16.12.2021
6419 Haze 30 1008 79 10000 3.6 330 01:25 16.12.2021
6420 Haze 26 1008 89 10000 2.06 0 23:33 15.12.2021
6421 Clouds 25 1008 94 10000 2.57 300 22:43 15.12.2021
6422 Clouds 25 1007 94 10000 2.06 310 21:56 15.12.2021
6423 Rain 25 1007 94 10000 2.06 310 21:27 15.12.2021
6424 Clouds 25 1007 89 10000 2 11 20:18 15.12.2021
6425 Clouds 25 1006 94 10000 2.57 0 19:50 15.12.2021
6426 Clouds 25 1006 94 10000 2.06 0 18:37 15.12.2021
6427 Clouds 25 1006 94 10000 2.06 0 17:53 15.12.2021
6428 Clouds 25 1006 94 10000 2.06 0 17:34 15.12.2021
6429 Clouds 25 1007 94 10000 2.06 0 16:28 15.12.2021
6430 Clouds 25 1008 100 10000 3.09 350 15:46 15.12.2021
6431 Clouds 26 1007 86 10000 1.51 17 15:27 15.12.2021
6432 Clouds 25 1008 87 10000 1.56 38 14:18 15.12.2021
6433 Rain 25 1008 88 10000 1.89 37 12:32 15.12.2021
6434 Rain 28 1007 83 10000 2.57 130 10:27 15.12.2021
6435 Haze 29 1006 74 10000 4.12 150 08:55 15.12.2021
6436 Haze 31 1004 66 10000 6.17 180 06:54 15.12.2021
6437 Haze 31 1008 66 10000 3.09 260 01:20 15.12.2021
6438 Haze 28 1008 78 10000 1.54 0 23:42 14.12.2021
6439 Haze 26 1008 89 10000 1.54 0 22:48 14.12.2021
6440 Haze 26 1008 89 10000 1.54 0 22:18 14.12.2021
6441 Clouds 25 1006 83 10000 1.83 89 20:28 14.12.2021
6442 Clouds 25 1006 83 10000 1.83 89 19:40 14.12.2021
6443 Clouds 25 1006 94 10000 1.54 110 18:44 14.12.2021
6444 Clouds 25 1006 94 10000 1.54 110 18:22 14.12.2021
6445 Clouds 25 1006 94 10000 1.54 0 17:28 14.12.2021
6446 Clouds 25 1006 94 10000 1.54 0 16:38 14.12.2021
6447 Clouds 26 1007 89 10000 1.54 0 15:26 14.12.2021
6448 Clouds 26 1007 89 10000 2.57 20 13:31 14.12.2021
6449 Rain 26 1007 89 10000 2.57 350 11:58 14.12.2021
6450 Rain 26 1007 89 10000 2.57 350 11:23 14.12.2021
6451 Rain 25 1007 83 10000 2.07 13 09:57 14.12.2021
6452 Clouds 25 1007 83 10000 2.07 13 09:35 14.12.2021
6453 Clouds 26 1006 84 10000 2.79 11 08:23 14.12.2021
6454 Clouds 31 1004 66 10000 8.23 250 07:43 14.12.2021
6455 Clouds 30 1008 70 10000 2.57 340 02:25 14.12.2021
6456 Clouds 25 1008 94 10000 5.14 350 22:50 13.12.2021
6457 Rain 25 1008 91 7625 2.25 11 21:52 13.12.2021
6458 Clouds 25 1006 94 10000 2.57 320 20:59 13.12.2021
6459 Clouds 25 1006 94 10000 2.57 320 20:34 13.12.2021
6460 Clouds 25 1005 94 10000 5.14 340 19:52 13.12.2021
6461 Clouds 25 1005 94 10000 2.57 350 17:56 13.12.2021
6462 Clouds 25 1005 94 10000 2.57 350 17:24 13.12.2021
6463 Clouds 25 1007 94 10000 1.54 0 15:50 13.12.2021
6464 Clouds 25 1007 94 10000 1.54 0 15:19 13.12.2021
6465 Clouds 26 1007 89 10000 2.06 0 13:38 13.12.2021
6466 Clouds 26 1006 89 10000 1.54 0 12:42 13.12.2021
6467 Clouds 26 1006 89 10000 1.54 0 11:54 13.12.2021
6468 Clouds 26 1006 89 10000 1.54 0 11:35 13.12.2021
6469 Rain 26 1005 83 10000 2.57 300 10:43 13.12.2021
6470 Rain 28 1005 78 10000 5.14 300 08:52 13.12.2021
6471 Clouds 30 1004 70 10000 5.14 270 07:37 13.12.2021
6472 Clouds 32 1004 58 10000 7.72 260 05:34 13.12.2021
6473 Clouds 28 1007 78 10000 2.57 340 00:43 13.12.2021
6474 Clouds 23 1006 100 10000 2.57 350 21:59 12.12.2021
6475 Clouds 23 1006 100 10000 2.57 350 21:33 12.12.2021
6476 Clouds 25 1006 85 10000 2.18 357 19:38 12.12.2021
6477 Clouds 26 1005 85 10000 1.82 10 18:28 12.12.2021
6478 Clouds 24 1006 100 10000 2.57 340 16:54 12.12.2021
6479 Clouds 24 1006 100 10000 2.57 340 16:26 12.12.2021
6480 Clouds 26 1006 83 10000 1.59 10 15:28 12.12.2021
6481 Clouds 26 1006 83 10000 1.59 10 14:54 12.12.2021
6482 Clouds 26 1007 82 10000 1.19 14 14:22 12.12.2021
6483 Clouds 26 1007 89 10000 1.54 350 12:55 12.12.2021
6484 Clouds 26 1007 89 10000 1.54 350 12:24 12.12.2021
6485 Clouds 25 1007 94 10000 2.57 320 11:43 12.12.2021
6486 Clouds 26 1007 89 10000 3.6 20 10:44 12.12.2021
6487 Clouds 26 1007 89 10000 3.6 20 10:44 12.12.2021
6488 Clouds 26 1007 89 10000 3.6 20 10:21 12.12.2021
6489 Haze 26 1005 89 10000 7.72 30 08:50 12.12.2021
6490 Haze 32 1005 62 10000 5.14 300 07:30 12.12.2021
6491 Clouds 33 1005 58 10000 7.72 260 05:56 12.12.2021
6492 Rain 32 1005 62 10000 7.72 290 04:53 12.12.2021
6493 Clouds 28 1008 76 10000 2.42 329 01:26 12.12.2021
6494 Clouds 27 1008 83 10000 5.14 330 23:26 11.12.2021
6495 Clouds 26 1007 89 10000 5.14 330 22:21 11.12.2021
6496 Clouds 26 1008 84 10000 2.38 358 21:36 11.12.2021
6497 Clouds 25 1006 85 10000 2.33 4 20:20 11.12.2021
6498 Clouds 25 1006 86 10000 2.18 16 19:21 11.12.2021
6499 Clouds 26 1006 89 10000 5.14 350 18:48 11.12.2021
6500 Clouds 25 1006 86 10000 1.9 19 17:54 11.12.2021
6501 Clouds 26 1007 89 10000 5.14 350 16:37 11.12.2021
6502 Clouds 25 1006 87 9075 2.07 7 15:41 11.12.2021
6503 Rain 26 1007 86 10000 1.69 359 14:36 11.12.2021
6504 Clouds 26 1008 85 10000 2.16 345 12:31 11.12.2021
6505 Clouds 27 1008 83 10000 2.52 342 10:58 11.12.2021
6506 Clouds 27 1007 83 10000 2.77 322 09:44 11.12.2021
6507 Clouds 31 1007 70 10000 5.14 340 03:58 11.12.2021
6508 Clouds 31 1009 70 10000 5.14 320 00:48 11.12.2021
6509 Clouds 28 1009 78 10000 3.09 320 23:44 10.12.2021
6510 Clouds 25 1009 94 10000 3.09 320 22:47 10.12.2021
6511 Clouds 26 1008 82 10000 1.95 0 21:41 10.12.2021
6512 Clouds 25 1007 85 10000 1.87 6 20:28 10.12.2021
6513 Clouds 25 1006 86 10000 1.8 4 19:19 10.12.2021
6514 Clouds 25 1006 88 10000 2.09 28 17:46 10.12.2021
6515 Clouds 25 1006 89 10000 2.19 17 16:37 10.12.2021
6516 Clouds 25 1008 94 10000 2.57 330 15:45 10.12.2021
6517 Clouds 25 1008 94 10000 2.57 330 15:26 10.12.2021
6518 Clouds 25 1008 94 10000 5.14 320 14:35 10.12.2021
6519 Clouds 26 1008 94 10000 5.14 320 13:49 10.12.2021
6520 Clouds 26 1008 94 10000 5.14 340 12:56 10.12.2021
6521 Rain 28 1008 83 10000 5.14 320 11:43 10.12.2021
6522 Rain 28 1007 83 10000 2.57 320 10:57 10.12.2021
6523 Clouds 29 1006 74 10000 5.14 270 09:46 10.12.2021
6524 Clouds 32 1005 58 10000 7.72 260 07:49 10.12.2021
6525 Clouds 34 1006 55 10000 5.14 260 04:57 10.12.2021
6526 Clouds 33 1008 58 10000 5.14 330 02:42 10.12.2021
6527 Clouds 25 1009 94 10000 3.09 320 23:42 09.12.2021
6528 Clouds 25 1009 94 10000 3.09 320 22:41 09.12.2021
6529 Clouds 25 1009 94 10000 3.09 320 22:22 09.12.2021
6530 Clouds 24 1008 94 10000 3.09 320 21:40 09.12.2021
6531 Clouds 24 1007 94 10000 3.6 320 20:35 09.12.2021
6532 Clouds 24 1007 94 10000 3.6 330 19:38 09.12.2021
6533 Clouds 25 1007 86 10000 3.01 354 19:20 09.12.2021
6534 Clouds 25 1007 86 10000 2.5 1 18:19 09.12.2021
6535 Clouds 24 1007 100 10000 4.12 330 17:47 09.12.2021
6536 Clouds 25 1007 86 10000 2.24 0 17:24 09.12.2021
6537 Clouds 25 1008 94 10000 2.57 330 16:25 09.12.2021
6538 Rain 25 1008 86 10000 2.19 19 14:59 09.12.2021
6539 Rain 25 1008 86 10000 2.19 19 14:30 09.12.2021
6540 Clouds 25 1009 94 10000 2.57 360 12:48 09.12.2021
6541 Clouds 26 1008 89 10000 2.57 320 11:33 09.12.2021
6542 Clouds 27 1008 83 10000 2.57 310 10:20 09.12.2021
6543 Clouds 30 1006 70 10000 5.14 330 06:59 09.12.2021
6544 Haze 30 1007 70 10000 5.14 320 03:55 09.12.2021
6545 Clouds 29 1009 70 10000 3.6 350 00:25 09.12.2021
6546 Clouds 26 1009 89 10000 4.12 340 23:36 08.12.2021
6547 Clouds 26 1009 89 10000 2.57 330 22:57 08.12.2021
6548 Clouds 26 1009 89 10000 2.57 330 22:25 08.12.2021
6549 Clouds 24 1007 94 10000 2.57 310 21:33 08.12.2021
6550 Clouds 25 1007 88 10000 2.57 320 20:48 08.12.2021
6551 Clouds 25 1006 88 10000 1.54 340 19:56 08.12.2021
6552 Clouds 24 1006 94 10000 3.6 320 18:58 08.12.2021
6553 Clouds 25 1007 88 10000 2.06 24 18:22 08.12.2021
6554 Clouds 26 1007 89 10000 3.09 340 16:49 08.12.2021
6555 Clouds 26 1008 89 10000 3.6 70 15:41 08.12.2021
6556 Clouds 26 1008 89 10000 3.6 70 15:21 08.12.2021
6557 Clouds 26 1009 83 10000 1.58 110 13:21 08.12.2021
6558 Clouds 29 1006 79 10000 5.66 160 10:42 08.12.2021
6559 Clouds 30 1005 74 10000 2.06 170 09:32 08.12.2021
6560 Clouds 32 1004 66 10000 6.17 200 07:50 08.12.2021
6561 Clouds 33 1006 62 10000 2.57 200 05:37 08.12.2021
6562 Haze 31 1009 70 10000 3.6 330 00:27 08.12.2021
6563 Clouds 26 1009 89 10000 2.06 350 22:52 07.12.2021
6564 Clouds 25 1008 86 10000 1.33 44 21:25 07.12.2021
6565 Clouds 25 1007 86 10000 1.61 39 20:25 07.12.2021
6566 Clouds 25 1007 94 10000 1.54 0 18:59 07.12.2021
6567 Clouds 25 1007 86 10000 1.52 43 18:20 07.12.2021
6568 Clouds 25 1007 85 10000 1.43 42 17:23 07.12.2021
6569 Clouds 25 1007 94 10000 1.54 0 16:41 07.12.2021
6570 Clouds 25 1008 94 10000 1.54 0 15:59 07.12.2021
6571 Clouds 26 1008 89 10000 2.06 0 14:37 07.12.2021
6572 Clouds 26 1009 83 10000 2.06 0 13:29 07.12.2021
6573 Clouds 26 1008 83 10000 1.54 0 12:21 07.12.2021
6574 Clouds 28 1007 83 10000 2.57 170 10:45 07.12.2021
6575 Clouds 28 1007 76 10000 0.71 252 09:19 07.12.2021
6576 Clouds 32 1005 62 10000 7.72 260 06:39 07.12.2021
6577 Clouds 32 1005 66 10000 7.72 230 05:45 07.12.2021
6578 Clouds 30 1008 66 10000 5.14 310 01:43 07.12.2021
6579 Clouds 27 1008 83 10000 2.06 350 23:21 06.12.2021
6580 Clouds 24 1008 100 10000 2.57 340 22:40 06.12.2021
6581 Fog 24 1007 94 10000 4.12 330 21:58 06.12.2021
6582 Fog 24 1007 94 10000 4.12 330 21:20 06.12.2021
6583 Fog 23 1006 100 10000 2.57 330 20:30 06.12.2021
6584 Clouds 24 1005 94 10000 3.09 320 19:24 06.12.2021
6585 Clouds 24 1005 100 10000 2.06 0 18:29 06.12.2021
6586 Clouds 25 1006 87 10000 1.85 34 17:52 06.12.2021
6587 Clouds 25 1006 87 10000 1.78 33 17:20 06.12.2021
6588 Clouds 24 1007 100 10000 2.57 340 15:49 06.12.2021
6589 Clouds 25 1008 84 10000 1.81 45 13:47 06.12.2021
6590 Clouds 24 1008 94 10000 5.14 30 12:40 06.12.2021
6591 Clouds 24 1007 94 10000 4.63 40 11:54 06.12.2021
6592 Clouds 27 1006 89 10000 7.72 360 09:35 06.12.2021
6593 Clouds 29 1004 74 10000 5.66 310 06:59 06.12.2021
6594 Clouds 28 1007 78 10000 5.14 330 00:33 06.12.2021
6595 Clouds 25 1006 94 10000 1.54 0 21:53 05.12.2021
6596 Clouds 25 1006 94 10000 1.54 0 21:25 05.12.2021
6597 Clouds 24 1006 86 10000 2.13 19 20:20 05.12.2021
6598 Clouds 25 1005 100 10000 2.57 350 19:49 05.12.2021
6599 Clouds 25 1005 100 10000 2.57 350 19:21 05.12.2021
6600 Clouds 25 1005 94 10000 2.57 320 18:20 05.12.2021
6601 Clouds 25 1005 94 10000 2.57 320 17:49 05.12.2021
6602 Clouds 25 1006 94 10000 5.14 300 16:52 05.12.2021
6603 Clouds 25 1006 94 10000 5.14 300 16:27 05.12.2021
6604 Clouds 25 1006 85 10000 1.75 39 15:58 05.12.2021
6605 Clouds 25 1006 84 10000 1.67 47 14:45 05.12.2021
6606 Clouds 26 1007 82 10000 1.71 74 14:26 05.12.2021
6607 Clouds 26 1008 81 10000 1.65 108 13:27 05.12.2021
6608 Clouds 26 1007 83 10000 1.92 111 12:40 05.12.2021
6609 Clouds 26 1007 83 9485 2.24 125 12:18 05.12.2021
6610 Clouds 26 1007 83 9485 2.24 125 11:34 05.12.2021
6611 Clouds 26 1006 82 10000 2.37 152 10:18 05.12.2021
6612 Clouds 30 1004 70 10000 5.14 210 08:29 05.12.2021
6613 Clouds 29 1006 79 10000 5.14 190 03:39 05.12.2021
6614 Rain 27 1007 89 10000 1.54 0 00:48 05.12.2021
6615 Clouds 25 1007 87 10000 1.79 43 22:18 04.12.2021
6616 Clouds 24 1006 89 10000 2.11 42 21:18 04.12.2021
6617 Clouds 24 1006 88 10000 2.04 42 20:27 04.12.2021
6618 Clouds 24 1006 88 10000 2.04 42 19:32 04.12.2021
6619 Clouds 25 1005 88 10000 1.6 99 18:21 04.12.2021
6620 Clouds 25 1005 88 10000 1.6 99 17:40 04.12.2021
6621 Clouds 25 1005 88 10000 1.57 85 16:52 04.12.2021
6622 Clouds 25 1005 88 10000 1.57 85 16:31 04.12.2021
6623 Clouds 25 1005 86 10000 1.86 97 15:57 04.12.2021
6624 Clouds 26 1007 84 10000 1.86 108 11:54 04.12.2021
6625 Clouds 26 1007 84 10000 1.86 108 11:32 04.12.2021
6626 Clouds 27 1006 83 10000 1.54 0 10:56 04.12.2021
6627 Clouds 29 1004 79 10000 7.72 150 08:49 04.12.2021
6628 Clouds 28 1005 77 10000 2.2 178 06:42 04.12.2021
6629 Rain 30 1006 79 10000 7.72 190 04:42 04.12.2021
6630 Haze 29 1009 79 10000 3.6 350 00:35 04.12.2021
6631 Haze 27 1008 89 10000 2.57 320 23:27 03.12.2021
6632 Fog 25 1009 100 1000 2.57 320 22:47 03.12.2021
6633 Clouds 25 1007 94 10000 2.06 0 21:26 03.12.2021
6634 Clouds 25 1007 100 10000 2.06 0 20:54 03.12.2021
6635 Clouds 25 1006 100 10000 2.06 0 19:53 03.12.2021